<?xml version="1.0" encoding="UTF-8" standalone="no" ?>
<gpx xmlns="http://www.topografix.com/GPX/1/1" xmlns:xsi="http://www.w3.org/2001/XMLSchema-instance" xsi:schemaLocation="http://www.topografix.com/GPX/1/1 http://www.topografix.com/GPX/1/1/gpx.xsd" version="1.1" creator="VisuGPX - https://www.visugpx.com">
  <metadata>
    <name>[17/09/2017] TransLovérienne</name>
    <desc><![CDATA[Translovérienne 2017 organisée par l'UVL.
Grand parcours : 60 km]]></desc>
  </metadata>
  <trk>
    <name><![CDATA[[17/09/2017] TransLovérienne_1]]></name>
    <trkseg>
      <trkpt lat="49.21035" lon="1.17286">
        <ele>141.87587</ele>
        <time>2017-09-17T05:53:17Z</time>
      </trkpt>
      <trkpt lat="49.21035" lon="1.17283">
        <ele>141.87587</ele>
        <time>2017-09-17T05:53:18Z</time>
      </trkpt>
      <trkpt lat="49.21033" lon="1.17266">
        <ele>141.962158</ele>
        <time>2017-09-17T05:53:23Z</time>
      </trkpt>
      <trkpt lat="49.21029" lon="1.17252">
        <ele>141.937561</ele>
        <time>2017-09-17T05:53:27Z</time>
      </trkpt>
      <trkpt lat="49.21023" lon="1.17238">
        <ele>141.688675</ele>
        <time>2017-09-17T05:53:31Z</time>
      </trkpt>
      <trkpt lat="49.21019" lon="1.17224">
        <ele>141.997787</ele>
        <time>2017-09-17T05:53:35Z</time>
      </trkpt>
      <trkpt lat="49.21014" lon="1.17213">
        <ele>142.067047</ele>
        <time>2017-09-17T05:53:39Z</time>
      </trkpt>
      <trkpt lat="49.21011" lon="1.17197">
        <ele>142.317917</ele>
        <time>2017-09-17T05:53:44Z</time>
      </trkpt>
      <trkpt lat="49.21013" lon="1.17183">
        <ele>142.341629</ele>
        <time>2017-09-17T05:53:48Z</time>
      </trkpt>
      <trkpt lat="49.21021" lon="1.17174">
        <ele>142.431656</ele>
        <time>2017-09-17T05:53:50Z</time>
      </trkpt>
      <trkpt lat="49.21021" lon="1.17158">
        <ele>142.575439</ele>
        <time>2017-09-17T05:53:54Z</time>
      </trkpt>
      <trkpt lat="49.21019" lon="1.17142">
        <ele>142.852707</ele>
        <time>2017-09-17T05:53:58Z</time>
      </trkpt>
      <trkpt lat="49.21017" lon="1.17125">
        <ele>142.980576</ele>
        <time>2017-09-17T05:54:02Z</time>
      </trkpt>
      <trkpt lat="49.21016" lon="1.17111">
        <ele>143.1</ele>
        <time>2017-09-17T05:54:06Z</time>
      </trkpt>
      <trkpt lat="49.21016" lon="1.17097">
        <ele>143.2</ele>
        <time>2017-09-17T05:54:10Z</time>
      </trkpt>
      <trkpt lat="49.21024" lon="1.17084">
        <ele>143.4</ele>
        <time>2017-09-17T05:54:14Z</time>
      </trkpt>
      <trkpt lat="49.21026" lon="1.17067">
        <ele>143.6</ele>
        <time>2017-09-17T05:54:18Z</time>
      </trkpt>
      <trkpt lat="49.21023" lon="1.17054">
        <ele>143.6</ele>
        <time>2017-09-17T05:54:21Z</time>
      </trkpt>
      <trkpt lat="49.21021" lon="1.1704">
        <ele>143.9</ele>
        <time>2017-09-17T05:54:25Z</time>
      </trkpt>
      <trkpt lat="49.21019" lon="1.17023">
        <ele>144.3</ele>
        <time>2017-09-17T05:54:29Z</time>
      </trkpt>
      <trkpt lat="49.21018" lon="1.17006">
        <ele>144.7</ele>
        <time>2017-09-17T05:54:33Z</time>
      </trkpt>
      <trkpt lat="49.21018" lon="1.16991">
        <ele>145</ele>
        <time>2017-09-17T05:54:36Z</time>
      </trkpt>
      <trkpt lat="49.21017" lon="1.16977">
        <ele>145.3</ele>
        <time>2017-09-17T05:54:39Z</time>
      </trkpt>
      <trkpt lat="49.21015" lon="1.16962">
        <ele>145.4</ele>
        <time>2017-09-17T05:54:42Z</time>
      </trkpt>
      <trkpt lat="49.21014" lon="1.16948">
        <ele>145.8</ele>
        <time>2017-09-17T05:54:45Z</time>
      </trkpt>
      <trkpt lat="49.21014" lon="1.16934">
        <ele>146.1</ele>
        <time>2017-09-17T05:54:48Z</time>
      </trkpt>
      <trkpt lat="49.21014" lon="1.16919">
        <ele>146.5</ele>
        <time>2017-09-17T05:54:51Z</time>
      </trkpt>
      <trkpt lat="49.21013" lon="1.16904">
        <ele>146.9</ele>
        <time>2017-09-17T05:54:54Z</time>
      </trkpt>
      <trkpt lat="49.21012" lon="1.16889">
        <ele>147.1</ele>
        <time>2017-09-17T05:54:57Z</time>
      </trkpt>
      <trkpt lat="49.21012" lon="1.16873">
        <ele>147.3</ele>
        <time>2017-09-17T05:55:00Z</time>
      </trkpt>
      <trkpt lat="49.21013" lon="1.16857">
        <ele>147.7</ele>
        <time>2017-09-17T05:55:03Z</time>
      </trkpt>
      <trkpt lat="49.21012" lon="1.1684">
        <ele>147.9</ele>
        <time>2017-09-17T05:55:06Z</time>
      </trkpt>
      <trkpt lat="49.21009" lon="1.16824">
        <ele>148.1</ele>
        <time>2017-09-17T05:55:09Z</time>
      </trkpt>
      <trkpt lat="49.21008" lon="1.16808">
        <ele>148.2</ele>
        <time>2017-09-17T05:55:12Z</time>
      </trkpt>
      <trkpt lat="49.21008" lon="1.16792">
        <ele>148.4</ele>
        <time>2017-09-17T05:55:15Z</time>
      </trkpt>
      <trkpt lat="49.21008" lon="1.16774">
        <ele>148.7</ele>
        <time>2017-09-17T05:55:18Z</time>
      </trkpt>
      <trkpt lat="49.21008" lon="1.16757">
        <ele>148.8</ele>
        <time>2017-09-17T05:55:21Z</time>
      </trkpt>
      <trkpt lat="49.21007" lon="1.16738">
        <ele>148.8</ele>
        <time>2017-09-17T05:55:24Z</time>
      </trkpt>
      <trkpt lat="49.21007" lon="1.16717">
        <ele>148.7</ele>
        <time>2017-09-17T05:55:27Z</time>
      </trkpt>
      <trkpt lat="49.21006" lon="1.16703">
        <ele>148.6</ele>
        <time>2017-09-17T05:55:29Z</time>
      </trkpt>
      <trkpt lat="49.21005" lon="1.16689">
        <ele>148.6</ele>
        <time>2017-09-17T05:55:31Z</time>
      </trkpt>
      <trkpt lat="49.21005" lon="1.16674">
        <ele>148.5</ele>
        <time>2017-09-17T05:55:33Z</time>
      </trkpt>
      <trkpt lat="49.21005" lon="1.1666">
        <ele>148.5</ele>
        <time>2017-09-17T05:55:35Z</time>
      </trkpt>
      <trkpt lat="49.21004" lon="1.16644">
        <ele>148.3</ele>
        <time>2017-09-17T05:55:37Z</time>
      </trkpt>
      <trkpt lat="49.21006" lon="1.16629">
        <ele>148.2</ele>
        <time>2017-09-17T05:55:39Z</time>
      </trkpt>
      <trkpt lat="49.21008" lon="1.16616">
        <ele>148.2</ele>
        <time>2017-09-17T05:55:41Z</time>
      </trkpt>
      <trkpt lat="49.21011" lon="1.16602">
        <ele>148.1</ele>
        <time>2017-09-17T05:55:43Z</time>
      </trkpt>
      <trkpt lat="49.21017" lon="1.1659">
        <ele>147.9</ele>
        <time>2017-09-17T05:55:45Z</time>
      </trkpt>
      <trkpt lat="49.21024" lon="1.16581">
        <ele>147.9</ele>
        <time>2017-09-17T05:55:47Z</time>
      </trkpt>
      <trkpt lat="49.21032" lon="1.16575">
        <ele>147.6</ele>
        <time>2017-09-17T05:55:49Z</time>
      </trkpt>
      <trkpt lat="49.21039" lon="1.1656">
        <ele>147.3</ele>
        <time>2017-09-17T05:55:52Z</time>
      </trkpt>
      <trkpt lat="49.21035" lon="1.16544">
        <ele>147.3</ele>
        <time>2017-09-17T05:55:55Z</time>
      </trkpt>
      <trkpt lat="49.21032" lon="1.16527">
        <ele>147.5</ele>
        <time>2017-09-17T05:55:58Z</time>
      </trkpt>
      <trkpt lat="49.21029" lon="1.16509">
        <ele>147.5</ele>
        <time>2017-09-17T05:56:01Z</time>
      </trkpt>
      <trkpt lat="49.21025" lon="1.1649">
        <ele>147.7</ele>
        <time>2017-09-17T05:56:04Z</time>
      </trkpt>
      <trkpt lat="49.21021" lon="1.16473">
        <ele>147.7</ele>
        <time>2017-09-17T05:56:07Z</time>
      </trkpt>
      <trkpt lat="49.21019" lon="1.16458">
        <ele>147.9</ele>
        <time>2017-09-17T05:56:10Z</time>
      </trkpt>
      <trkpt lat="49.21015" lon="1.16444">
        <ele>148.1</ele>
        <time>2017-09-17T05:56:13Z</time>
      </trkpt>
      <trkpt lat="49.21011" lon="1.16429">
        <ele>148</ele>
        <time>2017-09-17T05:56:16Z</time>
      </trkpt>
      <trkpt lat="49.21007" lon="1.16414">
        <ele>148</ele>
        <time>2017-09-17T05:56:19Z</time>
      </trkpt>
      <trkpt lat="49.21003" lon="1.16398">
        <ele>148.1</ele>
        <time>2017-09-17T05:56:22Z</time>
      </trkpt>
      <trkpt lat="49.20997" lon="1.16382">
        <ele>148.2</ele>
        <time>2017-09-17T05:56:25Z</time>
      </trkpt>
      <trkpt lat="49.20992" lon="1.16364">
        <ele>148.2</ele>
        <time>2017-09-17T05:56:28Z</time>
      </trkpt>
      <trkpt lat="49.20987" lon="1.16346">
        <ele>148.3</ele>
        <time>2017-09-17T05:56:31Z</time>
      </trkpt>
      <trkpt lat="49.20982" lon="1.16328">
        <ele>148.1</ele>
        <time>2017-09-17T05:56:34Z</time>
      </trkpt>
      <trkpt lat="49.20977" lon="1.1631">
        <ele>147.9</ele>
        <time>2017-09-17T05:56:37Z</time>
      </trkpt>
      <trkpt lat="49.20973" lon="1.16291">
        <ele>147.8</ele>
        <time>2017-09-17T05:56:40Z</time>
      </trkpt>
      <trkpt lat="49.2097" lon="1.16272">
        <ele>147.9</ele>
        <time>2017-09-17T05:56:43Z</time>
      </trkpt>
      <trkpt lat="49.20968" lon="1.16252">
        <ele>148</ele>
        <time>2017-09-17T05:56:46Z</time>
      </trkpt>
      <trkpt lat="49.20966" lon="1.16232">
        <ele>148</ele>
        <time>2017-09-17T05:56:49Z</time>
      </trkpt>
      <trkpt lat="49.20964" lon="1.16213">
        <ele>148.1</ele>
        <time>2017-09-17T05:56:52Z</time>
      </trkpt>
      <trkpt lat="49.20961" lon="1.16194">
        <ele>148.2</ele>
        <time>2017-09-17T05:56:55Z</time>
      </trkpt>
      <trkpt lat="49.20958" lon="1.16174">
        <ele>148.4</ele>
        <time>2017-09-17T05:56:58Z</time>
      </trkpt>
      <trkpt lat="49.20955" lon="1.16154">
        <ele>148.5</ele>
        <time>2017-09-17T05:57:01Z</time>
      </trkpt>
      <trkpt lat="49.20953" lon="1.16135">
        <ele>148.7</ele>
        <time>2017-09-17T05:57:04Z</time>
      </trkpt>
      <trkpt lat="49.2095" lon="1.16116">
        <ele>148.8</ele>
        <time>2017-09-17T05:57:07Z</time>
      </trkpt>
      <trkpt lat="49.20947" lon="1.16097">
        <ele>148.9</ele>
        <time>2017-09-17T05:57:10Z</time>
      </trkpt>
      <trkpt lat="49.20944" lon="1.16079">
        <ele>148.8</ele>
        <time>2017-09-17T05:57:13Z</time>
      </trkpt>
      <trkpt lat="49.20945" lon="1.1606">
        <ele>148.9</ele>
        <time>2017-09-17T05:57:16Z</time>
      </trkpt>
      <trkpt lat="49.20939" lon="1.16048">
        <ele>149</ele>
        <time>2017-09-17T05:57:18Z</time>
      </trkpt>
      <trkpt lat="49.20934" lon="1.16036">
        <ele>149.1</ele>
        <time>2017-09-17T05:57:20Z</time>
      </trkpt>
      <trkpt lat="49.20929" lon="1.16024">
        <ele>149.3</ele>
        <time>2017-09-17T05:57:22Z</time>
      </trkpt>
      <trkpt lat="49.20929" lon="1.16004">
        <ele>149.4</ele>
        <time>2017-09-17T05:57:25Z</time>
      </trkpt>
      <trkpt lat="49.20927" lon="1.15985">
        <ele>149.5</ele>
        <time>2017-09-17T05:57:28Z</time>
      </trkpt>
      <trkpt lat="49.20928" lon="1.1597">
        <ele>149.7</ele>
        <time>2017-09-17T05:57:30Z</time>
      </trkpt>
      <trkpt lat="49.20927" lon="1.15949">
        <ele>149.9</ele>
        <time>2017-09-17T05:57:33Z</time>
      </trkpt>
      <trkpt lat="49.20924" lon="1.1593">
        <ele>150</ele>
        <time>2017-09-17T05:57:36Z</time>
      </trkpt>
      <trkpt lat="49.2092" lon="1.15917">
        <ele>150.2</ele>
        <time>2017-09-17T05:57:38Z</time>
      </trkpt>
      <trkpt lat="49.20918" lon="1.15897">
        <ele>150.4</ele>
        <time>2017-09-17T05:57:41Z</time>
      </trkpt>
      <trkpt lat="49.20914" lon="1.15878">
        <ele>150.7</ele>
        <time>2017-09-17T05:57:44Z</time>
      </trkpt>
      <trkpt lat="49.20911" lon="1.15865">
        <ele>150.8</ele>
        <time>2017-09-17T05:57:46Z</time>
      </trkpt>
      <trkpt lat="49.20906" lon="1.15852">
        <ele>150.8</ele>
        <time>2017-09-17T05:57:48Z</time>
      </trkpt>
      <trkpt lat="49.20904" lon="1.15833">
        <ele>150.8</ele>
        <time>2017-09-17T05:57:51Z</time>
      </trkpt>
      <trkpt lat="49.20901" lon="1.15814">
        <ele>151.1</ele>
        <time>2017-09-17T05:57:54Z</time>
      </trkpt>
      <trkpt lat="49.20901" lon="1.15795">
        <ele>151.3</ele>
        <time>2017-09-17T05:57:57Z</time>
      </trkpt>
      <trkpt lat="49.20903" lon="1.15775">
        <ele>151.4</ele>
        <time>2017-09-17T05:58:00Z</time>
      </trkpt>
      <trkpt lat="49.20903" lon="1.15756">
        <ele>151.6</ele>
        <time>2017-09-17T05:58:03Z</time>
      </trkpt>
      <trkpt lat="49.209" lon="1.15737">
        <ele>151.8</ele>
        <time>2017-09-17T05:58:06Z</time>
      </trkpt>
      <trkpt lat="49.20894" lon="1.15719">
        <ele>152.1</ele>
        <time>2017-09-17T05:58:09Z</time>
      </trkpt>
      <trkpt lat="49.2089" lon="1.15706">
        <ele>152.1</ele>
        <time>2017-09-17T05:58:11Z</time>
      </trkpt>
      <trkpt lat="49.20887" lon="1.15693">
        <ele>152.2</ele>
        <time>2017-09-17T05:58:13Z</time>
      </trkpt>
      <trkpt lat="49.20883" lon="1.1568">
        <ele>152.2</ele>
        <time>2017-09-17T05:58:15Z</time>
      </trkpt>
      <trkpt lat="49.20879" lon="1.15667">
        <ele>152.3</ele>
        <time>2017-09-17T05:58:17Z</time>
      </trkpt>
      <trkpt lat="49.20875" lon="1.15654">
        <ele>152.5</ele>
        <time>2017-09-17T05:58:19Z</time>
      </trkpt>
      <trkpt lat="49.2087" lon="1.15635">
        <ele>152.6</ele>
        <time>2017-09-17T05:58:22Z</time>
      </trkpt>
      <trkpt lat="49.20864" lon="1.15617">
        <ele>152.9</ele>
        <time>2017-09-17T05:58:25Z</time>
      </trkpt>
      <trkpt lat="49.20859" lon="1.15598">
        <ele>153.3</ele>
        <time>2017-09-17T05:58:28Z</time>
      </trkpt>
      <trkpt lat="49.20856" lon="1.15585">
        <ele>153.4</ele>
        <time>2017-09-17T05:58:30Z</time>
      </trkpt>
      <trkpt lat="49.20851" lon="1.15567">
        <ele>153.5</ele>
        <time>2017-09-17T05:58:33Z</time>
      </trkpt>
      <trkpt lat="49.20846" lon="1.15548">
        <ele>153.6</ele>
        <time>2017-09-17T05:58:36Z</time>
      </trkpt>
      <trkpt lat="49.20843" lon="1.1553">
        <ele>153.7</ele>
        <time>2017-09-17T05:58:39Z</time>
      </trkpt>
      <trkpt lat="49.20842" lon="1.15513">
        <ele>153.9</ele>
        <time>2017-09-17T05:58:42Z</time>
      </trkpt>
      <trkpt lat="49.20846" lon="1.15499">
        <ele>154</ele>
        <time>2017-09-17T05:58:45Z</time>
      </trkpt>
      <trkpt lat="49.20843" lon="1.15482">
        <ele>154.4</ele>
        <time>2017-09-17T05:58:48Z</time>
      </trkpt>
      <trkpt lat="49.2084" lon="1.15464">
        <ele>154.7</ele>
        <time>2017-09-17T05:58:51Z</time>
      </trkpt>
      <trkpt lat="49.20836" lon="1.15447">
        <ele>155</ele>
        <time>2017-09-17T05:58:54Z</time>
      </trkpt>
      <trkpt lat="49.20833" lon="1.15429">
        <ele>155.3</ele>
        <time>2017-09-17T05:58:57Z</time>
      </trkpt>
      <trkpt lat="49.2083" lon="1.15411">
        <ele>155.6</ele>
        <time>2017-09-17T05:59:00Z</time>
      </trkpt>
      <trkpt lat="49.20827" lon="1.15393">
        <ele>155.7</ele>
        <time>2017-09-17T05:59:03Z</time>
      </trkpt>
      <trkpt lat="49.20823" lon="1.15374">
        <ele>155.9</ele>
        <time>2017-09-17T05:59:06Z</time>
      </trkpt>
      <trkpt lat="49.20821" lon="1.15356">
        <ele>156.2</ele>
        <time>2017-09-17T05:59:09Z</time>
      </trkpt>
      <trkpt lat="49.20817" lon="1.15339">
        <ele>156.6</ele>
        <time>2017-09-17T05:59:12Z</time>
      </trkpt>
      <trkpt lat="49.20813" lon="1.15322">
        <ele>156.9</ele>
        <time>2017-09-17T05:59:15Z</time>
      </trkpt>
      <trkpt lat="49.2081" lon="1.15304">
        <ele>157.1</ele>
        <time>2017-09-17T05:59:18Z</time>
      </trkpt>
      <trkpt lat="49.20807" lon="1.15286">
        <ele>157.4</ele>
        <time>2017-09-17T05:59:21Z</time>
      </trkpt>
      <trkpt lat="49.20802" lon="1.15268">
        <ele>157.7</ele>
        <time>2017-09-17T05:59:24Z</time>
      </trkpt>
      <trkpt lat="49.20799" lon="1.1525">
        <ele>158.1</ele>
        <time>2017-09-17T05:59:27Z</time>
      </trkpt>
      <trkpt lat="49.20795" lon="1.15232">
        <ele>158.4</ele>
        <time>2017-09-17T05:59:30Z</time>
      </trkpt>
      <trkpt lat="49.20793" lon="1.15213">
        <ele>158.8</ele>
        <time>2017-09-17T05:59:33Z</time>
      </trkpt>
      <trkpt lat="49.2079" lon="1.15194">
        <ele>159.2</ele>
        <time>2017-09-17T05:59:36Z</time>
      </trkpt>
      <trkpt lat="49.20786" lon="1.15175">
        <ele>159.5</ele>
        <time>2017-09-17T05:59:39Z</time>
      </trkpt>
      <trkpt lat="49.20783" lon="1.15157">
        <ele>159.7</ele>
        <time>2017-09-17T05:59:42Z</time>
      </trkpt>
      <trkpt lat="49.2078" lon="1.15139">
        <ele>159.9</ele>
        <time>2017-09-17T05:59:45Z</time>
      </trkpt>
      <trkpt lat="49.20777" lon="1.1512">
        <ele>160.1</ele>
        <time>2017-09-17T05:59:48Z</time>
      </trkpt>
      <trkpt lat="49.20773" lon="1.15102">
        <ele>160.3</ele>
        <time>2017-09-17T05:59:51Z</time>
      </trkpt>
      <trkpt lat="49.2077" lon="1.15085">
        <ele>160.8</ele>
        <time>2017-09-17T05:59:54Z</time>
      </trkpt>
      <trkpt lat="49.20767" lon="1.15068">
        <ele>161.2</ele>
        <time>2017-09-17T05:59:57Z</time>
      </trkpt>
      <trkpt lat="49.20763" lon="1.1505">
        <ele>161.4</ele>
        <time>2017-09-17T06:00:00Z</time>
      </trkpt>
      <trkpt lat="49.2076" lon="1.15031">
        <ele>161.6</ele>
        <time>2017-09-17T06:00:03Z</time>
      </trkpt>
      <trkpt lat="49.20757" lon="1.15013">
        <ele>161.8</ele>
        <time>2017-09-17T06:00:06Z</time>
      </trkpt>
      <trkpt lat="49.20754" lon="1.14996">
        <ele>161.9</ele>
        <time>2017-09-17T06:00:09Z</time>
      </trkpt>
      <trkpt lat="49.20752" lon="1.14981">
        <ele>162.1</ele>
        <time>2017-09-17T06:00:12Z</time>
      </trkpt>
      <trkpt lat="49.20761" lon="1.1497">
        <ele>162.2</ele>
        <time>2017-09-17T06:00:16Z</time>
      </trkpt>
      <trkpt lat="49.20769" lon="1.14966">
        <ele>162.7</ele>
        <time>2017-09-17T06:00:19Z</time>
      </trkpt>
      <trkpt lat="49.20781" lon="1.1496">
        <ele>163.2</ele>
        <time>2017-09-17T06:00:23Z</time>
      </trkpt>
      <trkpt lat="49.20789" lon="1.14953">
        <ele>164.1</ele>
        <time>2017-09-17T06:00:26Z</time>
      </trkpt>
      <trkpt lat="49.208" lon="1.14948">
        <ele>165</ele>
        <time>2017-09-17T06:00:30Z</time>
      </trkpt>
      <trkpt lat="49.20812" lon="1.14943">
        <ele>165.9</ele>
        <time>2017-09-17T06:00:34Z</time>
      </trkpt>
      <trkpt lat="49.20823" lon="1.14939">
        <ele>166.8</ele>
        <time>2017-09-17T06:00:38Z</time>
      </trkpt>
      <trkpt lat="49.20834" lon="1.14937">
        <ele>167.6</ele>
        <time>2017-09-17T06:00:42Z</time>
      </trkpt>
      <trkpt lat="49.20845" lon="1.14935">
        <ele>168.4</ele>
        <time>2017-09-17T06:00:46Z</time>
      </trkpt>
      <trkpt lat="49.20854" lon="1.14934">
        <ele>169.3</ele>
        <time>2017-09-17T06:00:49Z</time>
      </trkpt>
      <trkpt lat="49.20865" lon="1.14934">
        <ele>170.1</ele>
        <time>2017-09-17T06:00:53Z</time>
      </trkpt>
      <trkpt lat="49.20875" lon="1.14934">
        <ele>170.8</ele>
        <time>2017-09-17T06:00:57Z</time>
      </trkpt>
      <trkpt lat="49.20886" lon="1.14935">
        <ele>171.7</ele>
        <time>2017-09-17T06:01:01Z</time>
      </trkpt>
      <trkpt lat="49.20896" lon="1.14937">
        <ele>172.5</ele>
        <time>2017-09-17T06:01:05Z</time>
      </trkpt>
      <trkpt lat="49.20906" lon="1.1494">
        <ele>173.4</ele>
        <time>2017-09-17T06:01:09Z</time>
      </trkpt>
      <trkpt lat="49.20916" lon="1.14944">
        <ele>174.5</ele>
        <time>2017-09-17T06:01:13Z</time>
      </trkpt>
      <trkpt lat="49.20926" lon="1.14947">
        <ele>175.3</ele>
        <time>2017-09-17T06:01:17Z</time>
      </trkpt>
      <trkpt lat="49.20937" lon="1.1495">
        <ele>175.9</ele>
        <time>2017-09-17T06:01:21Z</time>
      </trkpt>
      <trkpt lat="49.20947" lon="1.1495">
        <ele>176.4</ele>
        <time>2017-09-17T06:01:25Z</time>
      </trkpt>
      <trkpt lat="49.20957" lon="1.14946">
        <ele>177.2</ele>
        <time>2017-09-17T06:01:30Z</time>
      </trkpt>
      <trkpt lat="49.20967" lon="1.14944">
        <ele>178.9</ele>
        <time>2017-09-17T06:01:36Z</time>
      </trkpt>
      <trkpt lat="49.20977" lon="1.14944">
        <ele>181.2</ele>
        <time>2017-09-17T06:01:43Z</time>
      </trkpt>
      <trkpt lat="49.20987" lon="1.14946">
        <ele>183.5</ele>
        <time>2017-09-17T06:01:50Z</time>
      </trkpt>
      <trkpt lat="49.20997" lon="1.14947">
        <ele>185.9</ele>
        <time>2017-09-17T06:01:57Z</time>
      </trkpt>
      <trkpt lat="49.21006" lon="1.1495">
        <ele>188</ele>
        <time>2017-09-17T06:02:04Z</time>
      </trkpt>
      <trkpt lat="49.21013" lon="1.14938">
        <ele>190.1</ele>
        <time>2017-09-17T06:02:12Z</time>
      </trkpt>
      <trkpt lat="49.21016" lon="1.14924">
        <ele>191.3</ele>
        <time>2017-09-17T06:02:18Z</time>
      </trkpt>
      <trkpt lat="49.2102" lon="1.1491">
        <ele>192.5</ele>
        <time>2017-09-17T06:02:24Z</time>
      </trkpt>
      <trkpt lat="49.21025" lon="1.14897">
        <ele>193.4</ele>
        <time>2017-09-17T06:02:30Z</time>
      </trkpt>
      <trkpt lat="49.2103" lon="1.14885">
        <ele>194.7</ele>
        <time>2017-09-17T06:02:36Z</time>
      </trkpt>
      <trkpt lat="49.21033" lon="1.14871">
        <ele>195.6</ele>
        <time>2017-09-17T06:02:42Z</time>
      </trkpt>
      <trkpt lat="49.21036" lon="1.14855">
        <ele>196.7</ele>
        <time>2017-09-17T06:02:48Z</time>
      </trkpt>
      <trkpt lat="49.21042" lon="1.14844">
        <ele>197.5</ele>
        <time>2017-09-17T06:02:53Z</time>
      </trkpt>
      <trkpt lat="49.21048" lon="1.14828">
        <ele>198.6</ele>
        <time>2017-09-17T06:02:59Z</time>
      </trkpt>
      <trkpt lat="49.21054" lon="1.14816">
        <ele>199.4</ele>
        <time>2017-09-17T06:03:04Z</time>
      </trkpt>
      <trkpt lat="49.21059" lon="1.14804">
        <ele>200.2</ele>
        <time>2017-09-17T06:03:09Z</time>
      </trkpt>
      <trkpt lat="49.21066" lon="1.14794">
        <ele>200.9</ele>
        <time>2017-09-17T06:03:13Z</time>
      </trkpt>
      <trkpt lat="49.21071" lon="1.14782">
        <ele>201.8</ele>
        <time>2017-09-17T06:03:18Z</time>
      </trkpt>
      <trkpt lat="49.21077" lon="1.14767">
        <ele>203.1</ele>
        <time>2017-09-17T06:03:25Z</time>
      </trkpt>
      <trkpt lat="49.21086" lon="1.14757">
        <ele>204.1</ele>
        <time>2017-09-17T06:03:29Z</time>
      </trkpt>
      <trkpt lat="49.21094" lon="1.14746">
        <ele>205</ele>
        <time>2017-09-17T06:03:33Z</time>
      </trkpt>
      <trkpt lat="49.211" lon="1.14732">
        <ele>205.7</ele>
        <time>2017-09-17T06:03:37Z</time>
      </trkpt>
      <trkpt lat="49.21105" lon="1.14717">
        <ele>206.6</ele>
        <time>2017-09-17T06:03:42Z</time>
      </trkpt>
      <trkpt lat="49.2111" lon="1.14706">
        <ele>207.3</ele>
        <time>2017-09-17T06:03:46Z</time>
      </trkpt>
      <trkpt lat="49.21113" lon="1.14692">
        <ele>208.1</ele>
        <time>2017-09-17T06:03:51Z</time>
      </trkpt>
      <trkpt lat="49.21114" lon="1.14676">
        <ele>209.1</ele>
        <time>2017-09-17T06:03:56Z</time>
      </trkpt>
      <trkpt lat="49.21119" lon="1.14664">
        <ele>209.9</ele>
        <time>2017-09-17T06:04:01Z</time>
      </trkpt>
      <trkpt lat="49.21122" lon="1.1465">
        <ele>210.8</ele>
        <time>2017-09-17T06:04:06Z</time>
      </trkpt>
      <trkpt lat="49.21123" lon="1.14635">
        <ele>212</ele>
        <time>2017-09-17T06:04:12Z</time>
      </trkpt>
      <trkpt lat="49.21128" lon="1.14621">
        <ele>213</ele>
        <time>2017-09-17T06:04:17Z</time>
      </trkpt>
      <trkpt lat="49.21132" lon="1.14606">
        <ele>213.8</ele>
        <time>2017-09-17T06:04:22Z</time>
      </trkpt>
      <trkpt lat="49.21136" lon="1.14592">
        <ele>214.7</ele>
        <time>2017-09-17T06:04:27Z</time>
      </trkpt>
      <trkpt lat="49.21142" lon="1.14579">
        <ele>215.8</ele>
        <time>2017-09-17T06:04:31Z</time>
      </trkpt>
      <trkpt lat="49.21146" lon="1.14565">
        <ele>216.6</ele>
        <time>2017-09-17T06:04:35Z</time>
      </trkpt>
      <trkpt lat="49.2115" lon="1.1455">
        <ele>217.4</ele>
        <time>2017-09-17T06:04:40Z</time>
      </trkpt>
      <trkpt lat="49.21151" lon="1.14534">
        <ele>218.2</ele>
        <time>2017-09-17T06:04:45Z</time>
      </trkpt>
      <trkpt lat="49.21155" lon="1.1452">
        <ele>219</ele>
        <time>2017-09-17T06:04:49Z</time>
      </trkpt>
      <trkpt lat="49.21158" lon="1.14505">
        <ele>219.9</ele>
        <time>2017-09-17T06:04:54Z</time>
      </trkpt>
      <trkpt lat="49.21162" lon="1.14487">
        <ele>220.8</ele>
        <time>2017-09-17T06:04:59Z</time>
      </trkpt>
      <trkpt lat="49.21166" lon="1.14472">
        <ele>221.8</ele>
        <time>2017-09-17T06:05:04Z</time>
      </trkpt>
      <trkpt lat="49.21165" lon="1.14456">
        <ele>222.7</ele>
        <time>2017-09-17T06:05:09Z</time>
      </trkpt>
      <trkpt lat="49.21167" lon="1.14441">
        <ele>223.4</ele>
        <time>2017-09-17T06:05:14Z</time>
      </trkpt>
      <trkpt lat="49.21166" lon="1.14427">
        <ele>224.2</ele>
        <time>2017-09-17T06:05:18Z</time>
      </trkpt>
      <trkpt lat="49.21162" lon="1.14411">
        <ele>225.6</ele>
        <time>2017-09-17T06:05:23Z</time>
      </trkpt>
      <trkpt lat="49.21161" lon="1.14395">
        <ele>226.5</ele>
        <time>2017-09-17T06:05:28Z</time>
      </trkpt>
      <trkpt lat="49.21159" lon="1.14378">
        <ele>227.4</ele>
        <time>2017-09-17T06:05:33Z</time>
      </trkpt>
      <trkpt lat="49.21159" lon="1.1436">
        <ele>228.3</ele>
        <time>2017-09-17T06:05:38Z</time>
      </trkpt>
      <trkpt lat="49.21157" lon="1.14345">
        <ele>229.2</ele>
        <time>2017-09-17T06:05:43Z</time>
      </trkpt>
      <trkpt lat="49.21156" lon="1.14328">
        <ele>230.1</ele>
        <time>2017-09-17T06:05:48Z</time>
      </trkpt>
      <trkpt lat="49.21157" lon="1.14313">
        <ele>230.7</ele>
        <time>2017-09-17T06:05:51Z</time>
      </trkpt>
      <trkpt lat="49.21159" lon="1.14297">
        <ele>231.4</ele>
        <time>2017-09-17T06:05:55Z</time>
      </trkpt>
      <trkpt lat="49.21161" lon="1.14279">
        <ele>232.1</ele>
        <time>2017-09-17T06:05:59Z</time>
      </trkpt>
      <trkpt lat="49.21162" lon="1.14262">
        <ele>233</ele>
        <time>2017-09-17T06:06:03Z</time>
      </trkpt>
      <trkpt lat="49.21163" lon="1.14248">
        <ele>233.9</ele>
        <time>2017-09-17T06:06:08Z</time>
      </trkpt>
      <trkpt lat="49.21165" lon="1.14232">
        <ele>234.5</ele>
        <time>2017-09-17T06:06:12Z</time>
      </trkpt>
      <trkpt lat="49.21165" lon="1.14216">
        <ele>235.3</ele>
        <time>2017-09-17T06:06:16Z</time>
      </trkpt>
      <trkpt lat="49.2117" lon="1.14204">
        <ele>236.8</ele>
        <time>2017-09-17T06:06:21Z</time>
      </trkpt>
      <trkpt lat="49.21179" lon="1.14207">
        <ele>237.4</ele>
        <time>2017-09-17T06:06:25Z</time>
      </trkpt>
      <trkpt lat="49.21189" lon="1.14208">
        <ele>237.9</ele>
        <time>2017-09-17T06:06:29Z</time>
      </trkpt>
      <trkpt lat="49.21198" lon="1.14211">
        <ele>238.6</ele>
        <time>2017-09-17T06:06:33Z</time>
      </trkpt>
      <trkpt lat="49.21209" lon="1.14214">
        <ele>239.7</ele>
        <time>2017-09-17T06:06:37Z</time>
      </trkpt>
      <trkpt lat="49.2122" lon="1.14217">
        <ele>240.5</ele>
        <time>2017-09-17T06:06:41Z</time>
      </trkpt>
      <trkpt lat="49.21231" lon="1.14219">
        <ele>241.2</ele>
        <time>2017-09-17T06:06:45Z</time>
      </trkpt>
      <trkpt lat="49.21243" lon="1.14222">
        <ele>241.8</ele>
        <time>2017-09-17T06:06:49Z</time>
      </trkpt>
      <trkpt lat="49.21252" lon="1.14224">
        <ele>242.4</ele>
        <time>2017-09-17T06:06:52Z</time>
      </trkpt>
      <trkpt lat="49.21262" lon="1.14227">
        <ele>242.9</ele>
        <time>2017-09-17T06:06:55Z</time>
      </trkpt>
      <trkpt lat="49.21272" lon="1.1423">
        <ele>243.3</ele>
        <time>2017-09-17T06:06:58Z</time>
      </trkpt>
      <trkpt lat="49.21282" lon="1.14233">
        <ele>243.6</ele>
        <time>2017-09-17T06:07:01Z</time>
      </trkpt>
      <trkpt lat="49.21292" lon="1.14236">
        <ele>244</ele>
        <time>2017-09-17T06:07:04Z</time>
      </trkpt>
      <trkpt lat="49.21302" lon="1.14239">
        <ele>244.4</ele>
        <time>2017-09-17T06:07:07Z</time>
      </trkpt>
      <trkpt lat="49.21313" lon="1.14242">
        <ele>244.5</ele>
        <time>2017-09-17T06:07:10Z</time>
      </trkpt>
      <trkpt lat="49.21323" lon="1.14246">
        <ele>244.6</ele>
        <time>2017-09-17T06:07:13Z</time>
      </trkpt>
      <trkpt lat="49.21335" lon="1.14249">
        <ele>244.7</ele>
        <time>2017-09-17T06:07:16Z</time>
      </trkpt>
      <trkpt lat="49.21346" lon="1.14252">
        <ele>244.7</ele>
        <time>2017-09-17T06:07:19Z</time>
      </trkpt>
      <trkpt lat="49.21355" lon="1.14256">
        <ele>245</ele>
        <time>2017-09-17T06:07:22Z</time>
      </trkpt>
      <trkpt lat="49.21366" lon="1.14261">
        <ele>245.3</ele>
        <time>2017-09-17T06:07:25Z</time>
      </trkpt>
      <trkpt lat="49.21379" lon="1.14264">
        <ele>245.4</ele>
        <time>2017-09-17T06:07:28Z</time>
      </trkpt>
      <trkpt lat="49.21388" lon="1.14267">
        <ele>245.5</ele>
        <time>2017-09-17T06:07:30Z</time>
      </trkpt>
      <trkpt lat="49.21401" lon="1.14272">
        <ele>245.6</ele>
        <time>2017-09-17T06:07:33Z</time>
      </trkpt>
      <trkpt lat="49.2141" lon="1.14275">
        <ele>245.5</ele>
        <time>2017-09-17T06:07:35Z</time>
      </trkpt>
      <trkpt lat="49.21419" lon="1.14277">
        <ele>245.6</ele>
        <time>2017-09-17T06:07:37Z</time>
      </trkpt>
      <trkpt lat="49.21429" lon="1.14276">
        <ele>245.6</ele>
        <time>2017-09-17T06:07:39Z</time>
      </trkpt>
      <trkpt lat="49.21438" lon="1.14273">
        <ele>245.6</ele>
        <time>2017-09-17T06:07:41Z</time>
      </trkpt>
      <trkpt lat="49.21447" lon="1.14267">
        <ele>245.5</ele>
        <time>2017-09-17T06:07:43Z</time>
      </trkpt>
      <trkpt lat="49.21455" lon="1.14257">
        <ele>245.5</ele>
        <time>2017-09-17T06:07:45Z</time>
      </trkpt>
      <trkpt lat="49.21461" lon="1.14245">
        <ele>245.6</ele>
        <time>2017-09-17T06:07:47Z</time>
      </trkpt>
      <trkpt lat="49.21466" lon="1.14232">
        <ele>245.7</ele>
        <time>2017-09-17T06:07:49Z</time>
      </trkpt>
      <trkpt lat="49.21471" lon="1.14218">
        <ele>245.7</ele>
        <time>2017-09-17T06:07:51Z</time>
      </trkpt>
      <trkpt lat="49.21476" lon="1.14205">
        <ele>245.7</ele>
        <time>2017-09-17T06:07:53Z</time>
      </trkpt>
      <trkpt lat="49.21481" lon="1.14191">
        <ele>245.7</ele>
        <time>2017-09-17T06:07:55Z</time>
      </trkpt>
      <trkpt lat="49.21486" lon="1.14178">
        <ele>245.8</ele>
        <time>2017-09-17T06:07:57Z</time>
      </trkpt>
      <trkpt lat="49.21491" lon="1.14165">
        <ele>245.8</ele>
        <time>2017-09-17T06:07:59Z</time>
      </trkpt>
      <trkpt lat="49.21497" lon="1.14151">
        <ele>245.9</ele>
        <time>2017-09-17T06:08:01Z</time>
      </trkpt>
      <trkpt lat="49.21502" lon="1.14138">
        <ele>245.9</ele>
        <time>2017-09-17T06:08:03Z</time>
      </trkpt>
      <trkpt lat="49.21507" lon="1.14124">
        <ele>246</ele>
        <time>2017-09-17T06:08:05Z</time>
      </trkpt>
      <trkpt lat="49.21512" lon="1.14111">
        <ele>245.9</ele>
        <time>2017-09-17T06:08:07Z</time>
      </trkpt>
      <trkpt lat="49.21518" lon="1.14097">
        <ele>245.9</ele>
        <time>2017-09-17T06:08:09Z</time>
      </trkpt>
      <trkpt lat="49.21522" lon="1.14085">
        <ele>245.9</ele>
        <time>2017-09-17T06:08:11Z</time>
      </trkpt>
      <trkpt lat="49.21528" lon="1.14072">
        <ele>246</ele>
        <time>2017-09-17T06:08:13Z</time>
      </trkpt>
      <trkpt lat="49.21533" lon="1.14058">
        <ele>246.2</ele>
        <time>2017-09-17T06:08:15Z</time>
      </trkpt>
      <trkpt lat="49.21538" lon="1.14044">
        <ele>246.3</ele>
        <time>2017-09-17T06:08:17Z</time>
      </trkpt>
      <trkpt lat="49.21543" lon="1.1403">
        <ele>246.4</ele>
        <time>2017-09-17T06:08:19Z</time>
      </trkpt>
      <trkpt lat="49.21548" lon="1.14015">
        <ele>246.4</ele>
        <time>2017-09-17T06:08:21Z</time>
      </trkpt>
      <trkpt lat="49.21554" lon="1.14001">
        <ele>246.3</ele>
        <time>2017-09-17T06:08:23Z</time>
      </trkpt>
      <trkpt lat="49.21559" lon="1.13986">
        <ele>246.3</ele>
        <time>2017-09-17T06:08:25Z</time>
      </trkpt>
      <trkpt lat="49.21565" lon="1.13972">
        <ele>246.3</ele>
        <time>2017-09-17T06:08:27Z</time>
      </trkpt>
      <trkpt lat="49.2157" lon="1.13957">
        <ele>246.2</ele>
        <time>2017-09-17T06:08:29Z</time>
      </trkpt>
      <trkpt lat="49.21576" lon="1.13942">
        <ele>246.1</ele>
        <time>2017-09-17T06:08:31Z</time>
      </trkpt>
      <trkpt lat="49.21582" lon="1.13927">
        <ele>245.9</ele>
        <time>2017-09-17T06:08:33Z</time>
      </trkpt>
      <trkpt lat="49.21588" lon="1.13912">
        <ele>245.8</ele>
        <time>2017-09-17T06:08:35Z</time>
      </trkpt>
      <trkpt lat="49.21594" lon="1.13896">
        <ele>245.7</ele>
        <time>2017-09-17T06:08:37Z</time>
      </trkpt>
      <trkpt lat="49.216" lon="1.13882">
        <ele>245.7</ele>
        <time>2017-09-17T06:08:39Z</time>
      </trkpt>
      <trkpt lat="49.21608" lon="1.13865">
        <ele>245.5</ele>
        <time>2017-09-17T06:08:41Z</time>
      </trkpt>
      <trkpt lat="49.21615" lon="1.1385">
        <ele>245.3</ele>
        <time>2017-09-17T06:08:43Z</time>
      </trkpt>
      <trkpt lat="49.21623" lon="1.13833">
        <ele>245</ele>
        <time>2017-09-17T06:08:45Z</time>
      </trkpt>
      <trkpt lat="49.21631" lon="1.13817">
        <ele>244.6</ele>
        <time>2017-09-17T06:08:47Z</time>
      </trkpt>
      <trkpt lat="49.2164" lon="1.13801">
        <ele>244.2</ele>
        <time>2017-09-17T06:08:49Z</time>
      </trkpt>
      <trkpt lat="49.21649" lon="1.13787">
        <ele>244</ele>
        <time>2017-09-17T06:08:51Z</time>
      </trkpt>
      <trkpt lat="49.21658" lon="1.13772">
        <ele>243.7</ele>
        <time>2017-09-17T06:08:53Z</time>
      </trkpt>
      <trkpt lat="49.21668" lon="1.13757">
        <ele>243.4</ele>
        <time>2017-09-17T06:08:55Z</time>
      </trkpt>
      <trkpt lat="49.21678" lon="1.13743">
        <ele>243</ele>
        <time>2017-09-17T06:08:57Z</time>
      </trkpt>
      <trkpt lat="49.21688" lon="1.13729">
        <ele>242.8</ele>
        <time>2017-09-17T06:08:59Z</time>
      </trkpt>
      <trkpt lat="49.21699" lon="1.13715">
        <ele>242.7</ele>
        <time>2017-09-17T06:09:01Z</time>
      </trkpt>
      <trkpt lat="49.21711" lon="1.13703">
        <ele>242.5</ele>
        <time>2017-09-17T06:09:03Z</time>
      </trkpt>
      <trkpt lat="49.21722" lon="1.13691">
        <ele>242.3</ele>
        <time>2017-09-17T06:09:05Z</time>
      </trkpt>
      <trkpt lat="49.21734" lon="1.1368">
        <ele>242.2</ele>
        <time>2017-09-17T06:09:07Z</time>
      </trkpt>
      <trkpt lat="49.21745" lon="1.13669">
        <ele>242.1</ele>
        <time>2017-09-17T06:09:09Z</time>
      </trkpt>
      <trkpt lat="49.21756" lon="1.13658">
        <ele>242</ele>
        <time>2017-09-17T06:09:11Z</time>
      </trkpt>
      <trkpt lat="49.21766" lon="1.13648">
        <ele>242.2</ele>
        <time>2017-09-17T06:09:13Z</time>
      </trkpt>
      <trkpt lat="49.21777" lon="1.13637">
        <ele>242.4</ele>
        <time>2017-09-17T06:09:15Z</time>
      </trkpt>
      <trkpt lat="49.21787" lon="1.13626">
        <ele>242.6</ele>
        <time>2017-09-17T06:09:17Z</time>
      </trkpt>
      <trkpt lat="49.21797" lon="1.13615">
        <ele>242.6</ele>
        <time>2017-09-17T06:09:19Z</time>
      </trkpt>
      <trkpt lat="49.21807" lon="1.13604">
        <ele>242.7</ele>
        <time>2017-09-17T06:09:21Z</time>
      </trkpt>
      <trkpt lat="49.21816" lon="1.13594">
        <ele>242.9</ele>
        <time>2017-09-17T06:09:23Z</time>
      </trkpt>
      <trkpt lat="49.21825" lon="1.13584">
        <ele>243.1</ele>
        <time>2017-09-17T06:09:25Z</time>
      </trkpt>
      <trkpt lat="49.21833" lon="1.13575">
        <ele>243.3</ele>
        <time>2017-09-17T06:09:27Z</time>
      </trkpt>
      <trkpt lat="49.21841" lon="1.13566">
        <ele>243.5</ele>
        <time>2017-09-17T06:09:29Z</time>
      </trkpt>
      <trkpt lat="49.21849" lon="1.13557">
        <ele>244</ele>
        <time>2017-09-17T06:09:31Z</time>
      </trkpt>
      <trkpt lat="49.21857" lon="1.13547">
        <ele>244</ele>
        <time>2017-09-17T06:09:33Z</time>
      </trkpt>
      <trkpt lat="49.21864" lon="1.13538">
        <ele>244.3</ele>
        <time>2017-09-17T06:09:35Z</time>
      </trkpt>
      <trkpt lat="49.21872" lon="1.13528">
        <ele>244.5</ele>
        <time>2017-09-17T06:09:37Z</time>
      </trkpt>
      <trkpt lat="49.2188" lon="1.13517">
        <ele>244.7</ele>
        <time>2017-09-17T06:09:39Z</time>
      </trkpt>
      <trkpt lat="49.21888" lon="1.13506">
        <ele>244.7</ele>
        <time>2017-09-17T06:09:41Z</time>
      </trkpt>
      <trkpt lat="49.21897" lon="1.13494">
        <ele>244.6</ele>
        <time>2017-09-17T06:09:43Z</time>
      </trkpt>
      <trkpt lat="49.21905" lon="1.13483">
        <ele>244.6</ele>
        <time>2017-09-17T06:09:45Z</time>
      </trkpt>
      <trkpt lat="49.21914" lon="1.13471">
        <ele>244.4</ele>
        <time>2017-09-17T06:09:47Z</time>
      </trkpt>
      <trkpt lat="49.21923" lon="1.13459">
        <ele>244.2</ele>
        <time>2017-09-17T06:09:49Z</time>
      </trkpt>
      <trkpt lat="49.21932" lon="1.13447">
        <ele>244.2</ele>
        <time>2017-09-17T06:09:51Z</time>
      </trkpt>
      <trkpt lat="49.2194" lon="1.13434">
        <ele>244</ele>
        <time>2017-09-17T06:09:53Z</time>
      </trkpt>
      <trkpt lat="49.2195" lon="1.13422">
        <ele>243.9</ele>
        <time>2017-09-17T06:09:55Z</time>
      </trkpt>
      <trkpt lat="49.21959" lon="1.1341">
        <ele>243.9</ele>
        <time>2017-09-17T06:09:57Z</time>
      </trkpt>
      <trkpt lat="49.21968" lon="1.13397">
        <ele>243.7</ele>
        <time>2017-09-17T06:09:59Z</time>
      </trkpt>
      <trkpt lat="49.21977" lon="1.13385">
        <ele>243.7</ele>
        <time>2017-09-17T06:10:01Z</time>
      </trkpt>
      <trkpt lat="49.21985" lon="1.13373">
        <ele>243.7</ele>
        <time>2017-09-17T06:10:03Z</time>
      </trkpt>
      <trkpt lat="49.21994" lon="1.13362">
        <ele>243.8</ele>
        <time>2017-09-17T06:10:05Z</time>
      </trkpt>
      <trkpt lat="49.22003" lon="1.1335">
        <ele>243.6</ele>
        <time>2017-09-17T06:10:07Z</time>
      </trkpt>
      <trkpt lat="49.22012" lon="1.13338">
        <ele>243.4</ele>
        <time>2017-09-17T06:10:09Z</time>
      </trkpt>
      <trkpt lat="49.22021" lon="1.13326">
        <ele>243.2</ele>
        <time>2017-09-17T06:10:11Z</time>
      </trkpt>
      <trkpt lat="49.2203" lon="1.13315">
        <ele>243.2</ele>
        <time>2017-09-17T06:10:13Z</time>
      </trkpt>
      <trkpt lat="49.22039" lon="1.13303">
        <ele>242.9</ele>
        <time>2017-09-17T06:10:15Z</time>
      </trkpt>
      <trkpt lat="49.22049" lon="1.13293">
        <ele>242.4</ele>
        <time>2017-09-17T06:10:17Z</time>
      </trkpt>
      <trkpt lat="49.22061" lon="1.13283">
        <ele>242.1</ele>
        <time>2017-09-17T06:10:19Z</time>
      </trkpt>
      <trkpt lat="49.22072" lon="1.13273">
        <ele>241.7</ele>
        <time>2017-09-17T06:10:21Z</time>
      </trkpt>
      <trkpt lat="49.22084" lon="1.13262">
        <ele>241.1</ele>
        <time>2017-09-17T06:10:23Z</time>
      </trkpt>
      <trkpt lat="49.22097" lon="1.13252">
        <ele>240.4</ele>
        <time>2017-09-17T06:10:25Z</time>
      </trkpt>
      <trkpt lat="49.2211" lon="1.13241">
        <ele>239.9</ele>
        <time>2017-09-17T06:10:27Z</time>
      </trkpt>
      <trkpt lat="49.22124" lon="1.1323">
        <ele>239.4</ele>
        <time>2017-09-17T06:10:29Z</time>
      </trkpt>
      <trkpt lat="49.22139" lon="1.13219">
        <ele>238.5</ele>
        <time>2017-09-17T06:10:31Z</time>
      </trkpt>
      <trkpt lat="49.22154" lon="1.13207">
        <ele>237.9</ele>
        <time>2017-09-17T06:10:33Z</time>
      </trkpt>
      <trkpt lat="49.22169" lon="1.13196">
        <ele>237.1</ele>
        <time>2017-09-17T06:10:35Z</time>
      </trkpt>
      <trkpt lat="49.22183" lon="1.13185">
        <ele>236.4</ele>
        <time>2017-09-17T06:10:37Z</time>
      </trkpt>
      <trkpt lat="49.22197" lon="1.13173">
        <ele>235.8</ele>
        <time>2017-09-17T06:10:39Z</time>
      </trkpt>
      <trkpt lat="49.22209" lon="1.13162">
        <ele>235.2</ele>
        <time>2017-09-17T06:10:41Z</time>
      </trkpt>
      <trkpt lat="49.22218" lon="1.13151">
        <ele>234.7</ele>
        <time>2017-09-17T06:10:43Z</time>
      </trkpt>
      <trkpt lat="49.22225" lon="1.13139">
        <ele>234.2</ele>
        <time>2017-09-17T06:10:45Z</time>
      </trkpt>
      <trkpt lat="49.22227" lon="1.13122">
        <ele>233.7</ele>
        <time>2017-09-17T06:10:48Z</time>
      </trkpt>
      <trkpt lat="49.22233" lon="1.13109">
        <ele>233.5</ele>
        <time>2017-09-17T06:10:51Z</time>
      </trkpt>
      <trkpt lat="49.22232" lon="1.13093">
        <ele>233.2</ele>
        <time>2017-09-17T06:10:54Z</time>
      </trkpt>
      <trkpt lat="49.22228" lon="1.1307">
        <ele>233.3</ele>
        <time>2017-09-17T06:10:57Z</time>
      </trkpt>
      <trkpt lat="49.22222" lon="1.13055">
        <ele>233.4</ele>
        <time>2017-09-17T06:10:59Z</time>
      </trkpt>
      <trkpt lat="49.22217" lon="1.13036">
        <ele>233.5</ele>
        <time>2017-09-17T06:11:02Z</time>
      </trkpt>
      <trkpt lat="49.22214" lon="1.13019">
        <ele>233.7</ele>
        <time>2017-09-17T06:11:05Z</time>
      </trkpt>
      <trkpt lat="49.22216" lon="1.13006">
        <ele>234.1</ele>
        <time>2017-09-17T06:11:09Z</time>
      </trkpt>
      <trkpt lat="49.2221" lon="1.12992">
        <ele>234.5</ele>
        <time>2017-09-17T06:11:15Z</time>
      </trkpt>
      <trkpt lat="49.22205" lon="1.12979">
        <ele>234.7</ele>
        <time>2017-09-17T06:11:20Z</time>
      </trkpt>
      <trkpt lat="49.22199" lon="1.12956">
        <ele>235</ele>
        <time>2017-09-17T06:11:23Z</time>
      </trkpt>
      <trkpt lat="49.22195" lon="1.12938">
        <ele>235.2</ele>
        <time>2017-09-17T06:11:25Z</time>
      </trkpt>
      <trkpt lat="49.22192" lon="1.12923">
        <ele>235.3</ele>
        <time>2017-09-17T06:11:27Z</time>
      </trkpt>
      <trkpt lat="49.22188" lon="1.12903">
        <ele>235.4</ele>
        <time>2017-09-17T06:11:30Z</time>
      </trkpt>
      <trkpt lat="49.22181" lon="1.12887">
        <ele>235.5</ele>
        <time>2017-09-17T06:11:32Z</time>
      </trkpt>
      <trkpt lat="49.22175" lon="1.12869">
        <ele>235.8</ele>
        <time>2017-09-17T06:11:35Z</time>
      </trkpt>
      <trkpt lat="49.22171" lon="1.12849">
        <ele>236.2</ele>
        <time>2017-09-17T06:11:38Z</time>
      </trkpt>
      <trkpt lat="49.22175" lon="1.12836">
        <ele>236.2</ele>
        <time>2017-09-17T06:11:40Z</time>
      </trkpt>
      <trkpt lat="49.22181" lon="1.12819">
        <ele>235.9</ele>
        <time>2017-09-17T06:11:42Z</time>
      </trkpt>
      <trkpt lat="49.22185" lon="1.12803">
        <ele>235.3</ele>
        <time>2017-09-17T06:11:44Z</time>
      </trkpt>
      <trkpt lat="49.22188" lon="1.12786">
        <ele>234.8</ele>
        <time>2017-09-17T06:11:46Z</time>
      </trkpt>
      <trkpt lat="49.22188" lon="1.12768">
        <ele>234.7</ele>
        <time>2017-09-17T06:11:48Z</time>
      </trkpt>
      <trkpt lat="49.22189" lon="1.1275">
        <ele>234.8</ele>
        <time>2017-09-17T06:11:51Z</time>
      </trkpt>
      <trkpt lat="49.22189" lon="1.12732">
        <ele>235.3</ele>
        <time>2017-09-17T06:11:54Z</time>
      </trkpt>
      <trkpt lat="49.22187" lon="1.12713">
        <ele>236</ele>
        <time>2017-09-17T06:11:57Z</time>
      </trkpt>
      <trkpt lat="49.22186" lon="1.12694">
        <ele>236.8</ele>
        <time>2017-09-17T06:12:00Z</time>
      </trkpt>
      <trkpt lat="49.22185" lon="1.12679">
        <ele>237.6</ele>
        <time>2017-09-17T06:12:03Z</time>
      </trkpt>
      <trkpt lat="49.22182" lon="1.12664">
        <ele>238.6</ele>
        <time>2017-09-17T06:12:06Z</time>
      </trkpt>
      <trkpt lat="49.22182" lon="1.12646">
        <ele>239.5</ele>
        <time>2017-09-17T06:12:09Z</time>
      </trkpt>
      <trkpt lat="49.22182" lon="1.12632">
        <ele>240.1</ele>
        <time>2017-09-17T06:12:12Z</time>
      </trkpt>
      <trkpt lat="49.22181" lon="1.12615">
        <ele>240.6</ele>
        <time>2017-09-17T06:12:15Z</time>
      </trkpt>
      <trkpt lat="49.22178" lon="1.12599">
        <ele>241</ele>
        <time>2017-09-17T06:12:18Z</time>
      </trkpt>
      <trkpt lat="49.22179" lon="1.12585">
        <ele>241.4</ele>
        <time>2017-09-17T06:12:21Z</time>
      </trkpt>
      <trkpt lat="49.22177" lon="1.12564">
        <ele>241.6</ele>
        <time>2017-09-17T06:12:24Z</time>
      </trkpt>
      <trkpt lat="49.22176" lon="1.12543">
        <ele>242.3</ele>
        <time>2017-09-17T06:12:27Z</time>
      </trkpt>
      <trkpt lat="49.22175" lon="1.12523">
        <ele>242.6</ele>
        <time>2017-09-17T06:12:30Z</time>
      </trkpt>
      <trkpt lat="49.22173" lon="1.12509">
        <ele>242.8</ele>
        <time>2017-09-17T06:12:32Z</time>
      </trkpt>
      <trkpt lat="49.22172" lon="1.1249">
        <ele>242.9</ele>
        <time>2017-09-17T06:12:35Z</time>
      </trkpt>
      <trkpt lat="49.22174" lon="1.12472">
        <ele>243</ele>
        <time>2017-09-17T06:12:38Z</time>
      </trkpt>
      <trkpt lat="49.22176" lon="1.12455">
        <ele>243.8</ele>
        <time>2017-09-17T06:12:41Z</time>
      </trkpt>
      <trkpt lat="49.22178" lon="1.12438">
        <ele>244.2</ele>
        <time>2017-09-17T06:12:44Z</time>
      </trkpt>
      <trkpt lat="49.22182" lon="1.12421">
        <ele>244.5</ele>
        <time>2017-09-17T06:12:47Z</time>
      </trkpt>
      <trkpt lat="49.22184" lon="1.12405">
        <ele>244.7</ele>
        <time>2017-09-17T06:12:49Z</time>
      </trkpt>
      <trkpt lat="49.22186" lon="1.12391">
        <ele>244.7</ele>
        <time>2017-09-17T06:12:51Z</time>
      </trkpt>
      <trkpt lat="49.22186" lon="1.12373">
        <ele>244.9</ele>
        <time>2017-09-17T06:12:54Z</time>
      </trkpt>
      <trkpt lat="49.2219" lon="1.12352">
        <ele>245.1</ele>
        <time>2017-09-17T06:12:57Z</time>
      </trkpt>
      <trkpt lat="49.22192" lon="1.12335">
        <ele>245.3</ele>
        <time>2017-09-17T06:13:00Z</time>
      </trkpt>
      <trkpt lat="49.22198" lon="1.12315">
        <ele>245.8</ele>
        <time>2017-09-17T06:13:03Z</time>
      </trkpt>
      <trkpt lat="49.22202" lon="1.123">
        <ele>246.1</ele>
        <time>2017-09-17T06:13:05Z</time>
      </trkpt>
      <trkpt lat="49.22205" lon="1.12285">
        <ele>246.4</ele>
        <time>2017-09-17T06:13:07Z</time>
      </trkpt>
      <trkpt lat="49.22205" lon="1.12269">
        <ele>246.6</ele>
        <time>2017-09-17T06:13:09Z</time>
      </trkpt>
      <trkpt lat="49.22206" lon="1.12254">
        <ele>247</ele>
        <time>2017-09-17T06:13:11Z</time>
      </trkpt>
      <trkpt lat="49.22208" lon="1.12239">
        <ele>247.4</ele>
        <time>2017-09-17T06:13:13Z</time>
      </trkpt>
      <trkpt lat="49.22211" lon="1.12221">
        <ele>247.9</ele>
        <time>2017-09-17T06:13:16Z</time>
      </trkpt>
      <trkpt lat="49.22213" lon="1.12202">
        <ele>248.2</ele>
        <time>2017-09-17T06:13:18Z</time>
      </trkpt>
      <trkpt lat="49.22218" lon="1.12182">
        <ele>248.7</ele>
        <time>2017-09-17T06:13:21Z</time>
      </trkpt>
      <trkpt lat="49.2222" lon="1.12169">
        <ele>248.8</ele>
        <time>2017-09-17T06:13:23Z</time>
      </trkpt>
      <trkpt lat="49.22221" lon="1.12154">
        <ele>248.9</ele>
        <time>2017-09-17T06:13:25Z</time>
      </trkpt>
      <trkpt lat="49.22225" lon="1.12136">
        <ele>249.1</ele>
        <time>2017-09-17T06:13:28Z</time>
      </trkpt>
      <trkpt lat="49.22227" lon="1.12122">
        <ele>249.2</ele>
        <time>2017-09-17T06:13:30Z</time>
      </trkpt>
      <trkpt lat="49.2223" lon="1.12107">
        <ele>249.5</ele>
        <time>2017-09-17T06:13:32Z</time>
      </trkpt>
      <trkpt lat="49.22232" lon="1.12088">
        <ele>250</ele>
        <time>2017-09-17T06:13:35Z</time>
      </trkpt>
      <trkpt lat="49.22234" lon="1.12071">
        <ele>250.5</ele>
        <time>2017-09-17T06:13:38Z</time>
      </trkpt>
      <trkpt lat="49.22236" lon="1.1205">
        <ele>250.6</ele>
        <time>2017-09-17T06:13:41Z</time>
      </trkpt>
      <trkpt lat="49.22237" lon="1.12036">
        <ele>250.7</ele>
        <time>2017-09-17T06:13:43Z</time>
      </trkpt>
      <trkpt lat="49.22239" lon="1.12017">
        <ele>251</ele>
        <time>2017-09-17T06:13:46Z</time>
      </trkpt>
      <trkpt lat="49.22241" lon="1.12002">
        <ele>251.1</ele>
        <time>2017-09-17T06:13:48Z</time>
      </trkpt>
      <trkpt lat="49.22242" lon="1.11987">
        <ele>251.3</ele>
        <time>2017-09-17T06:13:50Z</time>
      </trkpt>
      <trkpt lat="49.22247" lon="1.11975">
        <ele>251.3</ele>
        <time>2017-09-17T06:13:52Z</time>
      </trkpt>
      <trkpt lat="49.22255" lon="1.11967">
        <ele>251.4</ele>
        <time>2017-09-17T06:13:54Z</time>
      </trkpt>
      <trkpt lat="49.22267" lon="1.11957">
        <ele>251.7</ele>
        <time>2017-09-17T06:13:57Z</time>
      </trkpt>
      <trkpt lat="49.22275" lon="1.11949">
        <ele>251.9</ele>
        <time>2017-09-17T06:13:59Z</time>
      </trkpt>
      <trkpt lat="49.22286" lon="1.11939">
        <ele>252.2</ele>
        <time>2017-09-17T06:14:02Z</time>
      </trkpt>
      <trkpt lat="49.22294" lon="1.11931">
        <ele>252.5</ele>
        <time>2017-09-17T06:14:04Z</time>
      </trkpt>
      <trkpt lat="49.22303" lon="1.11923">
        <ele>252.6</ele>
        <time>2017-09-17T06:14:06Z</time>
      </trkpt>
      <trkpt lat="49.22312" lon="1.11914">
        <ele>252.7</ele>
        <time>2017-09-17T06:14:08Z</time>
      </trkpt>
      <trkpt lat="49.22319" lon="1.11904">
        <ele>252.6</ele>
        <time>2017-09-17T06:14:10Z</time>
      </trkpt>
      <trkpt lat="49.22327" lon="1.11892">
        <ele>252.6</ele>
        <time>2017-09-17T06:14:12Z</time>
      </trkpt>
      <trkpt lat="49.22335" lon="1.11881">
        <ele>252.5</ele>
        <time>2017-09-17T06:14:14Z</time>
      </trkpt>
      <trkpt lat="49.22341" lon="1.11869">
        <ele>252.7</ele>
        <time>2017-09-17T06:14:16Z</time>
      </trkpt>
      <trkpt lat="49.22348" lon="1.11859">
        <ele>252.7</ele>
        <time>2017-09-17T06:14:18Z</time>
      </trkpt>
      <trkpt lat="49.22356" lon="1.11848">
        <ele>252.4</ele>
        <time>2017-09-17T06:14:20Z</time>
      </trkpt>
      <trkpt lat="49.22362" lon="1.11837">
        <ele>252</ele>
        <time>2017-09-17T06:14:22Z</time>
      </trkpt>
      <trkpt lat="49.22369" lon="1.11825">
        <ele>251.5</ele>
        <time>2017-09-17T06:14:24Z</time>
      </trkpt>
      <trkpt lat="49.22377" lon="1.11814">
        <ele>251</ele>
        <time>2017-09-17T06:14:26Z</time>
      </trkpt>
      <trkpt lat="49.22386" lon="1.118">
        <ele>250.6</ele>
        <time>2017-09-17T06:14:28Z</time>
      </trkpt>
      <trkpt lat="49.22396" lon="1.11787">
        <ele>250.2</ele>
        <time>2017-09-17T06:14:30Z</time>
      </trkpt>
      <trkpt lat="49.22407" lon="1.11772">
        <ele>249.7</ele>
        <time>2017-09-17T06:14:32Z</time>
      </trkpt>
      <trkpt lat="49.22419" lon="1.11758">
        <ele>248.7</ele>
        <time>2017-09-17T06:14:34Z</time>
      </trkpt>
      <trkpt lat="49.22433" lon="1.11741">
        <ele>247.6</ele>
        <time>2017-09-17T06:14:36Z</time>
      </trkpt>
      <trkpt lat="49.22446" lon="1.11724">
        <ele>246.3</ele>
        <time>2017-09-17T06:14:38Z</time>
      </trkpt>
      <trkpt lat="49.22456" lon="1.11713">
        <ele>245.5</ele>
        <time>2017-09-17T06:14:39Z</time>
      </trkpt>
      <trkpt lat="49.22464" lon="1.11704">
        <ele>244.9</ele>
        <time>2017-09-17T06:14:40Z</time>
      </trkpt>
      <trkpt lat="49.22471" lon="1.11695">
        <ele>244.3</ele>
        <time>2017-09-17T06:14:41Z</time>
      </trkpt>
      <trkpt lat="49.22476" lon="1.11682">
        <ele>243.5</ele>
        <time>2017-09-17T06:14:42Z</time>
      </trkpt>
      <trkpt lat="49.22482" lon="1.11671">
        <ele>242.6</ele>
        <time>2017-09-17T06:14:43Z</time>
      </trkpt>
      <trkpt lat="49.22489" lon="1.1166">
        <ele>241.9</ele>
        <time>2017-09-17T06:14:44Z</time>
      </trkpt>
      <trkpt lat="49.22503" lon="1.11639">
        <ele>240.6</ele>
        <time>2017-09-17T06:14:46Z</time>
      </trkpt>
      <trkpt lat="49.22511" lon="1.11628">
        <ele>239.7</ele>
        <time>2017-09-17T06:14:47Z</time>
      </trkpt>
      <trkpt lat="49.22521" lon="1.11617">
        <ele>238.8</ele>
        <time>2017-09-17T06:14:48Z</time>
      </trkpt>
      <trkpt lat="49.22528" lon="1.11607">
        <ele>238</ele>
        <time>2017-09-17T06:14:49Z</time>
      </trkpt>
      <trkpt lat="49.22538" lon="1.11598">
        <ele>237.3</ele>
        <time>2017-09-17T06:14:50Z</time>
      </trkpt>
      <trkpt lat="49.22546" lon="1.11588">
        <ele>236.5</ele>
        <time>2017-09-17T06:14:51Z</time>
      </trkpt>
      <trkpt lat="49.22555" lon="1.1158">
        <ele>235.2</ele>
        <time>2017-09-17T06:14:52Z</time>
      </trkpt>
      <trkpt lat="49.22563" lon="1.11572">
        <ele>234.1</ele>
        <time>2017-09-17T06:14:53Z</time>
      </trkpt>
      <trkpt lat="49.22571" lon="1.11564">
        <ele>233.2</ele>
        <time>2017-09-17T06:14:54Z</time>
      </trkpt>
      <trkpt lat="49.22585" lon="1.11552">
        <ele>231.3</ele>
        <time>2017-09-17T06:14:56Z</time>
      </trkpt>
      <trkpt lat="49.22598" lon="1.1154">
        <ele>228.9</ele>
        <time>2017-09-17T06:14:58Z</time>
      </trkpt>
      <trkpt lat="49.22612" lon="1.11535">
        <ele>226.6</ele>
        <time>2017-09-17T06:15:00Z</time>
      </trkpt>
      <trkpt lat="49.22628" lon="1.1154">
        <ele>223.9</ele>
        <time>2017-09-17T06:15:02Z</time>
      </trkpt>
      <trkpt lat="49.2264" lon="1.1155">
        <ele>221.2</ele>
        <time>2017-09-17T06:15:04Z</time>
      </trkpt>
      <trkpt lat="49.22648" lon="1.11566">
        <ele>218.6</ele>
        <time>2017-09-17T06:15:06Z</time>
      </trkpt>
      <trkpt lat="49.22654" lon="1.11585">
        <ele>216.2</ele>
        <time>2017-09-17T06:15:08Z</time>
      </trkpt>
      <trkpt lat="49.22659" lon="1.11609">
        <ele>213.7</ele>
        <time>2017-09-17T06:15:10Z</time>
      </trkpt>
      <trkpt lat="49.2266" lon="1.11632">
        <ele>211.8</ele>
        <time>2017-09-17T06:15:12Z</time>
      </trkpt>
      <trkpt lat="49.22661" lon="1.11656">
        <ele>209.7</ele>
        <time>2017-09-17T06:15:14Z</time>
      </trkpt>
      <trkpt lat="49.2266" lon="1.11671">
        <ele>209.1</ele>
        <time>2017-09-17T06:15:15Z</time>
      </trkpt>
      <trkpt lat="49.22661" lon="1.11685">
        <ele>208.5</ele>
        <time>2017-09-17T06:15:16Z</time>
      </trkpt>
      <trkpt lat="49.22661" lon="1.11711">
        <ele>206.9</ele>
        <time>2017-09-17T06:15:18Z</time>
      </trkpt>
      <trkpt lat="49.22661" lon="1.11737">
        <ele>205.8</ele>
        <time>2017-09-17T06:15:20Z</time>
      </trkpt>
      <trkpt lat="49.22663" lon="1.11762">
        <ele>204.8</ele>
        <time>2017-09-17T06:15:22Z</time>
      </trkpt>
      <trkpt lat="49.22665" lon="1.11786">
        <ele>204.1</ele>
        <time>2017-09-17T06:15:24Z</time>
      </trkpt>
      <trkpt lat="49.22669" lon="1.11809">
        <ele>203.4</ele>
        <time>2017-09-17T06:15:26Z</time>
      </trkpt>
      <trkpt lat="49.22674" lon="1.11832">
        <ele>202.8</ele>
        <time>2017-09-17T06:15:28Z</time>
      </trkpt>
      <trkpt lat="49.22681" lon="1.11855">
        <ele>202.1</ele>
        <time>2017-09-17T06:15:30Z</time>
      </trkpt>
      <trkpt lat="49.22688" lon="1.11881">
        <ele>201.4</ele>
        <time>2017-09-17T06:15:32Z</time>
      </trkpt>
      <trkpt lat="49.22695" lon="1.11905">
        <ele>200.6</ele>
        <time>2017-09-17T06:15:34Z</time>
      </trkpt>
      <trkpt lat="49.22698" lon="1.11918">
        <ele>200.1</ele>
        <time>2017-09-17T06:15:35Z</time>
      </trkpt>
      <trkpt lat="49.22702" lon="1.11932">
        <ele>199.5</ele>
        <time>2017-09-17T06:15:36Z</time>
      </trkpt>
      <trkpt lat="49.22706" lon="1.11945">
        <ele>198.9</ele>
        <time>2017-09-17T06:15:37Z</time>
      </trkpt>
      <trkpt lat="49.2271" lon="1.11958">
        <ele>198.4</ele>
        <time>2017-09-17T06:15:38Z</time>
      </trkpt>
      <trkpt lat="49.22713" lon="1.11971">
        <ele>197.7</ele>
        <time>2017-09-17T06:15:39Z</time>
      </trkpt>
      <trkpt lat="49.22718" lon="1.11996">
        <ele>196.8</ele>
        <time>2017-09-17T06:15:41Z</time>
      </trkpt>
      <trkpt lat="49.2272" lon="1.12021">
        <ele>195.8</ele>
        <time>2017-09-17T06:15:43Z</time>
      </trkpt>
      <trkpt lat="49.22721" lon="1.12043">
        <ele>195.2</ele>
        <time>2017-09-17T06:15:45Z</time>
      </trkpt>
      <trkpt lat="49.22723" lon="1.12063">
        <ele>194.7</ele>
        <time>2017-09-17T06:15:47Z</time>
      </trkpt>
      <trkpt lat="49.22722" lon="1.12083">
        <ele>194.4</ele>
        <time>2017-09-17T06:15:49Z</time>
      </trkpt>
      <trkpt lat="49.22724" lon="1.12104">
        <ele>194</ele>
        <time>2017-09-17T06:15:51Z</time>
      </trkpt>
      <trkpt lat="49.22725" lon="1.12125">
        <ele>193.7</ele>
        <time>2017-09-17T06:15:53Z</time>
      </trkpt>
      <trkpt lat="49.22727" lon="1.12147">
        <ele>193.3</ele>
        <time>2017-09-17T06:15:55Z</time>
      </trkpt>
      <trkpt lat="49.22731" lon="1.12166">
        <ele>193</ele>
        <time>2017-09-17T06:15:57Z</time>
      </trkpt>
      <trkpt lat="49.22737" lon="1.12182">
        <ele>192.7</ele>
        <time>2017-09-17T06:15:59Z</time>
      </trkpt>
      <trkpt lat="49.22743" lon="1.12198">
        <ele>192.4</ele>
        <time>2017-09-17T06:16:01Z</time>
      </trkpt>
      <trkpt lat="49.2275" lon="1.12212">
        <ele>192.2</ele>
        <time>2017-09-17T06:16:03Z</time>
      </trkpt>
      <trkpt lat="49.22757" lon="1.12226">
        <ele>192.2</ele>
        <time>2017-09-17T06:16:05Z</time>
      </trkpt>
      <trkpt lat="49.22766" lon="1.12239">
        <ele>192.1</ele>
        <time>2017-09-17T06:16:07Z</time>
      </trkpt>
      <trkpt lat="49.22776" lon="1.12253">
        <ele>192.1</ele>
        <time>2017-09-17T06:16:09Z</time>
      </trkpt>
      <trkpt lat="49.22786" lon="1.12267">
        <ele>191.5</ele>
        <time>2017-09-17T06:16:11Z</time>
      </trkpt>
      <trkpt lat="49.22796" lon="1.12279">
        <ele>191.2</ele>
        <time>2017-09-17T06:16:13Z</time>
      </trkpt>
      <trkpt lat="49.22805" lon="1.12289">
        <ele>190.9</ele>
        <time>2017-09-17T06:16:15Z</time>
      </trkpt>
      <trkpt lat="49.22815" lon="1.12297">
        <ele>190.6</ele>
        <time>2017-09-17T06:16:17Z</time>
      </trkpt>
      <trkpt lat="49.22824" lon="1.12306">
        <ele>189.9</ele>
        <time>2017-09-17T06:16:20Z</time>
      </trkpt>
      <trkpt lat="49.22825" lon="1.1232">
        <ele>189.3</ele>
        <time>2017-09-17T06:16:24Z</time>
      </trkpt>
      <trkpt lat="49.22821" lon="1.12337">
        <ele>188.9</ele>
        <time>2017-09-17T06:16:28Z</time>
      </trkpt>
      <trkpt lat="49.22823" lon="1.12351">
        <ele>188.8</ele>
        <time>2017-09-17T06:16:46Z</time>
      </trkpt>
      <trkpt lat="49.22823" lon="1.12366">
        <ele>189.8</ele>
        <time>2017-09-17T06:16:53Z</time>
      </trkpt>
      <trkpt lat="49.22823" lon="1.12382">
        <ele>192</ele>
        <time>2017-09-17T06:16:59Z</time>
      </trkpt>
      <trkpt lat="49.22824" lon="1.12396">
        <ele>194.7</ele>
        <time>2017-09-17T06:17:05Z</time>
      </trkpt>
      <trkpt lat="49.22823" lon="1.12411">
        <ele>197</ele>
        <time>2017-09-17T06:17:11Z</time>
      </trkpt>
      <trkpt lat="49.22821" lon="1.12425">
        <ele>198.9</ele>
        <time>2017-09-17T06:17:16Z</time>
      </trkpt>
      <trkpt lat="49.2282" lon="1.12439">
        <ele>201.3</ele>
        <time>2017-09-17T06:17:23Z</time>
      </trkpt>
      <trkpt lat="49.22817" lon="1.12452">
        <ele>203.2</ele>
        <time>2017-09-17T06:17:29Z</time>
      </trkpt>
      <trkpt lat="49.22817" lon="1.12467">
        <ele>205.4</ele>
        <time>2017-09-17T06:17:36Z</time>
      </trkpt>
      <trkpt lat="49.22816" lon="1.12482">
        <ele>207.5</ele>
        <time>2017-09-17T06:17:44Z</time>
      </trkpt>
      <trkpt lat="49.22815" lon="1.12497">
        <ele>209.5</ele>
        <time>2017-09-17T06:17:51Z</time>
      </trkpt>
      <trkpt lat="49.22814" lon="1.12511">
        <ele>211.2</ele>
        <time>2017-09-17T06:17:58Z</time>
      </trkpt>
      <trkpt lat="49.22813" lon="1.12525">
        <ele>212.6</ele>
        <time>2017-09-17T06:18:05Z</time>
      </trkpt>
      <trkpt lat="49.22812" lon="1.12539">
        <ele>213.7</ele>
        <time>2017-09-17T06:18:11Z</time>
      </trkpt>
      <trkpt lat="49.22809" lon="1.12553">
        <ele>214.9</ele>
        <time>2017-09-17T06:18:17Z</time>
      </trkpt>
      <trkpt lat="49.22806" lon="1.12569">
        <ele>215.5</ele>
        <time>2017-09-17T06:18:21Z</time>
      </trkpt>
      <trkpt lat="49.22804" lon="1.12582">
        <ele>215.8</ele>
        <time>2017-09-17T06:18:24Z</time>
      </trkpt>
      <trkpt lat="49.228" lon="1.126">
        <ele>215.3</ele>
        <time>2017-09-17T06:18:27Z</time>
      </trkpt>
      <trkpt lat="49.22798" lon="1.12618">
        <ele>214.8</ele>
        <time>2017-09-17T06:18:30Z</time>
      </trkpt>
      <trkpt lat="49.228" lon="1.12636">
        <ele>214.7</ele>
        <time>2017-09-17T06:18:33Z</time>
      </trkpt>
      <trkpt lat="49.22801" lon="1.12651">
        <ele>214.7</ele>
        <time>2017-09-17T06:18:36Z</time>
      </trkpt>
      <trkpt lat="49.228" lon="1.1267">
        <ele>215</ele>
        <time>2017-09-17T06:18:39Z</time>
      </trkpt>
      <trkpt lat="49.22799" lon="1.12686">
        <ele>215.4</ele>
        <time>2017-09-17T06:18:42Z</time>
      </trkpt>
      <trkpt lat="49.22796" lon="1.127">
        <ele>215.9</ele>
        <time>2017-09-17T06:18:45Z</time>
      </trkpt>
      <trkpt lat="49.22793" lon="1.12714">
        <ele>216.5</ele>
        <time>2017-09-17T06:18:48Z</time>
      </trkpt>
      <trkpt lat="49.22793" lon="1.12729">
        <ele>217.1</ele>
        <time>2017-09-17T06:18:51Z</time>
      </trkpt>
      <trkpt lat="49.22793" lon="1.12744">
        <ele>217.6</ele>
        <time>2017-09-17T06:18:54Z</time>
      </trkpt>
      <trkpt lat="49.22791" lon="1.12761">
        <ele>218.3</ele>
        <time>2017-09-17T06:18:59Z</time>
      </trkpt>
      <trkpt lat="49.2279" lon="1.12776">
        <ele>218.7</ele>
        <time>2017-09-17T06:19:02Z</time>
      </trkpt>
      <trkpt lat="49.22789" lon="1.12792">
        <ele>219</ele>
        <time>2017-09-17T06:19:05Z</time>
      </trkpt>
      <trkpt lat="49.22789" lon="1.12808">
        <ele>219.3</ele>
        <time>2017-09-17T06:19:08Z</time>
      </trkpt>
      <trkpt lat="49.22786" lon="1.12822">
        <ele>219.6</ele>
        <time>2017-09-17T06:19:11Z</time>
      </trkpt>
      <trkpt lat="49.22786" lon="1.12838">
        <ele>219.8</ele>
        <time>2017-09-17T06:19:14Z</time>
      </trkpt>
      <trkpt lat="49.22786" lon="1.12857">
        <ele>220.3</ele>
        <time>2017-09-17T06:19:18Z</time>
      </trkpt>
      <trkpt lat="49.22784" lon="1.12872">
        <ele>220.6</ele>
        <time>2017-09-17T06:19:21Z</time>
      </trkpt>
      <trkpt lat="49.2278" lon="1.12888">
        <ele>221.1</ele>
        <time>2017-09-17T06:19:25Z</time>
      </trkpt>
      <trkpt lat="49.22769" lon="1.12889">
        <ele>221.5</ele>
        <time>2017-09-17T06:19:29Z</time>
      </trkpt>
      <trkpt lat="49.22759" lon="1.12886">
        <ele>222</ele>
        <time>2017-09-17T06:19:33Z</time>
      </trkpt>
      <trkpt lat="49.22748" lon="1.12883">
        <ele>222.5</ele>
        <time>2017-09-17T06:19:37Z</time>
      </trkpt>
      <trkpt lat="49.22738" lon="1.1288">
        <ele>222.9</ele>
        <time>2017-09-17T06:19:41Z</time>
      </trkpt>
      <trkpt lat="49.22726" lon="1.12877">
        <ele>223.5</ele>
        <time>2017-09-17T06:19:45Z</time>
      </trkpt>
      <trkpt lat="49.22715" lon="1.12873">
        <ele>224</ele>
        <time>2017-09-17T06:19:49Z</time>
      </trkpt>
      <trkpt lat="49.22704" lon="1.12868">
        <ele>224.6</ele>
        <time>2017-09-17T06:19:53Z</time>
      </trkpt>
      <trkpt lat="49.22694" lon="1.12866">
        <ele>224.7</ele>
        <time>2017-09-17T06:19:56Z</time>
      </trkpt>
      <trkpt lat="49.22685" lon="1.12863">
        <ele>225</ele>
        <time>2017-09-17T06:19:59Z</time>
      </trkpt>
      <trkpt lat="49.22675" lon="1.1286">
        <ele>225.5</ele>
        <time>2017-09-17T06:20:02Z</time>
      </trkpt>
      <trkpt lat="49.22666" lon="1.12857">
        <ele>226</ele>
        <time>2017-09-17T06:20:05Z</time>
      </trkpt>
      <trkpt lat="49.22656" lon="1.12853">
        <ele>226.4</ele>
        <time>2017-09-17T06:20:08Z</time>
      </trkpt>
      <trkpt lat="49.22645" lon="1.1285">
        <ele>226.9</ele>
        <time>2017-09-17T06:20:12Z</time>
      </trkpt>
      <trkpt lat="49.22636" lon="1.12847">
        <ele>227.6</ele>
        <time>2017-09-17T06:20:15Z</time>
      </trkpt>
      <trkpt lat="49.22626" lon="1.12844">
        <ele>227.9</ele>
        <time>2017-09-17T06:20:18Z</time>
      </trkpt>
      <trkpt lat="49.22616" lon="1.12842">
        <ele>228.5</ele>
        <time>2017-09-17T06:20:21Z</time>
      </trkpt>
      <trkpt lat="49.22606" lon="1.12839">
        <ele>229.2</ele>
        <time>2017-09-17T06:20:24Z</time>
      </trkpt>
      <trkpt lat="49.22597" lon="1.12836">
        <ele>229.7</ele>
        <time>2017-09-17T06:20:27Z</time>
      </trkpt>
      <trkpt lat="49.22586" lon="1.12831">
        <ele>230.4</ele>
        <time>2017-09-17T06:20:30Z</time>
      </trkpt>
      <trkpt lat="49.22573" lon="1.12826">
        <ele>231.2</ele>
        <time>2017-09-17T06:20:34Z</time>
      </trkpt>
      <trkpt lat="49.22562" lon="1.12822">
        <ele>231.8</ele>
        <time>2017-09-17T06:20:37Z</time>
      </trkpt>
      <trkpt lat="49.22553" lon="1.12819">
        <ele>232.6</ele>
        <time>2017-09-17T06:20:40Z</time>
      </trkpt>
      <trkpt lat="49.22543" lon="1.12815">
        <ele>233.3</ele>
        <time>2017-09-17T06:20:43Z</time>
      </trkpt>
      <trkpt lat="49.22534" lon="1.1281">
        <ele>234</ele>
        <time>2017-09-17T06:20:46Z</time>
      </trkpt>
      <trkpt lat="49.22524" lon="1.12805">
        <ele>234.5</ele>
        <time>2017-09-17T06:20:49Z</time>
      </trkpt>
      <trkpt lat="49.22514" lon="1.12801">
        <ele>235</ele>
        <time>2017-09-17T06:20:52Z</time>
      </trkpt>
      <trkpt lat="49.22505" lon="1.12795">
        <ele>235.6</ele>
        <time>2017-09-17T06:20:55Z</time>
      </trkpt>
      <trkpt lat="49.22494" lon="1.12789">
        <ele>236.5</ele>
        <time>2017-09-17T06:20:59Z</time>
      </trkpt>
      <trkpt lat="49.22485" lon="1.12785">
        <ele>237.1</ele>
        <time>2017-09-17T06:21:02Z</time>
      </trkpt>
      <trkpt lat="49.22475" lon="1.1278">
        <ele>237.7</ele>
        <time>2017-09-17T06:21:05Z</time>
      </trkpt>
      <trkpt lat="49.22466" lon="1.12776">
        <ele>238.3</ele>
        <time>2017-09-17T06:21:08Z</time>
      </trkpt>
      <trkpt lat="49.22455" lon="1.12771">
        <ele>238.7</ele>
        <time>2017-09-17T06:21:12Z</time>
      </trkpt>
      <trkpt lat="49.22445" lon="1.12766">
        <ele>239.6</ele>
        <time>2017-09-17T06:21:16Z</time>
      </trkpt>
      <trkpt lat="49.22435" lon="1.12761">
        <ele>240</ele>
        <time>2017-09-17T06:21:19Z</time>
      </trkpt>
      <trkpt lat="49.22425" lon="1.12754">
        <ele>240.7</ele>
        <time>2017-09-17T06:21:23Z</time>
      </trkpt>
      <trkpt lat="49.22417" lon="1.12758">
        <ele>241.4</ele>
        <time>2017-09-17T06:21:27Z</time>
      </trkpt>
      <trkpt lat="49.2241" lon="1.1277">
        <ele>242</ele>
        <time>2017-09-17T06:21:32Z</time>
      </trkpt>
      <trkpt lat="49.22407" lon="1.12783">
        <ele>242</ele>
        <time>2017-09-17T06:21:35Z</time>
      </trkpt>
      <trkpt lat="49.22403" lon="1.12798">
        <ele>242</ele>
        <time>2017-09-17T06:21:39Z</time>
      </trkpt>
      <trkpt lat="49.224" lon="1.12811">
        <ele>242.1</ele>
        <time>2017-09-17T06:21:42Z</time>
      </trkpt>
      <trkpt lat="49.22398" lon="1.12829">
        <ele>241.9</ele>
        <time>2017-09-17T06:21:45Z</time>
      </trkpt>
      <trkpt lat="49.22394" lon="1.12848">
        <ele>241.9</ele>
        <time>2017-09-17T06:21:48Z</time>
      </trkpt>
      <trkpt lat="49.2239" lon="1.12862">
        <ele>241.7</ele>
        <time>2017-09-17T06:21:50Z</time>
      </trkpt>
      <trkpt lat="49.22387" lon="1.12879">
        <ele>241.8</ele>
        <time>2017-09-17T06:21:53Z</time>
      </trkpt>
      <trkpt lat="49.22383" lon="1.12895">
        <ele>241.4</ele>
        <time>2017-09-17T06:21:56Z</time>
      </trkpt>
      <trkpt lat="49.22381" lon="1.12911">
        <ele>241.1</ele>
        <time>2017-09-17T06:21:59Z</time>
      </trkpt>
      <trkpt lat="49.22379" lon="1.12929">
        <ele>240.9</ele>
        <time>2017-09-17T06:22:02Z</time>
      </trkpt>
      <trkpt lat="49.22378" lon="1.12947">
        <ele>240.6</ele>
        <time>2017-09-17T06:22:05Z</time>
      </trkpt>
      <trkpt lat="49.22382" lon="1.1296">
        <ele>240.4</ele>
        <time>2017-09-17T06:22:08Z</time>
      </trkpt>
      <trkpt lat="49.22389" lon="1.12969">
        <ele>240.1</ele>
        <time>2017-09-17T06:22:11Z</time>
      </trkpt>
      <trkpt lat="49.22398" lon="1.1298">
        <ele>239.9</ele>
        <time>2017-09-17T06:22:15Z</time>
      </trkpt>
      <trkpt lat="49.2241" lon="1.12988">
        <ele>239.9</ele>
        <time>2017-09-17T06:22:19Z</time>
      </trkpt>
      <trkpt lat="49.22415" lon="1.13002">
        <ele>239.7</ele>
        <time>2017-09-17T06:22:22Z</time>
      </trkpt>
      <trkpt lat="49.22421" lon="1.13015">
        <ele>239.3</ele>
        <time>2017-09-17T06:22:24Z</time>
      </trkpt>
      <trkpt lat="49.22426" lon="1.1303">
        <ele>239.1</ele>
        <time>2017-09-17T06:22:26Z</time>
      </trkpt>
      <trkpt lat="49.22431" lon="1.13045">
        <ele>238.8</ele>
        <time>2017-09-17T06:22:28Z</time>
      </trkpt>
      <trkpt lat="49.22435" lon="1.13062">
        <ele>238</ele>
        <time>2017-09-17T06:22:30Z</time>
      </trkpt>
      <trkpt lat="49.22439" lon="1.13077">
        <ele>237.6</ele>
        <time>2017-09-17T06:22:32Z</time>
      </trkpt>
      <trkpt lat="49.22439" lon="1.13094">
        <ele>237.5</ele>
        <time>2017-09-17T06:22:34Z</time>
      </trkpt>
      <trkpt lat="49.22441" lon="1.13109">
        <ele>237.4</ele>
        <time>2017-09-17T06:22:36Z</time>
      </trkpt>
      <trkpt lat="49.22443" lon="1.13124">
        <ele>237.1</ele>
        <time>2017-09-17T06:22:38Z</time>
      </trkpt>
      <trkpt lat="49.22446" lon="1.13139">
        <ele>236.7</ele>
        <time>2017-09-17T06:22:40Z</time>
      </trkpt>
      <trkpt lat="49.22451" lon="1.13158">
        <ele>236.7</ele>
        <time>2017-09-17T06:22:42Z</time>
      </trkpt>
      <trkpt lat="49.22453" lon="1.13174">
        <ele>236.6</ele>
        <time>2017-09-17T06:22:44Z</time>
      </trkpt>
      <trkpt lat="49.22455" lon="1.13189">
        <ele>236.4</ele>
        <time>2017-09-17T06:22:46Z</time>
      </trkpt>
      <trkpt lat="49.22458" lon="1.13204">
        <ele>236.2</ele>
        <time>2017-09-17T06:22:48Z</time>
      </trkpt>
      <trkpt lat="49.22461" lon="1.13219">
        <ele>236.1</ele>
        <time>2017-09-17T06:22:50Z</time>
      </trkpt>
      <trkpt lat="49.22461" lon="1.1324">
        <ele>235.9</ele>
        <time>2017-09-17T06:22:53Z</time>
      </trkpt>
      <trkpt lat="49.22463" lon="1.13259">
        <ele>235.7</ele>
        <time>2017-09-17T06:22:55Z</time>
      </trkpt>
      <trkpt lat="49.22467" lon="1.13274">
        <ele>235.4</ele>
        <time>2017-09-17T06:22:57Z</time>
      </trkpt>
      <trkpt lat="49.22469" lon="1.13289">
        <ele>235.3</ele>
        <time>2017-09-17T06:22:59Z</time>
      </trkpt>
      <trkpt lat="49.22471" lon="1.13305">
        <ele>235</ele>
        <time>2017-09-17T06:23:01Z</time>
      </trkpt>
      <trkpt lat="49.22471" lon="1.13322">
        <ele>234.8</ele>
        <time>2017-09-17T06:23:03Z</time>
      </trkpt>
      <trkpt lat="49.22471" lon="1.13337">
        <ele>234.8</ele>
        <time>2017-09-17T06:23:05Z</time>
      </trkpt>
      <trkpt lat="49.22473" lon="1.13353">
        <ele>234.8</ele>
        <time>2017-09-17T06:23:07Z</time>
      </trkpt>
      <trkpt lat="49.22477" lon="1.1337">
        <ele>234.8</ele>
        <time>2017-09-17T06:23:09Z</time>
      </trkpt>
      <trkpt lat="49.22479" lon="1.13387">
        <ele>234.7</ele>
        <time>2017-09-17T06:23:11Z</time>
      </trkpt>
      <trkpt lat="49.22481" lon="1.13406">
        <ele>234.5</ele>
        <time>2017-09-17T06:23:13Z</time>
      </trkpt>
      <trkpt lat="49.22481" lon="1.13425">
        <ele>234.4</ele>
        <time>2017-09-17T06:23:15Z</time>
      </trkpt>
      <trkpt lat="49.22481" lon="1.13442">
        <ele>234.3</ele>
        <time>2017-09-17T06:23:17Z</time>
      </trkpt>
      <trkpt lat="49.2248" lon="1.13456">
        <ele>234.1</ele>
        <time>2017-09-17T06:23:19Z</time>
      </trkpt>
      <trkpt lat="49.2248" lon="1.13475">
        <ele>233.8</ele>
        <time>2017-09-17T06:23:22Z</time>
      </trkpt>
      <trkpt lat="49.2248" lon="1.13494">
        <ele>233.6</ele>
        <time>2017-09-17T06:23:25Z</time>
      </trkpt>
      <trkpt lat="49.2248" lon="1.1351">
        <ele>233.2</ele>
        <time>2017-09-17T06:23:27Z</time>
      </trkpt>
      <trkpt lat="49.22483" lon="1.1353">
        <ele>232.9</ele>
        <time>2017-09-17T06:23:29Z</time>
      </trkpt>
      <trkpt lat="49.22484" lon="1.13547">
        <ele>232.6</ele>
        <time>2017-09-17T06:23:31Z</time>
      </trkpt>
      <trkpt lat="49.22489" lon="1.13571">
        <ele>232.3</ele>
        <time>2017-09-17T06:23:33Z</time>
      </trkpt>
      <trkpt lat="49.22493" lon="1.13587">
        <ele>232</ele>
        <time>2017-09-17T06:23:35Z</time>
      </trkpt>
      <trkpt lat="49.22496" lon="1.13607">
        <ele>231.6</ele>
        <time>2017-09-17T06:23:37Z</time>
      </trkpt>
      <trkpt lat="49.22499" lon="1.1362">
        <ele>231.2</ele>
        <time>2017-09-17T06:23:39Z</time>
      </trkpt>
      <trkpt lat="49.22503" lon="1.13636">
        <ele>230.6</ele>
        <time>2017-09-17T06:23:41Z</time>
      </trkpt>
      <trkpt lat="49.22506" lon="1.13655">
        <ele>230.1</ele>
        <time>2017-09-17T06:23:43Z</time>
      </trkpt>
      <trkpt lat="49.22506" lon="1.13679">
        <ele>229.4</ele>
        <time>2017-09-17T06:23:46Z</time>
      </trkpt>
      <trkpt lat="49.22506" lon="1.13697">
        <ele>228.9</ele>
        <time>2017-09-17T06:23:48Z</time>
      </trkpt>
      <trkpt lat="49.22507" lon="1.13716">
        <ele>228.3</ele>
        <time>2017-09-17T06:23:50Z</time>
      </trkpt>
      <trkpt lat="49.22509" lon="1.13732">
        <ele>227.6</ele>
        <time>2017-09-17T06:23:52Z</time>
      </trkpt>
      <trkpt lat="49.22511" lon="1.13753">
        <ele>227</ele>
        <time>2017-09-17T06:23:54Z</time>
      </trkpt>
      <trkpt lat="49.22518" lon="1.13774">
        <ele>226.2</ele>
        <time>2017-09-17T06:23:56Z</time>
      </trkpt>
      <trkpt lat="49.2252" lon="1.13794">
        <ele>225.4</ele>
        <time>2017-09-17T06:23:58Z</time>
      </trkpt>
      <trkpt lat="49.22525" lon="1.13816">
        <ele>224.4</ele>
        <time>2017-09-17T06:24:00Z</time>
      </trkpt>
      <trkpt lat="49.22532" lon="1.13843">
        <ele>223.5</ele>
        <time>2017-09-17T06:24:02Z</time>
      </trkpt>
      <trkpt lat="49.22535" lon="1.13863">
        <ele>222.6</ele>
        <time>2017-09-17T06:24:04Z</time>
      </trkpt>
      <trkpt lat="49.22539" lon="1.13883">
        <ele>221.7</ele>
        <time>2017-09-17T06:24:06Z</time>
      </trkpt>
      <trkpt lat="49.22543" lon="1.13902">
        <ele>220.8</ele>
        <time>2017-09-17T06:24:08Z</time>
      </trkpt>
      <trkpt lat="49.22546" lon="1.13928">
        <ele>219.5</ele>
        <time>2017-09-17T06:24:10Z</time>
      </trkpt>
      <trkpt lat="49.22552" lon="1.13949">
        <ele>218.5</ele>
        <time>2017-09-17T06:24:12Z</time>
      </trkpt>
      <trkpt lat="49.22557" lon="1.13972">
        <ele>217.5</ele>
        <time>2017-09-17T06:24:14Z</time>
      </trkpt>
      <trkpt lat="49.22561" lon="1.13985">
        <ele>217</ele>
        <time>2017-09-17T06:24:15Z</time>
      </trkpt>
      <trkpt lat="49.22577" lon="1.14004">
        <ele>215.6</ele>
        <time>2017-09-17T06:24:17Z</time>
      </trkpt>
      <trkpt lat="49.22589" lon="1.14016">
        <ele>214.5</ele>
        <time>2017-09-17T06:24:19Z</time>
      </trkpt>
      <trkpt lat="49.22603" lon="1.14028">
        <ele>213.3</ele>
        <time>2017-09-17T06:24:21Z</time>
      </trkpt>
      <trkpt lat="49.22617" lon="1.1404">
        <ele>212.1</ele>
        <time>2017-09-17T06:24:23Z</time>
      </trkpt>
      <trkpt lat="49.22632" lon="1.14053">
        <ele>210.9</ele>
        <time>2017-09-17T06:24:25Z</time>
      </trkpt>
      <trkpt lat="49.22647" lon="1.14062">
        <ele>209.2</ele>
        <time>2017-09-17T06:24:27Z</time>
      </trkpt>
      <trkpt lat="49.22659" lon="1.14068">
        <ele>207.4</ele>
        <time>2017-09-17T06:24:29Z</time>
      </trkpt>
      <trkpt lat="49.22671" lon="1.14077">
        <ele>205.3</ele>
        <time>2017-09-17T06:24:31Z</time>
      </trkpt>
      <trkpt lat="49.22682" lon="1.14085">
        <ele>203.7</ele>
        <time>2017-09-17T06:24:33Z</time>
      </trkpt>
      <trkpt lat="49.22693" lon="1.14093">
        <ele>202.2</ele>
        <time>2017-09-17T06:24:35Z</time>
      </trkpt>
      <trkpt lat="49.22707" lon="1.141">
        <ele>200.9</ele>
        <time>2017-09-17T06:24:37Z</time>
      </trkpt>
      <trkpt lat="49.2272" lon="1.14107">
        <ele>199.4</ele>
        <time>2017-09-17T06:24:39Z</time>
      </trkpt>
      <trkpt lat="49.22729" lon="1.14115">
        <ele>197.1</ele>
        <time>2017-09-17T06:24:42Z</time>
      </trkpt>
      <trkpt lat="49.22739" lon="1.14121">
        <ele>194.9</ele>
        <time>2017-09-17T06:24:45Z</time>
      </trkpt>
      <trkpt lat="49.22748" lon="1.14128">
        <ele>192.4</ele>
        <time>2017-09-17T06:24:49Z</time>
      </trkpt>
      <trkpt lat="49.22757" lon="1.14135">
        <ele>190.2</ele>
        <time>2017-09-17T06:24:53Z</time>
      </trkpt>
      <trkpt lat="49.22765" lon="1.1414">
        <ele>188.1</ele>
        <time>2017-09-17T06:24:57Z</time>
      </trkpt>
      <trkpt lat="49.22775" lon="1.14146">
        <ele>185.3</ele>
        <time>2017-09-17T06:25:02Z</time>
      </trkpt>
      <trkpt lat="49.22784" lon="1.14149">
        <ele>181.7</ele>
        <time>2017-09-17T06:25:08Z</time>
      </trkpt>
      <trkpt lat="49.22792" lon="1.14154">
        <ele>179.5</ele>
        <time>2017-09-17T06:25:23Z</time>
      </trkpt>
      <trkpt lat="49.22801" lon="1.14163">
        <ele>178.9</ele>
        <time>2017-09-17T06:25:27Z</time>
      </trkpt>
      <trkpt lat="49.2281" lon="1.14167">
        <ele>178.1</ele>
        <time>2017-09-17T06:25:29Z</time>
      </trkpt>
      <trkpt lat="49.22818" lon="1.14174">
        <ele>177.3</ele>
        <time>2017-09-17T06:25:32Z</time>
      </trkpt>
      <trkpt lat="49.22825" lon="1.14189">
        <ele>176</ele>
        <time>2017-09-17T06:25:35Z</time>
      </trkpt>
      <trkpt lat="49.22828" lon="1.14208">
        <ele>174.6</ele>
        <time>2017-09-17T06:25:38Z</time>
      </trkpt>
      <trkpt lat="49.2283" lon="1.14224">
        <ele>173.6</ele>
        <time>2017-09-17T06:25:40Z</time>
      </trkpt>
      <trkpt lat="49.22837" lon="1.14239">
        <ele>171.8</ele>
        <time>2017-09-17T06:25:43Z</time>
      </trkpt>
      <trkpt lat="49.22849" lon="1.1424">
        <ele>170.2</ele>
        <time>2017-09-17T06:25:47Z</time>
      </trkpt>
      <trkpt lat="49.2286" lon="1.14235">
        <ele>170</ele>
        <time>2017-09-17T06:25:50Z</time>
      </trkpt>
      <trkpt lat="49.22869" lon="1.14228">
        <ele>170</ele>
        <time>2017-09-17T06:25:52Z</time>
      </trkpt>
      <trkpt lat="49.22877" lon="1.14217">
        <ele>170.4</ele>
        <time>2017-09-17T06:25:55Z</time>
      </trkpt>
      <trkpt lat="49.22886" lon="1.14207">
        <ele>170.6</ele>
        <time>2017-09-17T06:25:57Z</time>
      </trkpt>
      <trkpt lat="49.22894" lon="1.14197">
        <ele>171</ele>
        <time>2017-09-17T06:25:59Z</time>
      </trkpt>
      <trkpt lat="49.22903" lon="1.1419">
        <ele>171.3</ele>
        <time>2017-09-17T06:26:01Z</time>
      </trkpt>
      <trkpt lat="49.22915" lon="1.14181">
        <ele>171.5</ele>
        <time>2017-09-17T06:26:03Z</time>
      </trkpt>
      <trkpt lat="49.22924" lon="1.14176">
        <ele>171.7</ele>
        <time>2017-09-17T06:26:05Z</time>
      </trkpt>
      <trkpt lat="49.22934" lon="1.14176">
        <ele>172</ele>
        <time>2017-09-17T06:26:07Z</time>
      </trkpt>
      <trkpt lat="49.22947" lon="1.14181">
        <ele>172.5</ele>
        <time>2017-09-17T06:26:10Z</time>
      </trkpt>
      <trkpt lat="49.22956" lon="1.14185">
        <ele>172.9</ele>
        <time>2017-09-17T06:26:12Z</time>
      </trkpt>
      <trkpt lat="49.22967" lon="1.14187">
        <ele>173.4</ele>
        <time>2017-09-17T06:26:14Z</time>
      </trkpt>
      <trkpt lat="49.22979" lon="1.14193">
        <ele>173.8</ele>
        <time>2017-09-17T06:26:17Z</time>
      </trkpt>
      <trkpt lat="49.22993" lon="1.14199">
        <ele>173.8</ele>
        <time>2017-09-17T06:26:20Z</time>
      </trkpt>
      <trkpt lat="49.23004" lon="1.14202">
        <ele>173.9</ele>
        <time>2017-09-17T06:26:22Z</time>
      </trkpt>
      <trkpt lat="49.23014" lon="1.14201">
        <ele>174</ele>
        <time>2017-09-17T06:26:24Z</time>
      </trkpt>
      <trkpt lat="49.23027" lon="1.14197">
        <ele>174.3</ele>
        <time>2017-09-17T06:26:27Z</time>
      </trkpt>
      <trkpt lat="49.23036" lon="1.14189">
        <ele>174.3</ele>
        <time>2017-09-17T06:26:29Z</time>
      </trkpt>
      <trkpt lat="49.23046" lon="1.14181">
        <ele>174.2</ele>
        <time>2017-09-17T06:26:31Z</time>
      </trkpt>
      <trkpt lat="49.23058" lon="1.14175">
        <ele>174.1</ele>
        <time>2017-09-17T06:26:33Z</time>
      </trkpt>
      <trkpt lat="49.23069" lon="1.14171">
        <ele>174</ele>
        <time>2017-09-17T06:26:35Z</time>
      </trkpt>
      <trkpt lat="49.23079" lon="1.14165">
        <ele>173.8</ele>
        <time>2017-09-17T06:26:37Z</time>
      </trkpt>
      <trkpt lat="49.23088" lon="1.14161">
        <ele>173.8</ele>
        <time>2017-09-17T06:26:39Z</time>
      </trkpt>
      <trkpt lat="49.23101" lon="1.14157">
        <ele>173.7</ele>
        <time>2017-09-17T06:26:41Z</time>
      </trkpt>
      <trkpt lat="49.23113" lon="1.14152">
        <ele>174</ele>
        <time>2017-09-17T06:26:44Z</time>
      </trkpt>
      <trkpt lat="49.23122" lon="1.14145">
        <ele>174.1</ele>
        <time>2017-09-17T06:26:46Z</time>
      </trkpt>
      <trkpt lat="49.23131" lon="1.14137">
        <ele>174.2</ele>
        <time>2017-09-17T06:26:48Z</time>
      </trkpt>
      <trkpt lat="49.2314" lon="1.14126">
        <ele>174.3</ele>
        <time>2017-09-17T06:26:50Z</time>
      </trkpt>
      <trkpt lat="49.2315" lon="1.14117">
        <ele>174.3</ele>
        <time>2017-09-17T06:26:52Z</time>
      </trkpt>
      <trkpt lat="49.23158" lon="1.14104">
        <ele>174</ele>
        <time>2017-09-17T06:26:54Z</time>
      </trkpt>
      <trkpt lat="49.23169" lon="1.14088">
        <ele>173.7</ele>
        <time>2017-09-17T06:26:56Z</time>
      </trkpt>
      <trkpt lat="49.23178" lon="1.14073">
        <ele>173.2</ele>
        <time>2017-09-17T06:26:58Z</time>
      </trkpt>
      <trkpt lat="49.23188" lon="1.14059">
        <ele>173</ele>
        <time>2017-09-17T06:27:00Z</time>
      </trkpt>
      <trkpt lat="49.23199" lon="1.14044">
        <ele>172.9</ele>
        <time>2017-09-17T06:27:02Z</time>
      </trkpt>
      <trkpt lat="49.23207" lon="1.14027">
        <ele>172.7</ele>
        <time>2017-09-17T06:27:04Z</time>
      </trkpt>
      <trkpt lat="49.23212" lon="1.14011">
        <ele>172.6</ele>
        <time>2017-09-17T06:27:06Z</time>
      </trkpt>
      <trkpt lat="49.23215" lon="1.13995">
        <ele>172.5</ele>
        <time>2017-09-17T06:27:08Z</time>
      </trkpt>
      <trkpt lat="49.23216" lon="1.13981">
        <ele>172.6</ele>
        <time>2017-09-17T06:27:10Z</time>
      </trkpt>
      <trkpt lat="49.23218" lon="1.13965">
        <ele>172.3</ele>
        <time>2017-09-17T06:27:12Z</time>
      </trkpt>
      <trkpt lat="49.23213" lon="1.13944">
        <ele>172.5</ele>
        <time>2017-09-17T06:27:14Z</time>
      </trkpt>
      <trkpt lat="49.2321" lon="1.13924">
        <ele>172.5</ele>
        <time>2017-09-17T06:27:16Z</time>
      </trkpt>
      <trkpt lat="49.23207" lon="1.13904">
        <ele>172.5</ele>
        <time>2017-09-17T06:27:18Z</time>
      </trkpt>
      <trkpt lat="49.23203" lon="1.13882">
        <ele>172.4</ele>
        <time>2017-09-17T06:27:20Z</time>
      </trkpt>
      <trkpt lat="49.23201" lon="1.13865">
        <ele>172.3</ele>
        <time>2017-09-17T06:27:22Z</time>
      </trkpt>
      <trkpt lat="49.23199" lon="1.13847">
        <ele>172.3</ele>
        <time>2017-09-17T06:27:24Z</time>
      </trkpt>
      <trkpt lat="49.23196" lon="1.13824">
        <ele>172.4</ele>
        <time>2017-09-17T06:27:26Z</time>
      </trkpt>
      <trkpt lat="49.23192" lon="1.13804">
        <ele>172.7</ele>
        <time>2017-09-17T06:27:28Z</time>
      </trkpt>
      <trkpt lat="49.23189" lon="1.13786">
        <ele>173</ele>
        <time>2017-09-17T06:27:30Z</time>
      </trkpt>
      <trkpt lat="49.23186" lon="1.13772">
        <ele>173.1</ele>
        <time>2017-09-17T06:27:32Z</time>
      </trkpt>
      <trkpt lat="49.23183" lon="1.13755">
        <ele>173.3</ele>
        <time>2017-09-17T06:27:34Z</time>
      </trkpt>
      <trkpt lat="49.23178" lon="1.13739">
        <ele>173.4</ele>
        <time>2017-09-17T06:27:36Z</time>
      </trkpt>
      <trkpt lat="49.23174" lon="1.13724">
        <ele>173.5</ele>
        <time>2017-09-17T06:27:38Z</time>
      </trkpt>
      <trkpt lat="49.2317" lon="1.13709">
        <ele>173.5</ele>
        <time>2017-09-17T06:27:40Z</time>
      </trkpt>
      <trkpt lat="49.23166" lon="1.13694">
        <ele>173.6</ele>
        <time>2017-09-17T06:27:42Z</time>
      </trkpt>
      <trkpt lat="49.23163" lon="1.13679">
        <ele>173.5</ele>
        <time>2017-09-17T06:27:44Z</time>
      </trkpt>
      <trkpt lat="49.23159" lon="1.13664">
        <ele>173.6</ele>
        <time>2017-09-17T06:27:46Z</time>
      </trkpt>
      <trkpt lat="49.23155" lon="1.13649">
        <ele>173.8</ele>
        <time>2017-09-17T06:27:48Z</time>
      </trkpt>
      <trkpt lat="49.23151" lon="1.13633">
        <ele>174.1</ele>
        <time>2017-09-17T06:27:50Z</time>
      </trkpt>
      <trkpt lat="49.23148" lon="1.13617">
        <ele>174.1</ele>
        <time>2017-09-17T06:27:52Z</time>
      </trkpt>
      <trkpt lat="49.23144" lon="1.13601">
        <ele>174.2</ele>
        <time>2017-09-17T06:27:54Z</time>
      </trkpt>
      <trkpt lat="49.23139" lon="1.13585">
        <ele>174.1</ele>
        <time>2017-09-17T06:27:56Z</time>
      </trkpt>
      <trkpt lat="49.23135" lon="1.13569">
        <ele>174.4</ele>
        <time>2017-09-17T06:27:58Z</time>
      </trkpt>
      <trkpt lat="49.23131" lon="1.13553">
        <ele>174.5</ele>
        <time>2017-09-17T06:28:00Z</time>
      </trkpt>
      <trkpt lat="49.23128" lon="1.13537">
        <ele>174.3</ele>
        <time>2017-09-17T06:28:02Z</time>
      </trkpt>
      <trkpt lat="49.23124" lon="1.13522">
        <ele>174.6</ele>
        <time>2017-09-17T06:28:04Z</time>
      </trkpt>
      <trkpt lat="49.2312" lon="1.13507">
        <ele>174.5</ele>
        <time>2017-09-17T06:28:06Z</time>
      </trkpt>
      <trkpt lat="49.23117" lon="1.13492">
        <ele>174.6</ele>
        <time>2017-09-17T06:28:08Z</time>
      </trkpt>
      <trkpt lat="49.23114" lon="1.13476">
        <ele>174.6</ele>
        <time>2017-09-17T06:28:10Z</time>
      </trkpt>
      <trkpt lat="49.23112" lon="1.1346">
        <ele>174.8</ele>
        <time>2017-09-17T06:28:12Z</time>
      </trkpt>
      <trkpt lat="49.2311" lon="1.13445">
        <ele>174.9</ele>
        <time>2017-09-17T06:28:14Z</time>
      </trkpt>
      <trkpt lat="49.23108" lon="1.1343">
        <ele>174.9</ele>
        <time>2017-09-17T06:28:16Z</time>
      </trkpt>
      <trkpt lat="49.23108" lon="1.13415">
        <ele>175.1</ele>
        <time>2017-09-17T06:28:18Z</time>
      </trkpt>
      <trkpt lat="49.23107" lon="1.13401">
        <ele>175.3</ele>
        <time>2017-09-17T06:28:20Z</time>
      </trkpt>
      <trkpt lat="49.23105" lon="1.13386">
        <ele>175.3</ele>
        <time>2017-09-17T06:28:22Z</time>
      </trkpt>
      <trkpt lat="49.231" lon="1.13371">
        <ele>175.4</ele>
        <time>2017-09-17T06:28:24Z</time>
      </trkpt>
      <trkpt lat="49.23098" lon="1.13354">
        <ele>175.4</ele>
        <time>2017-09-17T06:28:26Z</time>
      </trkpt>
      <trkpt lat="49.231" lon="1.13339">
        <ele>175.4</ele>
        <time>2017-09-17T06:28:28Z</time>
      </trkpt>
      <trkpt lat="49.23108" lon="1.13323">
        <ele>175.6</ele>
        <time>2017-09-17T06:28:31Z</time>
      </trkpt>
      <trkpt lat="49.23115" lon="1.13305">
        <ele>176</ele>
        <time>2017-09-17T06:28:34Z</time>
      </trkpt>
      <trkpt lat="49.23122" lon="1.13288">
        <ele>176.3</ele>
        <time>2017-09-17T06:28:37Z</time>
      </trkpt>
      <trkpt lat="49.23127" lon="1.13272">
        <ele>176.6</ele>
        <time>2017-09-17T06:28:40Z</time>
      </trkpt>
      <trkpt lat="49.23127" lon="1.13258">
        <ele>176.8</ele>
        <time>2017-09-17T06:28:42Z</time>
      </trkpt>
      <trkpt lat="49.23132" lon="1.13242">
        <ele>176.9</ele>
        <time>2017-09-17T06:28:45Z</time>
      </trkpt>
      <trkpt lat="49.23136" lon="1.13226">
        <ele>177.2</ele>
        <time>2017-09-17T06:28:48Z</time>
      </trkpt>
      <trkpt lat="49.2314" lon="1.13208">
        <ele>177.4</ele>
        <time>2017-09-17T06:28:51Z</time>
      </trkpt>
      <trkpt lat="49.23143" lon="1.13195">
        <ele>177.5</ele>
        <time>2017-09-17T06:28:53Z</time>
      </trkpt>
      <trkpt lat="49.23143" lon="1.1318">
        <ele>177.6</ele>
        <time>2017-09-17T06:28:55Z</time>
      </trkpt>
      <trkpt lat="49.23136" lon="1.13157">
        <ele>177.9</ele>
        <time>2017-09-17T06:28:58Z</time>
      </trkpt>
      <trkpt lat="49.23129" lon="1.13147">
        <ele>178</ele>
        <time>2017-09-17T06:28:59Z</time>
      </trkpt>
      <trkpt lat="49.23119" lon="1.13132">
        <ele>178.2</ele>
        <time>2017-09-17T06:29:02Z</time>
      </trkpt>
      <trkpt lat="49.23113" lon="1.13118">
        <ele>178.4</ele>
        <time>2017-09-17T06:29:05Z</time>
      </trkpt>
      <trkpt lat="49.23107" lon="1.13108">
        <ele>178.7</ele>
        <time>2017-09-17T06:29:10Z</time>
      </trkpt>
      <trkpt lat="49.23112" lon="1.13095">
        <ele>178.9</ele>
        <time>2017-09-17T06:29:20Z</time>
      </trkpt>
      <trkpt lat="49.23122" lon="1.13091">
        <ele>178.6</ele>
        <time>2017-09-17T06:29:25Z</time>
      </trkpt>
      <trkpt lat="49.23131" lon="1.13092">
        <ele>177.7</ele>
        <time>2017-09-17T06:29:29Z</time>
      </trkpt>
      <trkpt lat="49.23141" lon="1.13093">
        <ele>178.1</ele>
        <time>2017-09-17T06:29:36Z</time>
      </trkpt>
      <trkpt lat="49.23151" lon="1.13093">
        <ele>178.1</ele>
        <time>2017-09-17T06:29:43Z</time>
      </trkpt>
      <trkpt lat="49.23163" lon="1.13095">
        <ele>178.6</ele>
        <time>2017-09-17T06:29:49Z</time>
      </trkpt>
      <trkpt lat="49.23174" lon="1.131">
        <ele>179.7</ele>
        <time>2017-09-17T06:29:54Z</time>
      </trkpt>
      <trkpt lat="49.23182" lon="1.13103">
        <ele>181.5</ele>
        <time>2017-09-17T06:29:59Z</time>
      </trkpt>
      <trkpt lat="49.23192" lon="1.13107">
        <ele>183.9</ele>
        <time>2017-09-17T06:30:04Z</time>
      </trkpt>
      <trkpt lat="49.23201" lon="1.13109">
        <ele>185.8</ele>
        <time>2017-09-17T06:30:08Z</time>
      </trkpt>
      <trkpt lat="49.23211" lon="1.13112">
        <ele>187.4</ele>
        <time>2017-09-17T06:30:14Z</time>
      </trkpt>
      <trkpt lat="49.23221" lon="1.13116">
        <ele>187</ele>
        <time>2017-09-17T06:30:20Z</time>
      </trkpt>
      <trkpt lat="49.23233" lon="1.13122">
        <ele>185.1</ele>
        <time>2017-09-17T06:30:25Z</time>
      </trkpt>
      <trkpt lat="49.23242" lon="1.13126">
        <ele>184</ele>
        <time>2017-09-17T06:30:32Z</time>
      </trkpt>
      <trkpt lat="49.23252" lon="1.13132">
        <ele>185</ele>
        <time>2017-09-17T06:30:37Z</time>
      </trkpt>
      <trkpt lat="49.23261" lon="1.13136">
        <ele>186.7</ele>
        <time>2017-09-17T06:30:43Z</time>
      </trkpt>
      <trkpt lat="49.23272" lon="1.13138">
        <ele>188.7</ele>
        <time>2017-09-17T06:30:49Z</time>
      </trkpt>
      <trkpt lat="49.23281" lon="1.13141">
        <ele>190.2</ele>
        <time>2017-09-17T06:30:54Z</time>
      </trkpt>
      <trkpt lat="49.23289" lon="1.13145">
        <ele>192.2</ele>
        <time>2017-09-17T06:31:01Z</time>
      </trkpt>
      <trkpt lat="49.23298" lon="1.1315">
        <ele>194.1</ele>
        <time>2017-09-17T06:31:08Z</time>
      </trkpt>
      <trkpt lat="49.23308" lon="1.13155">
        <ele>196.3</ele>
        <time>2017-09-17T06:31:16Z</time>
      </trkpt>
      <trkpt lat="49.23317" lon="1.13159">
        <ele>198.7</ele>
        <time>2017-09-17T06:31:25Z</time>
      </trkpt>
      <trkpt lat="49.23326" lon="1.13162">
        <ele>200.6</ele>
        <time>2017-09-17T06:31:32Z</time>
      </trkpt>
      <trkpt lat="49.23336" lon="1.13167">
        <ele>202.6</ele>
        <time>2017-09-17T06:31:40Z</time>
      </trkpt>
      <trkpt lat="49.23343" lon="1.13159">
        <ele>204.8</ele>
        <time>2017-09-17T06:31:48Z</time>
      </trkpt>
      <trkpt lat="49.2335" lon="1.13147">
        <ele>206.1</ele>
        <time>2017-09-17T06:31:56Z</time>
      </trkpt>
      <trkpt lat="49.23356" lon="1.13135">
        <ele>206.7</ele>
        <time>2017-09-17T06:32:03Z</time>
      </trkpt>
      <trkpt lat="49.23362" lon="1.13124">
        <ele>207.3</ele>
        <time>2017-09-17T06:32:08Z</time>
      </trkpt>
      <trkpt lat="49.23366" lon="1.13111">
        <ele>208.3</ele>
        <time>2017-09-17T06:32:14Z</time>
      </trkpt>
      <trkpt lat="49.23368" lon="1.13097">
        <ele>209</ele>
        <time>2017-09-17T06:32:19Z</time>
      </trkpt>
      <trkpt lat="49.23374" lon="1.13083">
        <ele>209.5</ele>
        <time>2017-09-17T06:32:23Z</time>
      </trkpt>
      <trkpt lat="49.23377" lon="1.13067">
        <ele>210.1</ele>
        <time>2017-09-17T06:32:28Z</time>
      </trkpt>
      <trkpt lat="49.23384" lon="1.13053">
        <ele>210.5</ele>
        <time>2017-09-17T06:32:33Z</time>
      </trkpt>
      <trkpt lat="49.23386" lon="1.13038">
        <ele>210.7</ele>
        <time>2017-09-17T06:32:36Z</time>
      </trkpt>
      <trkpt lat="49.23388" lon="1.13023">
        <ele>210.6</ele>
        <time>2017-09-17T06:32:40Z</time>
      </trkpt>
      <trkpt lat="49.2339" lon="1.13008">
        <ele>210.5</ele>
        <time>2017-09-17T06:32:43Z</time>
      </trkpt>
      <trkpt lat="49.23399" lon="1.12995">
        <ele>210.3</ele>
        <time>2017-09-17T06:32:46Z</time>
      </trkpt>
      <trkpt lat="49.23401" lon="1.12979">
        <ele>210</ele>
        <time>2017-09-17T06:32:49Z</time>
      </trkpt>
      <trkpt lat="49.23404" lon="1.12964">
        <ele>209.2</ele>
        <time>2017-09-17T06:32:52Z</time>
      </trkpt>
      <trkpt lat="49.2341" lon="1.12946">
        <ele>208.9</ele>
        <time>2017-09-17T06:32:55Z</time>
      </trkpt>
      <trkpt lat="49.23413" lon="1.12928">
        <ele>208.4</ele>
        <time>2017-09-17T06:32:58Z</time>
      </trkpt>
      <trkpt lat="49.23417" lon="1.12912">
        <ele>208</ele>
        <time>2017-09-17T06:33:00Z</time>
      </trkpt>
      <trkpt lat="49.23418" lon="1.12896">
        <ele>207.8</ele>
        <time>2017-09-17T06:33:02Z</time>
      </trkpt>
      <trkpt lat="49.23423" lon="1.12876">
        <ele>207.5</ele>
        <time>2017-09-17T06:33:05Z</time>
      </trkpt>
      <trkpt lat="49.23426" lon="1.12859">
        <ele>207.2</ele>
        <time>2017-09-17T06:33:07Z</time>
      </trkpt>
      <trkpt lat="49.2343" lon="1.12844">
        <ele>206.9</ele>
        <time>2017-09-17T06:33:09Z</time>
      </trkpt>
      <trkpt lat="49.23432" lon="1.12828">
        <ele>206.7</ele>
        <time>2017-09-17T06:33:12Z</time>
      </trkpt>
      <trkpt lat="49.23432" lon="1.12813">
        <ele>206.4</ele>
        <time>2017-09-17T06:33:16Z</time>
      </trkpt>
      <trkpt lat="49.23437" lon="1.12801">
        <ele>206.6</ele>
        <time>2017-09-17T06:33:19Z</time>
      </trkpt>
      <trkpt lat="49.23434" lon="1.12788">
        <ele>207.2</ele>
        <time>2017-09-17T06:33:24Z</time>
      </trkpt>
      <trkpt lat="49.23423" lon="1.12793">
        <ele>207</ele>
        <time>2017-09-17T06:33:28Z</time>
      </trkpt>
      <trkpt lat="49.23415" lon="1.12801">
        <ele>206.7</ele>
        <time>2017-09-17T06:33:30Z</time>
      </trkpt>
      <trkpt lat="49.23406" lon="1.12811">
        <ele>206.2</ele>
        <time>2017-09-17T06:33:32Z</time>
      </trkpt>
      <trkpt lat="49.23397" lon="1.1282">
        <ele>205.4</ele>
        <time>2017-09-17T06:33:34Z</time>
      </trkpt>
      <trkpt lat="49.23388" lon="1.12832">
        <ele>204.1</ele>
        <time>2017-09-17T06:33:36Z</time>
      </trkpt>
      <trkpt lat="49.23379" lon="1.12846">
        <ele>203.1</ele>
        <time>2017-09-17T06:33:38Z</time>
      </trkpt>
      <trkpt lat="49.23369" lon="1.12857">
        <ele>201.9</ele>
        <time>2017-09-17T06:33:40Z</time>
      </trkpt>
      <trkpt lat="49.23361" lon="1.1287">
        <ele>200.9</ele>
        <time>2017-09-17T06:33:42Z</time>
      </trkpt>
      <trkpt lat="49.23353" lon="1.12877">
        <ele>200</ele>
        <time>2017-09-17T06:33:44Z</time>
      </trkpt>
      <trkpt lat="49.23341" lon="1.12887">
        <ele>198.1</ele>
        <time>2017-09-17T06:33:47Z</time>
      </trkpt>
      <trkpt lat="49.23332" lon="1.12894">
        <ele>196.9</ele>
        <time>2017-09-17T06:33:49Z</time>
      </trkpt>
      <trkpt lat="49.23321" lon="1.129">
        <ele>195.4</ele>
        <time>2017-09-17T06:33:52Z</time>
      </trkpt>
      <trkpt lat="49.23311" lon="1.12904">
        <ele>193.9</ele>
        <time>2017-09-17T06:33:55Z</time>
      </trkpt>
      <trkpt lat="49.23301" lon="1.12908">
        <ele>192.8</ele>
        <time>2017-09-17T06:33:58Z</time>
      </trkpt>
      <trkpt lat="49.23291" lon="1.12907">
        <ele>191.6</ele>
        <time>2017-09-17T06:34:01Z</time>
      </trkpt>
      <trkpt lat="49.23287" lon="1.12894">
        <ele>190.7</ele>
        <time>2017-09-17T06:34:05Z</time>
      </trkpt>
      <trkpt lat="49.23287" lon="1.12878">
        <ele>190.7</ele>
        <time>2017-09-17T06:34:08Z</time>
      </trkpt>
      <trkpt lat="49.23287" lon="1.12863">
        <ele>190.7</ele>
        <time>2017-09-17T06:34:11Z</time>
      </trkpt>
      <trkpt lat="49.23286" lon="1.12844">
        <ele>190.9</ele>
        <time>2017-09-17T06:34:14Z</time>
      </trkpt>
      <trkpt lat="49.23286" lon="1.12825">
        <ele>191.3</ele>
        <time>2017-09-17T06:34:17Z</time>
      </trkpt>
      <trkpt lat="49.23286" lon="1.12811">
        <ele>191.5</ele>
        <time>2017-09-17T06:34:20Z</time>
      </trkpt>
      <trkpt lat="49.23286" lon="1.12796">
        <ele>191.8</ele>
        <time>2017-09-17T06:34:23Z</time>
      </trkpt>
      <trkpt lat="49.23288" lon="1.12778">
        <ele>192.1</ele>
        <time>2017-09-17T06:34:27Z</time>
      </trkpt>
      <trkpt lat="49.23291" lon="1.12765">
        <ele>192.3</ele>
        <time>2017-09-17T06:34:30Z</time>
      </trkpt>
      <trkpt lat="49.23295" lon="1.12748">
        <ele>192.9</ele>
        <time>2017-09-17T06:34:34Z</time>
      </trkpt>
      <trkpt lat="49.23298" lon="1.12734">
        <ele>193.2</ele>
        <time>2017-09-17T06:34:37Z</time>
      </trkpt>
      <trkpt lat="49.23303" lon="1.12717">
        <ele>193.5</ele>
        <time>2017-09-17T06:34:41Z</time>
      </trkpt>
      <trkpt lat="49.23305" lon="1.12702">
        <ele>193.7</ele>
        <time>2017-09-17T06:34:44Z</time>
      </trkpt>
      <trkpt lat="49.23307" lon="1.12685">
        <ele>194.3</ele>
        <time>2017-09-17T06:34:48Z</time>
      </trkpt>
      <trkpt lat="49.23312" lon="1.12669">
        <ele>194.8</ele>
        <time>2017-09-17T06:34:52Z</time>
      </trkpt>
      <trkpt lat="49.23314" lon="1.12653">
        <ele>195.2</ele>
        <time>2017-09-17T06:34:55Z</time>
      </trkpt>
      <trkpt lat="49.23319" lon="1.12639">
        <ele>195.4</ele>
        <time>2017-09-17T06:34:58Z</time>
      </trkpt>
      <trkpt lat="49.23324" lon="1.12624">
        <ele>195.8</ele>
        <time>2017-09-17T06:35:01Z</time>
      </trkpt>
      <trkpt lat="49.23328" lon="1.1261">
        <ele>196.1</ele>
        <time>2017-09-17T06:35:04Z</time>
      </trkpt>
      <trkpt lat="49.23332" lon="1.12591">
        <ele>196.4</ele>
        <time>2017-09-17T06:35:07Z</time>
      </trkpt>
      <trkpt lat="49.23336" lon="1.12574">
        <ele>196.8</ele>
        <time>2017-09-17T06:35:10Z</time>
      </trkpt>
      <trkpt lat="49.23341" lon="1.12559">
        <ele>197.1</ele>
        <time>2017-09-17T06:35:13Z</time>
      </trkpt>
      <trkpt lat="49.23346" lon="1.1254">
        <ele>197.4</ele>
        <time>2017-09-17T06:35:16Z</time>
      </trkpt>
      <trkpt lat="49.23349" lon="1.12526">
        <ele>197.5</ele>
        <time>2017-09-17T06:35:18Z</time>
      </trkpt>
      <trkpt lat="49.23354" lon="1.12508">
        <ele>198</ele>
        <time>2017-09-17T06:35:21Z</time>
      </trkpt>
      <trkpt lat="49.23357" lon="1.12491">
        <ele>198.4</ele>
        <time>2017-09-17T06:35:24Z</time>
      </trkpt>
      <trkpt lat="49.23351" lon="1.12481">
        <ele>199.1</ele>
        <time>2017-09-17T06:35:29Z</time>
      </trkpt>
      <trkpt lat="49.23339" lon="1.12481">
        <ele>199</ele>
        <time>2017-09-17T06:35:33Z</time>
      </trkpt>
      <trkpt lat="49.23329" lon="1.12475">
        <ele>199.2</ele>
        <time>2017-09-17T06:35:37Z</time>
      </trkpt>
      <trkpt lat="49.23319" lon="1.1247">
        <ele>201</ele>
        <time>2017-09-17T06:35:49Z</time>
      </trkpt>
      <trkpt lat="49.2331" lon="1.12467">
        <ele>203.6</ele>
        <time>2017-09-17T06:35:59Z</time>
      </trkpt>
      <trkpt lat="49.23301" lon="1.12465">
        <ele>206.7</ele>
        <time>2017-09-17T06:36:10Z</time>
      </trkpt>
      <trkpt lat="49.23291" lon="1.12464">
        <ele>209.7</ele>
        <time>2017-09-17T06:36:22Z</time>
      </trkpt>
      <trkpt lat="49.23282" lon="1.12462">
        <ele>213</ele>
        <time>2017-09-17T06:36:34Z</time>
      </trkpt>
      <trkpt lat="49.23272" lon="1.12457">
        <ele>216.3</ele>
        <time>2017-09-17T06:36:47Z</time>
      </trkpt>
      <trkpt lat="49.23263" lon="1.12456">
        <ele>218.5</ele>
        <time>2017-09-17T06:36:58Z</time>
      </trkpt>
      <trkpt lat="49.23254" lon="1.12451">
        <ele>220.9</ele>
        <time>2017-09-17T06:37:08Z</time>
      </trkpt>
      <trkpt lat="49.23254" lon="1.12437">
        <ele>222</ele>
        <time>2017-09-17T06:37:18Z</time>
      </trkpt>
      <trkpt lat="49.23256" lon="1.12424">
        <ele>222.4</ele>
        <time>2017-09-17T06:37:23Z</time>
      </trkpt>
      <trkpt lat="49.23257" lon="1.12409">
        <ele>222.6</ele>
        <time>2017-09-17T06:37:27Z</time>
      </trkpt>
      <trkpt lat="49.2326" lon="1.12396">
        <ele>223.1</ele>
        <time>2017-09-17T06:37:31Z</time>
      </trkpt>
      <trkpt lat="49.23263" lon="1.12381">
        <ele>223.3</ele>
        <time>2017-09-17T06:37:35Z</time>
      </trkpt>
      <trkpt lat="49.23266" lon="1.12366">
        <ele>223.8</ele>
        <time>2017-09-17T06:37:39Z</time>
      </trkpt>
      <trkpt lat="49.23267" lon="1.12349">
        <ele>224</ele>
        <time>2017-09-17T06:37:42Z</time>
      </trkpt>
      <trkpt lat="49.23269" lon="1.12335">
        <ele>224.2</ele>
        <time>2017-09-17T06:37:45Z</time>
      </trkpt>
      <trkpt lat="49.2327" lon="1.12319">
        <ele>224.3</ele>
        <time>2017-09-17T06:37:48Z</time>
      </trkpt>
      <trkpt lat="49.23273" lon="1.12303">
        <ele>224.5</ele>
        <time>2017-09-17T06:37:51Z</time>
      </trkpt>
      <trkpt lat="49.23275" lon="1.12288">
        <ele>224.6</ele>
        <time>2017-09-17T06:37:54Z</time>
      </trkpt>
      <trkpt lat="49.23276" lon="1.12272">
        <ele>224.9</ele>
        <time>2017-09-17T06:37:57Z</time>
      </trkpt>
      <trkpt lat="49.23278" lon="1.12254">
        <ele>225.2</ele>
        <time>2017-09-17T06:38:00Z</time>
      </trkpt>
      <trkpt lat="49.23282" lon="1.12239">
        <ele>225.3</ele>
        <time>2017-09-17T06:38:03Z</time>
      </trkpt>
      <trkpt lat="49.23285" lon="1.12222">
        <ele>225.4</ele>
        <time>2017-09-17T06:38:06Z</time>
      </trkpt>
      <trkpt lat="49.23287" lon="1.12207">
        <ele>225.4</ele>
        <time>2017-09-17T06:38:09Z</time>
      </trkpt>
      <trkpt lat="49.23291" lon="1.12192">
        <ele>225.7</ele>
        <time>2017-09-17T06:38:12Z</time>
      </trkpt>
      <trkpt lat="49.23294" lon="1.12171">
        <ele>225.9</ele>
        <time>2017-09-17T06:38:15Z</time>
      </trkpt>
      <trkpt lat="49.23297" lon="1.12155">
        <ele>226</ele>
        <time>2017-09-17T06:38:18Z</time>
      </trkpt>
      <trkpt lat="49.233" lon="1.12139">
        <ele>226.3</ele>
        <time>2017-09-17T06:38:21Z</time>
      </trkpt>
      <trkpt lat="49.23304" lon="1.12122">
        <ele>226.4</ele>
        <time>2017-09-17T06:38:24Z</time>
      </trkpt>
      <trkpt lat="49.23308" lon="1.12107">
        <ele>226.3</ele>
        <time>2017-09-17T06:38:27Z</time>
      </trkpt>
      <trkpt lat="49.23309" lon="1.12087">
        <ele>226.2</ele>
        <time>2017-09-17T06:38:30Z</time>
      </trkpt>
      <trkpt lat="49.23312" lon="1.12069">
        <ele>226.4</ele>
        <time>2017-09-17T06:38:33Z</time>
      </trkpt>
      <trkpt lat="49.23313" lon="1.12052">
        <ele>226.6</ele>
        <time>2017-09-17T06:38:36Z</time>
      </trkpt>
      <trkpt lat="49.23316" lon="1.12035">
        <ele>226.7</ele>
        <time>2017-09-17T06:38:39Z</time>
      </trkpt>
      <trkpt lat="49.23318" lon="1.12022">
        <ele>226.6</ele>
        <time>2017-09-17T06:38:42Z</time>
      </trkpt>
      <trkpt lat="49.2332" lon="1.12003">
        <ele>226.8</ele>
        <time>2017-09-17T06:38:45Z</time>
      </trkpt>
      <trkpt lat="49.23322" lon="1.11985">
        <ele>227.2</ele>
        <time>2017-09-17T06:38:48Z</time>
      </trkpt>
      <trkpt lat="49.23325" lon="1.11967">
        <ele>227.5</ele>
        <time>2017-09-17T06:38:51Z</time>
      </trkpt>
      <trkpt lat="49.23328" lon="1.1195">
        <ele>227.8</ele>
        <time>2017-09-17T06:38:54Z</time>
      </trkpt>
      <trkpt lat="49.2333" lon="1.11932">
        <ele>228.1</ele>
        <time>2017-09-17T06:38:57Z</time>
      </trkpt>
      <trkpt lat="49.23333" lon="1.11914">
        <ele>227.9</ele>
        <time>2017-09-17T06:39:00Z</time>
      </trkpt>
      <trkpt lat="49.23336" lon="1.11899">
        <ele>227.9</ele>
        <time>2017-09-17T06:39:03Z</time>
      </trkpt>
      <trkpt lat="49.2334" lon="1.11885">
        <ele>227.9</ele>
        <time>2017-09-17T06:39:06Z</time>
      </trkpt>
      <trkpt lat="49.23344" lon="1.11866">
        <ele>227.6</ele>
        <time>2017-09-17T06:39:09Z</time>
      </trkpt>
      <trkpt lat="49.23347" lon="1.11845">
        <ele>227.3</ele>
        <time>2017-09-17T06:39:12Z</time>
      </trkpt>
      <trkpt lat="49.2335" lon="1.1183">
        <ele>226.8</ele>
        <time>2017-09-17T06:39:14Z</time>
      </trkpt>
      <trkpt lat="49.23353" lon="1.11812">
        <ele>226.1</ele>
        <time>2017-09-17T06:39:16Z</time>
      </trkpt>
      <trkpt lat="49.23356" lon="1.11796">
        <ele>225.3</ele>
        <time>2017-09-17T06:39:18Z</time>
      </trkpt>
      <trkpt lat="49.23359" lon="1.11781">
        <ele>224.5</ele>
        <time>2017-09-17T06:39:20Z</time>
      </trkpt>
      <trkpt lat="49.23361" lon="1.11767">
        <ele>223.5</ele>
        <time>2017-09-17T06:39:22Z</time>
      </trkpt>
      <trkpt lat="49.23364" lon="1.11752">
        <ele>221.9</ele>
        <time>2017-09-17T06:39:25Z</time>
      </trkpt>
      <trkpt lat="49.23369" lon="1.11738">
        <ele>220.8</ele>
        <time>2017-09-17T06:39:28Z</time>
      </trkpt>
      <trkpt lat="49.23377" lon="1.11742">
        <ele>219.7</ele>
        <time>2017-09-17T06:39:39Z</time>
      </trkpt>
      <trkpt lat="49.23385" lon="1.11755">
        <ele>219.2</ele>
        <time>2017-09-17T06:39:42Z</time>
      </trkpt>
      <trkpt lat="49.23394" lon="1.11767">
        <ele>218.8</ele>
        <time>2017-09-17T06:39:45Z</time>
      </trkpt>
      <trkpt lat="49.23407" lon="1.11766">
        <ele>218.6</ele>
        <time>2017-09-17T06:39:48Z</time>
      </trkpt>
      <trkpt lat="49.23416" lon="1.11761">
        <ele>218.7</ele>
        <time>2017-09-17T06:39:50Z</time>
      </trkpt>
      <trkpt lat="49.23426" lon="1.11756">
        <ele>219.3</ele>
        <time>2017-09-17T06:39:53Z</time>
      </trkpt>
      <trkpt lat="49.23436" lon="1.11753">
        <ele>220.4</ele>
        <time>2017-09-17T06:39:57Z</time>
      </trkpt>
      <trkpt lat="49.23445" lon="1.11749">
        <ele>221.7</ele>
        <time>2017-09-17T06:40:01Z</time>
      </trkpt>
      <trkpt lat="49.23456" lon="1.11746">
        <ele>223.7</ele>
        <time>2017-09-17T06:40:06Z</time>
      </trkpt>
      <trkpt lat="49.23466" lon="1.11749">
        <ele>225.4</ele>
        <time>2017-09-17T06:40:11Z</time>
      </trkpt>
      <trkpt lat="49.23474" lon="1.11758">
        <ele>226.5</ele>
        <time>2017-09-17T06:40:15Z</time>
      </trkpt>
      <trkpt lat="49.2348" lon="1.11769">
        <ele>227.5</ele>
        <time>2017-09-17T06:40:19Z</time>
      </trkpt>
      <trkpt lat="49.23485" lon="1.11783">
        <ele>228.6</ele>
        <time>2017-09-17T06:40:23Z</time>
      </trkpt>
      <trkpt lat="49.23491" lon="1.11797">
        <ele>229.6</ele>
        <time>2017-09-17T06:40:27Z</time>
      </trkpt>
      <trkpt lat="49.23497" lon="1.11811">
        <ele>230.4</ele>
        <time>2017-09-17T06:40:31Z</time>
      </trkpt>
      <trkpt lat="49.23502" lon="1.11824">
        <ele>230.9</ele>
        <time>2017-09-17T06:40:34Z</time>
      </trkpt>
      <trkpt lat="49.23506" lon="1.11837">
        <ele>231.5</ele>
        <time>2017-09-17T06:40:37Z</time>
      </trkpt>
      <trkpt lat="49.2351" lon="1.1185">
        <ele>232.1</ele>
        <time>2017-09-17T06:40:40Z</time>
      </trkpt>
      <trkpt lat="49.23514" lon="1.11868">
        <ele>232.6</ele>
        <time>2017-09-17T06:40:44Z</time>
      </trkpt>
      <trkpt lat="49.23517" lon="1.11882">
        <ele>233</ele>
        <time>2017-09-17T06:40:47Z</time>
      </trkpt>
      <trkpt lat="49.23518" lon="1.11896">
        <ele>233.4</ele>
        <time>2017-09-17T06:40:50Z</time>
      </trkpt>
      <trkpt lat="49.23522" lon="1.11914">
        <ele>233.8</ele>
        <time>2017-09-17T06:40:54Z</time>
      </trkpt>
      <trkpt lat="49.23524" lon="1.11928">
        <ele>234</ele>
        <time>2017-09-17T06:40:57Z</time>
      </trkpt>
      <trkpt lat="49.2353" lon="1.11944">
        <ele>234.2</ele>
        <time>2017-09-17T06:41:00Z</time>
      </trkpt>
      <trkpt lat="49.23534" lon="1.11959">
        <ele>234.1</ele>
        <time>2017-09-17T06:41:03Z</time>
      </trkpt>
      <trkpt lat="49.2354" lon="1.11971">
        <ele>234.8</ele>
        <time>2017-09-17T06:41:06Z</time>
      </trkpt>
      <trkpt lat="49.23547" lon="1.11982">
        <ele>235.1</ele>
        <time>2017-09-17T06:41:09Z</time>
      </trkpt>
      <trkpt lat="49.23558" lon="1.11991">
        <ele>235.8</ele>
        <time>2017-09-17T06:41:12Z</time>
      </trkpt>
      <trkpt lat="49.23567" lon="1.11999">
        <ele>236.3</ele>
        <time>2017-09-17T06:41:15Z</time>
      </trkpt>
      <trkpt lat="49.23577" lon="1.12007">
        <ele>236.7</ele>
        <time>2017-09-17T06:41:18Z</time>
      </trkpt>
      <trkpt lat="49.23587" lon="1.12015">
        <ele>237.2</ele>
        <time>2017-09-17T06:41:21Z</time>
      </trkpt>
      <trkpt lat="49.23597" lon="1.12024">
        <ele>237.6</ele>
        <time>2017-09-17T06:41:24Z</time>
      </trkpt>
      <trkpt lat="49.23604" lon="1.12036">
        <ele>237.8</ele>
        <time>2017-09-17T06:41:27Z</time>
      </trkpt>
      <trkpt lat="49.23604" lon="1.1205">
        <ele>237.9</ele>
        <time>2017-09-17T06:41:33Z</time>
      </trkpt>
      <trkpt lat="49.23605" lon="1.12064">
        <ele>237.4</ele>
        <time>2017-09-17T06:41:43Z</time>
      </trkpt>
      <trkpt lat="49.23605" lon="1.12078">
        <ele>237.2</ele>
        <time>2017-09-17T06:41:50Z</time>
      </trkpt>
      <trkpt lat="49.23601" lon="1.12096">
        <ele>237.2</ele>
        <time>2017-09-17T06:41:54Z</time>
      </trkpt>
      <trkpt lat="49.23597" lon="1.12114">
        <ele>237.1</ele>
        <time>2017-09-17T06:41:58Z</time>
      </trkpt>
      <trkpt lat="49.23593" lon="1.12129">
        <ele>236.8</ele>
        <time>2017-09-17T06:42:01Z</time>
      </trkpt>
      <trkpt lat="49.23588" lon="1.12147">
        <ele>236.5</ele>
        <time>2017-09-17T06:42:04Z</time>
      </trkpt>
      <trkpt lat="49.23584" lon="1.12164">
        <ele>236.5</ele>
        <time>2017-09-17T06:42:07Z</time>
      </trkpt>
      <trkpt lat="49.23581" lon="1.12179">
        <ele>236.4</ele>
        <time>2017-09-17T06:42:10Z</time>
      </trkpt>
      <trkpt lat="49.23576" lon="1.12196">
        <ele>236.1</ele>
        <time>2017-09-17T06:42:13Z</time>
      </trkpt>
      <trkpt lat="49.23572" lon="1.12214">
        <ele>236</ele>
        <time>2017-09-17T06:42:16Z</time>
      </trkpt>
      <trkpt lat="49.23568" lon="1.12232">
        <ele>235.9</ele>
        <time>2017-09-17T06:42:19Z</time>
      </trkpt>
      <trkpt lat="49.23564" lon="1.12249">
        <ele>235.5</ele>
        <time>2017-09-17T06:42:22Z</time>
      </trkpt>
      <trkpt lat="49.23559" lon="1.12266">
        <ele>235.3</ele>
        <time>2017-09-17T06:42:25Z</time>
      </trkpt>
      <trkpt lat="49.23557" lon="1.12279">
        <ele>235.3</ele>
        <time>2017-09-17T06:42:27Z</time>
      </trkpt>
      <trkpt lat="49.23552" lon="1.12297">
        <ele>235.1</ele>
        <time>2017-09-17T06:42:30Z</time>
      </trkpt>
      <trkpt lat="49.23549" lon="1.12317">
        <ele>234.9</ele>
        <time>2017-09-17T06:42:33Z</time>
      </trkpt>
      <trkpt lat="49.23545" lon="1.1233">
        <ele>234.9</ele>
        <time>2017-09-17T06:42:35Z</time>
      </trkpt>
      <trkpt lat="49.23541" lon="1.12347">
        <ele>234.8</ele>
        <time>2017-09-17T06:42:37Z</time>
      </trkpt>
      <trkpt lat="49.23538" lon="1.1236">
        <ele>234.6</ele>
        <time>2017-09-17T06:42:39Z</time>
      </trkpt>
      <trkpt lat="49.23534" lon="1.12373">
        <ele>234.4</ele>
        <time>2017-09-17T06:42:41Z</time>
      </trkpt>
      <trkpt lat="49.23531" lon="1.12389">
        <ele>234.1</ele>
        <time>2017-09-17T06:42:43Z</time>
      </trkpt>
      <trkpt lat="49.23527" lon="1.12402">
        <ele>233.7</ele>
        <time>2017-09-17T06:42:45Z</time>
      </trkpt>
      <trkpt lat="49.23523" lon="1.12419">
        <ele>233.2</ele>
        <time>2017-09-17T06:42:48Z</time>
      </trkpt>
      <trkpt lat="49.23519" lon="1.12431">
        <ele>232.9</ele>
        <time>2017-09-17T06:42:50Z</time>
      </trkpt>
      <trkpt lat="49.23515" lon="1.12447">
        <ele>232.7</ele>
        <time>2017-09-17T06:42:52Z</time>
      </trkpt>
      <trkpt lat="49.23512" lon="1.1246">
        <ele>232.4</ele>
        <time>2017-09-17T06:42:54Z</time>
      </trkpt>
      <trkpt lat="49.23515" lon="1.12474">
        <ele>231.3</ele>
        <time>2017-09-17T06:42:59Z</time>
      </trkpt>
      <trkpt lat="49.23523" lon="1.12481">
        <ele>231.2</ele>
        <time>2017-09-17T06:43:03Z</time>
      </trkpt>
      <trkpt lat="49.23533" lon="1.12486">
        <ele>231.6</ele>
        <time>2017-09-17T06:43:08Z</time>
      </trkpt>
      <trkpt lat="49.23543" lon="1.12488">
        <ele>232.4</ele>
        <time>2017-09-17T06:43:12Z</time>
      </trkpt>
      <trkpt lat="49.23555" lon="1.12489">
        <ele>233</ele>
        <time>2017-09-17T06:43:15Z</time>
      </trkpt>
      <trkpt lat="49.23567" lon="1.12486">
        <ele>233.2</ele>
        <time>2017-09-17T06:43:18Z</time>
      </trkpt>
      <trkpt lat="49.23576" lon="1.12477">
        <ele>233.6</ele>
        <time>2017-09-17T06:43:21Z</time>
      </trkpt>
      <trkpt lat="49.23586" lon="1.12468">
        <ele>233.9</ele>
        <time>2017-09-17T06:43:24Z</time>
      </trkpt>
      <trkpt lat="49.23595" lon="1.12459">
        <ele>234.1</ele>
        <time>2017-09-17T06:43:27Z</time>
      </trkpt>
      <trkpt lat="49.23604" lon="1.1245">
        <ele>234.2</ele>
        <time>2017-09-17T06:43:30Z</time>
      </trkpt>
      <trkpt lat="49.23613" lon="1.12443">
        <ele>234.3</ele>
        <time>2017-09-17T06:43:33Z</time>
      </trkpt>
      <trkpt lat="49.23622" lon="1.12435">
        <ele>234.4</ele>
        <time>2017-09-17T06:43:36Z</time>
      </trkpt>
      <trkpt lat="49.23631" lon="1.1243">
        <ele>234.5</ele>
        <time>2017-09-17T06:43:39Z</time>
      </trkpt>
      <trkpt lat="49.23641" lon="1.12425">
        <ele>234.7</ele>
        <time>2017-09-17T06:43:42Z</time>
      </trkpt>
      <trkpt lat="49.2365" lon="1.1242">
        <ele>235</ele>
        <time>2017-09-17T06:43:45Z</time>
      </trkpt>
      <trkpt lat="49.23658" lon="1.12414">
        <ele>235.2</ele>
        <time>2017-09-17T06:43:48Z</time>
      </trkpt>
      <trkpt lat="49.23668" lon="1.12409">
        <ele>235.4</ele>
        <time>2017-09-17T06:43:52Z</time>
      </trkpt>
      <trkpt lat="49.23677" lon="1.12413">
        <ele>235.7</ele>
        <time>2017-09-17T06:43:57Z</time>
      </trkpt>
      <trkpt lat="49.23683" lon="1.12428">
        <ele>235.8</ele>
        <time>2017-09-17T06:44:01Z</time>
      </trkpt>
      <trkpt lat="49.23686" lon="1.12442">
        <ele>235.9</ele>
        <time>2017-09-17T06:44:04Z</time>
      </trkpt>
      <trkpt lat="49.2369" lon="1.12459">
        <ele>236.1</ele>
        <time>2017-09-17T06:44:07Z</time>
      </trkpt>
      <trkpt lat="49.23689" lon="1.12478">
        <ele>236.3</ele>
        <time>2017-09-17T06:44:10Z</time>
      </trkpt>
      <trkpt lat="49.2369" lon="1.12497">
        <ele>236.2</ele>
        <time>2017-09-17T06:44:13Z</time>
      </trkpt>
      <trkpt lat="49.23692" lon="1.12513">
        <ele>236</ele>
        <time>2017-09-17T06:44:16Z</time>
      </trkpt>
      <trkpt lat="49.23695" lon="1.1253">
        <ele>236.2</ele>
        <time>2017-09-17T06:44:19Z</time>
      </trkpt>
      <trkpt lat="49.23697" lon="1.12548">
        <ele>236.2</ele>
        <time>2017-09-17T06:44:22Z</time>
      </trkpt>
      <trkpt lat="49.23699" lon="1.12567">
        <ele>236.4</ele>
        <time>2017-09-17T06:44:25Z</time>
      </trkpt>
      <trkpt lat="49.237" lon="1.12587">
        <ele>236.4</ele>
        <time>2017-09-17T06:44:28Z</time>
      </trkpt>
      <trkpt lat="49.23702" lon="1.12606">
        <ele>236.6</ele>
        <time>2017-09-17T06:44:31Z</time>
      </trkpt>
      <trkpt lat="49.23707" lon="1.12625">
        <ele>236.3</ele>
        <time>2017-09-17T06:44:34Z</time>
      </trkpt>
      <trkpt lat="49.23708" lon="1.1264">
        <ele>236.3</ele>
        <time>2017-09-17T06:44:36Z</time>
      </trkpt>
      <trkpt lat="49.2371" lon="1.12656">
        <ele>236.6</ele>
        <time>2017-09-17T06:44:38Z</time>
      </trkpt>
      <trkpt lat="49.2371" lon="1.1267">
        <ele>236.6</ele>
        <time>2017-09-17T06:44:40Z</time>
      </trkpt>
      <trkpt lat="49.23713" lon="1.12691">
        <ele>236.7</ele>
        <time>2017-09-17T06:44:43Z</time>
      </trkpt>
      <trkpt lat="49.23715" lon="1.12705">
        <ele>236.7</ele>
        <time>2017-09-17T06:44:45Z</time>
      </trkpt>
      <trkpt lat="49.23716" lon="1.1272">
        <ele>236.6</ele>
        <time>2017-09-17T06:44:47Z</time>
      </trkpt>
      <trkpt lat="49.23718" lon="1.12734">
        <ele>236.4</ele>
        <time>2017-09-17T06:44:49Z</time>
      </trkpt>
      <trkpt lat="49.23719" lon="1.12749">
        <ele>236.2</ele>
        <time>2017-09-17T06:44:51Z</time>
      </trkpt>
      <trkpt lat="49.23721" lon="1.12763">
        <ele>236.3</ele>
        <time>2017-09-17T06:44:53Z</time>
      </trkpt>
      <trkpt lat="49.23723" lon="1.12784">
        <ele>236.6</ele>
        <time>2017-09-17T06:44:56Z</time>
      </trkpt>
      <trkpt lat="49.23724" lon="1.12799">
        <ele>236.7</ele>
        <time>2017-09-17T06:44:58Z</time>
      </trkpt>
      <trkpt lat="49.23726" lon="1.12813">
        <ele>237.1</ele>
        <time>2017-09-17T06:45:00Z</time>
      </trkpt>
      <trkpt lat="49.23728" lon="1.12831">
        <ele>237.6</ele>
        <time>2017-09-17T06:45:03Z</time>
      </trkpt>
      <trkpt lat="49.23729" lon="1.12845">
        <ele>237.6</ele>
        <time>2017-09-17T06:45:05Z</time>
      </trkpt>
      <trkpt lat="49.2373" lon="1.12859">
        <ele>237.7</ele>
        <time>2017-09-17T06:45:07Z</time>
      </trkpt>
      <trkpt lat="49.23731" lon="1.12873">
        <ele>237.8</ele>
        <time>2017-09-17T06:45:09Z</time>
      </trkpt>
      <trkpt lat="49.23733" lon="1.12887">
        <ele>238</ele>
        <time>2017-09-17T06:45:11Z</time>
      </trkpt>
      <trkpt lat="49.23734" lon="1.12902">
        <ele>238.3</ele>
        <time>2017-09-17T06:45:13Z</time>
      </trkpt>
      <trkpt lat="49.23734" lon="1.12918">
        <ele>238.3</ele>
        <time>2017-09-17T06:45:15Z</time>
      </trkpt>
      <trkpt lat="49.23733" lon="1.12933">
        <ele>238.4</ele>
        <time>2017-09-17T06:45:17Z</time>
      </trkpt>
      <trkpt lat="49.23731" lon="1.12948">
        <ele>238.6</ele>
        <time>2017-09-17T06:45:19Z</time>
      </trkpt>
      <trkpt lat="49.23729" lon="1.12961">
        <ele>238.8</ele>
        <time>2017-09-17T06:45:21Z</time>
      </trkpt>
      <trkpt lat="49.23727" lon="1.12976">
        <ele>238.8</ele>
        <time>2017-09-17T06:45:23Z</time>
      </trkpt>
      <trkpt lat="49.23725" lon="1.1299">
        <ele>239</ele>
        <time>2017-09-17T06:45:25Z</time>
      </trkpt>
      <trkpt lat="49.23723" lon="1.13004">
        <ele>239.1</ele>
        <time>2017-09-17T06:45:27Z</time>
      </trkpt>
      <trkpt lat="49.2372" lon="1.13018">
        <ele>239.2</ele>
        <time>2017-09-17T06:45:29Z</time>
      </trkpt>
      <trkpt lat="49.2372" lon="1.13036">
        <ele>239.2</ele>
        <time>2017-09-17T06:45:32Z</time>
      </trkpt>
      <trkpt lat="49.23729" lon="1.13044">
        <ele>239</ele>
        <time>2017-09-17T06:45:35Z</time>
      </trkpt>
      <trkpt lat="49.23741" lon="1.13052">
        <ele>239.1</ele>
        <time>2017-09-17T06:45:38Z</time>
      </trkpt>
      <trkpt lat="49.23753" lon="1.13059">
        <ele>239.1</ele>
        <time>2017-09-17T06:45:41Z</time>
      </trkpt>
      <trkpt lat="49.23764" lon="1.13065">
        <ele>239.2</ele>
        <time>2017-09-17T06:45:44Z</time>
      </trkpt>
      <trkpt lat="49.23773" lon="1.1307">
        <ele>239.3</ele>
        <time>2017-09-17T06:45:46Z</time>
      </trkpt>
      <trkpt lat="49.23782" lon="1.13074">
        <ele>239.3</ele>
        <time>2017-09-17T06:45:48Z</time>
      </trkpt>
      <trkpt lat="49.23791" lon="1.13079">
        <ele>239.4</ele>
        <time>2017-09-17T06:45:50Z</time>
      </trkpt>
      <trkpt lat="49.23804" lon="1.13085">
        <ele>239.4</ele>
        <time>2017-09-17T06:45:53Z</time>
      </trkpt>
      <trkpt lat="49.23817" lon="1.13092">
        <ele>239.4</ele>
        <time>2017-09-17T06:45:56Z</time>
      </trkpt>
      <trkpt lat="49.23829" lon="1.13097">
        <ele>239.4</ele>
        <time>2017-09-17T06:45:59Z</time>
      </trkpt>
      <trkpt lat="49.23837" lon="1.13101">
        <ele>239.3</ele>
        <time>2017-09-17T06:46:01Z</time>
      </trkpt>
      <trkpt lat="49.23846" lon="1.13105">
        <ele>239.5</ele>
        <time>2017-09-17T06:46:03Z</time>
      </trkpt>
      <trkpt lat="49.23858" lon="1.1311">
        <ele>239.6</ele>
        <time>2017-09-17T06:46:06Z</time>
      </trkpt>
      <trkpt lat="49.23868" lon="1.13118">
        <ele>239.3</ele>
        <time>2017-09-17T06:46:09Z</time>
      </trkpt>
      <trkpt lat="49.2388" lon="1.13123">
        <ele>239.6</ele>
        <time>2017-09-17T06:46:12Z</time>
      </trkpt>
      <trkpt lat="49.23892" lon="1.13129">
        <ele>239.6</ele>
        <time>2017-09-17T06:46:15Z</time>
      </trkpt>
      <trkpt lat="49.239" lon="1.13132">
        <ele>239.6</ele>
        <time>2017-09-17T06:46:17Z</time>
      </trkpt>
      <trkpt lat="49.23912" lon="1.13138">
        <ele>239.7</ele>
        <time>2017-09-17T06:46:20Z</time>
      </trkpt>
      <trkpt lat="49.23922" lon="1.13143">
        <ele>239.8</ele>
        <time>2017-09-17T06:46:23Z</time>
      </trkpt>
      <trkpt lat="49.23932" lon="1.13148">
        <ele>239.9</ele>
        <time>2017-09-17T06:46:26Z</time>
      </trkpt>
      <trkpt lat="49.23941" lon="1.13153">
        <ele>240</ele>
        <time>2017-09-17T06:46:29Z</time>
      </trkpt>
      <trkpt lat="49.23953" lon="1.13157">
        <ele>240.2</ele>
        <time>2017-09-17T06:46:32Z</time>
      </trkpt>
      <trkpt lat="49.23962" lon="1.1316">
        <ele>240.3</ele>
        <time>2017-09-17T06:46:34Z</time>
      </trkpt>
      <trkpt lat="49.23972" lon="1.13166">
        <ele>240.4</ele>
        <time>2017-09-17T06:46:37Z</time>
      </trkpt>
      <trkpt lat="49.23982" lon="1.1317">
        <ele>240.5</ele>
        <time>2017-09-17T06:46:41Z</time>
      </trkpt>
      <trkpt lat="49.23994" lon="1.13174">
        <ele>240.3</ele>
        <time>2017-09-17T06:46:45Z</time>
      </trkpt>
      <trkpt lat="49.24006" lon="1.13179">
        <ele>240.4</ele>
        <time>2017-09-17T06:46:48Z</time>
      </trkpt>
      <trkpt lat="49.24018" lon="1.13187">
        <ele>240.2</ele>
        <time>2017-09-17T06:46:51Z</time>
      </trkpt>
      <trkpt lat="49.24031" lon="1.13193">
        <ele>240.1</ele>
        <time>2017-09-17T06:46:54Z</time>
      </trkpt>
      <trkpt lat="49.2404" lon="1.13197">
        <ele>240</ele>
        <time>2017-09-17T06:46:56Z</time>
      </trkpt>
      <trkpt lat="49.24051" lon="1.13202">
        <ele>239.8</ele>
        <time>2017-09-17T06:46:59Z</time>
      </trkpt>
      <trkpt lat="49.24061" lon="1.13207">
        <ele>239.6</ele>
        <time>2017-09-17T06:47:02Z</time>
      </trkpt>
      <trkpt lat="49.24075" lon="1.13213">
        <ele>239.4</ele>
        <time>2017-09-17T06:47:05Z</time>
      </trkpt>
      <trkpt lat="49.24085" lon="1.13219">
        <ele>239.1</ele>
        <time>2017-09-17T06:47:08Z</time>
      </trkpt>
      <trkpt lat="49.24097" lon="1.13225">
        <ele>238.3</ele>
        <time>2017-09-17T06:47:11Z</time>
      </trkpt>
      <trkpt lat="49.24111" lon="1.13231">
        <ele>237.9</ele>
        <time>2017-09-17T06:47:14Z</time>
      </trkpt>
      <trkpt lat="49.24123" lon="1.13239">
        <ele>237.3</ele>
        <time>2017-09-17T06:47:17Z</time>
      </trkpt>
      <trkpt lat="49.24133" lon="1.13245">
        <ele>236.7</ele>
        <time>2017-09-17T06:47:20Z</time>
      </trkpt>
      <trkpt lat="49.24143" lon="1.13249">
        <ele>236.3</ele>
        <time>2017-09-17T06:47:22Z</time>
      </trkpt>
      <trkpt lat="49.24157" lon="1.13256">
        <ele>236</ele>
        <time>2017-09-17T06:47:25Z</time>
      </trkpt>
      <trkpt lat="49.24167" lon="1.13261">
        <ele>235.7</ele>
        <time>2017-09-17T06:47:27Z</time>
      </trkpt>
      <trkpt lat="49.24179" lon="1.13269">
        <ele>235.5</ele>
        <time>2017-09-17T06:47:30Z</time>
      </trkpt>
      <trkpt lat="49.2419" lon="1.13271">
        <ele>235.2</ele>
        <time>2017-09-17T06:47:32Z</time>
      </trkpt>
      <trkpt lat="49.24201" lon="1.13274">
        <ele>235</ele>
        <time>2017-09-17T06:47:34Z</time>
      </trkpt>
      <trkpt lat="49.24211" lon="1.13279">
        <ele>234.9</ele>
        <time>2017-09-17T06:47:36Z</time>
      </trkpt>
      <trkpt lat="49.24222" lon="1.13282">
        <ele>234.6</ele>
        <time>2017-09-17T06:47:38Z</time>
      </trkpt>
      <trkpt lat="49.24232" lon="1.13286">
        <ele>234.3</ele>
        <time>2017-09-17T06:47:40Z</time>
      </trkpt>
      <trkpt lat="49.24245" lon="1.13292">
        <ele>233.8</ele>
        <time>2017-09-17T06:47:43Z</time>
      </trkpt>
      <trkpt lat="49.24254" lon="1.13296">
        <ele>233.5</ele>
        <time>2017-09-17T06:47:45Z</time>
      </trkpt>
      <trkpt lat="49.24264" lon="1.133">
        <ele>233.4</ele>
        <time>2017-09-17T06:47:47Z</time>
      </trkpt>
      <trkpt lat="49.24276" lon="1.13306">
        <ele>233.3</ele>
        <time>2017-09-17T06:47:50Z</time>
      </trkpt>
      <trkpt lat="49.24287" lon="1.13312">
        <ele>233.1</ele>
        <time>2017-09-17T06:47:53Z</time>
      </trkpt>
      <trkpt lat="49.24296" lon="1.13316">
        <ele>232.8</ele>
        <time>2017-09-17T06:47:55Z</time>
      </trkpt>
      <trkpt lat="49.24306" lon="1.13325">
        <ele>232.6</ele>
        <time>2017-09-17T06:47:58Z</time>
      </trkpt>
      <trkpt lat="49.24311" lon="1.13339">
        <ele>232.3</ele>
        <time>2017-09-17T06:48:01Z</time>
      </trkpt>
      <trkpt lat="49.24316" lon="1.13354">
        <ele>231.9</ele>
        <time>2017-09-17T06:48:04Z</time>
      </trkpt>
      <trkpt lat="49.2432" lon="1.13371">
        <ele>231.5</ele>
        <time>2017-09-17T06:48:07Z</time>
      </trkpt>
      <trkpt lat="49.24323" lon="1.13385">
        <ele>231.2</ele>
        <time>2017-09-17T06:48:09Z</time>
      </trkpt>
      <trkpt lat="49.24327" lon="1.13398">
        <ele>230.7</ele>
        <time>2017-09-17T06:48:11Z</time>
      </trkpt>
      <trkpt lat="49.2433" lon="1.13413">
        <ele>230.3</ele>
        <time>2017-09-17T06:48:13Z</time>
      </trkpt>
      <trkpt lat="49.24333" lon="1.13427">
        <ele>229.8</ele>
        <time>2017-09-17T06:48:15Z</time>
      </trkpt>
      <trkpt lat="49.24336" lon="1.13441">
        <ele>229.5</ele>
        <time>2017-09-17T06:48:17Z</time>
      </trkpt>
      <trkpt lat="49.24339" lon="1.13455">
        <ele>229.3</ele>
        <time>2017-09-17T06:48:19Z</time>
      </trkpt>
      <trkpt lat="49.24342" lon="1.13469">
        <ele>229.3</ele>
        <time>2017-09-17T06:48:21Z</time>
      </trkpt>
      <trkpt lat="49.24345" lon="1.13483">
        <ele>229.5</ele>
        <time>2017-09-17T06:48:23Z</time>
      </trkpt>
      <trkpt lat="49.24349" lon="1.13503">
        <ele>229.6</ele>
        <time>2017-09-17T06:48:26Z</time>
      </trkpt>
      <trkpt lat="49.24351" lon="1.13516">
        <ele>229.6</ele>
        <time>2017-09-17T06:48:28Z</time>
      </trkpt>
      <trkpt lat="49.24354" lon="1.1353">
        <ele>229.5</ele>
        <time>2017-09-17T06:48:30Z</time>
      </trkpt>
      <trkpt lat="49.24357" lon="1.13543">
        <ele>229.5</ele>
        <time>2017-09-17T06:48:32Z</time>
      </trkpt>
      <trkpt lat="49.24361" lon="1.13561">
        <ele>229.7</ele>
        <time>2017-09-17T06:48:35Z</time>
      </trkpt>
      <trkpt lat="49.24364" lon="1.13578">
        <ele>229.7</ele>
        <time>2017-09-17T06:48:39Z</time>
      </trkpt>
      <trkpt lat="49.24367" lon="1.13591">
        <ele>229.4</ele>
        <time>2017-09-17T06:48:45Z</time>
      </trkpt>
      <trkpt lat="49.24374" lon="1.13601">
        <ele>228.7</ele>
        <time>2017-09-17T06:49:03Z</time>
      </trkpt>
      <trkpt lat="49.24381" lon="1.13613">
        <ele>228.6</ele>
        <time>2017-09-17T06:49:09Z</time>
      </trkpt>
      <trkpt lat="49.24388" lon="1.13621">
        <ele>227.3</ele>
        <time>2017-09-17T06:50:05Z</time>
      </trkpt>
      <trkpt lat="49.24382" lon="1.1363">
        <ele>228.7</ele>
        <time>2017-09-17T06:54:13Z</time>
      </trkpt>
      <trkpt lat="49.24382" lon="1.13615">
        <ele>228.7</ele>
        <time>2017-09-17T06:54:55Z</time>
      </trkpt>
      <trkpt lat="49.24385" lon="1.13601">
        <ele>228.7</ele>
        <time>2017-09-17T06:55:00Z</time>
      </trkpt>
      <trkpt lat="49.24387" lon="1.13586">
        <ele>228.7</ele>
        <time>2017-09-17T06:55:04Z</time>
      </trkpt>
      <trkpt lat="49.2439" lon="1.1357">
        <ele>228.6</ele>
        <time>2017-09-17T06:55:07Z</time>
      </trkpt>
      <trkpt lat="49.24393" lon="1.13552">
        <ele>228.6</ele>
        <time>2017-09-17T06:55:10Z</time>
      </trkpt>
      <trkpt lat="49.24396" lon="1.13539">
        <ele>228.5</ele>
        <time>2017-09-17T06:55:12Z</time>
      </trkpt>
      <trkpt lat="49.24398" lon="1.13524">
        <ele>228.4</ele>
        <time>2017-09-17T06:55:14Z</time>
      </trkpt>
      <trkpt lat="49.24401" lon="1.1351">
        <ele>228.3</ele>
        <time>2017-09-17T06:55:16Z</time>
      </trkpt>
      <trkpt lat="49.24404" lon="1.13494">
        <ele>227.9</ele>
        <time>2017-09-17T06:55:18Z</time>
      </trkpt>
      <trkpt lat="49.24407" lon="1.13478">
        <ele>227.2</ele>
        <time>2017-09-17T06:55:20Z</time>
      </trkpt>
      <trkpt lat="49.2441" lon="1.13461">
        <ele>226.7</ele>
        <time>2017-09-17T06:55:22Z</time>
      </trkpt>
      <trkpt lat="49.24413" lon="1.13446">
        <ele>226.4</ele>
        <time>2017-09-17T06:55:24Z</time>
      </trkpt>
      <trkpt lat="49.24416" lon="1.1343">
        <ele>226.3</ele>
        <time>2017-09-17T06:55:26Z</time>
      </trkpt>
      <trkpt lat="49.24418" lon="1.13414">
        <ele>226.1</ele>
        <time>2017-09-17T06:55:28Z</time>
      </trkpt>
      <trkpt lat="49.24421" lon="1.134">
        <ele>225.8</ele>
        <time>2017-09-17T06:55:30Z</time>
      </trkpt>
      <trkpt lat="49.24424" lon="1.13385">
        <ele>225.6</ele>
        <time>2017-09-17T06:55:32Z</time>
      </trkpt>
      <trkpt lat="49.24428" lon="1.13366">
        <ele>225.9</ele>
        <time>2017-09-17T06:55:35Z</time>
      </trkpt>
      <trkpt lat="49.24432" lon="1.13349">
        <ele>226.4</ele>
        <time>2017-09-17T06:55:38Z</time>
      </trkpt>
      <trkpt lat="49.24435" lon="1.13331">
        <ele>227.1</ele>
        <time>2017-09-17T06:55:41Z</time>
      </trkpt>
      <trkpt lat="49.24439" lon="1.13314">
        <ele>227.7</ele>
        <time>2017-09-17T06:55:44Z</time>
      </trkpt>
      <trkpt lat="49.24442" lon="1.13298">
        <ele>228.1</ele>
        <time>2017-09-17T06:55:47Z</time>
      </trkpt>
      <trkpt lat="49.24446" lon="1.1328">
        <ele>228.6</ele>
        <time>2017-09-17T06:55:50Z</time>
      </trkpt>
      <trkpt lat="49.24449" lon="1.13263">
        <ele>229</ele>
        <time>2017-09-17T06:55:53Z</time>
      </trkpt>
      <trkpt lat="49.24453" lon="1.13249">
        <ele>229.4</ele>
        <time>2017-09-17T06:55:56Z</time>
      </trkpt>
      <trkpt lat="49.24457" lon="1.13232">
        <ele>229.9</ele>
        <time>2017-09-17T06:55:59Z</time>
      </trkpt>
      <trkpt lat="49.2446" lon="1.13216">
        <ele>230.3</ele>
        <time>2017-09-17T06:56:02Z</time>
      </trkpt>
      <trkpt lat="49.24463" lon="1.132">
        <ele>230.7</ele>
        <time>2017-09-17T06:56:05Z</time>
      </trkpt>
      <trkpt lat="49.24467" lon="1.13181">
        <ele>230.9</ele>
        <time>2017-09-17T06:56:08Z</time>
      </trkpt>
      <trkpt lat="49.2447" lon="1.13161">
        <ele>231</ele>
        <time>2017-09-17T06:56:11Z</time>
      </trkpt>
      <trkpt lat="49.24474" lon="1.13142">
        <ele>231.3</ele>
        <time>2017-09-17T06:56:14Z</time>
      </trkpt>
      <trkpt lat="49.24476" lon="1.13129">
        <ele>231.5</ele>
        <time>2017-09-17T06:56:16Z</time>
      </trkpt>
      <trkpt lat="49.24479" lon="1.1311">
        <ele>231.6</ele>
        <time>2017-09-17T06:56:19Z</time>
      </trkpt>
      <trkpt lat="49.24481" lon="1.13093">
        <ele>231.8</ele>
        <time>2017-09-17T06:56:22Z</time>
      </trkpt>
      <trkpt lat="49.24484" lon="1.13076">
        <ele>232</ele>
        <time>2017-09-17T06:56:25Z</time>
      </trkpt>
      <trkpt lat="49.24488" lon="1.1306">
        <ele>232.2</ele>
        <time>2017-09-17T06:56:28Z</time>
      </trkpt>
      <trkpt lat="49.24491" lon="1.13041">
        <ele>232.5</ele>
        <time>2017-09-17T06:56:31Z</time>
      </trkpt>
      <trkpt lat="49.24495" lon="1.13022">
        <ele>232.9</ele>
        <time>2017-09-17T06:56:34Z</time>
      </trkpt>
      <trkpt lat="49.24498" lon="1.13004">
        <ele>232.9</ele>
        <time>2017-09-17T06:56:37Z</time>
      </trkpt>
      <trkpt lat="49.24501" lon="1.12985">
        <ele>233.1</ele>
        <time>2017-09-17T06:56:40Z</time>
      </trkpt>
      <trkpt lat="49.24504" lon="1.12965">
        <ele>233</ele>
        <time>2017-09-17T06:56:43Z</time>
      </trkpt>
      <trkpt lat="49.24507" lon="1.12945">
        <ele>233.2</ele>
        <time>2017-09-17T06:56:46Z</time>
      </trkpt>
      <trkpt lat="49.2451" lon="1.12932">
        <ele>233.3</ele>
        <time>2017-09-17T06:56:48Z</time>
      </trkpt>
      <trkpt lat="49.24512" lon="1.12918">
        <ele>233.3</ele>
        <time>2017-09-17T06:56:50Z</time>
      </trkpt>
      <trkpt lat="49.24515" lon="1.12905">
        <ele>233.4</ele>
        <time>2017-09-17T06:56:52Z</time>
      </trkpt>
      <trkpt lat="49.24517" lon="1.12891">
        <ele>233.4</ele>
        <time>2017-09-17T06:56:54Z</time>
      </trkpt>
      <trkpt lat="49.24519" lon="1.12877">
        <ele>233.2</ele>
        <time>2017-09-17T06:56:56Z</time>
      </trkpt>
      <trkpt lat="49.24522" lon="1.12862">
        <ele>233.4</ele>
        <time>2017-09-17T06:56:58Z</time>
      </trkpt>
      <trkpt lat="49.24525" lon="1.12847">
        <ele>233.4</ele>
        <time>2017-09-17T06:57:00Z</time>
      </trkpt>
      <trkpt lat="49.24528" lon="1.12832">
        <ele>233.2</ele>
        <time>2017-09-17T06:57:02Z</time>
      </trkpt>
      <trkpt lat="49.24531" lon="1.12817">
        <ele>233</ele>
        <time>2017-09-17T06:57:04Z</time>
      </trkpt>
      <trkpt lat="49.24534" lon="1.12801">
        <ele>233.1</ele>
        <time>2017-09-17T06:57:06Z</time>
      </trkpt>
      <trkpt lat="49.24537" lon="1.12786">
        <ele>233.3</ele>
        <time>2017-09-17T06:57:08Z</time>
      </trkpt>
      <trkpt lat="49.2454" lon="1.1277">
        <ele>233.4</ele>
        <time>2017-09-17T06:57:10Z</time>
      </trkpt>
      <trkpt lat="49.24542" lon="1.12754">
        <ele>233.4</ele>
        <time>2017-09-17T06:57:12Z</time>
      </trkpt>
      <trkpt lat="49.24546" lon="1.12738">
        <ele>233.3</ele>
        <time>2017-09-17T06:57:14Z</time>
      </trkpt>
      <trkpt lat="49.24549" lon="1.12722">
        <ele>233.3</ele>
        <time>2017-09-17T06:57:16Z</time>
      </trkpt>
      <trkpt lat="49.24552" lon="1.12705">
        <ele>233</ele>
        <time>2017-09-17T06:57:18Z</time>
      </trkpt>
      <trkpt lat="49.24555" lon="1.1269">
        <ele>232.6</ele>
        <time>2017-09-17T06:57:20Z</time>
      </trkpt>
      <trkpt lat="49.24558" lon="1.12674">
        <ele>232.6</ele>
        <time>2017-09-17T06:57:22Z</time>
      </trkpt>
      <trkpt lat="49.24561" lon="1.12659">
        <ele>232.7</ele>
        <time>2017-09-17T06:57:24Z</time>
      </trkpt>
      <trkpt lat="49.24564" lon="1.12644">
        <ele>232.9</ele>
        <time>2017-09-17T06:57:26Z</time>
      </trkpt>
      <trkpt lat="49.24567" lon="1.12629">
        <ele>233</ele>
        <time>2017-09-17T06:57:28Z</time>
      </trkpt>
      <trkpt lat="49.2457" lon="1.12614">
        <ele>232.9</ele>
        <time>2017-09-17T06:57:30Z</time>
      </trkpt>
      <trkpt lat="49.24572" lon="1.12599">
        <ele>233</ele>
        <time>2017-09-17T06:57:32Z</time>
      </trkpt>
      <trkpt lat="49.24575" lon="1.12584">
        <ele>233.2</ele>
        <time>2017-09-17T06:57:34Z</time>
      </trkpt>
      <trkpt lat="49.24578" lon="1.1257">
        <ele>232.9</ele>
        <time>2017-09-17T06:57:36Z</time>
      </trkpt>
      <trkpt lat="49.24583" lon="1.12558">
        <ele>232.4</ele>
        <time>2017-09-17T06:57:38Z</time>
      </trkpt>
      <trkpt lat="49.24593" lon="1.12552">
        <ele>232.3</ele>
        <time>2017-09-17T06:57:41Z</time>
      </trkpt>
      <trkpt lat="49.24606" lon="1.12547">
        <ele>232.1</ele>
        <time>2017-09-17T06:57:44Z</time>
      </trkpt>
      <trkpt lat="49.24617" lon="1.12549">
        <ele>231.8</ele>
        <time>2017-09-17T06:57:46Z</time>
      </trkpt>
      <trkpt lat="49.24627" lon="1.12549">
        <ele>231.5</ele>
        <time>2017-09-17T06:57:48Z</time>
      </trkpt>
      <trkpt lat="49.24639" lon="1.12553">
        <ele>231</ele>
        <time>2017-09-17T06:57:51Z</time>
      </trkpt>
      <trkpt lat="49.24651" lon="1.12561">
        <ele>230.2</ele>
        <time>2017-09-17T06:57:54Z</time>
      </trkpt>
      <trkpt lat="49.24664" lon="1.12561">
        <ele>229.4</ele>
        <time>2017-09-17T06:57:57Z</time>
      </trkpt>
      <trkpt lat="49.24674" lon="1.12571">
        <ele>228.1</ele>
        <time>2017-09-17T06:58:02Z</time>
      </trkpt>
      <trkpt lat="49.24683" lon="1.12574">
        <ele>227.7</ele>
        <time>2017-09-17T06:58:05Z</time>
      </trkpt>
      <trkpt lat="49.24694" lon="1.12571">
        <ele>227.3</ele>
        <time>2017-09-17T06:58:07Z</time>
      </trkpt>
      <trkpt lat="49.24706" lon="1.12569">
        <ele>226.9</ele>
        <time>2017-09-17T06:58:11Z</time>
      </trkpt>
      <trkpt lat="49.24712" lon="1.1258">
        <ele>226.8</ele>
        <time>2017-09-17T06:58:14Z</time>
      </trkpt>
      <trkpt lat="49.24718" lon="1.12594">
        <ele>226.2</ele>
        <time>2017-09-17T06:58:17Z</time>
      </trkpt>
      <trkpt lat="49.24728" lon="1.12602">
        <ele>224.9</ele>
        <time>2017-09-17T06:58:21Z</time>
      </trkpt>
      <trkpt lat="49.2474" lon="1.12603">
        <ele>223.8</ele>
        <time>2017-09-17T06:58:24Z</time>
      </trkpt>
      <trkpt lat="49.2475" lon="1.12599">
        <ele>223.4</ele>
        <time>2017-09-17T06:58:26Z</time>
      </trkpt>
      <trkpt lat="49.24763" lon="1.12591">
        <ele>223</ele>
        <time>2017-09-17T06:58:29Z</time>
      </trkpt>
      <trkpt lat="49.24773" lon="1.12589">
        <ele>222.9</ele>
        <time>2017-09-17T06:58:32Z</time>
      </trkpt>
      <trkpt lat="49.24785" lon="1.12584">
        <ele>222.9</ele>
        <time>2017-09-17T06:58:35Z</time>
      </trkpt>
      <trkpt lat="49.24796" lon="1.12583">
        <ele>222.9</ele>
        <time>2017-09-17T06:58:38Z</time>
      </trkpt>
      <trkpt lat="49.24806" lon="1.12582">
        <ele>222.6</ele>
        <time>2017-09-17T06:58:41Z</time>
      </trkpt>
      <trkpt lat="49.24817" lon="1.12577">
        <ele>222.6</ele>
        <time>2017-09-17T06:58:43Z</time>
      </trkpt>
      <trkpt lat="49.24827" lon="1.12572">
        <ele>222.5</ele>
        <time>2017-09-17T06:58:46Z</time>
      </trkpt>
      <trkpt lat="49.24837" lon="1.12571">
        <ele>222.3</ele>
        <time>2017-09-17T06:58:50Z</time>
      </trkpt>
      <trkpt lat="49.24848" lon="1.1257">
        <ele>222.1</ele>
        <time>2017-09-17T06:58:53Z</time>
      </trkpt>
      <trkpt lat="49.24857" lon="1.12559">
        <ele>221.9</ele>
        <time>2017-09-17T06:58:56Z</time>
      </trkpt>
      <trkpt lat="49.24862" lon="1.12546">
        <ele>221.5</ele>
        <time>2017-09-17T06:58:58Z</time>
      </trkpt>
      <trkpt lat="49.24872" lon="1.12537">
        <ele>221</ele>
        <time>2017-09-17T06:59:01Z</time>
      </trkpt>
      <trkpt lat="49.24883" lon="1.1253">
        <ele>219.9</ele>
        <time>2017-09-17T06:59:05Z</time>
      </trkpt>
      <trkpt lat="49.24892" lon="1.12522">
        <ele>218.8</ele>
        <time>2017-09-17T06:59:08Z</time>
      </trkpt>
      <trkpt lat="49.24903" lon="1.12513">
        <ele>216.4</ele>
        <time>2017-09-17T06:59:15Z</time>
      </trkpt>
      <trkpt lat="49.24912" lon="1.12503">
        <ele>214.6</ele>
        <time>2017-09-17T06:59:18Z</time>
      </trkpt>
      <trkpt lat="49.24922" lon="1.1249">
        <ele>212.2</ele>
        <time>2017-09-17T06:59:22Z</time>
      </trkpt>
      <trkpt lat="49.24931" lon="1.12484">
        <ele>210.3</ele>
        <time>2017-09-17T06:59:25Z</time>
      </trkpt>
      <trkpt lat="49.2494" lon="1.12474">
        <ele>207.7</ele>
        <time>2017-09-17T06:59:29Z</time>
      </trkpt>
      <trkpt lat="49.24951" lon="1.12466">
        <ele>205.8</ele>
        <time>2017-09-17T06:59:32Z</time>
      </trkpt>
      <trkpt lat="49.24953" lon="1.12451">
        <ele>203.9</ele>
        <time>2017-09-17T06:59:37Z</time>
      </trkpt>
      <trkpt lat="49.24959" lon="1.12432">
        <ele>203.2</ele>
        <time>2017-09-17T06:59:40Z</time>
      </trkpt>
      <trkpt lat="49.24963" lon="1.12415">
        <ele>202.5</ele>
        <time>2017-09-17T06:59:43Z</time>
      </trkpt>
      <trkpt lat="49.24968" lon="1.124">
        <ele>202.4</ele>
        <time>2017-09-17T06:59:46Z</time>
      </trkpt>
      <trkpt lat="49.24976" lon="1.12386">
        <ele>202.4</ele>
        <time>2017-09-17T06:59:49Z</time>
      </trkpt>
      <trkpt lat="49.24985" lon="1.12377">
        <ele>202.7</ele>
        <time>2017-09-17T06:59:53Z</time>
      </trkpt>
      <trkpt lat="49.24994" lon="1.12374">
        <ele>203.8</ele>
        <time>2017-09-17T06:59:58Z</time>
      </trkpt>
      <trkpt lat="49.25004" lon="1.12377">
        <ele>205.6</ele>
        <time>2017-09-17T07:00:04Z</time>
      </trkpt>
      <trkpt lat="49.25012" lon="1.12383">
        <ele>207.5</ele>
        <time>2017-09-17T07:00:10Z</time>
      </trkpt>
      <trkpt lat="49.25021" lon="1.1239">
        <ele>210.2</ele>
        <time>2017-09-17T07:00:18Z</time>
      </trkpt>
      <trkpt lat="49.25029" lon="1.12397">
        <ele>212.4</ele>
        <time>2017-09-17T07:00:25Z</time>
      </trkpt>
      <trkpt lat="49.25037" lon="1.12403">
        <ele>213.9</ele>
        <time>2017-09-17T07:00:30Z</time>
      </trkpt>
      <trkpt lat="49.25045" lon="1.1241">
        <ele>215.8</ele>
        <time>2017-09-17T07:00:36Z</time>
      </trkpt>
      <trkpt lat="49.25053" lon="1.1242">
        <ele>217.1</ele>
        <time>2017-09-17T07:00:41Z</time>
      </trkpt>
      <trkpt lat="49.2506" lon="1.12431">
        <ele>218.2</ele>
        <time>2017-09-17T07:00:47Z</time>
      </trkpt>
      <trkpt lat="49.25067" lon="1.12441">
        <ele>218.8</ele>
        <time>2017-09-17T07:00:51Z</time>
      </trkpt>
      <trkpt lat="49.25076" lon="1.1245">
        <ele>219.6</ele>
        <time>2017-09-17T07:00:56Z</time>
      </trkpt>
      <trkpt lat="49.25084" lon="1.12456">
        <ele>220.3</ele>
        <time>2017-09-17T07:01:00Z</time>
      </trkpt>
      <trkpt lat="49.25094" lon="1.12464">
        <ele>221</ele>
        <time>2017-09-17T07:01:04Z</time>
      </trkpt>
      <trkpt lat="49.25103" lon="1.12472">
        <ele>222</ele>
        <time>2017-09-17T07:01:09Z</time>
      </trkpt>
      <trkpt lat="49.25112" lon="1.12473">
        <ele>223.1</ele>
        <time>2017-09-17T07:01:14Z</time>
      </trkpt>
      <trkpt lat="49.25121" lon="1.12482">
        <ele>224.8</ele>
        <time>2017-09-17T07:01:20Z</time>
      </trkpt>
      <trkpt lat="49.25133" lon="1.12488">
        <ele>226.1</ele>
        <time>2017-09-17T07:01:25Z</time>
      </trkpt>
      <trkpt lat="49.25142" lon="1.12492">
        <ele>226.8</ele>
        <time>2017-09-17T07:01:28Z</time>
      </trkpt>
      <trkpt lat="49.25151" lon="1.12499">
        <ele>227.4</ele>
        <time>2017-09-17T07:01:31Z</time>
      </trkpt>
      <trkpt lat="49.2516" lon="1.12508">
        <ele>227.9</ele>
        <time>2017-09-17T07:01:35Z</time>
      </trkpt>
      <trkpt lat="49.25167" lon="1.12519">
        <ele>228.3</ele>
        <time>2017-09-17T07:01:39Z</time>
      </trkpt>
      <trkpt lat="49.25174" lon="1.1253">
        <ele>229.1</ele>
        <time>2017-09-17T07:01:43Z</time>
      </trkpt>
      <trkpt lat="49.25177" lon="1.12544">
        <ele>229.5</ele>
        <time>2017-09-17T07:01:47Z</time>
      </trkpt>
      <trkpt lat="49.25182" lon="1.12558">
        <ele>229.6</ele>
        <time>2017-09-17T07:01:51Z</time>
      </trkpt>
      <trkpt lat="49.25188" lon="1.1257">
        <ele>229.8</ele>
        <time>2017-09-17T07:01:54Z</time>
      </trkpt>
      <trkpt lat="49.25188" lon="1.12587">
        <ele>230.1</ele>
        <time>2017-09-17T07:01:59Z</time>
      </trkpt>
      <trkpt lat="49.25192" lon="1.12601">
        <ele>230.5</ele>
        <time>2017-09-17T07:02:03Z</time>
      </trkpt>
      <trkpt lat="49.25195" lon="1.12615">
        <ele>230.8</ele>
        <time>2017-09-17T07:02:06Z</time>
      </trkpt>
      <trkpt lat="49.25199" lon="1.12628">
        <ele>231</ele>
        <time>2017-09-17T07:02:09Z</time>
      </trkpt>
      <trkpt lat="49.25203" lon="1.12643">
        <ele>231.4</ele>
        <time>2017-09-17T07:02:12Z</time>
      </trkpt>
      <trkpt lat="49.25205" lon="1.1266">
        <ele>231.9</ele>
        <time>2017-09-17T07:02:15Z</time>
      </trkpt>
      <trkpt lat="49.25208" lon="1.12676">
        <ele>232.1</ele>
        <time>2017-09-17T07:02:18Z</time>
      </trkpt>
      <trkpt lat="49.25211" lon="1.12691">
        <ele>232.3</ele>
        <time>2017-09-17T07:02:21Z</time>
      </trkpt>
      <trkpt lat="49.25215" lon="1.12705">
        <ele>232.3</ele>
        <time>2017-09-17T07:02:24Z</time>
      </trkpt>
      <trkpt lat="49.25221" lon="1.12721">
        <ele>232.3</ele>
        <time>2017-09-17T07:02:28Z</time>
      </trkpt>
      <trkpt lat="49.25227" lon="1.12737">
        <ele>232.3</ele>
        <time>2017-09-17T07:02:31Z</time>
      </trkpt>
      <trkpt lat="49.25231" lon="1.12749">
        <ele>232.4</ele>
        <time>2017-09-17T07:02:33Z</time>
      </trkpt>
      <trkpt lat="49.25237" lon="1.12763">
        <ele>232.6</ele>
        <time>2017-09-17T07:02:36Z</time>
      </trkpt>
      <trkpt lat="49.25243" lon="1.12776">
        <ele>232.8</ele>
        <time>2017-09-17T07:02:39Z</time>
      </trkpt>
      <trkpt lat="49.25246" lon="1.12789">
        <ele>232.9</ele>
        <time>2017-09-17T07:02:42Z</time>
      </trkpt>
      <trkpt lat="49.25252" lon="1.12805">
        <ele>232.9</ele>
        <time>2017-09-17T07:02:45Z</time>
      </trkpt>
      <trkpt lat="49.25261" lon="1.12816">
        <ele>232.9</ele>
        <time>2017-09-17T07:02:48Z</time>
      </trkpt>
      <trkpt lat="49.25269" lon="1.12829">
        <ele>232.7</ele>
        <time>2017-09-17T07:02:51Z</time>
      </trkpt>
      <trkpt lat="49.25274" lon="1.12841">
        <ele>232.4</ele>
        <time>2017-09-17T07:02:53Z</time>
      </trkpt>
      <trkpt lat="49.25281" lon="1.12851">
        <ele>232.1</ele>
        <time>2017-09-17T07:02:55Z</time>
      </trkpt>
      <trkpt lat="49.25288" lon="1.1286">
        <ele>231.9</ele>
        <time>2017-09-17T07:02:57Z</time>
      </trkpt>
      <trkpt lat="49.25299" lon="1.12872">
        <ele>231.9</ele>
        <time>2017-09-17T07:03:00Z</time>
      </trkpt>
      <trkpt lat="49.25307" lon="1.12881">
        <ele>232.2</ele>
        <time>2017-09-17T07:03:03Z</time>
      </trkpt>
      <trkpt lat="49.25313" lon="1.12893">
        <ele>232.8</ele>
        <time>2017-09-17T07:03:06Z</time>
      </trkpt>
      <trkpt lat="49.25322" lon="1.12906">
        <ele>233.4</ele>
        <time>2017-09-17T07:03:09Z</time>
      </trkpt>
      <trkpt lat="49.2533" lon="1.12919">
        <ele>233.8</ele>
        <time>2017-09-17T07:03:11Z</time>
      </trkpt>
      <trkpt lat="49.25336" lon="1.12932">
        <ele>234.1</ele>
        <time>2017-09-17T07:03:13Z</time>
      </trkpt>
      <trkpt lat="49.25344" lon="1.12947">
        <ele>234.6</ele>
        <time>2017-09-17T07:03:16Z</time>
      </trkpt>
      <trkpt lat="49.25352" lon="1.1296">
        <ele>235.1</ele>
        <time>2017-09-17T07:03:19Z</time>
      </trkpt>
      <trkpt lat="49.25361" lon="1.12974">
        <ele>235.5</ele>
        <time>2017-09-17T07:03:22Z</time>
      </trkpt>
      <trkpt lat="49.25368" lon="1.12985">
        <ele>236</ele>
        <time>2017-09-17T07:03:25Z</time>
      </trkpt>
      <trkpt lat="49.25375" lon="1.12999">
        <ele>236.2</ele>
        <time>2017-09-17T07:03:28Z</time>
      </trkpt>
      <trkpt lat="49.25375" lon="1.13017">
        <ele>236.8</ele>
        <time>2017-09-17T07:03:32Z</time>
      </trkpt>
      <trkpt lat="49.25379" lon="1.13029">
        <ele>236.7</ele>
        <time>2017-09-17T07:03:35Z</time>
      </trkpt>
      <trkpt lat="49.2538" lon="1.13048">
        <ele>236.7</ele>
        <time>2017-09-17T07:03:38Z</time>
      </trkpt>
      <trkpt lat="49.25376" lon="1.13067">
        <ele>236.9</ele>
        <time>2017-09-17T07:03:41Z</time>
      </trkpt>
      <trkpt lat="49.25377" lon="1.13087">
        <ele>237.2</ele>
        <time>2017-09-17T07:03:44Z</time>
      </trkpt>
      <trkpt lat="49.25379" lon="1.13104">
        <ele>237.7</ele>
        <time>2017-09-17T07:03:47Z</time>
      </trkpt>
      <trkpt lat="49.25382" lon="1.1312">
        <ele>238</ele>
        <time>2017-09-17T07:03:50Z</time>
      </trkpt>
      <trkpt lat="49.25384" lon="1.13136">
        <ele>238.3</ele>
        <time>2017-09-17T07:03:53Z</time>
      </trkpt>
      <trkpt lat="49.25384" lon="1.13152">
        <ele>238.7</ele>
        <time>2017-09-17T07:03:56Z</time>
      </trkpt>
      <trkpt lat="49.25388" lon="1.13167">
        <ele>238.9</ele>
        <time>2017-09-17T07:03:59Z</time>
      </trkpt>
      <trkpt lat="49.25387" lon="1.13181">
        <ele>239.2</ele>
        <time>2017-09-17T07:04:02Z</time>
      </trkpt>
      <trkpt lat="49.25389" lon="1.13195">
        <ele>239.3</ele>
        <time>2017-09-17T07:04:05Z</time>
      </trkpt>
      <trkpt lat="49.25396" lon="1.13206">
        <ele>239.6</ele>
        <time>2017-09-17T07:04:09Z</time>
      </trkpt>
      <trkpt lat="49.25405" lon="1.13214">
        <ele>240.3</ele>
        <time>2017-09-17T07:04:13Z</time>
      </trkpt>
      <trkpt lat="49.25415" lon="1.1322">
        <ele>240.8</ele>
        <time>2017-09-17T07:04:17Z</time>
      </trkpt>
      <trkpt lat="49.25424" lon="1.13226">
        <ele>241.1</ele>
        <time>2017-09-17T07:04:20Z</time>
      </trkpt>
      <trkpt lat="49.25434" lon="1.13233">
        <ele>241.7</ele>
        <time>2017-09-17T07:04:23Z</time>
      </trkpt>
      <trkpt lat="49.25444" lon="1.1324">
        <ele>241.9</ele>
        <time>2017-09-17T07:04:26Z</time>
      </trkpt>
      <trkpt lat="49.25454" lon="1.13245">
        <ele>242.4</ele>
        <time>2017-09-17T07:04:29Z</time>
      </trkpt>
      <trkpt lat="49.25464" lon="1.13251">
        <ele>242.7</ele>
        <time>2017-09-17T07:04:32Z</time>
      </trkpt>
      <trkpt lat="49.25473" lon="1.13258">
        <ele>243</ele>
        <time>2017-09-17T07:04:35Z</time>
      </trkpt>
      <trkpt lat="49.25485" lon="1.13266">
        <ele>243.2</ele>
        <time>2017-09-17T07:04:38Z</time>
      </trkpt>
      <trkpt lat="49.25494" lon="1.13267">
        <ele>243.5</ele>
        <time>2017-09-17T07:04:40Z</time>
      </trkpt>
      <trkpt lat="49.25505" lon="1.13257">
        <ele>243.8</ele>
        <time>2017-09-17T07:04:43Z</time>
      </trkpt>
      <trkpt lat="49.25511" lon="1.1324">
        <ele>244</ele>
        <time>2017-09-17T07:04:46Z</time>
      </trkpt>
      <trkpt lat="49.25518" lon="1.13222">
        <ele>244.1</ele>
        <time>2017-09-17T07:04:49Z</time>
      </trkpt>
      <trkpt lat="49.25522" lon="1.13208">
        <ele>244.1</ele>
        <time>2017-09-17T07:04:51Z</time>
      </trkpt>
      <trkpt lat="49.25525" lon="1.13195">
        <ele>244.1</ele>
        <time>2017-09-17T07:04:53Z</time>
      </trkpt>
      <trkpt lat="49.25529" lon="1.13182">
        <ele>244.1</ele>
        <time>2017-09-17T07:04:55Z</time>
      </trkpt>
      <trkpt lat="49.25533" lon="1.13167">
        <ele>244.1</ele>
        <time>2017-09-17T07:04:57Z</time>
      </trkpt>
      <trkpt lat="49.25538" lon="1.13153">
        <ele>244</ele>
        <time>2017-09-17T07:04:59Z</time>
      </trkpt>
      <trkpt lat="49.25542" lon="1.13139">
        <ele>243.8</ele>
        <time>2017-09-17T07:05:01Z</time>
      </trkpt>
      <trkpt lat="49.25546" lon="1.13122">
        <ele>243.9</ele>
        <time>2017-09-17T07:05:03Z</time>
      </trkpt>
      <trkpt lat="49.25549" lon="1.13105">
        <ele>243.7</ele>
        <time>2017-09-17T07:05:05Z</time>
      </trkpt>
      <trkpt lat="49.25553" lon="1.1309">
        <ele>243.6</ele>
        <time>2017-09-17T07:05:07Z</time>
      </trkpt>
      <trkpt lat="49.25557" lon="1.13073">
        <ele>243.5</ele>
        <time>2017-09-17T07:05:09Z</time>
      </trkpt>
      <trkpt lat="49.2556" lon="1.13057">
        <ele>243.2</ele>
        <time>2017-09-17T07:05:11Z</time>
      </trkpt>
      <trkpt lat="49.25565" lon="1.1304">
        <ele>243.2</ele>
        <time>2017-09-17T07:05:13Z</time>
      </trkpt>
      <trkpt lat="49.25569" lon="1.13024">
        <ele>243.3</ele>
        <time>2017-09-17T07:05:15Z</time>
      </trkpt>
      <trkpt lat="49.25572" lon="1.13005">
        <ele>243.2</ele>
        <time>2017-09-17T07:05:17Z</time>
      </trkpt>
      <trkpt lat="49.25575" lon="1.12988">
        <ele>243.2</ele>
        <time>2017-09-17T07:05:19Z</time>
      </trkpt>
      <trkpt lat="49.25579" lon="1.12969">
        <ele>243.1</ele>
        <time>2017-09-17T07:05:21Z</time>
      </trkpt>
      <trkpt lat="49.25583" lon="1.1295">
        <ele>243</ele>
        <time>2017-09-17T07:05:23Z</time>
      </trkpt>
      <trkpt lat="49.25586" lon="1.1293">
        <ele>242.8</ele>
        <time>2017-09-17T07:05:25Z</time>
      </trkpt>
      <trkpt lat="49.2559" lon="1.1291">
        <ele>242.7</ele>
        <time>2017-09-17T07:05:27Z</time>
      </trkpt>
      <trkpt lat="49.25593" lon="1.12889">
        <ele>242.5</ele>
        <time>2017-09-17T07:05:29Z</time>
      </trkpt>
      <trkpt lat="49.25597" lon="1.12869">
        <ele>242.4</ele>
        <time>2017-09-17T07:05:31Z</time>
      </trkpt>
      <trkpt lat="49.25601" lon="1.12851">
        <ele>242.3</ele>
        <time>2017-09-17T07:05:33Z</time>
      </trkpt>
      <trkpt lat="49.25604" lon="1.12832">
        <ele>242.1</ele>
        <time>2017-09-17T07:05:35Z</time>
      </trkpt>
      <trkpt lat="49.25608" lon="1.12814">
        <ele>241.9</ele>
        <time>2017-09-17T07:05:37Z</time>
      </trkpt>
      <trkpt lat="49.25611" lon="1.12796">
        <ele>242.2</ele>
        <time>2017-09-17T07:05:39Z</time>
      </trkpt>
      <trkpt lat="49.25614" lon="1.12779">
        <ele>242.5</ele>
        <time>2017-09-17T07:05:41Z</time>
      </trkpt>
      <trkpt lat="49.25618" lon="1.12761">
        <ele>242.7</ele>
        <time>2017-09-17T07:05:43Z</time>
      </trkpt>
      <trkpt lat="49.25621" lon="1.12743">
        <ele>242.9</ele>
        <time>2017-09-17T07:05:45Z</time>
      </trkpt>
      <trkpt lat="49.25625" lon="1.12725">
        <ele>243</ele>
        <time>2017-09-17T07:05:47Z</time>
      </trkpt>
      <trkpt lat="49.25628" lon="1.12707">
        <ele>243</ele>
        <time>2017-09-17T07:05:49Z</time>
      </trkpt>
      <trkpt lat="49.25632" lon="1.12689">
        <ele>242.9</ele>
        <time>2017-09-17T07:05:51Z</time>
      </trkpt>
      <trkpt lat="49.25635" lon="1.12671">
        <ele>243</ele>
        <time>2017-09-17T07:05:53Z</time>
      </trkpt>
      <trkpt lat="49.25639" lon="1.12653">
        <ele>243</ele>
        <time>2017-09-17T07:05:55Z</time>
      </trkpt>
      <trkpt lat="49.25642" lon="1.12635">
        <ele>243</ele>
        <time>2017-09-17T07:05:57Z</time>
      </trkpt>
      <trkpt lat="49.25645" lon="1.12617">
        <ele>243.1</ele>
        <time>2017-09-17T07:05:59Z</time>
      </trkpt>
      <trkpt lat="49.25649" lon="1.12599">
        <ele>243.1</ele>
        <time>2017-09-17T07:06:01Z</time>
      </trkpt>
      <trkpt lat="49.25652" lon="1.12581">
        <ele>243.2</ele>
        <time>2017-09-17T07:06:03Z</time>
      </trkpt>
      <trkpt lat="49.25655" lon="1.12563">
        <ele>243.2</ele>
        <time>2017-09-17T07:06:05Z</time>
      </trkpt>
      <trkpt lat="49.25659" lon="1.12545">
        <ele>243.2</ele>
        <time>2017-09-17T07:06:07Z</time>
      </trkpt>
      <trkpt lat="49.25662" lon="1.12527">
        <ele>243.1</ele>
        <time>2017-09-17T07:06:09Z</time>
      </trkpt>
      <trkpt lat="49.25666" lon="1.12508">
        <ele>242.8</ele>
        <time>2017-09-17T07:06:11Z</time>
      </trkpt>
      <trkpt lat="49.25669" lon="1.1249">
        <ele>243</ele>
        <time>2017-09-17T07:06:13Z</time>
      </trkpt>
      <trkpt lat="49.25673" lon="1.12472">
        <ele>242.9</ele>
        <time>2017-09-17T07:06:15Z</time>
      </trkpt>
      <trkpt lat="49.25676" lon="1.12453">
        <ele>242.8</ele>
        <time>2017-09-17T07:06:17Z</time>
      </trkpt>
      <trkpt lat="49.2568" lon="1.12434">
        <ele>242.6</ele>
        <time>2017-09-17T07:06:19Z</time>
      </trkpt>
      <trkpt lat="49.25684" lon="1.12415">
        <ele>242.5</ele>
        <time>2017-09-17T07:06:21Z</time>
      </trkpt>
      <trkpt lat="49.25687" lon="1.12397">
        <ele>242.1</ele>
        <time>2017-09-17T07:06:23Z</time>
      </trkpt>
      <trkpt lat="49.25691" lon="1.12378">
        <ele>242.1</ele>
        <time>2017-09-17T07:06:25Z</time>
      </trkpt>
      <trkpt lat="49.25695" lon="1.12359">
        <ele>242.2</ele>
        <time>2017-09-17T07:06:27Z</time>
      </trkpt>
      <trkpt lat="49.25698" lon="1.1234">
        <ele>241.7</ele>
        <time>2017-09-17T07:06:29Z</time>
      </trkpt>
      <trkpt lat="49.25702" lon="1.12321">
        <ele>241.1</ele>
        <time>2017-09-17T07:06:31Z</time>
      </trkpt>
      <trkpt lat="49.25706" lon="1.12301">
        <ele>240.9</ele>
        <time>2017-09-17T07:06:33Z</time>
      </trkpt>
      <trkpt lat="49.25709" lon="1.12282">
        <ele>240.7</ele>
        <time>2017-09-17T07:06:35Z</time>
      </trkpt>
      <trkpt lat="49.25713" lon="1.12263">
        <ele>240.6</ele>
        <time>2017-09-17T07:06:37Z</time>
      </trkpt>
      <trkpt lat="49.25717" lon="1.12243">
        <ele>240.3</ele>
        <time>2017-09-17T07:06:39Z</time>
      </trkpt>
      <trkpt lat="49.2572" lon="1.12222">
        <ele>240.2</ele>
        <time>2017-09-17T07:06:41Z</time>
      </trkpt>
      <trkpt lat="49.25724" lon="1.12203">
        <ele>239.9</ele>
        <time>2017-09-17T07:06:43Z</time>
      </trkpt>
      <trkpt lat="49.2573" lon="1.12185">
        <ele>239.5</ele>
        <time>2017-09-17T07:06:45Z</time>
      </trkpt>
      <trkpt lat="49.2574" lon="1.12172">
        <ele>239</ele>
        <time>2017-09-17T07:06:47Z</time>
      </trkpt>
      <trkpt lat="49.25752" lon="1.12168">
        <ele>238.9</ele>
        <time>2017-09-17T07:06:49Z</time>
      </trkpt>
      <trkpt lat="49.25765" lon="1.12168">
        <ele>238.7</ele>
        <time>2017-09-17T07:06:51Z</time>
      </trkpt>
      <trkpt lat="49.25777" lon="1.12165">
        <ele>238.6</ele>
        <time>2017-09-17T07:06:53Z</time>
      </trkpt>
      <trkpt lat="49.25788" lon="1.12159">
        <ele>238.4</ele>
        <time>2017-09-17T07:06:55Z</time>
      </trkpt>
      <trkpt lat="49.25797" lon="1.12147">
        <ele>238.1</ele>
        <time>2017-09-17T07:06:57Z</time>
      </trkpt>
      <trkpt lat="49.25807" lon="1.12135">
        <ele>238.2</ele>
        <time>2017-09-17T07:06:59Z</time>
      </trkpt>
      <trkpt lat="49.25817" lon="1.12123">
        <ele>238.2</ele>
        <time>2017-09-17T07:07:01Z</time>
      </trkpt>
      <trkpt lat="49.25827" lon="1.12114">
        <ele>237.8</ele>
        <time>2017-09-17T07:07:03Z</time>
      </trkpt>
      <trkpt lat="49.25838" lon="1.1211">
        <ele>237.4</ele>
        <time>2017-09-17T07:07:05Z</time>
      </trkpt>
      <trkpt lat="49.25846" lon="1.12102">
        <ele>236.9</ele>
        <time>2017-09-17T07:07:07Z</time>
      </trkpt>
      <trkpt lat="49.25851" lon="1.12088">
        <ele>236.2</ele>
        <time>2017-09-17T07:07:10Z</time>
      </trkpt>
      <trkpt lat="49.25844" lon="1.12072">
        <ele>235</ele>
        <time>2017-09-17T07:07:13Z</time>
      </trkpt>
      <trkpt lat="49.2584" lon="1.12057">
        <ele>233.9</ele>
        <time>2017-09-17T07:07:16Z</time>
      </trkpt>
      <trkpt lat="49.25841" lon="1.1204">
        <ele>233.2</ele>
        <time>2017-09-17T07:07:18Z</time>
      </trkpt>
      <trkpt lat="49.25842" lon="1.12024">
        <ele>232.8</ele>
        <time>2017-09-17T07:07:20Z</time>
      </trkpt>
      <trkpt lat="49.25844" lon="1.12008">
        <ele>232.5</ele>
        <time>2017-09-17T07:07:22Z</time>
      </trkpt>
      <trkpt lat="49.25848" lon="1.11993">
        <ele>232.5</ele>
        <time>2017-09-17T07:07:24Z</time>
      </trkpt>
      <trkpt lat="49.25852" lon="1.11979">
        <ele>232.6</ele>
        <time>2017-09-17T07:07:26Z</time>
      </trkpt>
      <trkpt lat="49.25856" lon="1.11966">
        <ele>232.7</ele>
        <time>2017-09-17T07:07:28Z</time>
      </trkpt>
      <trkpt lat="49.25859" lon="1.11951">
        <ele>233.1</ele>
        <time>2017-09-17T07:07:30Z</time>
      </trkpt>
      <trkpt lat="49.25864" lon="1.11932">
        <ele>233.5</ele>
        <time>2017-09-17T07:07:33Z</time>
      </trkpt>
      <trkpt lat="49.25867" lon="1.11919">
        <ele>234.2</ele>
        <time>2017-09-17T07:07:35Z</time>
      </trkpt>
      <trkpt lat="49.2587" lon="1.11905">
        <ele>234.6</ele>
        <time>2017-09-17T07:07:37Z</time>
      </trkpt>
      <trkpt lat="49.25874" lon="1.11885">
        <ele>235</ele>
        <time>2017-09-17T07:07:40Z</time>
      </trkpt>
      <trkpt lat="49.25877" lon="1.11872">
        <ele>235.4</ele>
        <time>2017-09-17T07:07:42Z</time>
      </trkpt>
      <trkpt lat="49.2588" lon="1.11858">
        <ele>235.6</ele>
        <time>2017-09-17T07:07:44Z</time>
      </trkpt>
      <trkpt lat="49.25882" lon="1.11844">
        <ele>236</ele>
        <time>2017-09-17T07:07:46Z</time>
      </trkpt>
      <trkpt lat="49.25885" lon="1.1183">
        <ele>236.3</ele>
        <time>2017-09-17T07:07:48Z</time>
      </trkpt>
      <trkpt lat="49.25888" lon="1.11816">
        <ele>236.6</ele>
        <time>2017-09-17T07:07:50Z</time>
      </trkpt>
      <trkpt lat="49.2589" lon="1.11802">
        <ele>236.9</ele>
        <time>2017-09-17T07:07:52Z</time>
      </trkpt>
      <trkpt lat="49.25894" lon="1.11788">
        <ele>237.1</ele>
        <time>2017-09-17T07:07:54Z</time>
      </trkpt>
      <trkpt lat="49.25897" lon="1.11774">
        <ele>237.3</ele>
        <time>2017-09-17T07:07:56Z</time>
      </trkpt>
      <trkpt lat="49.25899" lon="1.1176">
        <ele>237.5</ele>
        <time>2017-09-17T07:07:58Z</time>
      </trkpt>
      <trkpt lat="49.25902" lon="1.11746">
        <ele>237.7</ele>
        <time>2017-09-17T07:08:00Z</time>
      </trkpt>
      <trkpt lat="49.25904" lon="1.11732">
        <ele>237.9</ele>
        <time>2017-09-17T07:08:02Z</time>
      </trkpt>
      <trkpt lat="49.25907" lon="1.11717">
        <ele>238</ele>
        <time>2017-09-17T07:08:04Z</time>
      </trkpt>
      <trkpt lat="49.2591" lon="1.11703">
        <ele>238</ele>
        <time>2017-09-17T07:08:06Z</time>
      </trkpt>
      <trkpt lat="49.25912" lon="1.11688">
        <ele>238</ele>
        <time>2017-09-17T07:08:08Z</time>
      </trkpt>
      <trkpt lat="49.25915" lon="1.11674">
        <ele>238.3</ele>
        <time>2017-09-17T07:08:10Z</time>
      </trkpt>
      <trkpt lat="49.25917" lon="1.11659">
        <ele>238.6</ele>
        <time>2017-09-17T07:08:12Z</time>
      </trkpt>
      <trkpt lat="49.2592" lon="1.11643">
        <ele>238.8</ele>
        <time>2017-09-17T07:08:14Z</time>
      </trkpt>
      <trkpt lat="49.25923" lon="1.11628">
        <ele>239</ele>
        <time>2017-09-17T07:08:16Z</time>
      </trkpt>
      <trkpt lat="49.25925" lon="1.11613">
        <ele>238.8</ele>
        <time>2017-09-17T07:08:18Z</time>
      </trkpt>
      <trkpt lat="49.25928" lon="1.11598">
        <ele>239</ele>
        <time>2017-09-17T07:08:20Z</time>
      </trkpt>
      <trkpt lat="49.25931" lon="1.11583">
        <ele>239.2</ele>
        <time>2017-09-17T07:08:22Z</time>
      </trkpt>
      <trkpt lat="49.25934" lon="1.11568">
        <ele>239.6</ele>
        <time>2017-09-17T07:08:24Z</time>
      </trkpt>
      <trkpt lat="49.25937" lon="1.11553">
        <ele>239.9</ele>
        <time>2017-09-17T07:08:26Z</time>
      </trkpt>
      <trkpt lat="49.2594" lon="1.11539">
        <ele>240</ele>
        <time>2017-09-17T07:08:28Z</time>
      </trkpt>
      <trkpt lat="49.25943" lon="1.11524">
        <ele>240.2</ele>
        <time>2017-09-17T07:08:30Z</time>
      </trkpt>
      <trkpt lat="49.25946" lon="1.1151">
        <ele>240.4</ele>
        <time>2017-09-17T07:08:32Z</time>
      </trkpt>
      <trkpt lat="49.25949" lon="1.11496">
        <ele>240.7</ele>
        <time>2017-09-17T07:08:34Z</time>
      </trkpt>
      <trkpt lat="49.25953" lon="1.11482">
        <ele>240.9</ele>
        <time>2017-09-17T07:08:36Z</time>
      </trkpt>
      <trkpt lat="49.25957" lon="1.11469">
        <ele>241.1</ele>
        <time>2017-09-17T07:08:38Z</time>
      </trkpt>
      <trkpt lat="49.25961" lon="1.11455">
        <ele>241.3</ele>
        <time>2017-09-17T07:08:40Z</time>
      </trkpt>
      <trkpt lat="49.25965" lon="1.11441">
        <ele>241.5</ele>
        <time>2017-09-17T07:08:42Z</time>
      </trkpt>
      <trkpt lat="49.2597" lon="1.11428">
        <ele>241.8</ele>
        <time>2017-09-17T07:08:44Z</time>
      </trkpt>
      <trkpt lat="49.25975" lon="1.11415">
        <ele>242</ele>
        <time>2017-09-17T07:08:46Z</time>
      </trkpt>
      <trkpt lat="49.25979" lon="1.11402">
        <ele>242.2</ele>
        <time>2017-09-17T07:08:48Z</time>
      </trkpt>
      <trkpt lat="49.25985" lon="1.1139">
        <ele>242.6</ele>
        <time>2017-09-17T07:08:50Z</time>
      </trkpt>
      <trkpt lat="49.25989" lon="1.11378">
        <ele>242.9</ele>
        <time>2017-09-17T07:08:52Z</time>
      </trkpt>
      <trkpt lat="49.25996" lon="1.11362">
        <ele>243.2</ele>
        <time>2017-09-17T07:08:55Z</time>
      </trkpt>
      <trkpt lat="49.26007" lon="1.11356">
        <ele>243.4</ele>
        <time>2017-09-17T07:08:58Z</time>
      </trkpt>
      <trkpt lat="49.26016" lon="1.11358">
        <ele>243.6</ele>
        <time>2017-09-17T07:09:00Z</time>
      </trkpt>
      <trkpt lat="49.26029" lon="1.11352">
        <ele>243.7</ele>
        <time>2017-09-17T07:09:03Z</time>
      </trkpt>
      <trkpt lat="49.26035" lon="1.1134">
        <ele>243.7</ele>
        <time>2017-09-17T07:09:05Z</time>
      </trkpt>
      <trkpt lat="49.2604" lon="1.11325">
        <ele>243.7</ele>
        <time>2017-09-17T07:09:07Z</time>
      </trkpt>
      <trkpt lat="49.26045" lon="1.11311">
        <ele>243.6</ele>
        <time>2017-09-17T07:09:09Z</time>
      </trkpt>
      <trkpt lat="49.26051" lon="1.11298">
        <ele>243.5</ele>
        <time>2017-09-17T07:09:11Z</time>
      </trkpt>
      <trkpt lat="49.26055" lon="1.11285">
        <ele>243.5</ele>
        <time>2017-09-17T07:09:13Z</time>
      </trkpt>
      <trkpt lat="49.26061" lon="1.11267">
        <ele>243.5</ele>
        <time>2017-09-17T07:09:16Z</time>
      </trkpt>
      <trkpt lat="49.26068" lon="1.1125">
        <ele>243.8</ele>
        <time>2017-09-17T07:09:19Z</time>
      </trkpt>
      <trkpt lat="49.26072" lon="1.11238">
        <ele>244</ele>
        <time>2017-09-17T07:09:21Z</time>
      </trkpt>
      <trkpt lat="49.26077" lon="1.11226">
        <ele>244.1</ele>
        <time>2017-09-17T07:09:23Z</time>
      </trkpt>
      <trkpt lat="49.26081" lon="1.11213">
        <ele>244.2</ele>
        <time>2017-09-17T07:09:25Z</time>
      </trkpt>
      <trkpt lat="49.26086" lon="1.11201">
        <ele>244.4</ele>
        <time>2017-09-17T07:09:27Z</time>
      </trkpt>
      <trkpt lat="49.2609" lon="1.11187">
        <ele>244.5</ele>
        <time>2017-09-17T07:09:29Z</time>
      </trkpt>
      <trkpt lat="49.26094" lon="1.11173">
        <ele>244.7</ele>
        <time>2017-09-17T07:09:31Z</time>
      </trkpt>
      <trkpt lat="49.26099" lon="1.1116">
        <ele>244.8</ele>
        <time>2017-09-17T07:09:33Z</time>
      </trkpt>
      <trkpt lat="49.26103" lon="1.11147">
        <ele>244.9</ele>
        <time>2017-09-17T07:09:35Z</time>
      </trkpt>
      <trkpt lat="49.26108" lon="1.11134">
        <ele>245.1</ele>
        <time>2017-09-17T07:09:37Z</time>
      </trkpt>
      <trkpt lat="49.26112" lon="1.11121">
        <ele>245.2</ele>
        <time>2017-09-17T07:09:39Z</time>
      </trkpt>
      <trkpt lat="49.26117" lon="1.11108">
        <ele>245.3</ele>
        <time>2017-09-17T07:09:41Z</time>
      </trkpt>
      <trkpt lat="49.26122" lon="1.11096">
        <ele>245.6</ele>
        <time>2017-09-17T07:09:43Z</time>
      </trkpt>
      <trkpt lat="49.26127" lon="1.11084">
        <ele>245.8</ele>
        <time>2017-09-17T07:09:45Z</time>
      </trkpt>
      <trkpt lat="49.26132" lon="1.11071">
        <ele>246.2</ele>
        <time>2017-09-17T07:09:47Z</time>
      </trkpt>
      <trkpt lat="49.26137" lon="1.11058">
        <ele>246.5</ele>
        <time>2017-09-17T07:09:49Z</time>
      </trkpt>
      <trkpt lat="49.26142" lon="1.11045">
        <ele>246.8</ele>
        <time>2017-09-17T07:09:51Z</time>
      </trkpt>
      <trkpt lat="49.26147" lon="1.11032">
        <ele>247</ele>
        <time>2017-09-17T07:09:53Z</time>
      </trkpt>
      <trkpt lat="49.26152" lon="1.11021">
        <ele>247.3</ele>
        <time>2017-09-17T07:09:55Z</time>
      </trkpt>
      <trkpt lat="49.26157" lon="1.11008">
        <ele>247.7</ele>
        <time>2017-09-17T07:09:57Z</time>
      </trkpt>
      <trkpt lat="49.26163" lon="1.10992">
        <ele>248</ele>
        <time>2017-09-17T07:10:00Z</time>
      </trkpt>
      <trkpt lat="49.26172" lon="1.10976">
        <ele>248.5</ele>
        <time>2017-09-17T07:10:03Z</time>
      </trkpt>
      <trkpt lat="49.26177" lon="1.10965">
        <ele>248.8</ele>
        <time>2017-09-17T07:10:05Z</time>
      </trkpt>
      <trkpt lat="49.26182" lon="1.10953">
        <ele>249.1</ele>
        <time>2017-09-17T07:10:07Z</time>
      </trkpt>
      <trkpt lat="49.26187" lon="1.1094">
        <ele>249.5</ele>
        <time>2017-09-17T07:10:09Z</time>
      </trkpt>
      <trkpt lat="49.26191" lon="1.10927">
        <ele>249.9</ele>
        <time>2017-09-17T07:10:11Z</time>
      </trkpt>
      <trkpt lat="49.26195" lon="1.10913">
        <ele>250.1</ele>
        <time>2017-09-17T07:10:13Z</time>
      </trkpt>
      <trkpt lat="49.26201" lon="1.109">
        <ele>250.3</ele>
        <time>2017-09-17T07:10:15Z</time>
      </trkpt>
      <trkpt lat="49.26207" lon="1.10888">
        <ele>250.5</ele>
        <time>2017-09-17T07:10:17Z</time>
      </trkpt>
      <trkpt lat="49.26213" lon="1.10877">
        <ele>250.8</ele>
        <time>2017-09-17T07:10:19Z</time>
      </trkpt>
      <trkpt lat="49.26219" lon="1.10865">
        <ele>251</ele>
        <time>2017-09-17T07:10:21Z</time>
      </trkpt>
      <trkpt lat="49.26226" lon="1.10854">
        <ele>251.2</ele>
        <time>2017-09-17T07:10:23Z</time>
      </trkpt>
      <trkpt lat="49.26233" lon="1.10843">
        <ele>251.3</ele>
        <time>2017-09-17T07:10:25Z</time>
      </trkpt>
      <trkpt lat="49.2624" lon="1.10833">
        <ele>251.3</ele>
        <time>2017-09-17T07:10:27Z</time>
      </trkpt>
      <trkpt lat="49.26246" lon="1.10821">
        <ele>251.4</ele>
        <time>2017-09-17T07:10:29Z</time>
      </trkpt>
      <trkpt lat="49.26253" lon="1.10812">
        <ele>251.7</ele>
        <time>2017-09-17T07:10:31Z</time>
      </trkpt>
      <trkpt lat="49.26262" lon="1.10798">
        <ele>251.8</ele>
        <time>2017-09-17T07:10:34Z</time>
      </trkpt>
      <trkpt lat="49.26272" lon="1.10784">
        <ele>252</ele>
        <time>2017-09-17T07:10:37Z</time>
      </trkpt>
      <trkpt lat="49.26279" lon="1.10774">
        <ele>252.1</ele>
        <time>2017-09-17T07:10:39Z</time>
      </trkpt>
      <trkpt lat="49.26285" lon="1.10764">
        <ele>252.2</ele>
        <time>2017-09-17T07:10:41Z</time>
      </trkpt>
      <trkpt lat="49.26292" lon="1.10754">
        <ele>252.4</ele>
        <time>2017-09-17T07:10:43Z</time>
      </trkpt>
      <trkpt lat="49.26299" lon="1.10744">
        <ele>252.4</ele>
        <time>2017-09-17T07:10:45Z</time>
      </trkpt>
      <trkpt lat="49.26306" lon="1.10734">
        <ele>252.5</ele>
        <time>2017-09-17T07:10:47Z</time>
      </trkpt>
      <trkpt lat="49.26313" lon="1.10724">
        <ele>252.6</ele>
        <time>2017-09-17T07:10:49Z</time>
      </trkpt>
      <trkpt lat="49.26321" lon="1.10713">
        <ele>252.6</ele>
        <time>2017-09-17T07:10:51Z</time>
      </trkpt>
      <trkpt lat="49.26328" lon="1.10702">
        <ele>252.6</ele>
        <time>2017-09-17T07:10:53Z</time>
      </trkpt>
      <trkpt lat="49.26336" lon="1.10691">
        <ele>252.4</ele>
        <time>2017-09-17T07:10:55Z</time>
      </trkpt>
      <trkpt lat="49.26344" lon="1.1068">
        <ele>252.2</ele>
        <time>2017-09-17T07:10:57Z</time>
      </trkpt>
      <trkpt lat="49.26351" lon="1.10669">
        <ele>252.2</ele>
        <time>2017-09-17T07:10:59Z</time>
      </trkpt>
      <trkpt lat="49.2636" lon="1.10657">
        <ele>252.2</ele>
        <time>2017-09-17T07:11:01Z</time>
      </trkpt>
      <trkpt lat="49.26368" lon="1.10645">
        <ele>252.2</ele>
        <time>2017-09-17T07:11:03Z</time>
      </trkpt>
      <trkpt lat="49.26376" lon="1.10634">
        <ele>252.1</ele>
        <time>2017-09-17T07:11:05Z</time>
      </trkpt>
      <trkpt lat="49.26384" lon="1.10623">
        <ele>252.2</ele>
        <time>2017-09-17T07:11:07Z</time>
      </trkpt>
      <trkpt lat="49.26392" lon="1.10611">
        <ele>252.2</ele>
        <time>2017-09-17T07:11:09Z</time>
      </trkpt>
      <trkpt lat="49.264" lon="1.10599">
        <ele>252.1</ele>
        <time>2017-09-17T07:11:11Z</time>
      </trkpt>
      <trkpt lat="49.26408" lon="1.10588">
        <ele>252.1</ele>
        <time>2017-09-17T07:11:13Z</time>
      </trkpt>
      <trkpt lat="49.26416" lon="1.10576">
        <ele>252.1</ele>
        <time>2017-09-17T07:11:15Z</time>
      </trkpt>
      <trkpt lat="49.26424" lon="1.10565">
        <ele>252.2</ele>
        <time>2017-09-17T07:11:17Z</time>
      </trkpt>
      <trkpt lat="49.26432" lon="1.10553">
        <ele>252.3</ele>
        <time>2017-09-17T07:11:19Z</time>
      </trkpt>
      <trkpt lat="49.2644" lon="1.10541">
        <ele>252.3</ele>
        <time>2017-09-17T07:11:21Z</time>
      </trkpt>
      <trkpt lat="49.26448" lon="1.10529">
        <ele>252.3</ele>
        <time>2017-09-17T07:11:23Z</time>
      </trkpt>
      <trkpt lat="49.26457" lon="1.10517">
        <ele>252.5</ele>
        <time>2017-09-17T07:11:25Z</time>
      </trkpt>
      <trkpt lat="49.26465" lon="1.10505">
        <ele>252.6</ele>
        <time>2017-09-17T07:11:27Z</time>
      </trkpt>
      <trkpt lat="49.26473" lon="1.10493">
        <ele>252.6</ele>
        <time>2017-09-17T07:11:29Z</time>
      </trkpt>
      <trkpt lat="49.26481" lon="1.10481">
        <ele>252.6</ele>
        <time>2017-09-17T07:11:31Z</time>
      </trkpt>
      <trkpt lat="49.2649" lon="1.10469">
        <ele>252.6</ele>
        <time>2017-09-17T07:11:33Z</time>
      </trkpt>
      <trkpt lat="49.26498" lon="1.10458">
        <ele>252.6</ele>
        <time>2017-09-17T07:11:35Z</time>
      </trkpt>
      <trkpt lat="49.26506" lon="1.10446">
        <ele>252.6</ele>
        <time>2017-09-17T07:11:37Z</time>
      </trkpt>
      <trkpt lat="49.26514" lon="1.10434">
        <ele>252.6</ele>
        <time>2017-09-17T07:11:39Z</time>
      </trkpt>
      <trkpt lat="49.26521" lon="1.1042">
        <ele>252.6</ele>
        <time>2017-09-17T07:11:41Z</time>
      </trkpt>
      <trkpt lat="49.26527" lon="1.10405">
        <ele>252.5</ele>
        <time>2017-09-17T07:11:43Z</time>
      </trkpt>
      <trkpt lat="49.26532" lon="1.10389">
        <ele>252.4</ele>
        <time>2017-09-17T07:11:45Z</time>
      </trkpt>
      <trkpt lat="49.26537" lon="1.10373">
        <ele>252.3</ele>
        <time>2017-09-17T07:11:47Z</time>
      </trkpt>
      <trkpt lat="49.26541" lon="1.10356">
        <ele>252.2</ele>
        <time>2017-09-17T07:11:49Z</time>
      </trkpt>
      <trkpt lat="49.26545" lon="1.10338">
        <ele>252.2</ele>
        <time>2017-09-17T07:11:51Z</time>
      </trkpt>
      <trkpt lat="49.2655" lon="1.10321">
        <ele>252</ele>
        <time>2017-09-17T07:11:53Z</time>
      </trkpt>
      <trkpt lat="49.26555" lon="1.10304">
        <ele>251.9</ele>
        <time>2017-09-17T07:11:55Z</time>
      </trkpt>
      <trkpt lat="49.26562" lon="1.1029">
        <ele>251.6</ele>
        <time>2017-09-17T07:11:57Z</time>
      </trkpt>
      <trkpt lat="49.2657" lon="1.10277">
        <ele>251.4</ele>
        <time>2017-09-17T07:11:59Z</time>
      </trkpt>
      <trkpt lat="49.26579" lon="1.10264">
        <ele>251.3</ele>
        <time>2017-09-17T07:12:01Z</time>
      </trkpt>
      <trkpt lat="49.26587" lon="1.10251">
        <ele>251.2</ele>
        <time>2017-09-17T07:12:03Z</time>
      </trkpt>
      <trkpt lat="49.26591" lon="1.10233">
        <ele>251.1</ele>
        <time>2017-09-17T07:12:05Z</time>
      </trkpt>
      <trkpt lat="49.26593" lon="1.10214">
        <ele>250.8</ele>
        <time>2017-09-17T07:12:07Z</time>
      </trkpt>
      <trkpt lat="49.26593" lon="1.10197">
        <ele>250.6</ele>
        <time>2017-09-17T07:12:09Z</time>
      </trkpt>
      <trkpt lat="49.26594" lon="1.10179">
        <ele>250.3</ele>
        <time>2017-09-17T07:12:11Z</time>
      </trkpt>
      <trkpt lat="49.26595" lon="1.10161">
        <ele>250.1</ele>
        <time>2017-09-17T07:12:13Z</time>
      </trkpt>
      <trkpt lat="49.26596" lon="1.10142">
        <ele>249.4</ele>
        <time>2017-09-17T07:12:15Z</time>
      </trkpt>
      <trkpt lat="49.26595" lon="1.10127">
        <ele>249.1</ele>
        <time>2017-09-17T07:12:17Z</time>
      </trkpt>
      <trkpt lat="49.26598" lon="1.10112">
        <ele>248.8</ele>
        <time>2017-09-17T07:12:19Z</time>
      </trkpt>
      <trkpt lat="49.26596" lon="1.10093">
        <ele>248.3</ele>
        <time>2017-09-17T07:12:22Z</time>
      </trkpt>
      <trkpt lat="49.2659" lon="1.10078">
        <ele>248.2</ele>
        <time>2017-09-17T07:12:24Z</time>
      </trkpt>
      <trkpt lat="49.26581" lon="1.10068">
        <ele>248</ele>
        <time>2017-09-17T07:12:26Z</time>
      </trkpt>
      <trkpt lat="49.26568" lon="1.10057">
        <ele>247.6</ele>
        <time>2017-09-17T07:12:28Z</time>
      </trkpt>
      <trkpt lat="49.26556" lon="1.10051">
        <ele>247.3</ele>
        <time>2017-09-17T07:12:30Z</time>
      </trkpt>
      <trkpt lat="49.26542" lon="1.10043">
        <ele>247</ele>
        <time>2017-09-17T07:12:32Z</time>
      </trkpt>
      <trkpt lat="49.26528" lon="1.10034">
        <ele>246.7</ele>
        <time>2017-09-17T07:12:34Z</time>
      </trkpt>
      <trkpt lat="49.26515" lon="1.10026">
        <ele>246.4</ele>
        <time>2017-09-17T07:12:36Z</time>
      </trkpt>
      <trkpt lat="49.26505" lon="1.10015">
        <ele>246</ele>
        <time>2017-09-17T07:12:38Z</time>
      </trkpt>
      <trkpt lat="49.26499" lon="1.10003">
        <ele>245.7</ele>
        <time>2017-09-17T07:12:40Z</time>
      </trkpt>
      <trkpt lat="49.26492" lon="1.09988">
        <ele>245.7</ele>
        <time>2017-09-17T07:12:42Z</time>
      </trkpt>
      <trkpt lat="49.26483" lon="1.09973">
        <ele>245.4</ele>
        <time>2017-09-17T07:12:44Z</time>
      </trkpt>
      <trkpt lat="49.26474" lon="1.09965">
        <ele>245.1</ele>
        <time>2017-09-17T07:12:46Z</time>
      </trkpt>
      <trkpt lat="49.26468" lon="1.09954">
        <ele>244.9</ele>
        <time>2017-09-17T07:12:48Z</time>
      </trkpt>
      <trkpt lat="49.26465" lon="1.09941">
        <ele>244.5</ele>
        <time>2017-09-17T07:12:50Z</time>
      </trkpt>
      <trkpt lat="49.26461" lon="1.09923">
        <ele>244.2</ele>
        <time>2017-09-17T07:12:53Z</time>
      </trkpt>
      <trkpt lat="49.2646" lon="1.09906">
        <ele>243.6</ele>
        <time>2017-09-17T07:12:56Z</time>
      </trkpt>
      <trkpt lat="49.26457" lon="1.0989">
        <ele>243.1</ele>
        <time>2017-09-17T07:12:59Z</time>
      </trkpt>
      <trkpt lat="49.26456" lon="1.09874">
        <ele>242.5</ele>
        <time>2017-09-17T07:13:01Z</time>
      </trkpt>
      <trkpt lat="49.26452" lon="1.09858">
        <ele>241.9</ele>
        <time>2017-09-17T07:13:03Z</time>
      </trkpt>
      <trkpt lat="49.26449" lon="1.0984">
        <ele>241.3</ele>
        <time>2017-09-17T07:13:06Z</time>
      </trkpt>
      <trkpt lat="49.26445" lon="1.09823">
        <ele>240.4</ele>
        <time>2017-09-17T07:13:08Z</time>
      </trkpt>
      <trkpt lat="49.26442" lon="1.09804">
        <ele>239.8</ele>
        <time>2017-09-17T07:13:10Z</time>
      </trkpt>
      <trkpt lat="49.26439" lon="1.09789">
        <ele>239.4</ele>
        <time>2017-09-17T07:13:12Z</time>
      </trkpt>
      <trkpt lat="49.26436" lon="1.09773">
        <ele>238.7</ele>
        <time>2017-09-17T07:13:14Z</time>
      </trkpt>
      <trkpt lat="49.26434" lon="1.09753">
        <ele>238.1</ele>
        <time>2017-09-17T07:13:16Z</time>
      </trkpt>
      <trkpt lat="49.26433" lon="1.09734">
        <ele>237</ele>
        <time>2017-09-17T07:13:18Z</time>
      </trkpt>
      <trkpt lat="49.26433" lon="1.0971">
        <ele>236.2</ele>
        <time>2017-09-17T07:13:20Z</time>
      </trkpt>
      <trkpt lat="49.26431" lon="1.09689">
        <ele>235.1</ele>
        <time>2017-09-17T07:13:22Z</time>
      </trkpt>
      <trkpt lat="49.26429" lon="1.09675">
        <ele>234.7</ele>
        <time>2017-09-17T07:13:23Z</time>
      </trkpt>
      <trkpt lat="49.26428" lon="1.09655">
        <ele>233.5</ele>
        <time>2017-09-17T07:13:25Z</time>
      </trkpt>
      <trkpt lat="49.26428" lon="1.09634">
        <ele>232.5</ele>
        <time>2017-09-17T07:13:27Z</time>
      </trkpt>
      <trkpt lat="49.26424" lon="1.09614">
        <ele>231.4</ele>
        <time>2017-09-17T07:13:29Z</time>
      </trkpt>
      <trkpt lat="49.26422" lon="1.09599">
        <ele>231</ele>
        <time>2017-09-17T07:13:30Z</time>
      </trkpt>
      <trkpt lat="49.2642" lon="1.09576">
        <ele>229.9</ele>
        <time>2017-09-17T07:13:32Z</time>
      </trkpt>
      <trkpt lat="49.26417" lon="1.09557">
        <ele>229.1</ele>
        <time>2017-09-17T07:13:34Z</time>
      </trkpt>
      <trkpt lat="49.26414" lon="1.09531">
        <ele>228.3</ele>
        <time>2017-09-17T07:13:36Z</time>
      </trkpt>
      <trkpt lat="49.26413" lon="1.09503">
        <ele>227.5</ele>
        <time>2017-09-17T07:13:38Z</time>
      </trkpt>
      <trkpt lat="49.26411" lon="1.09477">
        <ele>226.6</ele>
        <time>2017-09-17T07:13:40Z</time>
      </trkpt>
      <trkpt lat="49.26412" lon="1.0945">
        <ele>225.8</ele>
        <time>2017-09-17T07:13:42Z</time>
      </trkpt>
      <trkpt lat="49.26411" lon="1.09426">
        <ele>225</ele>
        <time>2017-09-17T07:13:44Z</time>
      </trkpt>
      <trkpt lat="49.26409" lon="1.09399">
        <ele>224.4</ele>
        <time>2017-09-17T07:13:46Z</time>
      </trkpt>
      <trkpt lat="49.26409" lon="1.09368">
        <ele>223.9</ele>
        <time>2017-09-17T07:13:48Z</time>
      </trkpt>
      <trkpt lat="49.26411" lon="1.09346">
        <ele>223.2</ele>
        <time>2017-09-17T07:13:50Z</time>
      </trkpt>
      <trkpt lat="49.26414" lon="1.09328">
        <ele>222.8</ele>
        <time>2017-09-17T07:13:52Z</time>
      </trkpt>
      <trkpt lat="49.26417" lon="1.09305">
        <ele>222.3</ele>
        <time>2017-09-17T07:13:54Z</time>
      </trkpt>
      <trkpt lat="49.2642" lon="1.09283">
        <ele>222.1</ele>
        <time>2017-09-17T07:13:56Z</time>
      </trkpt>
      <trkpt lat="49.26425" lon="1.09261">
        <ele>222</ele>
        <time>2017-09-17T07:13:58Z</time>
      </trkpt>
      <trkpt lat="49.2643" lon="1.09245">
        <ele>221.5</ele>
        <time>2017-09-17T07:14:00Z</time>
      </trkpt>
      <trkpt lat="49.26439" lon="1.09233">
        <ele>220.7</ele>
        <time>2017-09-17T07:14:02Z</time>
      </trkpt>
      <trkpt lat="49.26445" lon="1.09219">
        <ele>219.9</ele>
        <time>2017-09-17T07:14:04Z</time>
      </trkpt>
      <trkpt lat="49.26452" lon="1.09207">
        <ele>218.9</ele>
        <time>2017-09-17T07:14:06Z</time>
      </trkpt>
      <trkpt lat="49.26456" lon="1.09192">
        <ele>217.8</ele>
        <time>2017-09-17T07:14:08Z</time>
      </trkpt>
      <trkpt lat="49.26464" lon="1.09175">
        <ele>216.9</ele>
        <time>2017-09-17T07:14:10Z</time>
      </trkpt>
      <trkpt lat="49.26472" lon="1.09157">
        <ele>216.2</ele>
        <time>2017-09-17T07:14:12Z</time>
      </trkpt>
      <trkpt lat="49.26482" lon="1.09141">
        <ele>215.6</ele>
        <time>2017-09-17T07:14:14Z</time>
      </trkpt>
      <trkpt lat="49.26492" lon="1.09125">
        <ele>215.1</ele>
        <time>2017-09-17T07:14:16Z</time>
      </trkpt>
      <trkpt lat="49.26501" lon="1.09114">
        <ele>214.9</ele>
        <time>2017-09-17T07:14:18Z</time>
      </trkpt>
      <trkpt lat="49.26511" lon="1.09104">
        <ele>214.7</ele>
        <time>2017-09-17T07:14:20Z</time>
      </trkpt>
      <trkpt lat="49.26524" lon="1.09093">
        <ele>214.7</ele>
        <time>2017-09-17T07:14:22Z</time>
      </trkpt>
      <trkpt lat="49.26534" lon="1.09086">
        <ele>214.9</ele>
        <time>2017-09-17T07:14:24Z</time>
      </trkpt>
      <trkpt lat="49.26547" lon="1.09074">
        <ele>215.2</ele>
        <time>2017-09-17T07:14:26Z</time>
      </trkpt>
      <trkpt lat="49.26558" lon="1.09066">
        <ele>215.4</ele>
        <time>2017-09-17T07:14:28Z</time>
      </trkpt>
      <trkpt lat="49.2657" lon="1.09053">
        <ele>215.5</ele>
        <time>2017-09-17T07:14:30Z</time>
      </trkpt>
      <trkpt lat="49.26578" lon="1.09041">
        <ele>215.4</ele>
        <time>2017-09-17T07:14:32Z</time>
      </trkpt>
      <trkpt lat="49.26585" lon="1.09029">
        <ele>215.1</ele>
        <time>2017-09-17T07:14:34Z</time>
      </trkpt>
      <trkpt lat="49.26595" lon="1.09018">
        <ele>214.4</ele>
        <time>2017-09-17T07:14:36Z</time>
      </trkpt>
      <trkpt lat="49.26607" lon="1.09009">
        <ele>213.5</ele>
        <time>2017-09-17T07:14:38Z</time>
      </trkpt>
      <trkpt lat="49.2662" lon="1.09001">
        <ele>212.5</ele>
        <time>2017-09-17T07:14:40Z</time>
      </trkpt>
      <trkpt lat="49.26631" lon="1.08994">
        <ele>211.4</ele>
        <time>2017-09-17T07:14:42Z</time>
      </trkpt>
      <trkpt lat="49.2664" lon="1.08984">
        <ele>210.9</ele>
        <time>2017-09-17T07:14:43Z</time>
      </trkpt>
      <trkpt lat="49.26656" lon="1.08977">
        <ele>210.2</ele>
        <time>2017-09-17T07:14:45Z</time>
      </trkpt>
      <trkpt lat="49.2667" lon="1.08975">
        <ele>209.3</ele>
        <time>2017-09-17T07:14:47Z</time>
      </trkpt>
      <trkpt lat="49.26682" lon="1.08972">
        <ele>208.7</ele>
        <time>2017-09-17T07:14:49Z</time>
      </trkpt>
      <trkpt lat="49.26696" lon="1.08979">
        <ele>208</ele>
        <time>2017-09-17T07:14:52Z</time>
      </trkpt>
      <trkpt lat="49.26705" lon="1.08984">
        <ele>207.7</ele>
        <time>2017-09-17T07:14:54Z</time>
      </trkpt>
      <trkpt lat="49.26713" lon="1.08992">
        <ele>207.4</ele>
        <time>2017-09-17T07:14:56Z</time>
      </trkpt>
      <trkpt lat="49.26722" lon="1.09003">
        <ele>207.1</ele>
        <time>2017-09-17T07:14:58Z</time>
      </trkpt>
      <trkpt lat="49.2673" lon="1.09014">
        <ele>206.9</ele>
        <time>2017-09-17T07:15:00Z</time>
      </trkpt>
      <trkpt lat="49.26739" lon="1.09025">
        <ele>206.7</ele>
        <time>2017-09-17T07:15:02Z</time>
      </trkpt>
      <trkpt lat="49.26752" lon="1.0904">
        <ele>206.3</ele>
        <time>2017-09-17T07:15:04Z</time>
      </trkpt>
      <trkpt lat="49.26762" lon="1.09052">
        <ele>205.8</ele>
        <time>2017-09-17T07:15:06Z</time>
      </trkpt>
      <trkpt lat="49.26776" lon="1.09062">
        <ele>205.3</ele>
        <time>2017-09-17T07:15:08Z</time>
      </trkpt>
      <trkpt lat="49.26793" lon="1.09064">
        <ele>204.7</ele>
        <time>2017-09-17T07:15:10Z</time>
      </trkpt>
      <trkpt lat="49.26809" lon="1.09064">
        <ele>204.1</ele>
        <time>2017-09-17T07:15:12Z</time>
      </trkpt>
      <trkpt lat="49.26822" lon="1.09064">
        <ele>203.5</ele>
        <time>2017-09-17T07:15:14Z</time>
      </trkpt>
      <trkpt lat="49.26837" lon="1.09063">
        <ele>202.7</ele>
        <time>2017-09-17T07:15:16Z</time>
      </trkpt>
      <trkpt lat="49.26853" lon="1.09062">
        <ele>202.2</ele>
        <time>2017-09-17T07:15:18Z</time>
      </trkpt>
      <trkpt lat="49.26869" lon="1.09061">
        <ele>201.7</ele>
        <time>2017-09-17T07:15:20Z</time>
      </trkpt>
      <trkpt lat="49.26883" lon="1.09061">
        <ele>201.5</ele>
        <time>2017-09-17T07:15:22Z</time>
      </trkpt>
      <trkpt lat="49.26896" lon="1.09063">
        <ele>201.1</ele>
        <time>2017-09-17T07:15:24Z</time>
      </trkpt>
      <trkpt lat="49.26909" lon="1.0907">
        <ele>200.7</ele>
        <time>2017-09-17T07:15:26Z</time>
      </trkpt>
      <trkpt lat="49.26921" lon="1.09079">
        <ele>200.1</ele>
        <time>2017-09-17T07:15:28Z</time>
      </trkpt>
      <trkpt lat="49.26934" lon="1.09086">
        <ele>199.5</ele>
        <time>2017-09-17T07:15:30Z</time>
      </trkpt>
      <trkpt lat="49.26949" lon="1.09087">
        <ele>199.2</ele>
        <time>2017-09-17T07:15:32Z</time>
      </trkpt>
      <trkpt lat="49.26963" lon="1.09086">
        <ele>198.9</ele>
        <time>2017-09-17T07:15:34Z</time>
      </trkpt>
      <trkpt lat="49.26977" lon="1.09084">
        <ele>198.7</ele>
        <time>2017-09-17T07:15:36Z</time>
      </trkpt>
      <trkpt lat="49.26991" lon="1.09078">
        <ele>198.5</ele>
        <time>2017-09-17T07:15:38Z</time>
      </trkpt>
      <trkpt lat="49.27005" lon="1.09073">
        <ele>198</ele>
        <time>2017-09-17T07:15:40Z</time>
      </trkpt>
      <trkpt lat="49.27019" lon="1.09067">
        <ele>197.7</ele>
        <time>2017-09-17T07:15:42Z</time>
      </trkpt>
      <trkpt lat="49.27032" lon="1.0906">
        <ele>197.3</ele>
        <time>2017-09-17T07:15:44Z</time>
      </trkpt>
      <trkpt lat="49.27046" lon="1.09058">
        <ele>196.7</ele>
        <time>2017-09-17T07:15:46Z</time>
      </trkpt>
      <trkpt lat="49.27057" lon="1.09053">
        <ele>196.4</ele>
        <time>2017-09-17T07:15:48Z</time>
      </trkpt>
      <trkpt lat="49.27067" lon="1.09049">
        <ele>195.5</ele>
        <time>2017-09-17T07:15:50Z</time>
      </trkpt>
      <trkpt lat="49.27078" lon="1.09045">
        <ele>194.9</ele>
        <time>2017-09-17T07:15:53Z</time>
      </trkpt>
      <trkpt lat="49.2709" lon="1.0904">
        <ele>194.7</ele>
        <time>2017-09-17T07:15:55Z</time>
      </trkpt>
      <trkpt lat="49.27103" lon="1.09037">
        <ele>194.3</ele>
        <time>2017-09-17T07:15:57Z</time>
      </trkpt>
      <trkpt lat="49.27114" lon="1.0903">
        <ele>194.2</ele>
        <time>2017-09-17T07:15:59Z</time>
      </trkpt>
      <trkpt lat="49.27124" lon="1.09024">
        <ele>194.2</ele>
        <time>2017-09-17T07:16:01Z</time>
      </trkpt>
      <trkpt lat="49.27133" lon="1.09017">
        <ele>194.2</ele>
        <time>2017-09-17T07:16:03Z</time>
      </trkpt>
      <trkpt lat="49.27142" lon="1.0901">
        <ele>194.4</ele>
        <time>2017-09-17T07:16:05Z</time>
      </trkpt>
      <trkpt lat="49.27151" lon="1.09004">
        <ele>194.8</ele>
        <time>2017-09-17T07:16:07Z</time>
      </trkpt>
      <trkpt lat="49.27159" lon="1.08995">
        <ele>195.1</ele>
        <time>2017-09-17T07:16:09Z</time>
      </trkpt>
      <trkpt lat="49.27167" lon="1.08986">
        <ele>195.4</ele>
        <time>2017-09-17T07:16:11Z</time>
      </trkpt>
      <trkpt lat="49.27177" lon="1.08974">
        <ele>196.1</ele>
        <time>2017-09-17T07:16:14Z</time>
      </trkpt>
      <trkpt lat="49.27187" lon="1.08962">
        <ele>196.6</ele>
        <time>2017-09-17T07:16:17Z</time>
      </trkpt>
      <trkpt lat="49.27197" lon="1.08951">
        <ele>197</ele>
        <time>2017-09-17T07:16:20Z</time>
      </trkpt>
      <trkpt lat="49.27209" lon="1.08952">
        <ele>197.3</ele>
        <time>2017-09-17T07:16:23Z</time>
      </trkpt>
      <trkpt lat="49.27217" lon="1.08961">
        <ele>197.8</ele>
        <time>2017-09-17T07:16:26Z</time>
      </trkpt>
      <trkpt lat="49.27226" lon="1.08971">
        <ele>198.7</ele>
        <time>2017-09-17T07:16:30Z</time>
      </trkpt>
      <trkpt lat="49.27234" lon="1.08981">
        <ele>199.7</ele>
        <time>2017-09-17T07:16:34Z</time>
      </trkpt>
      <trkpt lat="49.27243" lon="1.08992">
        <ele>200.5</ele>
        <time>2017-09-17T07:16:38Z</time>
      </trkpt>
      <trkpt lat="49.27252" lon="1.09001">
        <ele>201.7</ele>
        <time>2017-09-17T07:16:42Z</time>
      </trkpt>
      <trkpt lat="49.2726" lon="1.09011">
        <ele>202.7</ele>
        <time>2017-09-17T07:16:46Z</time>
      </trkpt>
      <trkpt lat="49.27268" lon="1.09023">
        <ele>203.7</ele>
        <time>2017-09-17T07:16:50Z</time>
      </trkpt>
      <trkpt lat="49.27278" lon="1.09021">
        <ele>205</ele>
        <time>2017-09-17T07:16:55Z</time>
      </trkpt>
      <trkpt lat="49.27287" lon="1.09009">
        <ele>205.8</ele>
        <time>2017-09-17T07:16:59Z</time>
      </trkpt>
      <trkpt lat="49.27294" lon="1.08996">
        <ele>206.4</ele>
        <time>2017-09-17T07:17:02Z</time>
      </trkpt>
      <trkpt lat="49.27301" lon="1.08984">
        <ele>206.3</ele>
        <time>2017-09-17T07:17:05Z</time>
      </trkpt>
      <trkpt lat="49.27305" lon="1.08969">
        <ele>205.7</ele>
        <time>2017-09-17T07:17:08Z</time>
      </trkpt>
      <trkpt lat="49.27305" lon="1.08955">
        <ele>205</ele>
        <time>2017-09-17T07:17:10Z</time>
      </trkpt>
      <trkpt lat="49.27303" lon="1.08932">
        <ele>203.5</ele>
        <time>2017-09-17T07:17:13Z</time>
      </trkpt>
      <trkpt lat="49.27297" lon="1.08916">
        <ele>202.4</ele>
        <time>2017-09-17T07:17:15Z</time>
      </trkpt>
      <trkpt lat="49.27299" lon="1.08902">
        <ele>200.7</ele>
        <time>2017-09-17T07:17:17Z</time>
      </trkpt>
      <trkpt lat="49.27303" lon="1.08888">
        <ele>199</ele>
        <time>2017-09-17T07:17:20Z</time>
      </trkpt>
      <trkpt lat="49.27308" lon="1.08874">
        <ele>197.8</ele>
        <time>2017-09-17T07:17:22Z</time>
      </trkpt>
      <trkpt lat="49.27316" lon="1.08858">
        <ele>196.3</ele>
        <time>2017-09-17T07:17:24Z</time>
      </trkpt>
      <trkpt lat="49.2732" lon="1.08844">
        <ele>194.7</ele>
        <time>2017-09-17T07:17:26Z</time>
      </trkpt>
      <trkpt lat="49.27327" lon="1.08832">
        <ele>193.1</ele>
        <time>2017-09-17T07:17:28Z</time>
      </trkpt>
      <trkpt lat="49.27338" lon="1.08813">
        <ele>190.4</ele>
        <time>2017-09-17T07:17:31Z</time>
      </trkpt>
      <trkpt lat="49.27348" lon="1.08793">
        <ele>188.6</ele>
        <time>2017-09-17T07:17:33Z</time>
      </trkpt>
      <trkpt lat="49.27356" lon="1.08774">
        <ele>187.3</ele>
        <time>2017-09-17T07:17:35Z</time>
      </trkpt>
      <trkpt lat="49.27362" lon="1.08756">
        <ele>186.5</ele>
        <time>2017-09-17T07:17:37Z</time>
      </trkpt>
      <trkpt lat="49.27368" lon="1.08738">
        <ele>185.7</ele>
        <time>2017-09-17T07:17:39Z</time>
      </trkpt>
      <trkpt lat="49.27373" lon="1.08717">
        <ele>185.2</ele>
        <time>2017-09-17T07:17:41Z</time>
      </trkpt>
      <trkpt lat="49.27378" lon="1.08697">
        <ele>184.9</ele>
        <time>2017-09-17T07:17:43Z</time>
      </trkpt>
      <trkpt lat="49.27386" lon="1.08689">
        <ele>184.7</ele>
        <time>2017-09-17T07:17:45Z</time>
      </trkpt>
      <trkpt lat="49.27397" lon="1.08696">
        <ele>183.9</ele>
        <time>2017-09-17T07:17:48Z</time>
      </trkpt>
      <trkpt lat="49.27407" lon="1.08708">
        <ele>183.2</ele>
        <time>2017-09-17T07:17:51Z</time>
      </trkpt>
      <trkpt lat="49.27415" lon="1.08719">
        <ele>182</ele>
        <time>2017-09-17T07:17:54Z</time>
      </trkpt>
      <trkpt lat="49.27423" lon="1.08728">
        <ele>181.5</ele>
        <time>2017-09-17T07:17:56Z</time>
      </trkpt>
      <trkpt lat="49.27432" lon="1.08741">
        <ele>180.7</ele>
        <time>2017-09-17T07:17:59Z</time>
      </trkpt>
      <trkpt lat="49.27442" lon="1.08751">
        <ele>180.2</ele>
        <time>2017-09-17T07:18:02Z</time>
      </trkpt>
      <trkpt lat="49.27452" lon="1.08761">
        <ele>180.4</ele>
        <time>2017-09-17T07:18:05Z</time>
      </trkpt>
      <trkpt lat="49.27463" lon="1.08772">
        <ele>181.2</ele>
        <time>2017-09-17T07:18:08Z</time>
      </trkpt>
      <trkpt lat="49.27471" lon="1.0878">
        <ele>181.7</ele>
        <time>2017-09-17T07:18:10Z</time>
      </trkpt>
      <trkpt lat="49.27479" lon="1.08786">
        <ele>182.9</ele>
        <time>2017-09-17T07:18:13Z</time>
      </trkpt>
      <trkpt lat="49.27486" lon="1.08797">
        <ele>183.8</ele>
        <time>2017-09-17T07:18:16Z</time>
      </trkpt>
      <trkpt lat="49.27498" lon="1.08807">
        <ele>184.5</ele>
        <time>2017-09-17T07:18:18Z</time>
      </trkpt>
      <trkpt lat="49.27509" lon="1.0882">
        <ele>185.4</ele>
        <time>2017-09-17T07:18:21Z</time>
      </trkpt>
      <trkpt lat="49.27518" lon="1.08831">
        <ele>186.6</ele>
        <time>2017-09-17T07:18:25Z</time>
      </trkpt>
      <trkpt lat="49.27526" lon="1.08842">
        <ele>187.4</ele>
        <time>2017-09-17T07:18:28Z</time>
      </trkpt>
      <trkpt lat="49.27533" lon="1.08852">
        <ele>188.1</ele>
        <time>2017-09-17T07:18:31Z</time>
      </trkpt>
      <trkpt lat="49.27544" lon="1.08863">
        <ele>188.6</ele>
        <time>2017-09-17T07:18:34Z</time>
      </trkpt>
      <trkpt lat="49.27554" lon="1.08873">
        <ele>189</ele>
        <time>2017-09-17T07:18:37Z</time>
      </trkpt>
      <trkpt lat="49.27564" lon="1.08884">
        <ele>189.5</ele>
        <time>2017-09-17T07:18:40Z</time>
      </trkpt>
      <trkpt lat="49.27572" lon="1.08898">
        <ele>190.1</ele>
        <time>2017-09-17T07:18:43Z</time>
      </trkpt>
      <trkpt lat="49.27579" lon="1.08912">
        <ele>190.4</ele>
        <time>2017-09-17T07:18:46Z</time>
      </trkpt>
      <trkpt lat="49.27588" lon="1.08924">
        <ele>190.6</ele>
        <time>2017-09-17T07:18:49Z</time>
      </trkpt>
      <trkpt lat="49.27597" lon="1.08937">
        <ele>191.1</ele>
        <time>2017-09-17T07:18:52Z</time>
      </trkpt>
      <trkpt lat="49.27605" lon="1.08951">
        <ele>191.2</ele>
        <time>2017-09-17T07:18:55Z</time>
      </trkpt>
      <trkpt lat="49.27617" lon="1.08965">
        <ele>191.2</ele>
        <time>2017-09-17T07:18:57Z</time>
      </trkpt>
      <trkpt lat="49.27627" lon="1.08979">
        <ele>191</ele>
        <time>2017-09-17T07:18:59Z</time>
      </trkpt>
      <trkpt lat="49.2763" lon="1.08993">
        <ele>190.9</ele>
        <time>2017-09-17T07:19:01Z</time>
      </trkpt>
      <trkpt lat="49.27631" lon="1.09009">
        <ele>191.1</ele>
        <time>2017-09-17T07:19:04Z</time>
      </trkpt>
      <trkpt lat="49.27629" lon="1.09024">
        <ele>191.8</ele>
        <time>2017-09-17T07:19:08Z</time>
      </trkpt>
      <trkpt lat="49.27624" lon="1.09041">
        <ele>192.5</ele>
        <time>2017-09-17T07:19:13Z</time>
      </trkpt>
      <trkpt lat="49.27619" lon="1.09055">
        <ele>193</ele>
        <time>2017-09-17T07:19:16Z</time>
      </trkpt>
      <trkpt lat="49.27615" lon="1.0907">
        <ele>193.5</ele>
        <time>2017-09-17T07:19:19Z</time>
      </trkpt>
      <trkpt lat="49.27613" lon="1.09085">
        <ele>194.3</ele>
        <time>2017-09-17T07:19:23Z</time>
      </trkpt>
      <trkpt lat="49.27607" lon="1.09098">
        <ele>194.7</ele>
        <time>2017-09-17T07:19:26Z</time>
      </trkpt>
      <trkpt lat="49.27599" lon="1.09113">
        <ele>195.6</ele>
        <time>2017-09-17T07:19:30Z</time>
      </trkpt>
      <trkpt lat="49.27593" lon="1.09123">
        <ele>196.1</ele>
        <time>2017-09-17T07:19:33Z</time>
      </trkpt>
      <trkpt lat="49.27587" lon="1.09135">
        <ele>196.5</ele>
        <time>2017-09-17T07:19:36Z</time>
      </trkpt>
      <trkpt lat="49.27583" lon="1.09148">
        <ele>196.8</ele>
        <time>2017-09-17T07:19:39Z</time>
      </trkpt>
      <trkpt lat="49.27575" lon="1.09159">
        <ele>197</ele>
        <time>2017-09-17T07:19:41Z</time>
      </trkpt>
      <trkpt lat="49.27566" lon="1.09173">
        <ele>197.5</ele>
        <time>2017-09-17T07:19:44Z</time>
      </trkpt>
      <trkpt lat="49.2756" lon="1.09187">
        <ele>198.1</ele>
        <time>2017-09-17T07:19:47Z</time>
      </trkpt>
      <trkpt lat="49.27555" lon="1.09198">
        <ele>198.5</ele>
        <time>2017-09-17T07:19:50Z</time>
      </trkpt>
      <trkpt lat="49.27548" lon="1.09209">
        <ele>199.1</ele>
        <time>2017-09-17T07:19:53Z</time>
      </trkpt>
      <trkpt lat="49.27542" lon="1.09221">
        <ele>199.9</ele>
        <time>2017-09-17T07:19:57Z</time>
      </trkpt>
      <trkpt lat="49.27534" lon="1.09237">
        <ele>200.6</ele>
        <time>2017-09-17T07:20:01Z</time>
      </trkpt>
      <trkpt lat="49.27529" lon="1.09252">
        <ele>201.3</ele>
        <time>2017-09-17T07:20:04Z</time>
      </trkpt>
      <trkpt lat="49.27524" lon="1.09264">
        <ele>202</ele>
        <time>2017-09-17T07:20:07Z</time>
      </trkpt>
      <trkpt lat="49.27524" lon="1.0928">
        <ele>203.4</ele>
        <time>2017-09-17T07:20:11Z</time>
      </trkpt>
      <trkpt lat="49.27528" lon="1.09294">
        <ele>204</ele>
        <time>2017-09-17T07:20:14Z</time>
      </trkpt>
      <trkpt lat="49.27533" lon="1.09312">
        <ele>204.2</ele>
        <time>2017-09-17T07:20:17Z</time>
      </trkpt>
      <trkpt lat="49.2754" lon="1.09326">
        <ele>204.5</ele>
        <time>2017-09-17T07:20:20Z</time>
      </trkpt>
      <trkpt lat="49.27542" lon="1.09342">
        <ele>204.4</ele>
        <time>2017-09-17T07:20:23Z</time>
      </trkpt>
      <trkpt lat="49.27538" lon="1.09354">
        <ele>204.5</ele>
        <time>2017-09-17T07:20:26Z</time>
      </trkpt>
      <trkpt lat="49.27532" lon="1.09366">
        <ele>205.2</ele>
        <time>2017-09-17T07:20:30Z</time>
      </trkpt>
      <trkpt lat="49.27526" lon="1.09379">
        <ele>206.3</ele>
        <time>2017-09-17T07:20:35Z</time>
      </trkpt>
      <trkpt lat="49.27519" lon="1.09391">
        <ele>207.3</ele>
        <time>2017-09-17T07:20:40Z</time>
      </trkpt>
      <trkpt lat="49.27511" lon="1.09403">
        <ele>208.5</ele>
        <time>2017-09-17T07:20:44Z</time>
      </trkpt>
      <trkpt lat="49.27504" lon="1.09415">
        <ele>209.4</ele>
        <time>2017-09-17T07:20:48Z</time>
      </trkpt>
      <trkpt lat="49.27498" lon="1.09428">
        <ele>210.3</ele>
        <time>2017-09-17T07:20:52Z</time>
      </trkpt>
      <trkpt lat="49.27492" lon="1.09439">
        <ele>211.3</ele>
        <time>2017-09-17T07:20:56Z</time>
      </trkpt>
      <trkpt lat="49.27485" lon="1.09452">
        <ele>212.7</ele>
        <time>2017-09-17T07:21:01Z</time>
      </trkpt>
      <trkpt lat="49.27478" lon="1.09464">
        <ele>213.8</ele>
        <time>2017-09-17T07:21:06Z</time>
      </trkpt>
      <trkpt lat="49.27472" lon="1.09476">
        <ele>215.8</ele>
        <time>2017-09-17T07:21:12Z</time>
      </trkpt>
      <trkpt lat="49.27467" lon="1.09487">
        <ele>217.3</ele>
        <time>2017-09-17T07:21:18Z</time>
      </trkpt>
      <trkpt lat="49.2746" lon="1.09499">
        <ele>218.6</ele>
        <time>2017-09-17T07:21:23Z</time>
      </trkpt>
      <trkpt lat="49.27454" lon="1.0951">
        <ele>221</ele>
        <time>2017-09-17T07:21:29Z</time>
      </trkpt>
      <trkpt lat="49.27447" lon="1.09521">
        <ele>223.1</ele>
        <time>2017-09-17T07:21:36Z</time>
      </trkpt>
      <trkpt lat="49.27441" lon="1.09534">
        <ele>224.8</ele>
        <time>2017-09-17T07:21:42Z</time>
      </trkpt>
      <trkpt lat="49.27436" lon="1.09548">
        <ele>227</ele>
        <time>2017-09-17T07:21:50Z</time>
      </trkpt>
      <trkpt lat="49.27431" lon="1.09561">
        <ele>228.8</ele>
        <time>2017-09-17T07:21:57Z</time>
      </trkpt>
      <trkpt lat="49.27425" lon="1.09572">
        <ele>230.4</ele>
        <time>2017-09-17T07:22:02Z</time>
      </trkpt>
      <trkpt lat="49.27419" lon="1.09584">
        <ele>232.3</ele>
        <time>2017-09-17T07:22:08Z</time>
      </trkpt>
      <trkpt lat="49.27413" lon="1.09595">
        <ele>234</ele>
        <time>2017-09-17T07:22:14Z</time>
      </trkpt>
      <trkpt lat="49.27407" lon="1.09605">
        <ele>235.1</ele>
        <time>2017-09-17T07:22:19Z</time>
      </trkpt>
      <trkpt lat="49.274" lon="1.09616">
        <ele>236.5</ele>
        <time>2017-09-17T07:22:25Z</time>
      </trkpt>
      <trkpt lat="49.27392" lon="1.09629">
        <ele>237.2</ele>
        <time>2017-09-17T07:22:30Z</time>
      </trkpt>
      <trkpt lat="49.27385" lon="1.09641">
        <ele>238.3</ele>
        <time>2017-09-17T07:22:35Z</time>
      </trkpt>
      <trkpt lat="49.27378" lon="1.09653">
        <ele>239.1</ele>
        <time>2017-09-17T07:22:39Z</time>
      </trkpt>
      <trkpt lat="49.27371" lon="1.09665">
        <ele>239.8</ele>
        <time>2017-09-17T07:22:43Z</time>
      </trkpt>
      <trkpt lat="49.27363" lon="1.09677">
        <ele>240.8</ele>
        <time>2017-09-17T07:22:47Z</time>
      </trkpt>
      <trkpt lat="49.27356" lon="1.09693">
        <ele>242</ele>
        <time>2017-09-17T07:22:52Z</time>
      </trkpt>
      <trkpt lat="49.27352" lon="1.09706">
        <ele>242.9</ele>
        <time>2017-09-17T07:22:56Z</time>
      </trkpt>
      <trkpt lat="49.27344" lon="1.0972">
        <ele>243.4</ele>
        <time>2017-09-17T07:22:59Z</time>
      </trkpt>
      <trkpt lat="49.27336" lon="1.09733">
        <ele>244</ele>
        <time>2017-09-17T07:23:02Z</time>
      </trkpt>
      <trkpt lat="49.27329" lon="1.09746">
        <ele>244.3</ele>
        <time>2017-09-17T07:23:05Z</time>
      </trkpt>
      <trkpt lat="49.27321" lon="1.09757">
        <ele>244.9</ele>
        <time>2017-09-17T07:23:08Z</time>
      </trkpt>
      <trkpt lat="49.27313" lon="1.09772">
        <ele>245.3</ele>
        <time>2017-09-17T07:23:11Z</time>
      </trkpt>
      <trkpt lat="49.27304" lon="1.09785">
        <ele>245.7</ele>
        <time>2017-09-17T07:23:14Z</time>
      </trkpt>
      <trkpt lat="49.27296" lon="1.09798">
        <ele>246</ele>
        <time>2017-09-17T07:23:17Z</time>
      </trkpt>
      <trkpt lat="49.27288" lon="1.09813">
        <ele>246.6</ele>
        <time>2017-09-17T07:23:20Z</time>
      </trkpt>
      <trkpt lat="49.27282" lon="1.09827">
        <ele>246.9</ele>
        <time>2017-09-17T07:23:23Z</time>
      </trkpt>
      <trkpt lat="49.27276" lon="1.09838">
        <ele>247.3</ele>
        <time>2017-09-17T07:23:26Z</time>
      </trkpt>
      <trkpt lat="49.2727" lon="1.09852">
        <ele>247.5</ele>
        <time>2017-09-17T07:23:29Z</time>
      </trkpt>
      <trkpt lat="49.27277" lon="1.09863">
        <ele>247.8</ele>
        <time>2017-09-17T07:23:34Z</time>
      </trkpt>
      <trkpt lat="49.27285" lon="1.09872">
        <ele>248.1</ele>
        <time>2017-09-17T07:23:38Z</time>
      </trkpt>
      <trkpt lat="49.27296" lon="1.0988">
        <ele>248</ele>
        <time>2017-09-17T07:23:42Z</time>
      </trkpt>
      <trkpt lat="49.27305" lon="1.09889">
        <ele>247.9</ele>
        <time>2017-09-17T07:23:45Z</time>
      </trkpt>
      <trkpt lat="49.27318" lon="1.09897">
        <ele>247.8</ele>
        <time>2017-09-17T07:23:48Z</time>
      </trkpt>
      <trkpt lat="49.27331" lon="1.09903">
        <ele>247.7</ele>
        <time>2017-09-17T07:23:51Z</time>
      </trkpt>
      <trkpt lat="49.27343" lon="1.09906">
        <ele>247.6</ele>
        <time>2017-09-17T07:23:54Z</time>
      </trkpt>
      <trkpt lat="49.27353" lon="1.09908">
        <ele>247.8</ele>
        <time>2017-09-17T07:23:56Z</time>
      </trkpt>
      <trkpt lat="49.27363" lon="1.09908">
        <ele>247.7</ele>
        <time>2017-09-17T07:23:58Z</time>
      </trkpt>
      <trkpt lat="49.27373" lon="1.09908">
        <ele>247.6</ele>
        <time>2017-09-17T07:24:00Z</time>
      </trkpt>
      <trkpt lat="49.27385" lon="1.09908">
        <ele>247.6</ele>
        <time>2017-09-17T07:24:02Z</time>
      </trkpt>
      <trkpt lat="49.27395" lon="1.09907">
        <ele>247.6</ele>
        <time>2017-09-17T07:24:04Z</time>
      </trkpt>
      <trkpt lat="49.27406" lon="1.09903">
        <ele>247.2</ele>
        <time>2017-09-17T07:24:06Z</time>
      </trkpt>
      <trkpt lat="49.27417" lon="1.09902">
        <ele>247.1</ele>
        <time>2017-09-17T07:24:08Z</time>
      </trkpt>
      <trkpt lat="49.27427" lon="1.09899">
        <ele>246.7</ele>
        <time>2017-09-17T07:24:10Z</time>
      </trkpt>
      <trkpt lat="49.27436" lon="1.09894">
        <ele>246.3</ele>
        <time>2017-09-17T07:24:12Z</time>
      </trkpt>
      <trkpt lat="49.27449" lon="1.0989">
        <ele>246.3</ele>
        <time>2017-09-17T07:24:15Z</time>
      </trkpt>
      <trkpt lat="49.27459" lon="1.09901">
        <ele>246.6</ele>
        <time>2017-09-17T07:24:18Z</time>
      </trkpt>
      <trkpt lat="49.27468" lon="1.09911">
        <ele>246.6</ele>
        <time>2017-09-17T07:24:20Z</time>
      </trkpt>
      <trkpt lat="49.27476" lon="1.09921">
        <ele>246.7</ele>
        <time>2017-09-17T07:24:22Z</time>
      </trkpt>
      <trkpt lat="49.27485" lon="1.09935">
        <ele>246.5</ele>
        <time>2017-09-17T07:24:25Z</time>
      </trkpt>
      <trkpt lat="49.27494" lon="1.09945">
        <ele>246.5</ele>
        <time>2017-09-17T07:24:27Z</time>
      </trkpt>
      <trkpt lat="49.27501" lon="1.09954">
        <ele>246.5</ele>
        <time>2017-09-17T07:24:29Z</time>
      </trkpt>
      <trkpt lat="49.27512" lon="1.09966">
        <ele>246.8</ele>
        <time>2017-09-17T07:24:32Z</time>
      </trkpt>
      <trkpt lat="49.27522" lon="1.09979">
        <ele>246.9</ele>
        <time>2017-09-17T07:24:35Z</time>
      </trkpt>
      <trkpt lat="49.27532" lon="1.0999">
        <ele>247.1</ele>
        <time>2017-09-17T07:24:38Z</time>
      </trkpt>
      <trkpt lat="49.27541" lon="1.10001">
        <ele>247.4</ele>
        <time>2017-09-17T07:24:41Z</time>
      </trkpt>
      <trkpt lat="49.27549" lon="1.10014">
        <ele>247.7</ele>
        <time>2017-09-17T07:24:44Z</time>
      </trkpt>
      <trkpt lat="49.27558" lon="1.10028">
        <ele>248</ele>
        <time>2017-09-17T07:24:47Z</time>
      </trkpt>
      <trkpt lat="49.27566" lon="1.10036">
        <ele>248</ele>
        <time>2017-09-17T07:24:49Z</time>
      </trkpt>
      <trkpt lat="49.27574" lon="1.10044">
        <ele>248.3</ele>
        <time>2017-09-17T07:24:51Z</time>
      </trkpt>
      <trkpt lat="49.27581" lon="1.10052">
        <ele>248.4</ele>
        <time>2017-09-17T07:24:53Z</time>
      </trkpt>
      <trkpt lat="49.27589" lon="1.10061">
        <ele>248.5</ele>
        <time>2017-09-17T07:24:55Z</time>
      </trkpt>
      <trkpt lat="49.27596" lon="1.10072">
        <ele>248.5</ele>
        <time>2017-09-17T07:24:57Z</time>
      </trkpt>
      <trkpt lat="49.27604" lon="1.10082">
        <ele>248.6</ele>
        <time>2017-09-17T07:24:59Z</time>
      </trkpt>
      <trkpt lat="49.27612" lon="1.1009">
        <ele>248.7</ele>
        <time>2017-09-17T07:25:01Z</time>
      </trkpt>
      <trkpt lat="49.2762" lon="1.10099">
        <ele>248.6</ele>
        <time>2017-09-17T07:25:03Z</time>
      </trkpt>
      <trkpt lat="49.2763" lon="1.10113">
        <ele>248.6</ele>
        <time>2017-09-17T07:25:06Z</time>
      </trkpt>
      <trkpt lat="49.2764" lon="1.10126">
        <ele>248.7</ele>
        <time>2017-09-17T07:25:09Z</time>
      </trkpt>
      <trkpt lat="49.27647" lon="1.10136">
        <ele>248.9</ele>
        <time>2017-09-17T07:25:11Z</time>
      </trkpt>
      <trkpt lat="49.27655" lon="1.10145">
        <ele>249</ele>
        <time>2017-09-17T07:25:13Z</time>
      </trkpt>
      <trkpt lat="49.27663" lon="1.10155">
        <ele>248.8</ele>
        <time>2017-09-17T07:25:15Z</time>
      </trkpt>
      <trkpt lat="49.2767" lon="1.10164">
        <ele>248.7</ele>
        <time>2017-09-17T07:25:17Z</time>
      </trkpt>
      <trkpt lat="49.27677" lon="1.10173">
        <ele>248.7</ele>
        <time>2017-09-17T07:25:19Z</time>
      </trkpt>
      <trkpt lat="49.27684" lon="1.10183">
        <ele>248.4</ele>
        <time>2017-09-17T07:25:21Z</time>
      </trkpt>
      <trkpt lat="49.27692" lon="1.10192">
        <ele>248.5</ele>
        <time>2017-09-17T07:25:23Z</time>
      </trkpt>
      <trkpt lat="49.277" lon="1.10202">
        <ele>248.6</ele>
        <time>2017-09-17T07:25:25Z</time>
      </trkpt>
      <trkpt lat="49.27708" lon="1.10212">
        <ele>248.3</ele>
        <time>2017-09-17T07:25:27Z</time>
      </trkpt>
      <trkpt lat="49.27716" lon="1.10223">
        <ele>248.3</ele>
        <time>2017-09-17T07:25:29Z</time>
      </trkpt>
      <trkpt lat="49.27725" lon="1.10232">
        <ele>248.2</ele>
        <time>2017-09-17T07:25:31Z</time>
      </trkpt>
      <trkpt lat="49.27732" lon="1.10242">
        <ele>248.1</ele>
        <time>2017-09-17T07:25:33Z</time>
      </trkpt>
      <trkpt lat="49.2774" lon="1.10251">
        <ele>247.9</ele>
        <time>2017-09-17T07:25:35Z</time>
      </trkpt>
      <trkpt lat="49.27749" lon="1.10261">
        <ele>247.7</ele>
        <time>2017-09-17T07:25:37Z</time>
      </trkpt>
      <trkpt lat="49.27756" lon="1.1027">
        <ele>247.4</ele>
        <time>2017-09-17T07:25:39Z</time>
      </trkpt>
      <trkpt lat="49.27763" lon="1.10281">
        <ele>247</ele>
        <time>2017-09-17T07:25:41Z</time>
      </trkpt>
      <trkpt lat="49.2777" lon="1.10291">
        <ele>246.6</ele>
        <time>2017-09-17T07:25:43Z</time>
      </trkpt>
      <trkpt lat="49.27777" lon="1.10301">
        <ele>246.4</ele>
        <time>2017-09-17T07:25:45Z</time>
      </trkpt>
      <trkpt lat="49.27784" lon="1.1031">
        <ele>246.3</ele>
        <time>2017-09-17T07:25:47Z</time>
      </trkpt>
      <trkpt lat="49.27791" lon="1.10319">
        <ele>245.9</ele>
        <time>2017-09-17T07:25:49Z</time>
      </trkpt>
      <trkpt lat="49.27799" lon="1.10329">
        <ele>245.4</ele>
        <time>2017-09-17T07:25:51Z</time>
      </trkpt>
      <trkpt lat="49.27809" lon="1.10341">
        <ele>245.1</ele>
        <time>2017-09-17T07:25:54Z</time>
      </trkpt>
      <trkpt lat="49.27818" lon="1.10348">
        <ele>244.8</ele>
        <time>2017-09-17T07:25:57Z</time>
      </trkpt>
      <trkpt lat="49.27821" lon="1.10335">
        <ele>244.4</ele>
        <time>2017-09-17T07:26:00Z</time>
      </trkpt>
      <trkpt lat="49.27822" lon="1.10321">
        <ele>243.8</ele>
        <time>2017-09-17T07:26:02Z</time>
      </trkpt>
      <trkpt lat="49.27823" lon="1.10304">
        <ele>243.5</ele>
        <time>2017-09-17T07:26:04Z</time>
      </trkpt>
      <trkpt lat="49.27824" lon="1.10286">
        <ele>243.1</ele>
        <time>2017-09-17T07:26:06Z</time>
      </trkpt>
      <trkpt lat="49.27827" lon="1.10268">
        <ele>242.5</ele>
        <time>2017-09-17T07:26:08Z</time>
      </trkpt>
      <trkpt lat="49.2783" lon="1.10248">
        <ele>241.3</ele>
        <time>2017-09-17T07:26:10Z</time>
      </trkpt>
      <trkpt lat="49.27833" lon="1.10223">
        <ele>240.4</ele>
        <time>2017-09-17T07:26:12Z</time>
      </trkpt>
      <trkpt lat="49.27835" lon="1.10196">
        <ele>239</ele>
        <time>2017-09-17T07:26:14Z</time>
      </trkpt>
      <trkpt lat="49.27837" lon="1.10181">
        <ele>238.3</ele>
        <time>2017-09-17T07:26:15Z</time>
      </trkpt>
      <trkpt lat="49.27838" lon="1.10165">
        <ele>237.2</ele>
        <time>2017-09-17T07:26:16Z</time>
      </trkpt>
      <trkpt lat="49.2784" lon="1.10149">
        <ele>236.5</ele>
        <time>2017-09-17T07:26:17Z</time>
      </trkpt>
      <trkpt lat="49.27842" lon="1.10132">
        <ele>235.5</ele>
        <time>2017-09-17T07:26:18Z</time>
      </trkpt>
      <trkpt lat="49.27844" lon="1.10115">
        <ele>234.2</ele>
        <time>2017-09-17T07:26:19Z</time>
      </trkpt>
      <trkpt lat="49.27845" lon="1.10098">
        <ele>233.1</ele>
        <time>2017-09-17T07:26:20Z</time>
      </trkpt>
      <trkpt lat="49.27847" lon="1.1008">
        <ele>231.8</ele>
        <time>2017-09-17T07:26:21Z</time>
      </trkpt>
      <trkpt lat="49.27849" lon="1.10062">
        <ele>230.7</ele>
        <time>2017-09-17T07:26:22Z</time>
      </trkpt>
      <trkpt lat="49.2785" lon="1.10044">
        <ele>229.8</ele>
        <time>2017-09-17T07:26:23Z</time>
      </trkpt>
      <trkpt lat="49.27852" lon="1.10026">
        <ele>228.7</ele>
        <time>2017-09-17T07:26:24Z</time>
      </trkpt>
      <trkpt lat="49.27854" lon="1.10008">
        <ele>227.1</ele>
        <time>2017-09-17T07:26:25Z</time>
      </trkpt>
      <trkpt lat="49.27856" lon="1.09989">
        <ele>225.4</ele>
        <time>2017-09-17T07:26:26Z</time>
      </trkpt>
      <trkpt lat="49.27858" lon="1.09971">
        <ele>224.2</ele>
        <time>2017-09-17T07:26:27Z</time>
      </trkpt>
      <trkpt lat="49.2786" lon="1.09953">
        <ele>223.1</ele>
        <time>2017-09-17T07:26:28Z</time>
      </trkpt>
      <trkpt lat="49.27862" lon="1.09935">
        <ele>222.2</ele>
        <time>2017-09-17T07:26:29Z</time>
      </trkpt>
      <trkpt lat="49.27864" lon="1.09918">
        <ele>220.9</ele>
        <time>2017-09-17T07:26:30Z</time>
      </trkpt>
      <trkpt lat="49.27866" lon="1.09901">
        <ele>219.9</ele>
        <time>2017-09-17T07:26:31Z</time>
      </trkpt>
      <trkpt lat="49.27868" lon="1.09885">
        <ele>218.9</ele>
        <time>2017-09-17T07:26:32Z</time>
      </trkpt>
      <trkpt lat="49.27869" lon="1.09867">
        <ele>218</ele>
        <time>2017-09-17T07:26:33Z</time>
      </trkpt>
      <trkpt lat="49.27871" lon="1.09853">
        <ele>217</ele>
        <time>2017-09-17T07:26:34Z</time>
      </trkpt>
      <trkpt lat="49.27873" lon="1.09838">
        <ele>215.9</ele>
        <time>2017-09-17T07:26:35Z</time>
      </trkpt>
      <trkpt lat="49.27876" lon="1.09816">
        <ele>214</ele>
        <time>2017-09-17T07:26:37Z</time>
      </trkpt>
      <trkpt lat="49.27886" lon="1.09807">
        <ele>211.1</ele>
        <time>2017-09-17T07:26:40Z</time>
      </trkpt>
      <trkpt lat="49.27896" lon="1.09819">
        <ele>209</ele>
        <time>2017-09-17T07:26:43Z</time>
      </trkpt>
      <trkpt lat="49.27905" lon="1.0983">
        <ele>208.2</ele>
        <time>2017-09-17T07:26:45Z</time>
      </trkpt>
      <trkpt lat="49.27913" lon="1.09841">
        <ele>207.7</ele>
        <time>2017-09-17T07:26:47Z</time>
      </trkpt>
      <trkpt lat="49.27921" lon="1.09851">
        <ele>207.2</ele>
        <time>2017-09-17T07:26:49Z</time>
      </trkpt>
      <trkpt lat="49.27929" lon="1.09862">
        <ele>206.7</ele>
        <time>2017-09-17T07:26:51Z</time>
      </trkpt>
      <trkpt lat="49.27938" lon="1.09873">
        <ele>205.9</ele>
        <time>2017-09-17T07:26:54Z</time>
      </trkpt>
      <trkpt lat="49.27947" lon="1.09885">
        <ele>204.6</ele>
        <time>2017-09-17T07:27:08Z</time>
      </trkpt>
      <trkpt lat="49.27954" lon="1.09894">
        <ele>204.5</ele>
        <time>2017-09-17T07:27:10Z</time>
      </trkpt>
      <trkpt lat="49.27964" lon="1.09906">
        <ele>204.5</ele>
        <time>2017-09-17T07:27:12Z</time>
      </trkpt>
      <trkpt lat="49.27975" lon="1.09919">
        <ele>204.1</ele>
        <time>2017-09-17T07:27:14Z</time>
      </trkpt>
      <trkpt lat="49.27986" lon="1.09933">
        <ele>203.7</ele>
        <time>2017-09-17T07:27:16Z</time>
      </trkpt>
      <trkpt lat="49.27998" lon="1.09948">
        <ele>203.3</ele>
        <time>2017-09-17T07:27:18Z</time>
      </trkpt>
      <trkpt lat="49.28009" lon="1.09962">
        <ele>203</ele>
        <time>2017-09-17T07:27:20Z</time>
      </trkpt>
      <trkpt lat="49.28021" lon="1.09977">
        <ele>202.6</ele>
        <time>2017-09-17T07:27:22Z</time>
      </trkpt>
      <trkpt lat="49.28033" lon="1.09992">
        <ele>202.3</ele>
        <time>2017-09-17T07:27:24Z</time>
      </trkpt>
      <trkpt lat="49.28043" lon="1.10006">
        <ele>202.1</ele>
        <time>2017-09-17T07:27:26Z</time>
      </trkpt>
      <trkpt lat="49.28055" lon="1.10021">
        <ele>201.9</ele>
        <time>2017-09-17T07:27:28Z</time>
      </trkpt>
      <trkpt lat="49.28067" lon="1.10035">
        <ele>201.7</ele>
        <time>2017-09-17T07:27:30Z</time>
      </trkpt>
      <trkpt lat="49.28079" lon="1.1005">
        <ele>201.1</ele>
        <time>2017-09-17T07:27:32Z</time>
      </trkpt>
      <trkpt lat="49.28091" lon="1.10066">
        <ele>200.5</ele>
        <time>2017-09-17T07:27:34Z</time>
      </trkpt>
      <trkpt lat="49.28103" lon="1.10081">
        <ele>199.8</ele>
        <time>2017-09-17T07:27:36Z</time>
      </trkpt>
      <trkpt lat="49.28116" lon="1.10096">
        <ele>199.3</ele>
        <time>2017-09-17T07:27:38Z</time>
      </trkpt>
      <trkpt lat="49.28128" lon="1.10113">
        <ele>198.7</ele>
        <time>2017-09-17T07:27:40Z</time>
      </trkpt>
      <trkpt lat="49.28141" lon="1.10129">
        <ele>197.9</ele>
        <time>2017-09-17T07:27:42Z</time>
      </trkpt>
      <trkpt lat="49.28153" lon="1.10145">
        <ele>197.1</ele>
        <time>2017-09-17T07:27:44Z</time>
      </trkpt>
      <trkpt lat="49.28163" lon="1.10158">
        <ele>196.5</ele>
        <time>2017-09-17T07:27:46Z</time>
      </trkpt>
      <trkpt lat="49.28176" lon="1.10175">
        <ele>195.7</ele>
        <time>2017-09-17T07:27:48Z</time>
      </trkpt>
      <trkpt lat="49.28188" lon="1.10189">
        <ele>195.1</ele>
        <time>2017-09-17T07:27:50Z</time>
      </trkpt>
      <trkpt lat="49.282" lon="1.10204">
        <ele>194.4</ele>
        <time>2017-09-17T07:27:52Z</time>
      </trkpt>
      <trkpt lat="49.28211" lon="1.10218">
        <ele>193.9</ele>
        <time>2017-09-17T07:27:54Z</time>
      </trkpt>
      <trkpt lat="49.28224" lon="1.10233">
        <ele>193.3</ele>
        <time>2017-09-17T07:27:56Z</time>
      </trkpt>
      <trkpt lat="49.28235" lon="1.10247">
        <ele>193.2</ele>
        <time>2017-09-17T07:27:58Z</time>
      </trkpt>
      <trkpt lat="49.28243" lon="1.1026">
        <ele>192.9</ele>
        <time>2017-09-17T07:28:00Z</time>
      </trkpt>
      <trkpt lat="49.28243" lon="1.10276">
        <ele>192.8</ele>
        <time>2017-09-17T07:28:02Z</time>
      </trkpt>
      <trkpt lat="49.28241" lon="1.10295">
        <ele>192.9</ele>
        <time>2017-09-17T07:28:05Z</time>
      </trkpt>
      <trkpt lat="49.28241" lon="1.1031">
        <ele>193</ele>
        <time>2017-09-17T07:28:07Z</time>
      </trkpt>
      <trkpt lat="49.2824" lon="1.10324">
        <ele>193.5</ele>
        <time>2017-09-17T07:28:09Z</time>
      </trkpt>
      <trkpt lat="49.28239" lon="1.10341">
        <ele>194</ele>
        <time>2017-09-17T07:28:11Z</time>
      </trkpt>
      <trkpt lat="49.28238" lon="1.10358">
        <ele>194.3</ele>
        <time>2017-09-17T07:28:13Z</time>
      </trkpt>
      <trkpt lat="49.28236" lon="1.10374">
        <ele>194.8</ele>
        <time>2017-09-17T07:28:15Z</time>
      </trkpt>
      <trkpt lat="49.28234" lon="1.10392">
        <ele>195.4</ele>
        <time>2017-09-17T07:28:18Z</time>
      </trkpt>
      <trkpt lat="49.2823" lon="1.10411">
        <ele>196.3</ele>
        <time>2017-09-17T07:28:21Z</time>
      </trkpt>
      <trkpt lat="49.28228" lon="1.10426">
        <ele>196.8</ele>
        <time>2017-09-17T07:28:23Z</time>
      </trkpt>
      <trkpt lat="49.28228" lon="1.10447">
        <ele>197.4</ele>
        <time>2017-09-17T07:28:26Z</time>
      </trkpt>
      <trkpt lat="49.28227" lon="1.10461">
        <ele>197.6</ele>
        <time>2017-09-17T07:28:28Z</time>
      </trkpt>
      <trkpt lat="49.28226" lon="1.10479">
        <ele>198</ele>
        <time>2017-09-17T07:28:31Z</time>
      </trkpt>
      <trkpt lat="49.28226" lon="1.10499">
        <ele>198.4</ele>
        <time>2017-09-17T07:28:34Z</time>
      </trkpt>
      <trkpt lat="49.28224" lon="1.10514">
        <ele>198.9</ele>
        <time>2017-09-17T07:28:36Z</time>
      </trkpt>
      <trkpt lat="49.28221" lon="1.10529">
        <ele>199.3</ele>
        <time>2017-09-17T07:28:39Z</time>
      </trkpt>
      <trkpt lat="49.28219" lon="1.10545">
        <ele>199.6</ele>
        <time>2017-09-17T07:28:41Z</time>
      </trkpt>
      <trkpt lat="49.28217" lon="1.10563">
        <ele>199.8</ele>
        <time>2017-09-17T07:28:44Z</time>
      </trkpt>
      <trkpt lat="49.28213" lon="1.10581">
        <ele>200.2</ele>
        <time>2017-09-17T07:28:47Z</time>
      </trkpt>
      <trkpt lat="49.28212" lon="1.10595">
        <ele>200.5</ele>
        <time>2017-09-17T07:28:49Z</time>
      </trkpt>
      <trkpt lat="49.28209" lon="1.10613">
        <ele>201.1</ele>
        <time>2017-09-17T07:28:52Z</time>
      </trkpt>
      <trkpt lat="49.28209" lon="1.10627">
        <ele>201.5</ele>
        <time>2017-09-17T07:28:54Z</time>
      </trkpt>
      <trkpt lat="49.28207" lon="1.10641">
        <ele>201.8</ele>
        <time>2017-09-17T07:28:56Z</time>
      </trkpt>
      <trkpt lat="49.28204" lon="1.10661">
        <ele>202.2</ele>
        <time>2017-09-17T07:28:59Z</time>
      </trkpt>
      <trkpt lat="49.28202" lon="1.10678">
        <ele>202.5</ele>
        <time>2017-09-17T07:29:02Z</time>
      </trkpt>
      <trkpt lat="49.28202" lon="1.10696">
        <ele>202.8</ele>
        <time>2017-09-17T07:29:05Z</time>
      </trkpt>
      <trkpt lat="49.28198" lon="1.1071">
        <ele>203.1</ele>
        <time>2017-09-17T07:29:08Z</time>
      </trkpt>
      <trkpt lat="49.28197" lon="1.10729">
        <ele>203.6</ele>
        <time>2017-09-17T07:29:11Z</time>
      </trkpt>
      <trkpt lat="49.28194" lon="1.10747">
        <ele>204</ele>
        <time>2017-09-17T07:29:14Z</time>
      </trkpt>
      <trkpt lat="49.28188" lon="1.10767">
        <ele>204.4</ele>
        <time>2017-09-17T07:29:17Z</time>
      </trkpt>
      <trkpt lat="49.28192" lon="1.10791">
        <ele>204.8</ele>
        <time>2017-09-17T07:29:19Z</time>
      </trkpt>
      <trkpt lat="49.28199" lon="1.10801">
        <ele>205.1</ele>
        <time>2017-09-17T07:29:22Z</time>
      </trkpt>
      <trkpt lat="49.28212" lon="1.10804">
        <ele>204.9</ele>
        <time>2017-09-17T07:29:25Z</time>
      </trkpt>
      <trkpt lat="49.28222" lon="1.10808">
        <ele>204.7</ele>
        <time>2017-09-17T07:29:27Z</time>
      </trkpt>
      <trkpt lat="49.28234" lon="1.10812">
        <ele>204.1</ele>
        <time>2017-09-17T07:29:29Z</time>
      </trkpt>
      <trkpt lat="49.28243" lon="1.10817">
        <ele>203.2</ele>
        <time>2017-09-17T07:29:31Z</time>
      </trkpt>
      <trkpt lat="49.28254" lon="1.1082">
        <ele>202.7</ele>
        <time>2017-09-17T07:29:32Z</time>
      </trkpt>
      <trkpt lat="49.28263" lon="1.10822">
        <ele>202.1</ele>
        <time>2017-09-17T07:29:33Z</time>
      </trkpt>
      <trkpt lat="49.28278" lon="1.10824">
        <ele>201.2</ele>
        <time>2017-09-17T07:29:35Z</time>
      </trkpt>
      <trkpt lat="49.28292" lon="1.10828">
        <ele>199.9</ele>
        <time>2017-09-17T07:29:37Z</time>
      </trkpt>
      <trkpt lat="49.28302" lon="1.10832">
        <ele>198.9</ele>
        <time>2017-09-17T07:29:39Z</time>
      </trkpt>
      <trkpt lat="49.28316" lon="1.10835">
        <ele>198.4</ele>
        <time>2017-09-17T07:29:40Z</time>
      </trkpt>
      <trkpt lat="49.28332" lon="1.1084">
        <ele>197.8</ele>
        <time>2017-09-17T07:29:41Z</time>
      </trkpt>
      <trkpt lat="49.28347" lon="1.10842">
        <ele>197.3</ele>
        <time>2017-09-17T07:29:43Z</time>
      </trkpt>
      <trkpt lat="49.28361" lon="1.10844">
        <ele>196.3</ele>
        <time>2017-09-17T07:29:45Z</time>
      </trkpt>
      <trkpt lat="49.28378" lon="1.10847">
        <ele>194.4</ele>
        <time>2017-09-17T07:29:48Z</time>
      </trkpt>
      <trkpt lat="49.28391" lon="1.1085">
        <ele>193.4</ele>
        <time>2017-09-17T07:29:50Z</time>
      </trkpt>
      <trkpt lat="49.28405" lon="1.10851">
        <ele>192.2</ele>
        <time>2017-09-17T07:29:52Z</time>
      </trkpt>
      <trkpt lat="49.28426" lon="1.10856">
        <ele>191.5</ele>
        <time>2017-09-17T07:29:54Z</time>
      </trkpt>
      <trkpt lat="49.28436" lon="1.10859">
        <ele>190.5</ele>
        <time>2017-09-17T07:29:56Z</time>
      </trkpt>
      <trkpt lat="49.28446" lon="1.10861">
        <ele>190</ele>
        <time>2017-09-17T07:29:57Z</time>
      </trkpt>
      <trkpt lat="49.28456" lon="1.10863">
        <ele>189.6</ele>
        <time>2017-09-17T07:29:58Z</time>
      </trkpt>
      <trkpt lat="49.28469" lon="1.10866">
        <ele>188.9</ele>
        <time>2017-09-17T07:30:00Z</time>
      </trkpt>
      <trkpt lat="49.28483" lon="1.10868">
        <ele>187.9</ele>
        <time>2017-09-17T07:30:02Z</time>
      </trkpt>
      <trkpt lat="49.28499" lon="1.10872">
        <ele>187.1</ele>
        <time>2017-09-17T07:30:04Z</time>
      </trkpt>
      <trkpt lat="49.28511" lon="1.10875">
        <ele>186.6</ele>
        <time>2017-09-17T07:30:05Z</time>
      </trkpt>
      <trkpt lat="49.28524" lon="1.10885">
        <ele>185.9</ele>
        <time>2017-09-17T07:30:07Z</time>
      </trkpt>
      <trkpt lat="49.28527" lon="1.10904">
        <ele>185.3</ele>
        <time>2017-09-17T07:30:10Z</time>
      </trkpt>
      <trkpt lat="49.28528" lon="1.10918">
        <ele>185.1</ele>
        <time>2017-09-17T07:30:12Z</time>
      </trkpt>
      <trkpt lat="49.28528" lon="1.10934">
        <ele>184.9</ele>
        <time>2017-09-17T07:30:14Z</time>
      </trkpt>
      <trkpt lat="49.28527" lon="1.10954">
        <ele>184.9</ele>
        <time>2017-09-17T07:30:16Z</time>
      </trkpt>
      <trkpt lat="49.28524" lon="1.10971">
        <ele>185.3</ele>
        <time>2017-09-17T07:30:18Z</time>
      </trkpt>
      <trkpt lat="49.28523" lon="1.10991">
        <ele>185.5</ele>
        <time>2017-09-17T07:30:20Z</time>
      </trkpt>
      <trkpt lat="49.28524" lon="1.1101">
        <ele>185.6</ele>
        <time>2017-09-17T07:30:22Z</time>
      </trkpt>
      <trkpt lat="49.28522" lon="1.11029">
        <ele>185.6</ele>
        <time>2017-09-17T07:30:24Z</time>
      </trkpt>
      <trkpt lat="49.28519" lon="1.11047">
        <ele>185.6</ele>
        <time>2017-09-17T07:30:26Z</time>
      </trkpt>
      <trkpt lat="49.28508" lon="1.11051">
        <ele>185.2</ele>
        <time>2017-09-17T07:30:29Z</time>
      </trkpt>
      <trkpt lat="49.28497" lon="1.11048">
        <ele>185.6</ele>
        <time>2017-09-17T07:30:32Z</time>
      </trkpt>
      <trkpt lat="49.28485" lon="1.11047">
        <ele>186</ele>
        <time>2017-09-17T07:30:35Z</time>
      </trkpt>
      <trkpt lat="49.28474" lon="1.11046">
        <ele>186.6</ele>
        <time>2017-09-17T07:30:38Z</time>
      </trkpt>
      <trkpt lat="49.28465" lon="1.11047">
        <ele>187</ele>
        <time>2017-09-17T07:30:40Z</time>
      </trkpt>
      <trkpt lat="49.28451" lon="1.11046">
        <ele>187.7</ele>
        <time>2017-09-17T07:30:43Z</time>
      </trkpt>
      <trkpt lat="49.2844" lon="1.11044">
        <ele>188.4</ele>
        <time>2017-09-17T07:30:46Z</time>
      </trkpt>
      <trkpt lat="49.28428" lon="1.11042">
        <ele>188.8</ele>
        <time>2017-09-17T07:30:49Z</time>
      </trkpt>
      <trkpt lat="49.28417" lon="1.11039">
        <ele>189.4</ele>
        <time>2017-09-17T07:30:52Z</time>
      </trkpt>
      <trkpt lat="49.28407" lon="1.11042">
        <ele>190</ele>
        <time>2017-09-17T07:30:55Z</time>
      </trkpt>
      <trkpt lat="49.28403" lon="1.11056">
        <ele>190.6</ele>
        <time>2017-09-17T07:30:58Z</time>
      </trkpt>
      <trkpt lat="49.28397" lon="1.11073">
        <ele>191.3</ele>
        <time>2017-09-17T07:31:01Z</time>
      </trkpt>
      <trkpt lat="49.28395" lon="1.11088">
        <ele>191.7</ele>
        <time>2017-09-17T07:31:04Z</time>
      </trkpt>
      <trkpt lat="49.28392" lon="1.11102">
        <ele>192</ele>
        <time>2017-09-17T07:31:06Z</time>
      </trkpt>
      <trkpt lat="49.28392" lon="1.11122">
        <ele>192.5</ele>
        <time>2017-09-17T07:31:09Z</time>
      </trkpt>
      <trkpt lat="49.28391" lon="1.11137">
        <ele>192.7</ele>
        <time>2017-09-17T07:31:12Z</time>
      </trkpt>
      <trkpt lat="49.28391" lon="1.11157">
        <ele>192.5</ele>
        <time>2017-09-17T07:31:16Z</time>
      </trkpt>
      <trkpt lat="49.28389" lon="1.11174">
        <ele>192.4</ele>
        <time>2017-09-17T07:31:18Z</time>
      </trkpt>
      <trkpt lat="49.28389" lon="1.11193">
        <ele>192.4</ele>
        <time>2017-09-17T07:31:21Z</time>
      </trkpt>
      <trkpt lat="49.28386" lon="1.11213">
        <ele>191.9</ele>
        <time>2017-09-17T07:31:24Z</time>
      </trkpt>
      <trkpt lat="49.28384" lon="1.11228">
        <ele>191.7</ele>
        <time>2017-09-17T07:31:26Z</time>
      </trkpt>
      <trkpt lat="49.28377" lon="1.11249">
        <ele>191.1</ele>
        <time>2017-09-17T07:31:28Z</time>
      </trkpt>
      <trkpt lat="49.28372" lon="1.11268">
        <ele>190.6</ele>
        <time>2017-09-17T07:31:30Z</time>
      </trkpt>
      <trkpt lat="49.28367" lon="1.11282">
        <ele>190.3</ele>
        <time>2017-09-17T07:31:32Z</time>
      </trkpt>
      <trkpt lat="49.28357" lon="1.11294">
        <ele>190.4</ele>
        <time>2017-09-17T07:31:35Z</time>
      </trkpt>
      <trkpt lat="49.2835" lon="1.11304">
        <ele>190.6</ele>
        <time>2017-09-17T07:31:37Z</time>
      </trkpt>
      <trkpt lat="49.28342" lon="1.11313">
        <ele>191.2</ele>
        <time>2017-09-17T07:31:40Z</time>
      </trkpt>
      <trkpt lat="49.28333" lon="1.11322">
        <ele>191.9</ele>
        <time>2017-09-17T07:31:43Z</time>
      </trkpt>
      <trkpt lat="49.28326" lon="1.11332">
        <ele>192.6</ele>
        <time>2017-09-17T07:31:46Z</time>
      </trkpt>
      <trkpt lat="49.28319" lon="1.11345">
        <ele>193.6</ele>
        <time>2017-09-17T07:31:50Z</time>
      </trkpt>
      <trkpt lat="49.28318" lon="1.11359">
        <ele>194.5</ele>
        <time>2017-09-17T07:31:53Z</time>
      </trkpt>
      <trkpt lat="49.28316" lon="1.11374">
        <ele>195.1</ele>
        <time>2017-09-17T07:31:56Z</time>
      </trkpt>
      <trkpt lat="49.28318" lon="1.11389">
        <ele>195.6</ele>
        <time>2017-09-17T07:31:59Z</time>
      </trkpt>
      <trkpt lat="49.28319" lon="1.11405">
        <ele>195.8</ele>
        <time>2017-09-17T07:32:02Z</time>
      </trkpt>
      <trkpt lat="49.28317" lon="1.11421">
        <ele>195.6</ele>
        <time>2017-09-17T07:32:05Z</time>
      </trkpt>
      <trkpt lat="49.28318" lon="1.11441">
        <ele>195.2</ele>
        <time>2017-09-17T07:32:08Z</time>
      </trkpt>
      <trkpt lat="49.28322" lon="1.11459">
        <ele>195</ele>
        <time>2017-09-17T07:32:11Z</time>
      </trkpt>
      <trkpt lat="49.2832" lon="1.11476">
        <ele>194.4</ele>
        <time>2017-09-17T07:32:14Z</time>
      </trkpt>
      <trkpt lat="49.28322" lon="1.11498">
        <ele>194.4</ele>
        <time>2017-09-17T07:32:17Z</time>
      </trkpt>
      <trkpt lat="49.28319" lon="1.11514">
        <ele>194.3</ele>
        <time>2017-09-17T07:32:19Z</time>
      </trkpt>
      <trkpt lat="49.28315" lon="1.11529">
        <ele>194.2</ele>
        <time>2017-09-17T07:32:20Z</time>
      </trkpt>
      <trkpt lat="49.28314" lon="1.11551">
        <ele>194.3</ele>
        <time>2017-09-17T07:32:22Z</time>
      </trkpt>
      <trkpt lat="49.2831" lon="1.11574">
        <ele>194.2</ele>
        <time>2017-09-17T07:32:24Z</time>
      </trkpt>
      <trkpt lat="49.28308" lon="1.11591">
        <ele>193.9</ele>
        <time>2017-09-17T07:32:26Z</time>
      </trkpt>
      <trkpt lat="49.2831" lon="1.11606">
        <ele>193.7</ele>
        <time>2017-09-17T07:32:28Z</time>
      </trkpt>
      <trkpt lat="49.28313" lon="1.11621">
        <ele>193.2</ele>
        <time>2017-09-17T07:32:30Z</time>
      </trkpt>
      <trkpt lat="49.28315" lon="1.11637">
        <ele>193</ele>
        <time>2017-09-17T07:32:32Z</time>
      </trkpt>
      <trkpt lat="49.28318" lon="1.11654">
        <ele>192.6</ele>
        <time>2017-09-17T07:32:34Z</time>
      </trkpt>
      <trkpt lat="49.28322" lon="1.11673">
        <ele>192</ele>
        <time>2017-09-17T07:32:36Z</time>
      </trkpt>
      <trkpt lat="49.28324" lon="1.11692">
        <ele>191.3</ele>
        <time>2017-09-17T07:32:38Z</time>
      </trkpt>
      <trkpt lat="49.28326" lon="1.11712">
        <ele>190.9</ele>
        <time>2017-09-17T07:32:40Z</time>
      </trkpt>
      <trkpt lat="49.28328" lon="1.11733">
        <ele>190.5</ele>
        <time>2017-09-17T07:32:42Z</time>
      </trkpt>
      <trkpt lat="49.2833" lon="1.11753">
        <ele>190</ele>
        <time>2017-09-17T07:32:44Z</time>
      </trkpt>
      <trkpt lat="49.28333" lon="1.11776">
        <ele>189.6</ele>
        <time>2017-09-17T07:32:46Z</time>
      </trkpt>
      <trkpt lat="49.28335" lon="1.11798">
        <ele>189</ele>
        <time>2017-09-17T07:32:48Z</time>
      </trkpt>
      <trkpt lat="49.28337" lon="1.11819">
        <ele>188.2</ele>
        <time>2017-09-17T07:32:50Z</time>
      </trkpt>
      <trkpt lat="49.2834" lon="1.11839">
        <ele>187.7</ele>
        <time>2017-09-17T07:32:52Z</time>
      </trkpt>
      <trkpt lat="49.28343" lon="1.11859">
        <ele>187</ele>
        <time>2017-09-17T07:32:54Z</time>
      </trkpt>
      <trkpt lat="49.28346" lon="1.11881">
        <ele>186.6</ele>
        <time>2017-09-17T07:32:56Z</time>
      </trkpt>
      <trkpt lat="49.28351" lon="1.11899">
        <ele>185.8</ele>
        <time>2017-09-17T07:32:58Z</time>
      </trkpt>
      <trkpt lat="49.28353" lon="1.11913">
        <ele>184.7</ele>
        <time>2017-09-17T07:33:01Z</time>
      </trkpt>
      <trkpt lat="49.28345" lon="1.11923">
        <ele>183.6</ele>
        <time>2017-09-17T07:33:05Z</time>
      </trkpt>
      <trkpt lat="49.28336" lon="1.11933">
        <ele>183.5</ele>
        <time>2017-09-17T07:33:07Z</time>
      </trkpt>
      <trkpt lat="49.28326" lon="1.11938">
        <ele>183.4</ele>
        <time>2017-09-17T07:33:10Z</time>
      </trkpt>
      <trkpt lat="49.28316" lon="1.11944">
        <ele>183.6</ele>
        <time>2017-09-17T07:33:13Z</time>
      </trkpt>
      <trkpt lat="49.28306" lon="1.11945">
        <ele>183.8</ele>
        <time>2017-09-17T07:33:16Z</time>
      </trkpt>
      <trkpt lat="49.28297" lon="1.11948">
        <ele>183.9</ele>
        <time>2017-09-17T07:33:18Z</time>
      </trkpt>
      <trkpt lat="49.28294" lon="1.11967">
        <ele>184</ele>
        <time>2017-09-17T07:33:21Z</time>
      </trkpt>
      <trkpt lat="49.28291" lon="1.11984">
        <ele>184</ele>
        <time>2017-09-17T07:33:24Z</time>
      </trkpt>
      <trkpt lat="49.28288" lon="1.12002">
        <ele>184</ele>
        <time>2017-09-17T07:33:27Z</time>
      </trkpt>
      <trkpt lat="49.28286" lon="1.12021">
        <ele>184.2</ele>
        <time>2017-09-17T07:33:30Z</time>
      </trkpt>
      <trkpt lat="49.28283" lon="1.12038">
        <ele>184.5</ele>
        <time>2017-09-17T07:33:33Z</time>
      </trkpt>
      <trkpt lat="49.28281" lon="1.12052">
        <ele>185.3</ele>
        <time>2017-09-17T07:33:36Z</time>
      </trkpt>
      <trkpt lat="49.28278" lon="1.1207">
        <ele>186.5</ele>
        <time>2017-09-17T07:33:40Z</time>
      </trkpt>
      <trkpt lat="49.28277" lon="1.12088">
        <ele>187.9</ele>
        <time>2017-09-17T07:33:44Z</time>
      </trkpt>
      <trkpt lat="49.28276" lon="1.12103">
        <ele>188.9</ele>
        <time>2017-09-17T07:33:47Z</time>
      </trkpt>
      <trkpt lat="49.28274" lon="1.12118">
        <ele>189.8</ele>
        <time>2017-09-17T07:33:50Z</time>
      </trkpt>
      <trkpt lat="49.28274" lon="1.12134">
        <ele>190.5</ele>
        <time>2017-09-17T07:33:53Z</time>
      </trkpt>
      <trkpt lat="49.28271" lon="1.1215">
        <ele>191.1</ele>
        <time>2017-09-17T07:33:56Z</time>
      </trkpt>
      <trkpt lat="49.28269" lon="1.12165">
        <ele>191.7</ele>
        <time>2017-09-17T07:33:59Z</time>
      </trkpt>
      <trkpt lat="49.28268" lon="1.1218">
        <ele>192.2</ele>
        <time>2017-09-17T07:34:02Z</time>
      </trkpt>
      <trkpt lat="49.28265" lon="1.12194">
        <ele>192.5</ele>
        <time>2017-09-17T07:34:05Z</time>
      </trkpt>
      <trkpt lat="49.28254" lon="1.12196">
        <ele>193.1</ele>
        <time>2017-09-17T07:34:09Z</time>
      </trkpt>
      <trkpt lat="49.28243" lon="1.12194">
        <ele>193.7</ele>
        <time>2017-09-17T07:34:13Z</time>
      </trkpt>
      <trkpt lat="49.28232" lon="1.12192">
        <ele>194.1</ele>
        <time>2017-09-17T07:34:17Z</time>
      </trkpt>
      <trkpt lat="49.2822" lon="1.12189">
        <ele>195</ele>
        <time>2017-09-17T07:34:21Z</time>
      </trkpt>
      <trkpt lat="49.2821" lon="1.12187">
        <ele>195.6</ele>
        <time>2017-09-17T07:34:25Z</time>
      </trkpt>
      <trkpt lat="49.28199" lon="1.12184">
        <ele>196.4</ele>
        <time>2017-09-17T07:34:29Z</time>
      </trkpt>
      <trkpt lat="49.28188" lon="1.12181">
        <ele>197.2</ele>
        <time>2017-09-17T07:34:33Z</time>
      </trkpt>
      <trkpt lat="49.28178" lon="1.12177">
        <ele>198.4</ele>
        <time>2017-09-17T07:34:37Z</time>
      </trkpt>
      <trkpt lat="49.28168" lon="1.12176">
        <ele>199.5</ele>
        <time>2017-09-17T07:34:41Z</time>
      </trkpt>
      <trkpt lat="49.28159" lon="1.12174">
        <ele>200.6</ele>
        <time>2017-09-17T07:34:45Z</time>
      </trkpt>
      <trkpt lat="49.28149" lon="1.12172">
        <ele>201.6</ele>
        <time>2017-09-17T07:34:49Z</time>
      </trkpt>
      <trkpt lat="49.2814" lon="1.12169">
        <ele>202.4</ele>
        <time>2017-09-17T07:34:53Z</time>
      </trkpt>
      <trkpt lat="49.28131" lon="1.12167">
        <ele>203.1</ele>
        <time>2017-09-17T07:34:57Z</time>
      </trkpt>
      <trkpt lat="49.28121" lon="1.12165">
        <ele>203.8</ele>
        <time>2017-09-17T07:35:01Z</time>
      </trkpt>
      <trkpt lat="49.28112" lon="1.12164">
        <ele>204.5</ele>
        <time>2017-09-17T07:35:05Z</time>
      </trkpt>
      <trkpt lat="49.28102" lon="1.12161">
        <ele>205.1</ele>
        <time>2017-09-17T07:35:09Z</time>
      </trkpt>
      <trkpt lat="49.28093" lon="1.12158">
        <ele>205.8</ele>
        <time>2017-09-17T07:35:13Z</time>
      </trkpt>
      <trkpt lat="49.28084" lon="1.12156">
        <ele>206.7</ele>
        <time>2017-09-17T07:35:17Z</time>
      </trkpt>
      <trkpt lat="49.28073" lon="1.12154">
        <ele>207.7</ele>
        <time>2017-09-17T07:35:22Z</time>
      </trkpt>
      <trkpt lat="49.28064" lon="1.12152">
        <ele>209</ele>
        <time>2017-09-17T07:35:27Z</time>
      </trkpt>
      <trkpt lat="49.28055" lon="1.12149">
        <ele>210.7</ele>
        <time>2017-09-17T07:35:32Z</time>
      </trkpt>
      <trkpt lat="49.28045" lon="1.12146">
        <ele>212.1</ele>
        <time>2017-09-17T07:35:37Z</time>
      </trkpt>
      <trkpt lat="49.28043" lon="1.12132">
        <ele>214.1</ele>
        <time>2017-09-17T07:35:43Z</time>
      </trkpt>
      <trkpt lat="49.28045" lon="1.12114">
        <ele>214.6</ele>
        <time>2017-09-17T07:35:47Z</time>
      </trkpt>
      <trkpt lat="49.28047" lon="1.121">
        <ele>214.9</ele>
        <time>2017-09-17T07:35:50Z</time>
      </trkpt>
      <trkpt lat="49.28049" lon="1.12084">
        <ele>215.1</ele>
        <time>2017-09-17T07:35:53Z</time>
      </trkpt>
      <trkpt lat="49.28051" lon="1.12067">
        <ele>215.4</ele>
        <time>2017-09-17T07:35:56Z</time>
      </trkpt>
      <trkpt lat="49.28054" lon="1.12049">
        <ele>215.5</ele>
        <time>2017-09-17T07:35:59Z</time>
      </trkpt>
      <trkpt lat="49.28057" lon="1.12032">
        <ele>215.5</ele>
        <time>2017-09-17T07:36:02Z</time>
      </trkpt>
      <trkpt lat="49.2806" lon="1.12014">
        <ele>215.8</ele>
        <time>2017-09-17T07:36:05Z</time>
      </trkpt>
      <trkpt lat="49.28063" lon="1.12001">
        <ele>215.2</ele>
        <time>2017-09-17T07:36:07Z</time>
      </trkpt>
      <trkpt lat="49.28066" lon="1.11987">
        <ele>215.1</ele>
        <time>2017-09-17T07:36:09Z</time>
      </trkpt>
      <trkpt lat="49.28067" lon="1.11971">
        <ele>215</ele>
        <time>2017-09-17T07:36:11Z</time>
      </trkpt>
      <trkpt lat="49.28068" lon="1.11954">
        <ele>214.5</ele>
        <time>2017-09-17T07:36:13Z</time>
      </trkpt>
      <trkpt lat="49.28072" lon="1.11937">
        <ele>213.4</ele>
        <time>2017-09-17T07:36:15Z</time>
      </trkpt>
      <trkpt lat="49.28076" lon="1.11919">
        <ele>212.3</ele>
        <time>2017-09-17T07:36:17Z</time>
      </trkpt>
      <trkpt lat="49.2808" lon="1.11896">
        <ele>211.2</ele>
        <time>2017-09-17T07:36:19Z</time>
      </trkpt>
      <trkpt lat="49.28082" lon="1.1187">
        <ele>209.8</ele>
        <time>2017-09-17T07:36:21Z</time>
      </trkpt>
      <trkpt lat="49.28082" lon="1.11855">
        <ele>208.9</ele>
        <time>2017-09-17T07:36:22Z</time>
      </trkpt>
      <trkpt lat="49.28086" lon="1.1183">
        <ele>207</ele>
        <time>2017-09-17T07:36:24Z</time>
      </trkpt>
      <trkpt lat="49.28092" lon="1.11808">
        <ele>205.2</ele>
        <time>2017-09-17T07:36:26Z</time>
      </trkpt>
      <trkpt lat="49.28097" lon="1.11786">
        <ele>203.8</ele>
        <time>2017-09-17T07:36:28Z</time>
      </trkpt>
      <trkpt lat="49.28096" lon="1.11766">
        <ele>202.5</ele>
        <time>2017-09-17T07:36:30Z</time>
      </trkpt>
      <trkpt lat="49.28093" lon="1.11745">
        <ele>201.1</ele>
        <time>2017-09-17T07:36:32Z</time>
      </trkpt>
      <trkpt lat="49.28083" lon="1.11728">
        <ele>200.6</ele>
        <time>2017-09-17T07:36:34Z</time>
      </trkpt>
      <trkpt lat="49.28075" lon="1.11715">
        <ele>200.4</ele>
        <time>2017-09-17T07:36:36Z</time>
      </trkpt>
      <trkpt lat="49.28068" lon="1.11706">
        <ele>200.5</ele>
        <time>2017-09-17T07:36:38Z</time>
      </trkpt>
      <trkpt lat="49.28057" lon="1.11694">
        <ele>201.1</ele>
        <time>2017-09-17T07:36:41Z</time>
      </trkpt>
      <trkpt lat="49.28047" lon="1.11683">
        <ele>201.5</ele>
        <time>2017-09-17T07:36:44Z</time>
      </trkpt>
      <trkpt lat="49.28038" lon="1.11671">
        <ele>201.8</ele>
        <time>2017-09-17T07:36:46Z</time>
      </trkpt>
      <trkpt lat="49.28029" lon="1.11661">
        <ele>201.9</ele>
        <time>2017-09-17T07:36:48Z</time>
      </trkpt>
      <trkpt lat="49.28019" lon="1.11651">
        <ele>201.9</ele>
        <time>2017-09-17T07:36:50Z</time>
      </trkpt>
      <trkpt lat="49.2801" lon="1.1164">
        <ele>201.6</ele>
        <time>2017-09-17T07:36:52Z</time>
      </trkpt>
      <trkpt lat="49.28002" lon="1.11631">
        <ele>201.4</ele>
        <time>2017-09-17T07:36:54Z</time>
      </trkpt>
      <trkpt lat="49.2799" lon="1.11617">
        <ele>201.1</ele>
        <time>2017-09-17T07:36:56Z</time>
      </trkpt>
      <trkpt lat="49.27978" lon="1.11601">
        <ele>200.8</ele>
        <time>2017-09-17T07:36:58Z</time>
      </trkpt>
      <trkpt lat="49.27966" lon="1.11587">
        <ele>200.1</ele>
        <time>2017-09-17T07:37:00Z</time>
      </trkpt>
      <trkpt lat="49.27955" lon="1.11579">
        <ele>199.6</ele>
        <time>2017-09-17T07:37:02Z</time>
      </trkpt>
      <trkpt lat="49.27942" lon="1.11578">
        <ele>199.7</ele>
        <time>2017-09-17T07:37:04Z</time>
      </trkpt>
      <trkpt lat="49.27929" lon="1.11579">
        <ele>199.9</ele>
        <time>2017-09-17T07:37:06Z</time>
      </trkpt>
      <trkpt lat="49.27917" lon="1.11578">
        <ele>200.1</ele>
        <time>2017-09-17T07:37:08Z</time>
      </trkpt>
      <trkpt lat="49.27905" lon="1.11577">
        <ele>200.5</ele>
        <time>2017-09-17T07:37:10Z</time>
      </trkpt>
      <trkpt lat="49.27894" lon="1.11576">
        <ele>200.7</ele>
        <time>2017-09-17T07:37:12Z</time>
      </trkpt>
      <trkpt lat="49.27883" lon="1.11574">
        <ele>201.1</ele>
        <time>2017-09-17T07:37:14Z</time>
      </trkpt>
      <trkpt lat="49.27873" lon="1.11572">
        <ele>201.2</ele>
        <time>2017-09-17T07:37:16Z</time>
      </trkpt>
      <trkpt lat="49.27862" lon="1.11571">
        <ele>201.5</ele>
        <time>2017-09-17T07:37:18Z</time>
      </trkpt>
      <trkpt lat="49.27851" lon="1.11571">
        <ele>201.6</ele>
        <time>2017-09-17T07:37:20Z</time>
      </trkpt>
      <trkpt lat="49.2784" lon="1.11572">
        <ele>202</ele>
        <time>2017-09-17T07:37:22Z</time>
      </trkpt>
      <trkpt lat="49.27829" lon="1.11573">
        <ele>202.1</ele>
        <time>2017-09-17T07:37:24Z</time>
      </trkpt>
      <trkpt lat="49.27819" lon="1.11574">
        <ele>202.6</ele>
        <time>2017-09-17T07:37:26Z</time>
      </trkpt>
      <trkpt lat="49.27806" lon="1.11576">
        <ele>203.4</ele>
        <time>2017-09-17T07:37:29Z</time>
      </trkpt>
      <trkpt lat="49.27795" lon="1.11578">
        <ele>203.8</ele>
        <time>2017-09-17T07:37:32Z</time>
      </trkpt>
      <trkpt lat="49.27783" lon="1.11581">
        <ele>204.2</ele>
        <time>2017-09-17T07:37:35Z</time>
      </trkpt>
      <trkpt lat="49.27774" lon="1.1158">
        <ele>204.5</ele>
        <time>2017-09-17T07:37:37Z</time>
      </trkpt>
      <trkpt lat="49.27761" lon="1.11581">
        <ele>204.8</ele>
        <time>2017-09-17T07:37:40Z</time>
      </trkpt>
      <trkpt lat="49.2775" lon="1.11584">
        <ele>204.9</ele>
        <time>2017-09-17T07:37:43Z</time>
      </trkpt>
      <trkpt lat="49.27739" lon="1.11585">
        <ele>205.8</ele>
        <time>2017-09-17T07:37:46Z</time>
      </trkpt>
      <trkpt lat="49.27726" lon="1.11591">
        <ele>206.3</ele>
        <time>2017-09-17T07:37:49Z</time>
      </trkpt>
      <trkpt lat="49.27715" lon="1.11598">
        <ele>206.8</ele>
        <time>2017-09-17T07:37:52Z</time>
      </trkpt>
      <trkpt lat="49.27706" lon="1.11603">
        <ele>207.1</ele>
        <time>2017-09-17T07:37:54Z</time>
      </trkpt>
      <trkpt lat="49.27697" lon="1.11609">
        <ele>207.1</ele>
        <time>2017-09-17T07:37:56Z</time>
      </trkpt>
      <trkpt lat="49.27689" lon="1.11617">
        <ele>207.2</ele>
        <time>2017-09-17T07:37:58Z</time>
      </trkpt>
      <trkpt lat="49.27682" lon="1.11624">
        <ele>207.3</ele>
        <time>2017-09-17T07:38:00Z</time>
      </trkpt>
      <trkpt lat="49.27673" lon="1.11633">
        <ele>207.3</ele>
        <time>2017-09-17T07:38:02Z</time>
      </trkpt>
      <trkpt lat="49.27665" lon="1.1164">
        <ele>207.6</ele>
        <time>2017-09-17T07:38:04Z</time>
      </trkpt>
      <trkpt lat="49.27657" lon="1.11648">
        <ele>207.8</ele>
        <time>2017-09-17T07:38:06Z</time>
      </trkpt>
      <trkpt lat="49.27649" lon="1.11656">
        <ele>207.8</ele>
        <time>2017-09-17T07:38:08Z</time>
      </trkpt>
      <trkpt lat="49.27641" lon="1.11663">
        <ele>208.1</ele>
        <time>2017-09-17T07:38:10Z</time>
      </trkpt>
      <trkpt lat="49.2763" lon="1.11672">
        <ele>208.5</ele>
        <time>2017-09-17T07:38:13Z</time>
      </trkpt>
      <trkpt lat="49.27618" lon="1.1168">
        <ele>208.9</ele>
        <time>2017-09-17T07:38:16Z</time>
      </trkpt>
      <trkpt lat="49.27605" lon="1.11686">
        <ele>209.4</ele>
        <time>2017-09-17T07:38:19Z</time>
      </trkpt>
      <trkpt lat="49.27593" lon="1.11691">
        <ele>209.9</ele>
        <time>2017-09-17T07:38:22Z</time>
      </trkpt>
      <trkpt lat="49.2758" lon="1.11692">
        <ele>210.2</ele>
        <time>2017-09-17T07:38:25Z</time>
      </trkpt>
      <trkpt lat="49.27567" lon="1.11691">
        <ele>210.8</ele>
        <time>2017-09-17T07:38:28Z</time>
      </trkpt>
      <trkpt lat="49.27554" lon="1.11693">
        <ele>211.2</ele>
        <time>2017-09-17T07:38:31Z</time>
      </trkpt>
      <trkpt lat="49.27541" lon="1.11698">
        <ele>211.5</ele>
        <time>2017-09-17T07:38:34Z</time>
      </trkpt>
      <trkpt lat="49.27529" lon="1.11704">
        <ele>212.1</ele>
        <time>2017-09-17T07:38:37Z</time>
      </trkpt>
      <trkpt lat="49.27517" lon="1.11712">
        <ele>212.6</ele>
        <time>2017-09-17T07:38:40Z</time>
      </trkpt>
      <trkpt lat="49.27505" lon="1.1172">
        <ele>213.1</ele>
        <time>2017-09-17T07:38:43Z</time>
      </trkpt>
      <trkpt lat="49.27494" lon="1.11731">
        <ele>213.7</ele>
        <time>2017-09-17T07:38:46Z</time>
      </trkpt>
      <trkpt lat="49.27486" lon="1.11745">
        <ele>214.3</ele>
        <time>2017-09-17T07:38:49Z</time>
      </trkpt>
      <trkpt lat="49.27478" lon="1.11759">
        <ele>214.6</ele>
        <time>2017-09-17T07:38:52Z</time>
      </trkpt>
      <trkpt lat="49.2747" lon="1.11772">
        <ele>215.3</ele>
        <time>2017-09-17T07:38:55Z</time>
      </trkpt>
      <trkpt lat="49.27463" lon="1.11786">
        <ele>215.9</ele>
        <time>2017-09-17T07:38:58Z</time>
      </trkpt>
      <trkpt lat="49.27456" lon="1.118">
        <ele>216.4</ele>
        <time>2017-09-17T07:39:01Z</time>
      </trkpt>
      <trkpt lat="49.27448" lon="1.11814">
        <ele>216.8</ele>
        <time>2017-09-17T07:39:04Z</time>
      </trkpt>
      <trkpt lat="49.27442" lon="1.11829">
        <ele>217.3</ele>
        <time>2017-09-17T07:39:07Z</time>
      </trkpt>
      <trkpt lat="49.27437" lon="1.11845">
        <ele>217.8</ele>
        <time>2017-09-17T07:39:10Z</time>
      </trkpt>
      <trkpt lat="49.27434" lon="1.11861">
        <ele>218.2</ele>
        <time>2017-09-17T07:39:13Z</time>
      </trkpt>
      <trkpt lat="49.27433" lon="1.11878">
        <ele>219</ele>
        <time>2017-09-17T07:39:16Z</time>
      </trkpt>
      <trkpt lat="49.2743" lon="1.11894">
        <ele>219.4</ele>
        <time>2017-09-17T07:39:19Z</time>
      </trkpt>
      <trkpt lat="49.27428" lon="1.1191">
        <ele>220.2</ele>
        <time>2017-09-17T07:39:22Z</time>
      </trkpt>
      <trkpt lat="49.27426" lon="1.11925">
        <ele>220.9</ele>
        <time>2017-09-17T07:39:25Z</time>
      </trkpt>
      <trkpt lat="49.27423" lon="1.1194">
        <ele>221.8</ele>
        <time>2017-09-17T07:39:28Z</time>
      </trkpt>
      <trkpt lat="49.2742" lon="1.11954">
        <ele>222.5</ele>
        <time>2017-09-17T07:39:31Z</time>
      </trkpt>
      <trkpt lat="49.27416" lon="1.11968">
        <ele>223</ele>
        <time>2017-09-17T07:39:34Z</time>
      </trkpt>
      <trkpt lat="49.27412" lon="1.11981">
        <ele>223.5</ele>
        <time>2017-09-17T07:39:37Z</time>
      </trkpt>
      <trkpt lat="49.27407" lon="1.11993">
        <ele>224.1</ele>
        <time>2017-09-17T07:39:40Z</time>
      </trkpt>
      <trkpt lat="49.27402" lon="1.12009">
        <ele>225.2</ele>
        <time>2017-09-17T07:39:44Z</time>
      </trkpt>
      <trkpt lat="49.27396" lon="1.12025">
        <ele>226.2</ele>
        <time>2017-09-17T07:39:48Z</time>
      </trkpt>
      <trkpt lat="49.27392" lon="1.12037">
        <ele>226.9</ele>
        <time>2017-09-17T07:39:51Z</time>
      </trkpt>
      <trkpt lat="49.27386" lon="1.12053">
        <ele>228</ele>
        <time>2017-09-17T07:39:55Z</time>
      </trkpt>
      <trkpt lat="49.27381" lon="1.12065">
        <ele>228.7</ele>
        <time>2017-09-17T07:39:58Z</time>
      </trkpt>
      <trkpt lat="49.27376" lon="1.12076">
        <ele>229.3</ele>
        <time>2017-09-17T07:40:01Z</time>
      </trkpt>
      <trkpt lat="49.27371" lon="1.12088">
        <ele>230.1</ele>
        <time>2017-09-17T07:40:04Z</time>
      </trkpt>
      <trkpt lat="49.27367" lon="1.12101">
        <ele>230.7</ele>
        <time>2017-09-17T07:40:07Z</time>
      </trkpt>
      <trkpt lat="49.27363" lon="1.12113">
        <ele>231.3</ele>
        <time>2017-09-17T07:40:10Z</time>
      </trkpt>
      <trkpt lat="49.27357" lon="1.12124">
        <ele>232.1</ele>
        <time>2017-09-17T07:40:13Z</time>
      </trkpt>
      <trkpt lat="49.27353" lon="1.12136">
        <ele>232.7</ele>
        <time>2017-09-17T07:40:16Z</time>
      </trkpt>
      <trkpt lat="49.27346" lon="1.12147">
        <ele>233.2</ele>
        <time>2017-09-17T07:40:19Z</time>
      </trkpt>
      <trkpt lat="49.2734" lon="1.12157">
        <ele>233.7</ele>
        <time>2017-09-17T07:40:22Z</time>
      </trkpt>
      <trkpt lat="49.27333" lon="1.12168">
        <ele>234.2</ele>
        <time>2017-09-17T07:40:25Z</time>
      </trkpt>
      <trkpt lat="49.27327" lon="1.12181">
        <ele>234.6</ele>
        <time>2017-09-17T07:40:28Z</time>
      </trkpt>
      <trkpt lat="49.2732" lon="1.12194">
        <ele>235.2</ele>
        <time>2017-09-17T07:40:31Z</time>
      </trkpt>
      <trkpt lat="49.27312" lon="1.12208">
        <ele>235.6</ele>
        <time>2017-09-17T07:40:34Z</time>
      </trkpt>
      <trkpt lat="49.27305" lon="1.12223">
        <ele>235.8</ele>
        <time>2017-09-17T07:40:37Z</time>
      </trkpt>
      <trkpt lat="49.27297" lon="1.12237">
        <ele>236.2</ele>
        <time>2017-09-17T07:40:40Z</time>
      </trkpt>
      <trkpt lat="49.27291" lon="1.12253">
        <ele>236.7</ele>
        <time>2017-09-17T07:40:43Z</time>
      </trkpt>
      <trkpt lat="49.27287" lon="1.1227">
        <ele>237.2</ele>
        <time>2017-09-17T07:40:46Z</time>
      </trkpt>
      <trkpt lat="49.27285" lon="1.12287">
        <ele>237.8</ele>
        <time>2017-09-17T07:40:49Z</time>
      </trkpt>
      <trkpt lat="49.27283" lon="1.12304">
        <ele>238.3</ele>
        <time>2017-09-17T07:40:52Z</time>
      </trkpt>
      <trkpt lat="49.27281" lon="1.12322">
        <ele>238.9</ele>
        <time>2017-09-17T07:40:55Z</time>
      </trkpt>
      <trkpt lat="49.27278" lon="1.12337">
        <ele>239.5</ele>
        <time>2017-09-17T07:40:58Z</time>
      </trkpt>
      <trkpt lat="49.27275" lon="1.1235">
        <ele>239.8</ele>
        <time>2017-09-17T07:41:01Z</time>
      </trkpt>
      <trkpt lat="49.2727" lon="1.12367">
        <ele>240.4</ele>
        <time>2017-09-17T07:41:05Z</time>
      </trkpt>
      <trkpt lat="49.27267" lon="1.12382">
        <ele>240.8</ele>
        <time>2017-09-17T07:41:08Z</time>
      </trkpt>
      <trkpt lat="49.27263" lon="1.12397">
        <ele>241.1</ele>
        <time>2017-09-17T07:41:11Z</time>
      </trkpt>
      <trkpt lat="49.2726" lon="1.12414">
        <ele>241.1</ele>
        <time>2017-09-17T07:41:14Z</time>
      </trkpt>
      <trkpt lat="49.27255" lon="1.12431">
        <ele>241.2</ele>
        <time>2017-09-17T07:41:17Z</time>
      </trkpt>
      <trkpt lat="49.27252" lon="1.12444">
        <ele>241.5</ele>
        <time>2017-09-17T07:41:20Z</time>
      </trkpt>
      <trkpt lat="49.27249" lon="1.12457">
        <ele>242</ele>
        <time>2017-09-17T07:41:25Z</time>
      </trkpt>
      <trkpt lat="49.27243" lon="1.12468">
        <ele>241.9</ele>
        <time>2017-09-17T07:45:03Z</time>
      </trkpt>
      <trkpt lat="49.27241" lon="1.12484">
        <ele>242</ele>
        <time>2017-09-17T07:45:07Z</time>
      </trkpt>
      <trkpt lat="49.27239" lon="1.12498">
        <ele>242</ele>
        <time>2017-09-17T07:45:10Z</time>
      </trkpt>
      <trkpt lat="49.27234" lon="1.12512">
        <ele>242.3</ele>
        <time>2017-09-17T07:45:13Z</time>
      </trkpt>
      <trkpt lat="49.27233" lon="1.12529">
        <ele>242.3</ele>
        <time>2017-09-17T07:45:16Z</time>
      </trkpt>
      <trkpt lat="49.27228" lon="1.12541">
        <ele>242.4</ele>
        <time>2017-09-17T07:45:18Z</time>
      </trkpt>
      <trkpt lat="49.27226" lon="1.1256">
        <ele>242.7</ele>
        <time>2017-09-17T07:45:21Z</time>
      </trkpt>
      <trkpt lat="49.27222" lon="1.12578">
        <ele>243.1</ele>
        <time>2017-09-17T07:45:24Z</time>
      </trkpt>
      <trkpt lat="49.27216" lon="1.12595">
        <ele>243.4</ele>
        <time>2017-09-17T07:45:27Z</time>
      </trkpt>
      <trkpt lat="49.27211" lon="1.12611">
        <ele>243.8</ele>
        <time>2017-09-17T07:45:30Z</time>
      </trkpt>
      <trkpt lat="49.27209" lon="1.12628">
        <ele>244.2</ele>
        <time>2017-09-17T07:45:33Z</time>
      </trkpt>
      <trkpt lat="49.27203" lon="1.12644">
        <ele>244.4</ele>
        <time>2017-09-17T07:45:36Z</time>
      </trkpt>
      <trkpt lat="49.27201" lon="1.12664">
        <ele>245</ele>
        <time>2017-09-17T07:45:39Z</time>
      </trkpt>
      <trkpt lat="49.272" lon="1.12684">
        <ele>245.3</ele>
        <time>2017-09-17T07:45:42Z</time>
      </trkpt>
      <trkpt lat="49.27197" lon="1.12702">
        <ele>245.5</ele>
        <time>2017-09-17T07:45:45Z</time>
      </trkpt>
      <trkpt lat="49.27195" lon="1.12722">
        <ele>245.6</ele>
        <time>2017-09-17T07:45:48Z</time>
      </trkpt>
      <trkpt lat="49.27193" lon="1.1274">
        <ele>246.2</ele>
        <time>2017-09-17T07:45:51Z</time>
      </trkpt>
      <trkpt lat="49.27193" lon="1.1276">
        <ele>246.2</ele>
        <time>2017-09-17T07:45:54Z</time>
      </trkpt>
      <trkpt lat="49.27193" lon="1.1278">
        <ele>246.4</ele>
        <time>2017-09-17T07:45:57Z</time>
      </trkpt>
      <trkpt lat="49.27191" lon="1.12793">
        <ele>246.5</ele>
        <time>2017-09-17T07:45:59Z</time>
      </trkpt>
      <trkpt lat="49.27189" lon="1.12813">
        <ele>246.8</ele>
        <time>2017-09-17T07:46:02Z</time>
      </trkpt>
      <trkpt lat="49.27187" lon="1.12833">
        <ele>246.9</ele>
        <time>2017-09-17T07:46:05Z</time>
      </trkpt>
      <trkpt lat="49.27185" lon="1.12852">
        <ele>247</ele>
        <time>2017-09-17T07:46:08Z</time>
      </trkpt>
      <trkpt lat="49.27183" lon="1.12866">
        <ele>247.1</ele>
        <time>2017-09-17T07:46:10Z</time>
      </trkpt>
      <trkpt lat="49.27176" lon="1.12883">
        <ele>247</ele>
        <time>2017-09-17T07:46:13Z</time>
      </trkpt>
      <trkpt lat="49.2717" lon="1.12901">
        <ele>247.2</ele>
        <time>2017-09-17T07:46:16Z</time>
      </trkpt>
      <trkpt lat="49.27164" lon="1.12918">
        <ele>247.6</ele>
        <time>2017-09-17T07:46:19Z</time>
      </trkpt>
      <trkpt lat="49.2716" lon="1.12932">
        <ele>247.9</ele>
        <time>2017-09-17T07:46:21Z</time>
      </trkpt>
      <trkpt lat="49.27153" lon="1.1295">
        <ele>248</ele>
        <time>2017-09-17T07:46:24Z</time>
      </trkpt>
      <trkpt lat="49.27146" lon="1.12966">
        <ele>248.3</ele>
        <time>2017-09-17T07:46:27Z</time>
      </trkpt>
      <trkpt lat="49.2714" lon="1.12979">
        <ele>248.5</ele>
        <time>2017-09-17T07:46:29Z</time>
      </trkpt>
      <trkpt lat="49.27136" lon="1.12993">
        <ele>248.6</ele>
        <time>2017-09-17T07:46:31Z</time>
      </trkpt>
      <trkpt lat="49.27134" lon="1.13007">
        <ele>248.4</ele>
        <time>2017-09-17T07:46:33Z</time>
      </trkpt>
      <trkpt lat="49.27132" lon="1.13022">
        <ele>248.5</ele>
        <time>2017-09-17T07:46:35Z</time>
      </trkpt>
      <trkpt lat="49.2713" lon="1.13043">
        <ele>248.9</ele>
        <time>2017-09-17T07:46:38Z</time>
      </trkpt>
      <trkpt lat="49.27126" lon="1.13058">
        <ele>249</ele>
        <time>2017-09-17T07:46:40Z</time>
      </trkpt>
      <trkpt lat="49.27123" lon="1.13072">
        <ele>249</ele>
        <time>2017-09-17T07:46:42Z</time>
      </trkpt>
      <trkpt lat="49.27121" lon="1.13088">
        <ele>249.1</ele>
        <time>2017-09-17T07:46:44Z</time>
      </trkpt>
      <trkpt lat="49.27117" lon="1.13103">
        <ele>249.1</ele>
        <time>2017-09-17T07:46:46Z</time>
      </trkpt>
      <trkpt lat="49.27115" lon="1.1312">
        <ele>249.1</ele>
        <time>2017-09-17T07:46:48Z</time>
      </trkpt>
      <trkpt lat="49.27114" lon="1.13137">
        <ele>249.1</ele>
        <time>2017-09-17T07:46:50Z</time>
      </trkpt>
      <trkpt lat="49.27113" lon="1.13154">
        <ele>249.1</ele>
        <time>2017-09-17T07:46:52Z</time>
      </trkpt>
      <trkpt lat="49.27112" lon="1.13172">
        <ele>249.1</ele>
        <time>2017-09-17T07:46:54Z</time>
      </trkpt>
      <trkpt lat="49.2711" lon="1.13189">
        <ele>248.9</ele>
        <time>2017-09-17T07:46:56Z</time>
      </trkpt>
      <trkpt lat="49.27109" lon="1.13206">
        <ele>249.2</ele>
        <time>2017-09-17T07:46:58Z</time>
      </trkpt>
      <trkpt lat="49.27105" lon="1.13222">
        <ele>249.1</ele>
        <time>2017-09-17T07:47:00Z</time>
      </trkpt>
      <trkpt lat="49.27104" lon="1.1324">
        <ele>249.1</ele>
        <time>2017-09-17T07:47:02Z</time>
      </trkpt>
      <trkpt lat="49.27102" lon="1.13257">
        <ele>249.1</ele>
        <time>2017-09-17T07:47:04Z</time>
      </trkpt>
      <trkpt lat="49.271" lon="1.13274">
        <ele>249.1</ele>
        <time>2017-09-17T07:47:06Z</time>
      </trkpt>
      <trkpt lat="49.27099" lon="1.13291">
        <ele>249.2</ele>
        <time>2017-09-17T07:47:08Z</time>
      </trkpt>
      <trkpt lat="49.27096" lon="1.13305">
        <ele>249.1</ele>
        <time>2017-09-17T07:47:10Z</time>
      </trkpt>
      <trkpt lat="49.27094" lon="1.1332">
        <ele>249.4</ele>
        <time>2017-09-17T07:47:12Z</time>
      </trkpt>
      <trkpt lat="49.27092" lon="1.13334">
        <ele>249.4</ele>
        <time>2017-09-17T07:47:14Z</time>
      </trkpt>
      <trkpt lat="49.27091" lon="1.13349">
        <ele>249.7</ele>
        <time>2017-09-17T07:47:16Z</time>
      </trkpt>
      <trkpt lat="49.27086" lon="1.13363">
        <ele>249.7</ele>
        <time>2017-09-17T07:47:18Z</time>
      </trkpt>
      <trkpt lat="49.27079" lon="1.13373">
        <ele>250.1</ele>
        <time>2017-09-17T07:47:20Z</time>
      </trkpt>
      <trkpt lat="49.27067" lon="1.13384">
        <ele>250.7</ele>
        <time>2017-09-17T07:47:23Z</time>
      </trkpt>
      <trkpt lat="49.27057" lon="1.13398">
        <ele>251.1</ele>
        <time>2017-09-17T07:47:26Z</time>
      </trkpt>
      <trkpt lat="49.27047" lon="1.13408">
        <ele>251.2</ele>
        <time>2017-09-17T07:47:28Z</time>
      </trkpt>
      <trkpt lat="49.27037" lon="1.13418">
        <ele>251.7</ele>
        <time>2017-09-17T07:47:30Z</time>
      </trkpt>
      <trkpt lat="49.27027" lon="1.13426">
        <ele>251.9</ele>
        <time>2017-09-17T07:47:32Z</time>
      </trkpt>
      <trkpt lat="49.27016" lon="1.13434">
        <ele>252</ele>
        <time>2017-09-17T07:47:34Z</time>
      </trkpt>
      <trkpt lat="49.27006" lon="1.13441">
        <ele>252.1</ele>
        <time>2017-09-17T07:47:36Z</time>
      </trkpt>
      <trkpt lat="49.26995" lon="1.13446">
        <ele>251.9</ele>
        <time>2017-09-17T07:47:38Z</time>
      </trkpt>
      <trkpt lat="49.26986" lon="1.1345">
        <ele>252.2</ele>
        <time>2017-09-17T07:47:40Z</time>
      </trkpt>
      <trkpt lat="49.26973" lon="1.13457">
        <ele>252.2</ele>
        <time>2017-09-17T07:47:43Z</time>
      </trkpt>
      <trkpt lat="49.26961" lon="1.13462">
        <ele>252</ele>
        <time>2017-09-17T07:47:45Z</time>
      </trkpt>
      <trkpt lat="49.2695" lon="1.13465">
        <ele>252.1</ele>
        <time>2017-09-17T07:47:47Z</time>
      </trkpt>
      <trkpt lat="49.26939" lon="1.13468">
        <ele>252.1</ele>
        <time>2017-09-17T07:47:49Z</time>
      </trkpt>
      <trkpt lat="49.26926" lon="1.13467">
        <ele>252.4</ele>
        <time>2017-09-17T07:47:51Z</time>
      </trkpt>
      <trkpt lat="49.26911" lon="1.13463">
        <ele>252</ele>
        <time>2017-09-17T07:47:53Z</time>
      </trkpt>
      <trkpt lat="49.26898" lon="1.13458">
        <ele>252.1</ele>
        <time>2017-09-17T07:47:55Z</time>
      </trkpt>
      <trkpt lat="49.26885" lon="1.13453">
        <ele>252</ele>
        <time>2017-09-17T07:47:57Z</time>
      </trkpt>
      <trkpt lat="49.26873" lon="1.13447">
        <ele>251.8</ele>
        <time>2017-09-17T07:47:59Z</time>
      </trkpt>
      <trkpt lat="49.26861" lon="1.13442">
        <ele>251.9</ele>
        <time>2017-09-17T07:48:01Z</time>
      </trkpt>
      <trkpt lat="49.26848" lon="1.13437">
        <ele>252</ele>
        <time>2017-09-17T07:48:03Z</time>
      </trkpt>
      <trkpt lat="49.26837" lon="1.13433">
        <ele>252.1</ele>
        <time>2017-09-17T07:48:05Z</time>
      </trkpt>
      <trkpt lat="49.26825" lon="1.13427">
        <ele>252.3</ele>
        <time>2017-09-17T07:48:07Z</time>
      </trkpt>
      <trkpt lat="49.26813" lon="1.13422">
        <ele>252.3</ele>
        <time>2017-09-17T07:48:09Z</time>
      </trkpt>
      <trkpt lat="49.268" lon="1.13417">
        <ele>252.2</ele>
        <time>2017-09-17T07:48:11Z</time>
      </trkpt>
      <trkpt lat="49.26786" lon="1.1341">
        <ele>252.2</ele>
        <time>2017-09-17T07:48:13Z</time>
      </trkpt>
      <trkpt lat="49.26773" lon="1.13404">
        <ele>252</ele>
        <time>2017-09-17T07:48:15Z</time>
      </trkpt>
      <trkpt lat="49.26761" lon="1.13399">
        <ele>251.9</ele>
        <time>2017-09-17T07:48:17Z</time>
      </trkpt>
      <trkpt lat="49.26748" lon="1.13393">
        <ele>251.7</ele>
        <time>2017-09-17T07:48:19Z</time>
      </trkpt>
      <trkpt lat="49.26735" lon="1.13387">
        <ele>251.5</ele>
        <time>2017-09-17T07:48:21Z</time>
      </trkpt>
      <trkpt lat="49.2672" lon="1.13382">
        <ele>251.6</ele>
        <time>2017-09-17T07:48:23Z</time>
      </trkpt>
      <trkpt lat="49.26707" lon="1.13377">
        <ele>251.5</ele>
        <time>2017-09-17T07:48:25Z</time>
      </trkpt>
      <trkpt lat="49.26695" lon="1.13371">
        <ele>251.5</ele>
        <time>2017-09-17T07:48:27Z</time>
      </trkpt>
      <trkpt lat="49.26681" lon="1.13366">
        <ele>251.6</ele>
        <time>2017-09-17T07:48:29Z</time>
      </trkpt>
      <trkpt lat="49.26669" lon="1.13361">
        <ele>251.2</ele>
        <time>2017-09-17T07:48:31Z</time>
      </trkpt>
      <trkpt lat="49.26656" lon="1.13355">
        <ele>251</ele>
        <time>2017-09-17T07:48:33Z</time>
      </trkpt>
      <trkpt lat="49.26643" lon="1.13348">
        <ele>250.7</ele>
        <time>2017-09-17T07:48:35Z</time>
      </trkpt>
      <trkpt lat="49.2663" lon="1.13341">
        <ele>250.4</ele>
        <time>2017-09-17T07:48:37Z</time>
      </trkpt>
      <trkpt lat="49.26617" lon="1.13334">
        <ele>250.3</ele>
        <time>2017-09-17T07:48:39Z</time>
      </trkpt>
      <trkpt lat="49.26603" lon="1.13328">
        <ele>250.1</ele>
        <time>2017-09-17T07:48:41Z</time>
      </trkpt>
      <trkpt lat="49.26589" lon="1.13322">
        <ele>250</ele>
        <time>2017-09-17T07:48:43Z</time>
      </trkpt>
      <trkpt lat="49.26575" lon="1.13315">
        <ele>249.8</ele>
        <time>2017-09-17T07:48:45Z</time>
      </trkpt>
      <trkpt lat="49.26561" lon="1.13309">
        <ele>249.5</ele>
        <time>2017-09-17T07:48:47Z</time>
      </trkpt>
      <trkpt lat="49.26548" lon="1.13302">
        <ele>249.2</ele>
        <time>2017-09-17T07:48:49Z</time>
      </trkpt>
      <trkpt lat="49.26535" lon="1.13295">
        <ele>248.9</ele>
        <time>2017-09-17T07:48:51Z</time>
      </trkpt>
      <trkpt lat="49.26521" lon="1.13292">
        <ele>248.5</ele>
        <time>2017-09-17T07:48:53Z</time>
      </trkpt>
      <trkpt lat="49.26509" lon="1.13286">
        <ele>248.4</ele>
        <time>2017-09-17T07:48:55Z</time>
      </trkpt>
      <trkpt lat="49.26495" lon="1.13279">
        <ele>248.4</ele>
        <time>2017-09-17T07:48:57Z</time>
      </trkpt>
      <trkpt lat="49.26481" lon="1.13273">
        <ele>248.2</ele>
        <time>2017-09-17T07:48:59Z</time>
      </trkpt>
      <trkpt lat="49.26468" lon="1.13268">
        <ele>248.1</ele>
        <time>2017-09-17T07:49:01Z</time>
      </trkpt>
      <trkpt lat="49.26454" lon="1.13261">
        <ele>247.9</ele>
        <time>2017-09-17T07:49:03Z</time>
      </trkpt>
      <trkpt lat="49.2644" lon="1.13256">
        <ele>247.5</ele>
        <time>2017-09-17T07:49:05Z</time>
      </trkpt>
      <trkpt lat="49.26426" lon="1.13252">
        <ele>247.5</ele>
        <time>2017-09-17T07:49:07Z</time>
      </trkpt>
      <trkpt lat="49.26413" lon="1.13251">
        <ele>246.9</ele>
        <time>2017-09-17T07:49:09Z</time>
      </trkpt>
      <trkpt lat="49.26399" lon="1.13254">
        <ele>246.8</ele>
        <time>2017-09-17T07:49:11Z</time>
      </trkpt>
      <trkpt lat="49.26386" lon="1.13258">
        <ele>246.7</ele>
        <time>2017-09-17T07:49:13Z</time>
      </trkpt>
      <trkpt lat="49.26374" lon="1.13262">
        <ele>246.7</ele>
        <time>2017-09-17T07:49:15Z</time>
      </trkpt>
      <trkpt lat="49.2636" lon="1.13267">
        <ele>246.5</ele>
        <time>2017-09-17T07:49:17Z</time>
      </trkpt>
      <trkpt lat="49.26347" lon="1.13272">
        <ele>246.3</ele>
        <time>2017-09-17T07:49:19Z</time>
      </trkpt>
      <trkpt lat="49.26333" lon="1.13277">
        <ele>246.4</ele>
        <time>2017-09-17T07:49:21Z</time>
      </trkpt>
      <trkpt lat="49.2632" lon="1.13283">
        <ele>246.2</ele>
        <time>2017-09-17T07:49:23Z</time>
      </trkpt>
      <trkpt lat="49.26306" lon="1.13288">
        <ele>245.8</ele>
        <time>2017-09-17T07:49:25Z</time>
      </trkpt>
      <trkpt lat="49.26292" lon="1.13293">
        <ele>245.6</ele>
        <time>2017-09-17T07:49:27Z</time>
      </trkpt>
      <trkpt lat="49.26278" lon="1.13298">
        <ele>245.4</ele>
        <time>2017-09-17T07:49:29Z</time>
      </trkpt>
      <trkpt lat="49.26265" lon="1.13305">
        <ele>245.2</ele>
        <time>2017-09-17T07:49:31Z</time>
      </trkpt>
      <trkpt lat="49.26252" lon="1.13313">
        <ele>245</ele>
        <time>2017-09-17T07:49:33Z</time>
      </trkpt>
      <trkpt lat="49.26241" lon="1.13323">
        <ele>244.8</ele>
        <time>2017-09-17T07:49:35Z</time>
      </trkpt>
      <trkpt lat="49.26233" lon="1.13336">
        <ele>244.2</ele>
        <time>2017-09-17T07:49:38Z</time>
      </trkpt>
      <trkpt lat="49.26224" lon="1.13343">
        <ele>243.9</ele>
        <time>2017-09-17T07:49:41Z</time>
      </trkpt>
      <trkpt lat="49.26215" lon="1.13357">
        <ele>243.8</ele>
        <time>2017-09-17T07:49:44Z</time>
      </trkpt>
      <trkpt lat="49.2621" lon="1.13377">
        <ele>243.6</ele>
        <time>2017-09-17T07:49:47Z</time>
      </trkpt>
      <trkpt lat="49.2621" lon="1.13394">
        <ele>243.8</ele>
        <time>2017-09-17T07:49:49Z</time>
      </trkpt>
      <trkpt lat="49.26211" lon="1.13412">
        <ele>244</ele>
        <time>2017-09-17T07:49:51Z</time>
      </trkpt>
      <trkpt lat="49.26212" lon="1.13431">
        <ele>244.2</ele>
        <time>2017-09-17T07:49:53Z</time>
      </trkpt>
      <trkpt lat="49.26214" lon="1.13449">
        <ele>244.3</ele>
        <time>2017-09-17T07:49:55Z</time>
      </trkpt>
      <trkpt lat="49.26216" lon="1.13468">
        <ele>244.3</ele>
        <time>2017-09-17T07:49:57Z</time>
      </trkpt>
      <trkpt lat="49.26217" lon="1.13488">
        <ele>244.4</ele>
        <time>2017-09-17T07:49:59Z</time>
      </trkpt>
      <trkpt lat="49.26218" lon="1.13507">
        <ele>244.3</ele>
        <time>2017-09-17T07:50:01Z</time>
      </trkpt>
      <trkpt lat="49.26219" lon="1.13528">
        <ele>244.3</ele>
        <time>2017-09-17T07:50:03Z</time>
      </trkpt>
      <trkpt lat="49.26222" lon="1.13549">
        <ele>244.2</ele>
        <time>2017-09-17T07:50:05Z</time>
      </trkpt>
      <trkpt lat="49.26223" lon="1.13569">
        <ele>244.2</ele>
        <time>2017-09-17T07:50:07Z</time>
      </trkpt>
      <trkpt lat="49.26224" lon="1.13591">
        <ele>244.2</ele>
        <time>2017-09-17T07:50:09Z</time>
      </trkpt>
      <trkpt lat="49.26226" lon="1.13611">
        <ele>244.1</ele>
        <time>2017-09-17T07:50:11Z</time>
      </trkpt>
      <trkpt lat="49.26227" lon="1.13632">
        <ele>244.1</ele>
        <time>2017-09-17T07:50:13Z</time>
      </trkpt>
      <trkpt lat="49.26228" lon="1.13652">
        <ele>244.2</ele>
        <time>2017-09-17T07:50:15Z</time>
      </trkpt>
      <trkpt lat="49.26228" lon="1.13672">
        <ele>244.1</ele>
        <time>2017-09-17T07:50:17Z</time>
      </trkpt>
      <trkpt lat="49.26229" lon="1.13693">
        <ele>244</ele>
        <time>2017-09-17T07:50:19Z</time>
      </trkpt>
      <trkpt lat="49.2623" lon="1.13715">
        <ele>244.1</ele>
        <time>2017-09-17T07:50:21Z</time>
      </trkpt>
      <trkpt lat="49.26234" lon="1.13737">
        <ele>244.3</ele>
        <time>2017-09-17T07:50:23Z</time>
      </trkpt>
      <trkpt lat="49.26236" lon="1.13757">
        <ele>244.4</ele>
        <time>2017-09-17T07:50:25Z</time>
      </trkpt>
      <trkpt lat="49.26238" lon="1.13778">
        <ele>244.5</ele>
        <time>2017-09-17T07:50:27Z</time>
      </trkpt>
      <trkpt lat="49.26241" lon="1.13799">
        <ele>244.5</ele>
        <time>2017-09-17T07:50:29Z</time>
      </trkpt>
      <trkpt lat="49.26241" lon="1.1382">
        <ele>244.6</ele>
        <time>2017-09-17T07:50:31Z</time>
      </trkpt>
      <trkpt lat="49.26243" lon="1.1384">
        <ele>244.8</ele>
        <time>2017-09-17T07:50:33Z</time>
      </trkpt>
      <trkpt lat="49.26243" lon="1.1386">
        <ele>244.9</ele>
        <time>2017-09-17T07:50:35Z</time>
      </trkpt>
      <trkpt lat="49.26245" lon="1.1388">
        <ele>244.8</ele>
        <time>2017-09-17T07:50:37Z</time>
      </trkpt>
      <trkpt lat="49.26246" lon="1.13899">
        <ele>244.9</ele>
        <time>2017-09-17T07:50:39Z</time>
      </trkpt>
      <trkpt lat="49.26246" lon="1.13918">
        <ele>245.1</ele>
        <time>2017-09-17T07:50:41Z</time>
      </trkpt>
      <trkpt lat="49.26247" lon="1.13937">
        <ele>245.3</ele>
        <time>2017-09-17T07:50:43Z</time>
      </trkpt>
      <trkpt lat="49.26246" lon="1.13955">
        <ele>245.4</ele>
        <time>2017-09-17T07:50:45Z</time>
      </trkpt>
      <trkpt lat="49.26246" lon="1.13973">
        <ele>245.4</ele>
        <time>2017-09-17T07:50:47Z</time>
      </trkpt>
      <trkpt lat="49.26247" lon="1.13991">
        <ele>245.5</ele>
        <time>2017-09-17T07:50:49Z</time>
      </trkpt>
      <trkpt lat="49.26248" lon="1.14011">
        <ele>245.5</ele>
        <time>2017-09-17T07:50:51Z</time>
      </trkpt>
      <trkpt lat="49.26249" lon="1.14029">
        <ele>245.5</ele>
        <time>2017-09-17T07:50:53Z</time>
      </trkpt>
      <trkpt lat="49.26249" lon="1.14046">
        <ele>245.6</ele>
        <time>2017-09-17T07:50:55Z</time>
      </trkpt>
      <trkpt lat="49.26256" lon="1.14064">
        <ele>245.7</ele>
        <time>2017-09-17T07:50:57Z</time>
      </trkpt>
      <trkpt lat="49.26268" lon="1.14066">
        <ele>245.3</ele>
        <time>2017-09-17T07:51:01Z</time>
      </trkpt>
      <trkpt lat="49.26277" lon="1.1407">
        <ele>245.1</ele>
        <time>2017-09-17T07:51:04Z</time>
      </trkpt>
      <trkpt lat="49.26288" lon="1.14075">
        <ele>245</ele>
        <time>2017-09-17T07:51:07Z</time>
      </trkpt>
      <trkpt lat="49.26298" lon="1.14079">
        <ele>245</ele>
        <time>2017-09-17T07:51:10Z</time>
      </trkpt>
      <trkpt lat="49.26309" lon="1.14081">
        <ele>245.5</ele>
        <time>2017-09-17T07:51:13Z</time>
      </trkpt>
      <trkpt lat="49.26321" lon="1.14081">
        <ele>245.5</ele>
        <time>2017-09-17T07:51:16Z</time>
      </trkpt>
      <trkpt lat="49.26333" lon="1.14083">
        <ele>245.6</ele>
        <time>2017-09-17T07:51:19Z</time>
      </trkpt>
      <trkpt lat="49.26341" lon="1.14093">
        <ele>245.1</ele>
        <time>2017-09-17T07:51:22Z</time>
      </trkpt>
      <trkpt lat="49.26352" lon="1.14099">
        <ele>245</ele>
        <time>2017-09-17T07:51:26Z</time>
      </trkpt>
      <trkpt lat="49.26361" lon="1.14105">
        <ele>244.9</ele>
        <time>2017-09-17T07:51:29Z</time>
      </trkpt>
      <trkpt lat="49.26372" lon="1.1411">
        <ele>244.9</ele>
        <time>2017-09-17T07:51:32Z</time>
      </trkpt>
      <trkpt lat="49.26385" lon="1.14108">
        <ele>245.1</ele>
        <time>2017-09-17T07:51:35Z</time>
      </trkpt>
      <trkpt lat="49.26394" lon="1.14102">
        <ele>245.1</ele>
        <time>2017-09-17T07:51:38Z</time>
      </trkpt>
      <trkpt lat="49.26406" lon="1.14102">
        <ele>245.1</ele>
        <time>2017-09-17T07:51:42Z</time>
      </trkpt>
      <trkpt lat="49.26415" lon="1.141">
        <ele>245.3</ele>
        <time>2017-09-17T07:51:44Z</time>
      </trkpt>
      <trkpt lat="49.26425" lon="1.14092">
        <ele>245.4</ele>
        <time>2017-09-17T07:51:46Z</time>
      </trkpt>
      <trkpt lat="49.26438" lon="1.14089">
        <ele>245.5</ele>
        <time>2017-09-17T07:51:49Z</time>
      </trkpt>
      <trkpt lat="49.26447" lon="1.14094">
        <ele>245.7</ele>
        <time>2017-09-17T07:51:52Z</time>
      </trkpt>
      <trkpt lat="49.26455" lon="1.14102">
        <ele>245.9</ele>
        <time>2017-09-17T07:51:56Z</time>
      </trkpt>
      <trkpt lat="49.26462" lon="1.14111">
        <ele>245.7</ele>
        <time>2017-09-17T07:52:10Z</time>
      </trkpt>
      <trkpt lat="49.26467" lon="1.14125">
        <ele>245.6</ele>
        <time>2017-09-17T07:52:20Z</time>
      </trkpt>
      <trkpt lat="49.26476" lon="1.14132">
        <ele>245.6</ele>
        <time>2017-09-17T07:52:22Z</time>
      </trkpt>
      <trkpt lat="49.26483" lon="1.14144">
        <ele>245.5</ele>
        <time>2017-09-17T07:52:24Z</time>
      </trkpt>
      <trkpt lat="49.26489" lon="1.14156">
        <ele>245.6</ele>
        <time>2017-09-17T07:52:27Z</time>
      </trkpt>
      <trkpt lat="49.26497" lon="1.14165">
        <ele>245.6</ele>
        <time>2017-09-17T07:52:29Z</time>
      </trkpt>
      <trkpt lat="49.26506" lon="1.14171">
        <ele>245.8</ele>
        <time>2017-09-17T07:52:32Z</time>
      </trkpt>
      <trkpt lat="49.26515" lon="1.14178">
        <ele>245.9</ele>
        <time>2017-09-17T07:52:36Z</time>
      </trkpt>
      <trkpt lat="49.26527" lon="1.1418">
        <ele>246.1</ele>
        <time>2017-09-17T07:52:39Z</time>
      </trkpt>
      <trkpt lat="49.26537" lon="1.14186">
        <ele>246.6</ele>
        <time>2017-09-17T07:52:42Z</time>
      </trkpt>
      <trkpt lat="49.26548" lon="1.14192">
        <ele>246.9</ele>
        <time>2017-09-17T07:52:45Z</time>
      </trkpt>
      <trkpt lat="49.26557" lon="1.14194">
        <ele>247.2</ele>
        <time>2017-09-17T07:52:48Z</time>
      </trkpt>
      <trkpt lat="49.26569" lon="1.14194">
        <ele>247.2</ele>
        <time>2017-09-17T07:52:52Z</time>
      </trkpt>
      <trkpt lat="49.26579" lon="1.14205">
        <ele>247.2</ele>
        <time>2017-09-17T07:52:55Z</time>
      </trkpt>
      <trkpt lat="49.26589" lon="1.1421">
        <ele>247.5</ele>
        <time>2017-09-17T07:52:58Z</time>
      </trkpt>
      <trkpt lat="49.26598" lon="1.14212">
        <ele>247.8</ele>
        <time>2017-09-17T07:53:00Z</time>
      </trkpt>
      <trkpt lat="49.26611" lon="1.14217">
        <ele>248.1</ele>
        <time>2017-09-17T07:53:03Z</time>
      </trkpt>
      <trkpt lat="49.26619" lon="1.14221">
        <ele>248.4</ele>
        <time>2017-09-17T07:53:05Z</time>
      </trkpt>
      <trkpt lat="49.26629" lon="1.14225">
        <ele>248.6</ele>
        <time>2017-09-17T07:53:07Z</time>
      </trkpt>
      <trkpt lat="49.2664" lon="1.1423">
        <ele>248.7</ele>
        <time>2017-09-17T07:53:09Z</time>
      </trkpt>
      <trkpt lat="49.26649" lon="1.14233">
        <ele>248.8</ele>
        <time>2017-09-17T07:53:11Z</time>
      </trkpt>
      <trkpt lat="49.26662" lon="1.1424">
        <ele>249</ele>
        <time>2017-09-17T07:53:14Z</time>
      </trkpt>
      <trkpt lat="49.26672" lon="1.14242">
        <ele>249.2</ele>
        <time>2017-09-17T07:53:16Z</time>
      </trkpt>
      <trkpt lat="49.26682" lon="1.14248">
        <ele>249.6</ele>
        <time>2017-09-17T07:53:19Z</time>
      </trkpt>
      <trkpt lat="49.26692" lon="1.14246">
        <ele>249.7</ele>
        <time>2017-09-17T07:53:21Z</time>
      </trkpt>
      <trkpt lat="49.26699" lon="1.14235">
        <ele>249.9</ele>
        <time>2017-09-17T07:53:24Z</time>
      </trkpt>
      <trkpt lat="49.26703" lon="1.14219">
        <ele>250.3</ele>
        <time>2017-09-17T07:53:27Z</time>
      </trkpt>
      <trkpt lat="49.26707" lon="1.14201">
        <ele>250.5</ele>
        <time>2017-09-17T07:53:30Z</time>
      </trkpt>
      <trkpt lat="49.26715" lon="1.14185">
        <ele>250.8</ele>
        <time>2017-09-17T07:53:33Z</time>
      </trkpt>
      <trkpt lat="49.26722" lon="1.14168">
        <ele>251.2</ele>
        <time>2017-09-17T07:53:36Z</time>
      </trkpt>
      <trkpt lat="49.26727" lon="1.14156">
        <ele>251.3</ele>
        <time>2017-09-17T07:53:38Z</time>
      </trkpt>
      <trkpt lat="49.26734" lon="1.14146">
        <ele>251.7</ele>
        <time>2017-09-17T07:53:40Z</time>
      </trkpt>
      <trkpt lat="49.26744" lon="1.14135">
        <ele>251.9</ele>
        <time>2017-09-17T07:53:43Z</time>
      </trkpt>
      <trkpt lat="49.26752" lon="1.14124">
        <ele>252</ele>
        <time>2017-09-17T07:53:46Z</time>
      </trkpt>
      <trkpt lat="49.26759" lon="1.1411">
        <ele>252.2</ele>
        <time>2017-09-17T07:53:49Z</time>
      </trkpt>
      <trkpt lat="49.26768" lon="1.14097">
        <ele>252.4</ele>
        <time>2017-09-17T07:53:52Z</time>
      </trkpt>
      <trkpt lat="49.26772" lon="1.14081">
        <ele>252.5</ele>
        <time>2017-09-17T07:53:55Z</time>
      </trkpt>
      <trkpt lat="49.26777" lon="1.14064">
        <ele>252.7</ele>
        <time>2017-09-17T07:53:58Z</time>
      </trkpt>
      <trkpt lat="49.26785" lon="1.14046">
        <ele>252.8</ele>
        <time>2017-09-17T07:54:01Z</time>
      </trkpt>
      <trkpt lat="49.26788" lon="1.14026">
        <ele>252.8</ele>
        <time>2017-09-17T07:54:04Z</time>
      </trkpt>
      <trkpt lat="49.26792" lon="1.14007">
        <ele>253</ele>
        <time>2017-09-17T07:54:07Z</time>
      </trkpt>
      <trkpt lat="49.26801" lon="1.13993">
        <ele>253</ele>
        <time>2017-09-17T07:54:10Z</time>
      </trkpt>
      <trkpt lat="49.26806" lon="1.13981">
        <ele>253</ele>
        <time>2017-09-17T07:54:12Z</time>
      </trkpt>
      <trkpt lat="49.26813" lon="1.13969">
        <ele>253</ele>
        <time>2017-09-17T07:54:14Z</time>
      </trkpt>
      <trkpt lat="49.26823" lon="1.13959">
        <ele>253</ele>
        <time>2017-09-17T07:54:17Z</time>
      </trkpt>
      <trkpt lat="49.26834" lon="1.13949">
        <ele>252.9</ele>
        <time>2017-09-17T07:54:20Z</time>
      </trkpt>
      <trkpt lat="49.26846" lon="1.1394">
        <ele>253</ele>
        <time>2017-09-17T07:54:23Z</time>
      </trkpt>
      <trkpt lat="49.26855" lon="1.13926">
        <ele>253.1</ele>
        <time>2017-09-17T07:54:26Z</time>
      </trkpt>
      <trkpt lat="49.26868" lon="1.13915">
        <ele>253.1</ele>
        <time>2017-09-17T07:54:29Z</time>
      </trkpt>
      <trkpt lat="49.26877" lon="1.13914">
        <ele>253.2</ele>
        <time>2017-09-17T07:54:31Z</time>
      </trkpt>
      <trkpt lat="49.2689" lon="1.13915">
        <ele>253.2</ele>
        <time>2017-09-17T07:54:34Z</time>
      </trkpt>
      <trkpt lat="49.26899" lon="1.13918">
        <ele>253.5</ele>
        <time>2017-09-17T07:54:37Z</time>
      </trkpt>
      <trkpt lat="49.26912" lon="1.13922">
        <ele>253.5</ele>
        <time>2017-09-17T07:54:40Z</time>
      </trkpt>
      <trkpt lat="49.26923" lon="1.13926">
        <ele>253.2</ele>
        <time>2017-09-17T07:54:43Z</time>
      </trkpt>
      <trkpt lat="49.26932" lon="1.13928">
        <ele>253.3</ele>
        <time>2017-09-17T07:54:45Z</time>
      </trkpt>
      <trkpt lat="49.26944" lon="1.13931">
        <ele>253.1</ele>
        <time>2017-09-17T07:54:48Z</time>
      </trkpt>
      <trkpt lat="49.26956" lon="1.13936">
        <ele>253.5</ele>
        <time>2017-09-17T07:54:51Z</time>
      </trkpt>
      <trkpt lat="49.26967" lon="1.1394">
        <ele>253.2</ele>
        <time>2017-09-17T07:54:53Z</time>
      </trkpt>
      <trkpt lat="49.26977" lon="1.13945">
        <ele>252.8</ele>
        <time>2017-09-17T07:54:55Z</time>
      </trkpt>
      <trkpt lat="49.26989" lon="1.13948">
        <ele>252.6</ele>
        <time>2017-09-17T07:54:57Z</time>
      </trkpt>
      <trkpt lat="49.27001" lon="1.13952">
        <ele>252.4</ele>
        <time>2017-09-17T07:54:59Z</time>
      </trkpt>
      <trkpt lat="49.27012" lon="1.13957">
        <ele>252.3</ele>
        <time>2017-09-17T07:55:01Z</time>
      </trkpt>
      <trkpt lat="49.27026" lon="1.13964">
        <ele>252.2</ele>
        <time>2017-09-17T07:55:03Z</time>
      </trkpt>
      <trkpt lat="49.27039" lon="1.1397">
        <ele>251.9</ele>
        <time>2017-09-17T07:55:05Z</time>
      </trkpt>
      <trkpt lat="49.27052" lon="1.13975">
        <ele>251.6</ele>
        <time>2017-09-17T07:55:07Z</time>
      </trkpt>
      <trkpt lat="49.27066" lon="1.13982">
        <ele>251.1</ele>
        <time>2017-09-17T07:55:09Z</time>
      </trkpt>
      <trkpt lat="49.2708" lon="1.13989">
        <ele>250.8</ele>
        <time>2017-09-17T07:55:11Z</time>
      </trkpt>
      <trkpt lat="49.27094" lon="1.13994">
        <ele>250.8</ele>
        <time>2017-09-17T07:55:13Z</time>
      </trkpt>
      <trkpt lat="49.27107" lon="1.14">
        <ele>250.7</ele>
        <time>2017-09-17T07:55:15Z</time>
      </trkpt>
      <trkpt lat="49.2712" lon="1.14006">
        <ele>250.3</ele>
        <time>2017-09-17T07:55:17Z</time>
      </trkpt>
      <trkpt lat="49.27135" lon="1.14013">
        <ele>250</ele>
        <time>2017-09-17T07:55:19Z</time>
      </trkpt>
      <trkpt lat="49.27144" lon="1.14017">
        <ele>249.9</ele>
        <time>2017-09-17T07:55:20Z</time>
      </trkpt>
      <trkpt lat="49.27157" lon="1.14023">
        <ele>249.7</ele>
        <time>2017-09-17T07:55:22Z</time>
      </trkpt>
      <trkpt lat="49.27168" lon="1.14028">
        <ele>249.4</ele>
        <time>2017-09-17T07:55:24Z</time>
      </trkpt>
      <trkpt lat="49.27181" lon="1.14034">
        <ele>249.2</ele>
        <time>2017-09-17T07:55:26Z</time>
      </trkpt>
      <trkpt lat="49.27192" lon="1.14039">
        <ele>249.2</ele>
        <time>2017-09-17T07:55:28Z</time>
      </trkpt>
      <trkpt lat="49.27206" lon="1.14047">
        <ele>248.8</ele>
        <time>2017-09-17T07:55:30Z</time>
      </trkpt>
      <trkpt lat="49.27219" lon="1.14052">
        <ele>248.9</ele>
        <time>2017-09-17T07:55:32Z</time>
      </trkpt>
      <trkpt lat="49.27233" lon="1.14059">
        <ele>249.1</ele>
        <time>2017-09-17T07:55:34Z</time>
      </trkpt>
      <trkpt lat="49.27244" lon="1.14065">
        <ele>249.2</ele>
        <time>2017-09-17T07:55:36Z</time>
      </trkpt>
      <trkpt lat="49.27256" lon="1.14069">
        <ele>249.2</ele>
        <time>2017-09-17T07:55:38Z</time>
      </trkpt>
      <trkpt lat="49.27268" lon="1.14076">
        <ele>249.2</ele>
        <time>2017-09-17T07:55:40Z</time>
      </trkpt>
      <trkpt lat="49.2728" lon="1.14081">
        <ele>248.9</ele>
        <time>2017-09-17T07:55:42Z</time>
      </trkpt>
      <trkpt lat="49.27293" lon="1.14086">
        <ele>248.8</ele>
        <time>2017-09-17T07:55:44Z</time>
      </trkpt>
      <trkpt lat="49.27307" lon="1.14092">
        <ele>248.6</ele>
        <time>2017-09-17T07:55:46Z</time>
      </trkpt>
      <trkpt lat="49.2732" lon="1.14099">
        <ele>248.1</ele>
        <time>2017-09-17T07:55:48Z</time>
      </trkpt>
      <trkpt lat="49.27333" lon="1.14105">
        <ele>247.8</ele>
        <time>2017-09-17T07:55:50Z</time>
      </trkpt>
      <trkpt lat="49.27344" lon="1.1411">
        <ele>247.9</ele>
        <time>2017-09-17T07:55:52Z</time>
      </trkpt>
      <trkpt lat="49.27356" lon="1.14115">
        <ele>248.1</ele>
        <time>2017-09-17T07:55:54Z</time>
      </trkpt>
      <trkpt lat="49.2737" lon="1.14123">
        <ele>247.6</ele>
        <time>2017-09-17T07:55:56Z</time>
      </trkpt>
      <trkpt lat="49.27383" lon="1.14122">
        <ele>247.6</ele>
        <time>2017-09-17T07:55:58Z</time>
      </trkpt>
      <trkpt lat="49.27392" lon="1.14113">
        <ele>247.3</ele>
        <time>2017-09-17T07:56:00Z</time>
      </trkpt>
      <trkpt lat="49.27399" lon="1.14099">
        <ele>247</ele>
        <time>2017-09-17T07:56:02Z</time>
      </trkpt>
      <trkpt lat="49.27406" lon="1.14082">
        <ele>246.8</ele>
        <time>2017-09-17T07:56:04Z</time>
      </trkpt>
      <trkpt lat="49.27411" lon="1.14063">
        <ele>246.8</ele>
        <time>2017-09-17T07:56:06Z</time>
      </trkpt>
      <trkpt lat="49.27415" lon="1.14043">
        <ele>246.7</ele>
        <time>2017-09-17T07:56:08Z</time>
      </trkpt>
      <trkpt lat="49.27421" lon="1.14022">
        <ele>246.6</ele>
        <time>2017-09-17T07:56:10Z</time>
      </trkpt>
      <trkpt lat="49.27425" lon="1.14">
        <ele>246.3</ele>
        <time>2017-09-17T07:56:12Z</time>
      </trkpt>
      <trkpt lat="49.27429" lon="1.13977">
        <ele>245.9</ele>
        <time>2017-09-17T07:56:14Z</time>
      </trkpt>
      <trkpt lat="49.27433" lon="1.13953">
        <ele>245.5</ele>
        <time>2017-09-17T07:56:16Z</time>
      </trkpt>
      <trkpt lat="49.27438" lon="1.13929">
        <ele>245.2</ele>
        <time>2017-09-17T07:56:18Z</time>
      </trkpt>
      <trkpt lat="49.2744" lon="1.13906">
        <ele>245</ele>
        <time>2017-09-17T07:56:20Z</time>
      </trkpt>
      <trkpt lat="49.27443" lon="1.13884">
        <ele>244.8</ele>
        <time>2017-09-17T07:56:22Z</time>
      </trkpt>
      <trkpt lat="49.27446" lon="1.13864">
        <ele>244.7</ele>
        <time>2017-09-17T07:56:24Z</time>
      </trkpt>
      <trkpt lat="49.27448" lon="1.13845">
        <ele>244.9</ele>
        <time>2017-09-17T07:56:26Z</time>
      </trkpt>
      <trkpt lat="49.27449" lon="1.13827">
        <ele>245.3</ele>
        <time>2017-09-17T07:56:28Z</time>
      </trkpt>
      <trkpt lat="49.27452" lon="1.13809">
        <ele>245.5</ele>
        <time>2017-09-17T07:56:30Z</time>
      </trkpt>
      <trkpt lat="49.27455" lon="1.13791">
        <ele>245.8</ele>
        <time>2017-09-17T07:56:32Z</time>
      </trkpt>
      <trkpt lat="49.27457" lon="1.13774">
        <ele>246.3</ele>
        <time>2017-09-17T07:56:34Z</time>
      </trkpt>
      <trkpt lat="49.27459" lon="1.13756">
        <ele>246.7</ele>
        <time>2017-09-17T07:56:36Z</time>
      </trkpt>
      <trkpt lat="49.27461" lon="1.13739">
        <ele>247.2</ele>
        <time>2017-09-17T07:56:38Z</time>
      </trkpt>
      <trkpt lat="49.27463" lon="1.13721">
        <ele>247.6</ele>
        <time>2017-09-17T07:56:40Z</time>
      </trkpt>
      <trkpt lat="49.27466" lon="1.13704">
        <ele>248</ele>
        <time>2017-09-17T07:56:42Z</time>
      </trkpt>
      <trkpt lat="49.27468" lon="1.13689">
        <ele>248.2</ele>
        <time>2017-09-17T07:56:44Z</time>
      </trkpt>
      <trkpt lat="49.27472" lon="1.13672">
        <ele>248.4</ele>
        <time>2017-09-17T07:56:47Z</time>
      </trkpt>
      <trkpt lat="49.27482" lon="1.13674">
        <ele>248.3</ele>
        <time>2017-09-17T07:56:50Z</time>
      </trkpt>
      <trkpt lat="49.27496" lon="1.13679">
        <ele>248.3</ele>
        <time>2017-09-17T07:56:53Z</time>
      </trkpt>
      <trkpt lat="49.27505" lon="1.13682">
        <ele>248</ele>
        <time>2017-09-17T07:56:55Z</time>
      </trkpt>
      <trkpt lat="49.27515" lon="1.13686">
        <ele>248</ele>
        <time>2017-09-17T07:56:57Z</time>
      </trkpt>
      <trkpt lat="49.27524" lon="1.13688">
        <ele>247.9</ele>
        <time>2017-09-17T07:56:59Z</time>
      </trkpt>
      <trkpt lat="49.27534" lon="1.1369">
        <ele>247.8</ele>
        <time>2017-09-17T07:57:01Z</time>
      </trkpt>
      <trkpt lat="49.27543" lon="1.13694">
        <ele>247.8</ele>
        <time>2017-09-17T07:57:03Z</time>
      </trkpt>
      <trkpt lat="49.27556" lon="1.13696">
        <ele>247.4</ele>
        <time>2017-09-17T07:57:06Z</time>
      </trkpt>
      <trkpt lat="49.27566" lon="1.13698">
        <ele>247.1</ele>
        <time>2017-09-17T07:57:08Z</time>
      </trkpt>
      <trkpt lat="49.27579" lon="1.13702">
        <ele>246.9</ele>
        <time>2017-09-17T07:57:11Z</time>
      </trkpt>
      <trkpt lat="49.27591" lon="1.13705">
        <ele>246.7</ele>
        <time>2017-09-17T07:57:14Z</time>
      </trkpt>
      <trkpt lat="49.27604" lon="1.13708">
        <ele>246.3</ele>
        <time>2017-09-17T07:57:17Z</time>
      </trkpt>
      <trkpt lat="49.27613" lon="1.1371">
        <ele>246.2</ele>
        <time>2017-09-17T07:57:19Z</time>
      </trkpt>
      <trkpt lat="49.27627" lon="1.13714">
        <ele>246</ele>
        <time>2017-09-17T07:57:22Z</time>
      </trkpt>
      <trkpt lat="49.27636" lon="1.13716">
        <ele>245.8</ele>
        <time>2017-09-17T07:57:24Z</time>
      </trkpt>
      <trkpt lat="49.2765" lon="1.13719">
        <ele>245.7</ele>
        <time>2017-09-17T07:57:27Z</time>
      </trkpt>
      <trkpt lat="49.27659" lon="1.13721">
        <ele>245.6</ele>
        <time>2017-09-17T07:57:29Z</time>
      </trkpt>
      <trkpt lat="49.27668" lon="1.13723">
        <ele>245.6</ele>
        <time>2017-09-17T07:57:31Z</time>
      </trkpt>
      <trkpt lat="49.2768" lon="1.13725">
        <ele>245.3</ele>
        <time>2017-09-17T07:57:34Z</time>
      </trkpt>
      <trkpt lat="49.27693" lon="1.13729">
        <ele>244.9</ele>
        <time>2017-09-17T07:57:37Z</time>
      </trkpt>
      <trkpt lat="49.27702" lon="1.13731">
        <ele>244.7</ele>
        <time>2017-09-17T07:57:39Z</time>
      </trkpt>
      <trkpt lat="49.27712" lon="1.13734">
        <ele>244.5</ele>
        <time>2017-09-17T07:57:41Z</time>
      </trkpt>
      <trkpt lat="49.27722" lon="1.13737">
        <ele>244.2</ele>
        <time>2017-09-17T07:57:43Z</time>
      </trkpt>
      <trkpt lat="49.27732" lon="1.13739">
        <ele>243.9</ele>
        <time>2017-09-17T07:57:45Z</time>
      </trkpt>
      <trkpt lat="49.27743" lon="1.13742">
        <ele>243.9</ele>
        <time>2017-09-17T07:57:47Z</time>
      </trkpt>
      <trkpt lat="49.27753" lon="1.13745">
        <ele>243.6</ele>
        <time>2017-09-17T07:57:49Z</time>
      </trkpt>
      <trkpt lat="49.27763" lon="1.13747">
        <ele>243.2</ele>
        <time>2017-09-17T07:57:51Z</time>
      </trkpt>
      <trkpt lat="49.27773" lon="1.13751">
        <ele>242.5</ele>
        <time>2017-09-17T07:57:53Z</time>
      </trkpt>
      <trkpt lat="49.27783" lon="1.13755">
        <ele>242.2</ele>
        <time>2017-09-17T07:57:55Z</time>
      </trkpt>
      <trkpt lat="49.27792" lon="1.13758">
        <ele>242.2</ele>
        <time>2017-09-17T07:57:57Z</time>
      </trkpt>
      <trkpt lat="49.27802" lon="1.13763">
        <ele>241.7</ele>
        <time>2017-09-17T07:57:59Z</time>
      </trkpt>
      <trkpt lat="49.27813" lon="1.13767">
        <ele>241.2</ele>
        <time>2017-09-17T07:58:01Z</time>
      </trkpt>
      <trkpt lat="49.27824" lon="1.13772">
        <ele>240.6</ele>
        <time>2017-09-17T07:58:03Z</time>
      </trkpt>
      <trkpt lat="49.27835" lon="1.13777">
        <ele>240</ele>
        <time>2017-09-17T07:58:05Z</time>
      </trkpt>
      <trkpt lat="49.27845" lon="1.13781">
        <ele>239.3</ele>
        <time>2017-09-17T07:58:07Z</time>
      </trkpt>
      <trkpt lat="49.27851" lon="1.13791">
        <ele>238.2</ele>
        <time>2017-09-17T07:58:10Z</time>
      </trkpt>
      <trkpt lat="49.27853" lon="1.13807">
        <ele>237.3</ele>
        <time>2017-09-17T07:58:13Z</time>
      </trkpt>
      <trkpt lat="49.27853" lon="1.13824">
        <ele>236.6</ele>
        <time>2017-09-17T07:58:16Z</time>
      </trkpt>
      <trkpt lat="49.27851" lon="1.13844">
        <ele>236</ele>
        <time>2017-09-17T07:58:19Z</time>
      </trkpt>
      <trkpt lat="49.2785" lon="1.13858">
        <ele>235.1</ele>
        <time>2017-09-17T07:58:21Z</time>
      </trkpt>
      <trkpt lat="49.27849" lon="1.13873">
        <ele>234.1</ele>
        <time>2017-09-17T07:58:23Z</time>
      </trkpt>
      <trkpt lat="49.27847" lon="1.13887">
        <ele>233.4</ele>
        <time>2017-09-17T07:58:25Z</time>
      </trkpt>
      <trkpt lat="49.27845" lon="1.13901">
        <ele>232.9</ele>
        <time>2017-09-17T07:58:27Z</time>
      </trkpt>
      <trkpt lat="49.27844" lon="1.13914">
        <ele>232.4</ele>
        <time>2017-09-17T07:58:29Z</time>
      </trkpt>
      <trkpt lat="49.27842" lon="1.13934">
        <ele>231.2</ele>
        <time>2017-09-17T07:58:32Z</time>
      </trkpt>
      <trkpt lat="49.27839" lon="1.13953">
        <ele>230.3</ele>
        <time>2017-09-17T07:58:35Z</time>
      </trkpt>
      <trkpt lat="49.27838" lon="1.13971">
        <ele>228.9</ele>
        <time>2017-09-17T07:58:38Z</time>
      </trkpt>
      <trkpt lat="49.27837" lon="1.13987">
        <ele>227.7</ele>
        <time>2017-09-17T07:58:41Z</time>
      </trkpt>
      <trkpt lat="49.27836" lon="1.14003">
        <ele>226.4</ele>
        <time>2017-09-17T07:58:44Z</time>
      </trkpt>
      <trkpt lat="49.27835" lon="1.14019">
        <ele>224.6</ele>
        <time>2017-09-17T07:58:47Z</time>
      </trkpt>
      <trkpt lat="49.27836" lon="1.14035">
        <ele>219.6</ele>
        <time>2017-09-17T07:59:07Z</time>
      </trkpt>
      <trkpt lat="49.27835" lon="1.14049">
        <ele>219.3</ele>
        <time>2017-09-17T07:59:10Z</time>
      </trkpt>
      <trkpt lat="49.27843" lon="1.14063">
        <ele>218.6</ele>
        <time>2017-09-17T07:59:13Z</time>
      </trkpt>
      <trkpt lat="49.27851" lon="1.14071">
        <ele>218.1</ele>
        <time>2017-09-17T07:59:15Z</time>
      </trkpt>
      <trkpt lat="49.2786" lon="1.14077">
        <ele>217.7</ele>
        <time>2017-09-17T07:59:17Z</time>
      </trkpt>
      <trkpt lat="49.27872" lon="1.14084">
        <ele>216.9</ele>
        <time>2017-09-17T07:59:20Z</time>
      </trkpt>
      <trkpt lat="49.2788" lon="1.14088">
        <ele>216.5</ele>
        <time>2017-09-17T07:59:22Z</time>
      </trkpt>
      <trkpt lat="49.27891" lon="1.1409">
        <ele>215.9</ele>
        <time>2017-09-17T07:59:24Z</time>
      </trkpt>
      <trkpt lat="49.27901" lon="1.14093">
        <ele>215.6</ele>
        <time>2017-09-17T07:59:26Z</time>
      </trkpt>
      <trkpt lat="49.27912" lon="1.14094">
        <ele>215.3</ele>
        <time>2017-09-17T07:59:28Z</time>
      </trkpt>
      <trkpt lat="49.27922" lon="1.14096">
        <ele>215</ele>
        <time>2017-09-17T07:59:30Z</time>
      </trkpt>
      <trkpt lat="49.27934" lon="1.141">
        <ele>214.6</ele>
        <time>2017-09-17T07:59:32Z</time>
      </trkpt>
      <trkpt lat="49.2795" lon="1.14108">
        <ele>213.9</ele>
        <time>2017-09-17T07:59:35Z</time>
      </trkpt>
      <trkpt lat="49.27961" lon="1.14117">
        <ele>213.6</ele>
        <time>2017-09-17T07:59:37Z</time>
      </trkpt>
      <trkpt lat="49.27971" lon="1.14128">
        <ele>213.1</ele>
        <time>2017-09-17T07:59:39Z</time>
      </trkpt>
      <trkpt lat="49.27981" lon="1.14141">
        <ele>212.2</ele>
        <time>2017-09-17T07:59:41Z</time>
      </trkpt>
      <trkpt lat="49.27992" lon="1.14154">
        <ele>211.8</ele>
        <time>2017-09-17T07:59:43Z</time>
      </trkpt>
      <trkpt lat="49.28004" lon="1.14168">
        <ele>211.2</ele>
        <time>2017-09-17T07:59:45Z</time>
      </trkpt>
      <trkpt lat="49.28015" lon="1.14183">
        <ele>211</ele>
        <time>2017-09-17T07:59:47Z</time>
      </trkpt>
      <trkpt lat="49.28025" lon="1.14197">
        <ele>210.3</ele>
        <time>2017-09-17T07:59:49Z</time>
      </trkpt>
      <trkpt lat="49.28038" lon="1.14212">
        <ele>209.5</ele>
        <time>2017-09-17T07:59:51Z</time>
      </trkpt>
      <trkpt lat="49.28049" lon="1.14228">
        <ele>208.9</ele>
        <time>2017-09-17T07:59:53Z</time>
      </trkpt>
      <trkpt lat="49.28061" lon="1.14243">
        <ele>208.4</ele>
        <time>2017-09-17T07:59:55Z</time>
      </trkpt>
      <trkpt lat="49.28074" lon="1.14259">
        <ele>207.9</ele>
        <time>2017-09-17T07:59:57Z</time>
      </trkpt>
      <trkpt lat="49.28087" lon="1.14274">
        <ele>207.5</ele>
        <time>2017-09-17T07:59:59Z</time>
      </trkpt>
      <trkpt lat="49.281" lon="1.1429">
        <ele>206.8</ele>
        <time>2017-09-17T08:00:01Z</time>
      </trkpt>
      <trkpt lat="49.28113" lon="1.14304">
        <ele>206.3</ele>
        <time>2017-09-17T08:00:03Z</time>
      </trkpt>
      <trkpt lat="49.28126" lon="1.14317">
        <ele>205.8</ele>
        <time>2017-09-17T08:00:05Z</time>
      </trkpt>
      <trkpt lat="49.28139" lon="1.14329">
        <ele>205.1</ele>
        <time>2017-09-17T08:00:07Z</time>
      </trkpt>
      <trkpt lat="49.28153" lon="1.14341">
        <ele>204.3</ele>
        <time>2017-09-17T08:00:09Z</time>
      </trkpt>
      <trkpt lat="49.28164" lon="1.14352">
        <ele>203.6</ele>
        <time>2017-09-17T08:00:11Z</time>
      </trkpt>
      <trkpt lat="49.28175" lon="1.1436">
        <ele>202.8</ele>
        <time>2017-09-17T08:00:13Z</time>
      </trkpt>
      <trkpt lat="49.28186" lon="1.14367">
        <ele>202.3</ele>
        <time>2017-09-17T08:00:15Z</time>
      </trkpt>
      <trkpt lat="49.28195" lon="1.1437">
        <ele>201.6</ele>
        <time>2017-09-17T08:00:17Z</time>
      </trkpt>
      <trkpt lat="49.28205" lon="1.14378">
        <ele>200.1</ele>
        <time>2017-09-17T08:00:20Z</time>
      </trkpt>
      <trkpt lat="49.2821" lon="1.14393">
        <ele>198.9</ele>
        <time>2017-09-17T08:00:24Z</time>
      </trkpt>
      <trkpt lat="49.28215" lon="1.14408">
        <ele>199.1</ele>
        <time>2017-09-17T08:00:28Z</time>
      </trkpt>
      <trkpt lat="49.28217" lon="1.14424">
        <ele>200.6</ele>
        <time>2017-09-17T08:00:34Z</time>
      </trkpt>
      <trkpt lat="49.28221" lon="1.14436">
        <ele>202.6</ele>
        <time>2017-09-17T08:00:40Z</time>
      </trkpt>
      <trkpt lat="49.28222" lon="1.14451">
        <ele>205.4</ele>
        <time>2017-09-17T08:00:46Z</time>
      </trkpt>
      <trkpt lat="49.28223" lon="1.14466">
        <ele>207.3</ele>
        <time>2017-09-17T08:00:51Z</time>
      </trkpt>
      <trkpt lat="49.28223" lon="1.14481">
        <ele>209.6</ele>
        <time>2017-09-17T08:00:57Z</time>
      </trkpt>
      <trkpt lat="49.28222" lon="1.14495">
        <ele>212.1</ele>
        <time>2017-09-17T08:01:05Z</time>
      </trkpt>
      <trkpt lat="49.28224" lon="1.1451">
        <ele>214.3</ele>
        <time>2017-09-17T08:01:13Z</time>
      </trkpt>
      <trkpt lat="49.28227" lon="1.14524">
        <ele>216.1</ele>
        <time>2017-09-17T08:01:20Z</time>
      </trkpt>
      <trkpt lat="49.28226" lon="1.14538">
        <ele>217.8</ele>
        <time>2017-09-17T08:01:28Z</time>
      </trkpt>
      <trkpt lat="49.28223" lon="1.14554">
        <ele>219.6</ele>
        <time>2017-09-17T08:01:36Z</time>
      </trkpt>
      <trkpt lat="49.28221" lon="1.14569">
        <ele>220.7</ele>
        <time>2017-09-17T08:01:41Z</time>
      </trkpt>
      <trkpt lat="49.28218" lon="1.14585">
        <ele>221.4</ele>
        <time>2017-09-17T08:01:46Z</time>
      </trkpt>
      <trkpt lat="49.28216" lon="1.14601">
        <ele>222.4</ele>
        <time>2017-09-17T08:01:51Z</time>
      </trkpt>
      <trkpt lat="49.28216" lon="1.14617">
        <ele>222.9</ele>
        <time>2017-09-17T08:01:55Z</time>
      </trkpt>
      <trkpt lat="49.28215" lon="1.14631">
        <ele>223.4</ele>
        <time>2017-09-17T08:01:59Z</time>
      </trkpt>
      <trkpt lat="49.28216" lon="1.1465">
        <ele>224.1</ele>
        <time>2017-09-17T08:02:03Z</time>
      </trkpt>
      <trkpt lat="49.28215" lon="1.14664">
        <ele>224.6</ele>
        <time>2017-09-17T08:02:06Z</time>
      </trkpt>
      <trkpt lat="49.28215" lon="1.14679">
        <ele>225.1</ele>
        <time>2017-09-17T08:02:10Z</time>
      </trkpt>
      <trkpt lat="49.28211" lon="1.14693">
        <ele>225.7</ele>
        <time>2017-09-17T08:02:13Z</time>
      </trkpt>
      <trkpt lat="49.28209" lon="1.14707">
        <ele>225.9</ele>
        <time>2017-09-17T08:02:16Z</time>
      </trkpt>
      <trkpt lat="49.28209" lon="1.14723">
        <ele>226.3</ele>
        <time>2017-09-17T08:02:19Z</time>
      </trkpt>
      <trkpt lat="49.28207" lon="1.14737">
        <ele>226.8</ele>
        <time>2017-09-17T08:02:22Z</time>
      </trkpt>
      <trkpt lat="49.28207" lon="1.14755">
        <ele>227.2</ele>
        <time>2017-09-17T08:02:25Z</time>
      </trkpt>
      <trkpt lat="49.28207" lon="1.14774">
        <ele>227.3</ele>
        <time>2017-09-17T08:02:28Z</time>
      </trkpt>
      <trkpt lat="49.28205" lon="1.14788">
        <ele>227.4</ele>
        <time>2017-09-17T08:02:30Z</time>
      </trkpt>
      <trkpt lat="49.28204" lon="1.14802">
        <ele>227.4</ele>
        <time>2017-09-17T08:02:32Z</time>
      </trkpt>
      <trkpt lat="49.28199" lon="1.14821">
        <ele>227.8</ele>
        <time>2017-09-17T08:02:35Z</time>
      </trkpt>
      <trkpt lat="49.28196" lon="1.14839">
        <ele>228.2</ele>
        <time>2017-09-17T08:02:38Z</time>
      </trkpt>
      <trkpt lat="49.28196" lon="1.14856">
        <ele>228.4</ele>
        <time>2017-09-17T08:02:41Z</time>
      </trkpt>
      <trkpt lat="49.28194" lon="1.14871">
        <ele>228.5</ele>
        <time>2017-09-17T08:02:44Z</time>
      </trkpt>
      <trkpt lat="49.28194" lon="1.14886">
        <ele>228.6</ele>
        <time>2017-09-17T08:02:47Z</time>
      </trkpt>
      <trkpt lat="49.28192" lon="1.14905">
        <ele>228.8</ele>
        <time>2017-09-17T08:02:50Z</time>
      </trkpt>
      <trkpt lat="49.2819" lon="1.1492">
        <ele>228.8</ele>
        <time>2017-09-17T08:02:53Z</time>
      </trkpt>
      <trkpt lat="49.28188" lon="1.14937">
        <ele>228.4</ele>
        <time>2017-09-17T08:02:56Z</time>
      </trkpt>
      <trkpt lat="49.28184" lon="1.14953">
        <ele>228.1</ele>
        <time>2017-09-17T08:02:58Z</time>
      </trkpt>
      <trkpt lat="49.28181" lon="1.14973">
        <ele>226.8</ele>
        <time>2017-09-17T08:03:01Z</time>
      </trkpt>
      <trkpt lat="49.28178" lon="1.14989">
        <ele>225.9</ele>
        <time>2017-09-17T08:03:03Z</time>
      </trkpt>
      <trkpt lat="49.28177" lon="1.15007">
        <ele>225.4</ele>
        <time>2017-09-17T08:03:05Z</time>
      </trkpt>
      <trkpt lat="49.28178" lon="1.15023">
        <ele>225.1</ele>
        <time>2017-09-17T08:03:07Z</time>
      </trkpt>
      <trkpt lat="49.28176" lon="1.15038">
        <ele>225.6</ele>
        <time>2017-09-17T08:03:09Z</time>
      </trkpt>
      <trkpt lat="49.28178" lon="1.15056">
        <ele>226.4</ele>
        <time>2017-09-17T08:03:12Z</time>
      </trkpt>
      <trkpt lat="49.28176" lon="1.15073">
        <ele>227</ele>
        <time>2017-09-17T08:03:15Z</time>
      </trkpt>
      <trkpt lat="49.28177" lon="1.1509">
        <ele>227.6</ele>
        <time>2017-09-17T08:03:18Z</time>
      </trkpt>
      <trkpt lat="49.28176" lon="1.15106">
        <ele>228</ele>
        <time>2017-09-17T08:03:21Z</time>
      </trkpt>
      <trkpt lat="49.28174" lon="1.15125">
        <ele>228.4</ele>
        <time>2017-09-17T08:03:24Z</time>
      </trkpt>
      <trkpt lat="49.28172" lon="1.15143">
        <ele>228.8</ele>
        <time>2017-09-17T08:03:27Z</time>
      </trkpt>
      <trkpt lat="49.2817" lon="1.15162">
        <ele>229.3</ele>
        <time>2017-09-17T08:03:30Z</time>
      </trkpt>
      <trkpt lat="49.28169" lon="1.15183">
        <ele>229.8</ele>
        <time>2017-09-17T08:03:33Z</time>
      </trkpt>
      <trkpt lat="49.28168" lon="1.15197">
        <ele>230.1</ele>
        <time>2017-09-17T08:03:35Z</time>
      </trkpt>
      <trkpt lat="49.28166" lon="1.15211">
        <ele>230.2</ele>
        <time>2017-09-17T08:03:37Z</time>
      </trkpt>
      <trkpt lat="49.28164" lon="1.15227">
        <ele>230.3</ele>
        <time>2017-09-17T08:03:39Z</time>
      </trkpt>
      <trkpt lat="49.28162" lon="1.15243">
        <ele>230.5</ele>
        <time>2017-09-17T08:03:41Z</time>
      </trkpt>
      <trkpt lat="49.28162" lon="1.1526">
        <ele>230.7</ele>
        <time>2017-09-17T08:03:43Z</time>
      </trkpt>
      <trkpt lat="49.2816" lon="1.15277">
        <ele>230.8</ele>
        <time>2017-09-17T08:03:45Z</time>
      </trkpt>
      <trkpt lat="49.28159" lon="1.15293">
        <ele>230.6</ele>
        <time>2017-09-17T08:03:47Z</time>
      </trkpt>
      <trkpt lat="49.28157" lon="1.15309">
        <ele>230.6</ele>
        <time>2017-09-17T08:03:49Z</time>
      </trkpt>
      <trkpt lat="49.28157" lon="1.15324">
        <ele>230.8</ele>
        <time>2017-09-17T08:03:51Z</time>
      </trkpt>
      <trkpt lat="49.28153" lon="1.15337">
        <ele>230.8</ele>
        <time>2017-09-17T08:03:53Z</time>
      </trkpt>
      <trkpt lat="49.28143" lon="1.15341">
        <ele>230.7</ele>
        <time>2017-09-17T08:03:56Z</time>
      </trkpt>
      <trkpt lat="49.28132" lon="1.15339">
        <ele>231.5</ele>
        <time>2017-09-17T08:04:00Z</time>
      </trkpt>
      <trkpt lat="49.28122" lon="1.15336">
        <ele>232.7</ele>
        <time>2017-09-17T08:04:04Z</time>
      </trkpt>
      <trkpt lat="49.28112" lon="1.15332">
        <ele>233.8</ele>
        <time>2017-09-17T08:04:08Z</time>
      </trkpt>
      <trkpt lat="49.28101" lon="1.15329">
        <ele>235.2</ele>
        <time>2017-09-17T08:04:12Z</time>
      </trkpt>
      <trkpt lat="49.28091" lon="1.15324">
        <ele>236.4</ele>
        <time>2017-09-17T08:04:16Z</time>
      </trkpt>
      <trkpt lat="49.2808" lon="1.1532">
        <ele>237.5</ele>
        <time>2017-09-17T08:04:20Z</time>
      </trkpt>
      <trkpt lat="49.28069" lon="1.15316">
        <ele>238.4</ele>
        <time>2017-09-17T08:04:24Z</time>
      </trkpt>
      <trkpt lat="49.28058" lon="1.15312">
        <ele>239.3</ele>
        <time>2017-09-17T08:04:28Z</time>
      </trkpt>
      <trkpt lat="49.28047" lon="1.15308">
        <ele>240.3</ele>
        <time>2017-09-17T08:04:32Z</time>
      </trkpt>
      <trkpt lat="49.28038" lon="1.15304">
        <ele>241</ele>
        <time>2017-09-17T08:04:35Z</time>
      </trkpt>
      <trkpt lat="49.28026" lon="1.15299">
        <ele>241.9</ele>
        <time>2017-09-17T08:04:39Z</time>
      </trkpt>
      <trkpt lat="49.28017" lon="1.15294">
        <ele>242.6</ele>
        <time>2017-09-17T08:04:42Z</time>
      </trkpt>
      <trkpt lat="49.28006" lon="1.15288">
        <ele>243.3</ele>
        <time>2017-09-17T08:04:46Z</time>
      </trkpt>
      <trkpt lat="49.27996" lon="1.15285">
        <ele>243.8</ele>
        <time>2017-09-17T08:04:49Z</time>
      </trkpt>
      <trkpt lat="49.27986" lon="1.15282">
        <ele>244.4</ele>
        <time>2017-09-17T08:04:52Z</time>
      </trkpt>
      <trkpt lat="49.27977" lon="1.15278">
        <ele>244.7</ele>
        <time>2017-09-17T08:04:55Z</time>
      </trkpt>
      <trkpt lat="49.27967" lon="1.15274">
        <ele>245.4</ele>
        <time>2017-09-17T08:04:58Z</time>
      </trkpt>
      <trkpt lat="49.27957" lon="1.15268">
        <ele>245.9</ele>
        <time>2017-09-17T08:05:01Z</time>
      </trkpt>
      <trkpt lat="49.27948" lon="1.15264">
        <ele>246.5</ele>
        <time>2017-09-17T08:05:04Z</time>
      </trkpt>
      <trkpt lat="49.27938" lon="1.1526">
        <ele>247</ele>
        <time>2017-09-17T08:05:07Z</time>
      </trkpt>
      <trkpt lat="49.27929" lon="1.15255">
        <ele>247.7</ele>
        <time>2017-09-17T08:05:10Z</time>
      </trkpt>
      <trkpt lat="49.27917" lon="1.15248">
        <ele>248.4</ele>
        <time>2017-09-17T08:05:14Z</time>
      </trkpt>
      <trkpt lat="49.27907" lon="1.15243">
        <ele>248.7</ele>
        <time>2017-09-17T08:05:17Z</time>
      </trkpt>
      <trkpt lat="49.27898" lon="1.15239">
        <ele>248.9</ele>
        <time>2017-09-17T08:05:19Z</time>
      </trkpt>
      <trkpt lat="49.27886" lon="1.15232">
        <ele>249.4</ele>
        <time>2017-09-17T08:05:22Z</time>
      </trkpt>
      <trkpt lat="49.27877" lon="1.1523">
        <ele>249.6</ele>
        <time>2017-09-17T08:05:24Z</time>
      </trkpt>
      <trkpt lat="49.27866" lon="1.15224">
        <ele>249.8</ele>
        <time>2017-09-17T08:05:27Z</time>
      </trkpt>
      <trkpt lat="49.27855" lon="1.15219">
        <ele>250</ele>
        <time>2017-09-17T08:05:30Z</time>
      </trkpt>
      <trkpt lat="49.27845" lon="1.15216">
        <ele>250.2</ele>
        <time>2017-09-17T08:05:32Z</time>
      </trkpt>
      <trkpt lat="49.27836" lon="1.15212">
        <ele>250.3</ele>
        <time>2017-09-17T08:05:34Z</time>
      </trkpt>
      <trkpt lat="49.27827" lon="1.15207">
        <ele>250.4</ele>
        <time>2017-09-17T08:05:36Z</time>
      </trkpt>
      <trkpt lat="49.27818" lon="1.15204">
        <ele>250.6</ele>
        <time>2017-09-17T08:05:38Z</time>
      </trkpt>
      <trkpt lat="49.27808" lon="1.152">
        <ele>250.7</ele>
        <time>2017-09-17T08:05:40Z</time>
      </trkpt>
      <trkpt lat="49.27796" lon="1.15194">
        <ele>251.1</ele>
        <time>2017-09-17T08:05:43Z</time>
      </trkpt>
      <trkpt lat="49.27784" lon="1.15189">
        <ele>251.4</ele>
        <time>2017-09-17T08:05:46Z</time>
      </trkpt>
      <trkpt lat="49.27774" lon="1.15186">
        <ele>251.6</ele>
        <time>2017-09-17T08:05:48Z</time>
      </trkpt>
      <trkpt lat="49.27761" lon="1.1518">
        <ele>251.9</ele>
        <time>2017-09-17T08:05:51Z</time>
      </trkpt>
      <trkpt lat="49.27751" lon="1.15173">
        <ele>252</ele>
        <time>2017-09-17T08:05:53Z</time>
      </trkpt>
      <trkpt lat="49.27741" lon="1.1517">
        <ele>252.3</ele>
        <time>2017-09-17T08:05:55Z</time>
      </trkpt>
      <trkpt lat="49.27731" lon="1.15165">
        <ele>252.5</ele>
        <time>2017-09-17T08:05:57Z</time>
      </trkpt>
      <trkpt lat="49.27721" lon="1.15155">
        <ele>252.4</ele>
        <time>2017-09-17T08:06:00Z</time>
      </trkpt>
      <trkpt lat="49.2772" lon="1.15136">
        <ele>252.5</ele>
        <time>2017-09-17T08:06:03Z</time>
      </trkpt>
      <trkpt lat="49.27723" lon="1.15122">
        <ele>252.2</ele>
        <time>2017-09-17T08:06:05Z</time>
      </trkpt>
      <trkpt lat="49.27724" lon="1.15104">
        <ele>252.2</ele>
        <time>2017-09-17T08:06:07Z</time>
      </trkpt>
      <trkpt lat="49.27726" lon="1.1509">
        <ele>252.3</ele>
        <time>2017-09-17T08:06:09Z</time>
      </trkpt>
      <trkpt lat="49.27727" lon="1.15075">
        <ele>252.3</ele>
        <time>2017-09-17T08:06:11Z</time>
      </trkpt>
      <trkpt lat="49.27728" lon="1.15058">
        <ele>252.3</ele>
        <time>2017-09-17T08:06:13Z</time>
      </trkpt>
      <trkpt lat="49.27729" lon="1.15042">
        <ele>252.2</ele>
        <time>2017-09-17T08:06:15Z</time>
      </trkpt>
      <trkpt lat="49.2773" lon="1.15025">
        <ele>252.4</ele>
        <time>2017-09-17T08:06:17Z</time>
      </trkpt>
      <trkpt lat="49.27732" lon="1.15009">
        <ele>252.4</ele>
        <time>2017-09-17T08:06:19Z</time>
      </trkpt>
      <trkpt lat="49.27733" lon="1.14992">
        <ele>252.4</ele>
        <time>2017-09-17T08:06:21Z</time>
      </trkpt>
      <trkpt lat="49.27735" lon="1.14975">
        <ele>252.4</ele>
        <time>2017-09-17T08:06:23Z</time>
      </trkpt>
      <trkpt lat="49.27734" lon="1.14956">
        <ele>252.4</ele>
        <time>2017-09-17T08:06:25Z</time>
      </trkpt>
      <trkpt lat="49.27735" lon="1.14938">
        <ele>252.6</ele>
        <time>2017-09-17T08:06:27Z</time>
      </trkpt>
      <trkpt lat="49.27737" lon="1.14921">
        <ele>252.4</ele>
        <time>2017-09-17T08:06:29Z</time>
      </trkpt>
      <trkpt lat="49.27738" lon="1.14904">
        <ele>252.2</ele>
        <time>2017-09-17T08:06:31Z</time>
      </trkpt>
      <trkpt lat="49.2774" lon="1.14887">
        <ele>252.2</ele>
        <time>2017-09-17T08:06:33Z</time>
      </trkpt>
      <trkpt lat="49.27742" lon="1.14869">
        <ele>252.2</ele>
        <time>2017-09-17T08:06:35Z</time>
      </trkpt>
      <trkpt lat="49.27744" lon="1.14851">
        <ele>252.1</ele>
        <time>2017-09-17T08:06:37Z</time>
      </trkpt>
      <trkpt lat="49.27746" lon="1.14833">
        <ele>251.8</ele>
        <time>2017-09-17T08:06:39Z</time>
      </trkpt>
      <trkpt lat="49.27748" lon="1.14815">
        <ele>251.6</ele>
        <time>2017-09-17T08:06:41Z</time>
      </trkpt>
      <trkpt lat="49.2775" lon="1.14796">
        <ele>251.5</ele>
        <time>2017-09-17T08:06:43Z</time>
      </trkpt>
      <trkpt lat="49.27751" lon="1.14778">
        <ele>251.5</ele>
        <time>2017-09-17T08:06:45Z</time>
      </trkpt>
      <trkpt lat="49.27751" lon="1.14759">
        <ele>251.5</ele>
        <time>2017-09-17T08:06:47Z</time>
      </trkpt>
      <trkpt lat="49.27755" lon="1.14742">
        <ele>251.4</ele>
        <time>2017-09-17T08:06:49Z</time>
      </trkpt>
      <trkpt lat="49.27758" lon="1.14726">
        <ele>251.1</ele>
        <time>2017-09-17T08:06:51Z</time>
      </trkpt>
      <trkpt lat="49.27759" lon="1.14708">
        <ele>250.7</ele>
        <time>2017-09-17T08:06:53Z</time>
      </trkpt>
      <trkpt lat="49.27762" lon="1.14691">
        <ele>250.7</ele>
        <time>2017-09-17T08:06:55Z</time>
      </trkpt>
      <trkpt lat="49.27765" lon="1.14674">
        <ele>250.7</ele>
        <time>2017-09-17T08:06:57Z</time>
      </trkpt>
      <trkpt lat="49.27769" lon="1.14656">
        <ele>250.5</ele>
        <time>2017-09-17T08:06:59Z</time>
      </trkpt>
      <trkpt lat="49.27773" lon="1.1464">
        <ele>250.6</ele>
        <time>2017-09-17T08:07:01Z</time>
      </trkpt>
      <trkpt lat="49.27773" lon="1.14619">
        <ele>250.5</ele>
        <time>2017-09-17T08:07:03Z</time>
      </trkpt>
      <trkpt lat="49.27777" lon="1.14599">
        <ele>250.4</ele>
        <time>2017-09-17T08:07:05Z</time>
      </trkpt>
      <trkpt lat="49.27782" lon="1.14583">
        <ele>250.2</ele>
        <time>2017-09-17T08:07:07Z</time>
      </trkpt>
      <trkpt lat="49.27785" lon="1.14569">
        <ele>250.1</ele>
        <time>2017-09-17T08:07:09Z</time>
      </trkpt>
      <trkpt lat="49.27788" lon="1.14553">
        <ele>250</ele>
        <time>2017-09-17T08:07:11Z</time>
      </trkpt>
      <trkpt lat="49.2779" lon="1.14532">
        <ele>249.7</ele>
        <time>2017-09-17T08:07:13Z</time>
      </trkpt>
      <trkpt lat="49.27794" lon="1.14515">
        <ele>249.4</ele>
        <time>2017-09-17T08:07:15Z</time>
      </trkpt>
      <trkpt lat="49.2779" lon="1.145">
        <ele>249.1</ele>
        <time>2017-09-17T08:07:18Z</time>
      </trkpt>
      <trkpt lat="49.27781" lon="1.14495">
        <ele>248.8</ele>
        <time>2017-09-17T08:07:20Z</time>
      </trkpt>
      <trkpt lat="49.27766" lon="1.14488">
        <ele>248.7</ele>
        <time>2017-09-17T08:07:23Z</time>
      </trkpt>
      <trkpt lat="49.27755" lon="1.14485">
        <ele>248.7</ele>
        <time>2017-09-17T08:07:25Z</time>
      </trkpt>
      <trkpt lat="49.27745" lon="1.14482">
        <ele>248.6</ele>
        <time>2017-09-17T08:07:27Z</time>
      </trkpt>
      <trkpt lat="49.27734" lon="1.14478">
        <ele>248.6</ele>
        <time>2017-09-17T08:07:29Z</time>
      </trkpt>
      <trkpt lat="49.27724" lon="1.14477">
        <ele>248.4</ele>
        <time>2017-09-17T08:07:31Z</time>
      </trkpt>
      <trkpt lat="49.27712" lon="1.14475">
        <ele>248.5</ele>
        <time>2017-09-17T08:07:33Z</time>
      </trkpt>
      <trkpt lat="49.27699" lon="1.1447">
        <ele>248.4</ele>
        <time>2017-09-17T08:07:35Z</time>
      </trkpt>
      <trkpt lat="49.27688" lon="1.14466">
        <ele>248.4</ele>
        <time>2017-09-17T08:07:37Z</time>
      </trkpt>
      <trkpt lat="49.27675" lon="1.14463">
        <ele>248.4</ele>
        <time>2017-09-17T08:07:39Z</time>
      </trkpt>
      <trkpt lat="49.27664" lon="1.1446">
        <ele>248.1</ele>
        <time>2017-09-17T08:07:41Z</time>
      </trkpt>
      <trkpt lat="49.27651" lon="1.14455">
        <ele>247.9</ele>
        <time>2017-09-17T08:07:43Z</time>
      </trkpt>
      <trkpt lat="49.27639" lon="1.14451">
        <ele>247.7</ele>
        <time>2017-09-17T08:07:45Z</time>
      </trkpt>
      <trkpt lat="49.27627" lon="1.14451">
        <ele>247.2</ele>
        <time>2017-09-17T08:07:47Z</time>
      </trkpt>
      <trkpt lat="49.27616" lon="1.14447">
        <ele>246.8</ele>
        <time>2017-09-17T08:07:49Z</time>
      </trkpt>
      <trkpt lat="49.27606" lon="1.14445">
        <ele>246.5</ele>
        <time>2017-09-17T08:07:51Z</time>
      </trkpt>
      <trkpt lat="49.27597" lon="1.14442">
        <ele>246.2</ele>
        <time>2017-09-17T08:07:53Z</time>
      </trkpt>
      <trkpt lat="49.27583" lon="1.14441">
        <ele>245.7</ele>
        <time>2017-09-17T08:07:56Z</time>
      </trkpt>
      <trkpt lat="49.27571" lon="1.14438">
        <ele>245.7</ele>
        <time>2017-09-17T08:07:59Z</time>
      </trkpt>
      <trkpt lat="49.27561" lon="1.14435">
        <ele>245.6</ele>
        <time>2017-09-17T08:08:01Z</time>
      </trkpt>
      <trkpt lat="49.27551" lon="1.14432">
        <ele>245.7</ele>
        <time>2017-09-17T08:08:03Z</time>
      </trkpt>
      <trkpt lat="49.27542" lon="1.14429">
        <ele>245.8</ele>
        <time>2017-09-17T08:08:05Z</time>
      </trkpt>
      <trkpt lat="49.2753" lon="1.14426">
        <ele>246</ele>
        <time>2017-09-17T08:08:08Z</time>
      </trkpt>
      <trkpt lat="49.27521" lon="1.14424">
        <ele>246.2</ele>
        <time>2017-09-17T08:08:10Z</time>
      </trkpt>
      <trkpt lat="49.27509" lon="1.14422">
        <ele>246.3</ele>
        <time>2017-09-17T08:08:13Z</time>
      </trkpt>
      <trkpt lat="49.27497" lon="1.1442">
        <ele>246.3</ele>
        <time>2017-09-17T08:08:16Z</time>
      </trkpt>
      <trkpt lat="49.27488" lon="1.14417">
        <ele>246.7</ele>
        <time>2017-09-17T08:08:19Z</time>
      </trkpt>
      <trkpt lat="49.27476" lon="1.14414">
        <ele>247.2</ele>
        <time>2017-09-17T08:08:22Z</time>
      </trkpt>
      <trkpt lat="49.27467" lon="1.14413">
        <ele>247.3</ele>
        <time>2017-09-17T08:08:24Z</time>
      </trkpt>
      <trkpt lat="49.27454" lon="1.14411">
        <ele>247.6</ele>
        <time>2017-09-17T08:08:27Z</time>
      </trkpt>
      <trkpt lat="49.27443" lon="1.14408">
        <ele>247.7</ele>
        <time>2017-09-17T08:08:29Z</time>
      </trkpt>
      <trkpt lat="49.27434" lon="1.14406">
        <ele>247.8</ele>
        <time>2017-09-17T08:08:31Z</time>
      </trkpt>
      <trkpt lat="49.27423" lon="1.14401">
        <ele>248.1</ele>
        <time>2017-09-17T08:08:34Z</time>
      </trkpt>
      <trkpt lat="49.27413" lon="1.14399">
        <ele>248.4</ele>
        <time>2017-09-17T08:08:38Z</time>
      </trkpt>
      <trkpt lat="49.27407" lon="1.14415">
        <ele>248.8</ele>
        <time>2017-09-17T08:08:43Z</time>
      </trkpt>
      <trkpt lat="49.27407" lon="1.14429">
        <ele>249.2</ele>
        <time>2017-09-17T08:08:46Z</time>
      </trkpt>
      <trkpt lat="49.27407" lon="1.14445">
        <ele>249.6</ele>
        <time>2017-09-17T08:08:49Z</time>
      </trkpt>
      <trkpt lat="49.27403" lon="1.14463">
        <ele>249.7</ele>
        <time>2017-09-17T08:08:52Z</time>
      </trkpt>
      <trkpt lat="49.27401" lon="1.1448">
        <ele>250.1</ele>
        <time>2017-09-17T08:08:55Z</time>
      </trkpt>
      <trkpt lat="49.27397" lon="1.14499">
        <ele>250.4</ele>
        <time>2017-09-17T08:08:58Z</time>
      </trkpt>
      <trkpt lat="49.27396" lon="1.14519">
        <ele>250.7</ele>
        <time>2017-09-17T08:09:01Z</time>
      </trkpt>
      <trkpt lat="49.27393" lon="1.14533">
        <ele>250.9</ele>
        <time>2017-09-17T08:09:03Z</time>
      </trkpt>
      <trkpt lat="49.27384" lon="1.14549">
        <ele>251.1</ele>
        <time>2017-09-17T08:09:06Z</time>
      </trkpt>
      <trkpt lat="49.27373" lon="1.1455">
        <ele>251.2</ele>
        <time>2017-09-17T08:09:08Z</time>
      </trkpt>
      <trkpt lat="49.27361" lon="1.14544">
        <ele>251.5</ele>
        <time>2017-09-17T08:09:11Z</time>
      </trkpt>
      <trkpt lat="49.2735" lon="1.14541">
        <ele>251.1</ele>
        <time>2017-09-17T08:09:14Z</time>
      </trkpt>
      <trkpt lat="49.27336" lon="1.14537">
        <ele>251.5</ele>
        <time>2017-09-17T08:09:17Z</time>
      </trkpt>
      <trkpt lat="49.27323" lon="1.14535">
        <ele>251.7</ele>
        <time>2017-09-17T08:09:19Z</time>
      </trkpt>
      <trkpt lat="49.27313" lon="1.14532">
        <ele>251.2</ele>
        <time>2017-09-17T08:09:21Z</time>
      </trkpt>
      <trkpt lat="49.273" lon="1.14527">
        <ele>251.5</ele>
        <time>2017-09-17T08:09:24Z</time>
      </trkpt>
      <trkpt lat="49.27289" lon="1.14524">
        <ele>251.9</ele>
        <time>2017-09-17T08:09:27Z</time>
      </trkpt>
      <trkpt lat="49.27277" lon="1.14519">
        <ele>251.9</ele>
        <time>2017-09-17T08:09:30Z</time>
      </trkpt>
      <trkpt lat="49.27266" lon="1.14514">
        <ele>251.9</ele>
        <time>2017-09-17T08:09:33Z</time>
      </trkpt>
      <trkpt lat="49.27254" lon="1.1451">
        <ele>251.9</ele>
        <time>2017-09-17T08:09:35Z</time>
      </trkpt>
      <trkpt lat="49.27244" lon="1.14505">
        <ele>251.9</ele>
        <time>2017-09-17T08:09:37Z</time>
      </trkpt>
      <trkpt lat="49.27232" lon="1.145">
        <ele>251.9</ele>
        <time>2017-09-17T08:09:40Z</time>
      </trkpt>
      <trkpt lat="49.27223" lon="1.14496">
        <ele>252</ele>
        <time>2017-09-17T08:09:42Z</time>
      </trkpt>
      <trkpt lat="49.27212" lon="1.14491">
        <ele>252</ele>
        <time>2017-09-17T08:09:45Z</time>
      </trkpt>
      <trkpt lat="49.27203" lon="1.14485">
        <ele>252</ele>
        <time>2017-09-17T08:09:48Z</time>
      </trkpt>
      <trkpt lat="49.27193" lon="1.14481">
        <ele>251.9</ele>
        <time>2017-09-17T08:09:51Z</time>
      </trkpt>
      <trkpt lat="49.27183" lon="1.14477">
        <ele>251.9</ele>
        <time>2017-09-17T08:09:54Z</time>
      </trkpt>
      <trkpt lat="49.27172" lon="1.14474">
        <ele>251.8</ele>
        <time>2017-09-17T08:09:57Z</time>
      </trkpt>
      <trkpt lat="49.27163" lon="1.14469">
        <ele>251.9</ele>
        <time>2017-09-17T08:09:59Z</time>
      </trkpt>
      <trkpt lat="49.27154" lon="1.14464">
        <ele>251.9</ele>
        <time>2017-09-17T08:10:01Z</time>
      </trkpt>
      <trkpt lat="49.27144" lon="1.1446">
        <ele>251.9</ele>
        <time>2017-09-17T08:10:03Z</time>
      </trkpt>
      <trkpt lat="49.27132" lon="1.14455">
        <ele>251.8</ele>
        <time>2017-09-17T08:10:06Z</time>
      </trkpt>
      <trkpt lat="49.27123" lon="1.14451">
        <ele>251.8</ele>
        <time>2017-09-17T08:10:09Z</time>
      </trkpt>
      <trkpt lat="49.27113" lon="1.14446">
        <ele>251.9</ele>
        <time>2017-09-17T08:10:12Z</time>
      </trkpt>
      <trkpt lat="49.27101" lon="1.14443">
        <ele>251.9</ele>
        <time>2017-09-17T08:10:16Z</time>
      </trkpt>
      <trkpt lat="49.27093" lon="1.14438">
        <ele>251.8</ele>
        <time>2017-09-17T08:10:19Z</time>
      </trkpt>
      <trkpt lat="49.2708" lon="1.14434">
        <ele>251.7</ele>
        <time>2017-09-17T08:10:23Z</time>
      </trkpt>
      <trkpt lat="49.2707" lon="1.1443">
        <ele>251.8</ele>
        <time>2017-09-17T08:10:26Z</time>
      </trkpt>
      <trkpt lat="49.27061" lon="1.14425">
        <ele>251.8</ele>
        <time>2017-09-17T08:10:29Z</time>
      </trkpt>
      <trkpt lat="49.27049" lon="1.14422">
        <ele>252</ele>
        <time>2017-09-17T08:10:33Z</time>
      </trkpt>
      <trkpt lat="49.27036" lon="1.14418">
        <ele>251.7</ele>
        <time>2017-09-17T08:10:37Z</time>
      </trkpt>
      <trkpt lat="49.27026" lon="1.14412">
        <ele>251.6</ele>
        <time>2017-09-17T08:10:39Z</time>
      </trkpt>
      <trkpt lat="49.27016" lon="1.14404">
        <ele>251.7</ele>
        <time>2017-09-17T08:10:42Z</time>
      </trkpt>
      <trkpt lat="49.27005" lon="1.14398">
        <ele>251.8</ele>
        <time>2017-09-17T08:10:45Z</time>
      </trkpt>
      <trkpt lat="49.26993" lon="1.14391">
        <ele>251.8</ele>
        <time>2017-09-17T08:10:48Z</time>
      </trkpt>
      <trkpt lat="49.26981" lon="1.14384">
        <ele>251.7</ele>
        <time>2017-09-17T08:10:51Z</time>
      </trkpt>
      <trkpt lat="49.2697" lon="1.14379">
        <ele>251.7</ele>
        <time>2017-09-17T08:10:54Z</time>
      </trkpt>
      <trkpt lat="49.2696" lon="1.14376">
        <ele>251.8</ele>
        <time>2017-09-17T08:10:57Z</time>
      </trkpt>
      <trkpt lat="49.2695" lon="1.14374">
        <ele>251.7</ele>
        <time>2017-09-17T08:11:00Z</time>
      </trkpt>
      <trkpt lat="49.26939" lon="1.1437">
        <ele>251.9</ele>
        <time>2017-09-17T08:11:04Z</time>
      </trkpt>
      <trkpt lat="49.26929" lon="1.14368">
        <ele>252</ele>
        <time>2017-09-17T08:11:07Z</time>
      </trkpt>
      <trkpt lat="49.26921" lon="1.14364">
        <ele>252</ele>
        <time>2017-09-17T08:11:10Z</time>
      </trkpt>
      <trkpt lat="49.26911" lon="1.14358">
        <ele>252</ele>
        <time>2017-09-17T08:11:13Z</time>
      </trkpt>
      <trkpt lat="49.269" lon="1.14353">
        <ele>251.9</ele>
        <time>2017-09-17T08:11:16Z</time>
      </trkpt>
      <trkpt lat="49.26888" lon="1.14347">
        <ele>252</ele>
        <time>2017-09-17T08:11:19Z</time>
      </trkpt>
      <trkpt lat="49.26879" lon="1.14342">
        <ele>252</ele>
        <time>2017-09-17T08:11:21Z</time>
      </trkpt>
      <trkpt lat="49.26868" lon="1.14338">
        <ele>252</ele>
        <time>2017-09-17T08:11:24Z</time>
      </trkpt>
      <trkpt lat="49.26858" lon="1.1433">
        <ele>251.9</ele>
        <time>2017-09-17T08:11:27Z</time>
      </trkpt>
      <trkpt lat="49.26846" lon="1.14326">
        <ele>251.8</ele>
        <time>2017-09-17T08:11:30Z</time>
      </trkpt>
      <trkpt lat="49.26834" lon="1.14323">
        <ele>251.8</ele>
        <time>2017-09-17T08:11:33Z</time>
      </trkpt>
      <trkpt lat="49.26825" lon="1.14317">
        <ele>251.8</ele>
        <time>2017-09-17T08:11:35Z</time>
      </trkpt>
      <trkpt lat="49.26812" lon="1.14312">
        <ele>251.8</ele>
        <time>2017-09-17T08:11:37Z</time>
      </trkpt>
      <trkpt lat="49.26801" lon="1.14307">
        <ele>251.6</ele>
        <time>2017-09-17T08:11:39Z</time>
      </trkpt>
      <trkpt lat="49.26792" lon="1.14303">
        <ele>251.4</ele>
        <time>2017-09-17T08:11:41Z</time>
      </trkpt>
      <trkpt lat="49.26778" lon="1.14294">
        <ele>251.2</ele>
        <time>2017-09-17T08:11:43Z</time>
      </trkpt>
      <trkpt lat="49.26762" lon="1.14289">
        <ele>251.1</ele>
        <time>2017-09-17T08:11:45Z</time>
      </trkpt>
      <trkpt lat="49.26748" lon="1.14283">
        <ele>250.9</ele>
        <time>2017-09-17T08:11:47Z</time>
      </trkpt>
      <trkpt lat="49.26736" lon="1.14277">
        <ele>250.7</ele>
        <time>2017-09-17T08:11:49Z</time>
      </trkpt>
      <trkpt lat="49.26726" lon="1.14275">
        <ele>250</ele>
        <time>2017-09-17T08:11:51Z</time>
      </trkpt>
      <trkpt lat="49.26718" lon="1.14282">
        <ele>249.7</ele>
        <time>2017-09-17T08:11:53Z</time>
      </trkpt>
      <trkpt lat="49.26714" lon="1.14301">
        <ele>249.2</ele>
        <time>2017-09-17T08:11:56Z</time>
      </trkpt>
      <trkpt lat="49.26709" lon="1.14318">
        <ele>248.7</ele>
        <time>2017-09-17T08:11:59Z</time>
      </trkpt>
      <trkpt lat="49.26701" lon="1.14337">
        <ele>248.1</ele>
        <time>2017-09-17T08:12:02Z</time>
      </trkpt>
      <trkpt lat="49.26697" lon="1.1435">
        <ele>247.9</ele>
        <time>2017-09-17T08:12:04Z</time>
      </trkpt>
      <trkpt lat="49.26693" lon="1.14365">
        <ele>247.7</ele>
        <time>2017-09-17T08:12:06Z</time>
      </trkpt>
      <trkpt lat="49.26689" lon="1.1438">
        <ele>247.4</ele>
        <time>2017-09-17T08:12:08Z</time>
      </trkpt>
      <trkpt lat="49.26686" lon="1.14397">
        <ele>247</ele>
        <time>2017-09-17T08:12:10Z</time>
      </trkpt>
      <trkpt lat="49.26683" lon="1.14412">
        <ele>246.6</ele>
        <time>2017-09-17T08:12:12Z</time>
      </trkpt>
      <trkpt lat="49.26678" lon="1.1443">
        <ele>246.3</ele>
        <time>2017-09-17T08:12:14Z</time>
      </trkpt>
      <trkpt lat="49.26675" lon="1.14445">
        <ele>245.8</ele>
        <time>2017-09-17T08:12:16Z</time>
      </trkpt>
      <trkpt lat="49.26671" lon="1.14464">
        <ele>245.3</ele>
        <time>2017-09-17T08:12:19Z</time>
      </trkpt>
      <trkpt lat="49.26665" lon="1.14481">
        <ele>245.1</ele>
        <time>2017-09-17T08:12:21Z</time>
      </trkpt>
      <trkpt lat="49.26664" lon="1.14496">
        <ele>244.8</ele>
        <time>2017-09-17T08:12:23Z</time>
      </trkpt>
      <trkpt lat="49.26659" lon="1.14508">
        <ele>244.5</ele>
        <time>2017-09-17T08:12:25Z</time>
      </trkpt>
      <trkpt lat="49.26656" lon="1.14529">
        <ele>244.4</ele>
        <time>2017-09-17T08:12:28Z</time>
      </trkpt>
      <trkpt lat="49.26652" lon="1.14543">
        <ele>244</ele>
        <time>2017-09-17T08:12:30Z</time>
      </trkpt>
      <trkpt lat="49.26651" lon="1.14563">
        <ele>243.6</ele>
        <time>2017-09-17T08:12:33Z</time>
      </trkpt>
      <trkpt lat="49.26648" lon="1.1458">
        <ele>243.4</ele>
        <time>2017-09-17T08:12:35Z</time>
      </trkpt>
      <trkpt lat="49.26644" lon="1.14597">
        <ele>243.5</ele>
        <time>2017-09-17T08:12:37Z</time>
      </trkpt>
      <trkpt lat="49.26642" lon="1.14612">
        <ele>243.2</ele>
        <time>2017-09-17T08:12:39Z</time>
      </trkpt>
      <trkpt lat="49.2664" lon="1.14626">
        <ele>243.2</ele>
        <time>2017-09-17T08:12:41Z</time>
      </trkpt>
      <trkpt lat="49.26641" lon="1.1464">
        <ele>243.3</ele>
        <time>2017-09-17T08:12:44Z</time>
      </trkpt>
      <trkpt lat="49.2665" lon="1.14649">
        <ele>243.4</ele>
        <time>2017-09-17T08:12:48Z</time>
      </trkpt>
      <trkpt lat="49.26662" lon="1.14654">
        <ele>243.6</ele>
        <time>2017-09-17T08:12:51Z</time>
      </trkpt>
      <trkpt lat="49.26673" lon="1.14662">
        <ele>244</ele>
        <time>2017-09-17T08:12:54Z</time>
      </trkpt>
      <trkpt lat="49.26684" lon="1.14668">
        <ele>244.5</ele>
        <time>2017-09-17T08:12:57Z</time>
      </trkpt>
      <trkpt lat="49.26695" lon="1.14673">
        <ele>244.9</ele>
        <time>2017-09-17T08:13:00Z</time>
      </trkpt>
      <trkpt lat="49.26703" lon="1.14679">
        <ele>245.2</ele>
        <time>2017-09-17T08:13:02Z</time>
      </trkpt>
      <trkpt lat="49.26716" lon="1.14688">
        <ele>245.8</ele>
        <time>2017-09-17T08:13:05Z</time>
      </trkpt>
      <trkpt lat="49.26725" lon="1.14692">
        <ele>246</ele>
        <time>2017-09-17T08:13:07Z</time>
      </trkpt>
      <trkpt lat="49.26734" lon="1.14697">
        <ele>246.3</ele>
        <time>2017-09-17T08:13:09Z</time>
      </trkpt>
      <trkpt lat="49.26743" lon="1.147">
        <ele>246.7</ele>
        <time>2017-09-17T08:13:11Z</time>
      </trkpt>
      <trkpt lat="49.26755" lon="1.14706">
        <ele>247</ele>
        <time>2017-09-17T08:13:14Z</time>
      </trkpt>
      <trkpt lat="49.26767" lon="1.14713">
        <ele>247.8</ele>
        <time>2017-09-17T08:13:17Z</time>
      </trkpt>
      <trkpt lat="49.26775" lon="1.14718">
        <ele>248.1</ele>
        <time>2017-09-17T08:13:19Z</time>
      </trkpt>
      <trkpt lat="49.26785" lon="1.14723">
        <ele>248.3</ele>
        <time>2017-09-17T08:13:21Z</time>
      </trkpt>
      <trkpt lat="49.26793" lon="1.14728">
        <ele>248.5</ele>
        <time>2017-09-17T08:13:23Z</time>
      </trkpt>
      <trkpt lat="49.26802" lon="1.14733">
        <ele>248.7</ele>
        <time>2017-09-17T08:13:25Z</time>
      </trkpt>
      <trkpt lat="49.26811" lon="1.14739">
        <ele>249</ele>
        <time>2017-09-17T08:13:27Z</time>
      </trkpt>
      <trkpt lat="49.26822" lon="1.14743">
        <ele>249.3</ele>
        <time>2017-09-17T08:13:29Z</time>
      </trkpt>
      <trkpt lat="49.26833" lon="1.14748">
        <ele>249.6</ele>
        <time>2017-09-17T08:13:31Z</time>
      </trkpt>
      <trkpt lat="49.26843" lon="1.14753">
        <ele>249.9</ele>
        <time>2017-09-17T08:13:33Z</time>
      </trkpt>
      <trkpt lat="49.26853" lon="1.14756">
        <ele>250.2</ele>
        <time>2017-09-17T08:13:35Z</time>
      </trkpt>
      <trkpt lat="49.26863" lon="1.14762">
        <ele>250.3</ele>
        <time>2017-09-17T08:13:37Z</time>
      </trkpt>
      <trkpt lat="49.26873" lon="1.14767">
        <ele>250.6</ele>
        <time>2017-09-17T08:13:39Z</time>
      </trkpt>
      <trkpt lat="49.26883" lon="1.14772">
        <ele>250.8</ele>
        <time>2017-09-17T08:13:41Z</time>
      </trkpt>
      <trkpt lat="49.26892" lon="1.14775">
        <ele>251</ele>
        <time>2017-09-17T08:13:43Z</time>
      </trkpt>
      <trkpt lat="49.26902" lon="1.1478">
        <ele>251.1</ele>
        <time>2017-09-17T08:13:45Z</time>
      </trkpt>
      <trkpt lat="49.26912" lon="1.14784">
        <ele>251.3</ele>
        <time>2017-09-17T08:13:47Z</time>
      </trkpt>
      <trkpt lat="49.26923" lon="1.1479">
        <ele>251.4</ele>
        <time>2017-09-17T08:13:49Z</time>
      </trkpt>
      <trkpt lat="49.26935" lon="1.14794">
        <ele>251.5</ele>
        <time>2017-09-17T08:13:51Z</time>
      </trkpt>
      <trkpt lat="49.26945" lon="1.14799">
        <ele>251.7</ele>
        <time>2017-09-17T08:13:53Z</time>
      </trkpt>
      <trkpt lat="49.26956" lon="1.14803">
        <ele>251.8</ele>
        <time>2017-09-17T08:13:55Z</time>
      </trkpt>
      <trkpt lat="49.26965" lon="1.14808">
        <ele>251.9</ele>
        <time>2017-09-17T08:13:57Z</time>
      </trkpt>
      <trkpt lat="49.26976" lon="1.14813">
        <ele>251.9</ele>
        <time>2017-09-17T08:13:59Z</time>
      </trkpt>
      <trkpt lat="49.26986" lon="1.14817">
        <ele>251.9</ele>
        <time>2017-09-17T08:14:01Z</time>
      </trkpt>
      <trkpt lat="49.26996" lon="1.14822">
        <ele>251.7</ele>
        <time>2017-09-17T08:14:03Z</time>
      </trkpt>
      <trkpt lat="49.27004" lon="1.14838">
        <ele>251</ele>
        <time>2017-09-17T08:14:06Z</time>
      </trkpt>
      <trkpt lat="49.27004" lon="1.14857">
        <ele>251.4</ele>
        <time>2017-09-17T08:14:09Z</time>
      </trkpt>
      <trkpt lat="49.27003" lon="1.14872">
        <ele>251.3</ele>
        <time>2017-09-17T08:14:11Z</time>
      </trkpt>
      <trkpt lat="49.26999" lon="1.14885">
        <ele>251.2</ele>
        <time>2017-09-17T08:14:13Z</time>
      </trkpt>
      <trkpt lat="49.26997" lon="1.149">
        <ele>251.1</ele>
        <time>2017-09-17T08:14:15Z</time>
      </trkpt>
      <trkpt lat="49.26996" lon="1.14915">
        <ele>251</ele>
        <time>2017-09-17T08:14:17Z</time>
      </trkpt>
      <trkpt lat="49.26993" lon="1.1493">
        <ele>250.9</ele>
        <time>2017-09-17T08:14:19Z</time>
      </trkpt>
      <trkpt lat="49.26991" lon="1.14945">
        <ele>250.8</ele>
        <time>2017-09-17T08:14:21Z</time>
      </trkpt>
      <trkpt lat="49.26988" lon="1.14959">
        <ele>250.6</ele>
        <time>2017-09-17T08:14:23Z</time>
      </trkpt>
      <trkpt lat="49.26987" lon="1.14974">
        <ele>250.6</ele>
        <time>2017-09-17T08:14:26Z</time>
      </trkpt>
      <trkpt lat="49.26985" lon="1.14991">
        <ele>250.5</ele>
        <time>2017-09-17T08:14:28Z</time>
      </trkpt>
      <trkpt lat="49.26982" lon="1.1501">
        <ele>250.1</ele>
        <time>2017-09-17T08:14:31Z</time>
      </trkpt>
      <trkpt lat="49.2698" lon="1.15026">
        <ele>250</ele>
        <time>2017-09-17T08:14:33Z</time>
      </trkpt>
      <trkpt lat="49.26977" lon="1.15043">
        <ele>249.7</ele>
        <time>2017-09-17T08:14:36Z</time>
      </trkpt>
      <trkpt lat="49.26971" lon="1.15062">
        <ele>249.5</ele>
        <time>2017-09-17T08:14:39Z</time>
      </trkpt>
      <trkpt lat="49.26966" lon="1.15075">
        <ele>249.4</ele>
        <time>2017-09-17T08:14:41Z</time>
      </trkpt>
      <trkpt lat="49.26965" lon="1.15094">
        <ele>249.2</ele>
        <time>2017-09-17T08:14:44Z</time>
      </trkpt>
      <trkpt lat="49.26961" lon="1.15107">
        <ele>249.2</ele>
        <time>2017-09-17T08:14:46Z</time>
      </trkpt>
      <trkpt lat="49.26957" lon="1.1512">
        <ele>249.3</ele>
        <time>2017-09-17T08:14:48Z</time>
      </trkpt>
      <trkpt lat="49.26955" lon="1.15135">
        <ele>249.4</ele>
        <time>2017-09-17T08:14:50Z</time>
      </trkpt>
      <trkpt lat="49.26953" lon="1.1515">
        <ele>249.3</ele>
        <time>2017-09-17T08:14:52Z</time>
      </trkpt>
      <trkpt lat="49.26951" lon="1.15165">
        <ele>249.3</ele>
        <time>2017-09-17T08:14:54Z</time>
      </trkpt>
      <trkpt lat="49.26946" lon="1.15184">
        <ele>249.3</ele>
        <time>2017-09-17T08:14:56Z</time>
      </trkpt>
      <trkpt lat="49.26943" lon="1.15201">
        <ele>249.3</ele>
        <time>2017-09-17T08:14:58Z</time>
      </trkpt>
      <trkpt lat="49.26939" lon="1.15216">
        <ele>249.1</ele>
        <time>2017-09-17T08:15:00Z</time>
      </trkpt>
      <trkpt lat="49.26936" lon="1.15235">
        <ele>249</ele>
        <time>2017-09-17T08:15:02Z</time>
      </trkpt>
      <trkpt lat="49.26935" lon="1.15253">
        <ele>248.9</ele>
        <time>2017-09-17T08:15:04Z</time>
      </trkpt>
      <trkpt lat="49.26936" lon="1.15269">
        <ele>248.7</ele>
        <time>2017-09-17T08:15:06Z</time>
      </trkpt>
      <trkpt lat="49.26942" lon="1.15281">
        <ele>248.5</ele>
        <time>2017-09-17T08:15:08Z</time>
      </trkpt>
      <trkpt lat="49.26951" lon="1.15289">
        <ele>248.3</ele>
        <time>2017-09-17T08:15:10Z</time>
      </trkpt>
      <trkpt lat="49.26959" lon="1.15297">
        <ele>248.1</ele>
        <time>2017-09-17T08:15:12Z</time>
      </trkpt>
      <trkpt lat="49.26964" lon="1.1531">
        <ele>247.9</ele>
        <time>2017-09-17T08:15:14Z</time>
      </trkpt>
      <trkpt lat="49.26964" lon="1.15325">
        <ele>247.9</ele>
        <time>2017-09-17T08:15:16Z</time>
      </trkpt>
      <trkpt lat="49.26961" lon="1.15342">
        <ele>247.9</ele>
        <time>2017-09-17T08:15:18Z</time>
      </trkpt>
      <trkpt lat="49.26957" lon="1.1536">
        <ele>247.9</ele>
        <time>2017-09-17T08:15:20Z</time>
      </trkpt>
      <trkpt lat="49.26953" lon="1.15378">
        <ele>247.8</ele>
        <time>2017-09-17T08:15:22Z</time>
      </trkpt>
      <trkpt lat="49.2695" lon="1.15396">
        <ele>247.6</ele>
        <time>2017-09-17T08:15:24Z</time>
      </trkpt>
      <trkpt lat="49.26946" lon="1.15414">
        <ele>247.5</ele>
        <time>2017-09-17T08:15:26Z</time>
      </trkpt>
      <trkpt lat="49.26941" lon="1.15433">
        <ele>247.2</ele>
        <time>2017-09-17T08:15:28Z</time>
      </trkpt>
      <trkpt lat="49.26938" lon="1.15452">
        <ele>246.8</ele>
        <time>2017-09-17T08:15:30Z</time>
      </trkpt>
      <trkpt lat="49.26934" lon="1.15471">
        <ele>246.4</ele>
        <time>2017-09-17T08:15:32Z</time>
      </trkpt>
      <trkpt lat="49.2693" lon="1.1549">
        <ele>246.4</ele>
        <time>2017-09-17T08:15:34Z</time>
      </trkpt>
      <trkpt lat="49.26927" lon="1.15509">
        <ele>246.1</ele>
        <time>2017-09-17T08:15:36Z</time>
      </trkpt>
      <trkpt lat="49.26924" lon="1.15528">
        <ele>245.8</ele>
        <time>2017-09-17T08:15:38Z</time>
      </trkpt>
      <trkpt lat="49.2692" lon="1.15545">
        <ele>245.5</ele>
        <time>2017-09-17T08:15:40Z</time>
      </trkpt>
      <trkpt lat="49.26917" lon="1.15562">
        <ele>245.3</ele>
        <time>2017-09-17T08:15:42Z</time>
      </trkpt>
      <trkpt lat="49.26914" lon="1.15579">
        <ele>245</ele>
        <time>2017-09-17T08:15:44Z</time>
      </trkpt>
      <trkpt lat="49.26912" lon="1.15594">
        <ele>244.8</ele>
        <time>2017-09-17T08:15:46Z</time>
      </trkpt>
      <trkpt lat="49.26908" lon="1.15609">
        <ele>244.5</ele>
        <time>2017-09-17T08:15:48Z</time>
      </trkpt>
      <trkpt lat="49.26905" lon="1.15624">
        <ele>244.3</ele>
        <time>2017-09-17T08:15:50Z</time>
      </trkpt>
      <trkpt lat="49.26902" lon="1.15638">
        <ele>244.1</ele>
        <time>2017-09-17T08:15:52Z</time>
      </trkpt>
      <trkpt lat="49.26899" lon="1.15654">
        <ele>244.1</ele>
        <time>2017-09-17T08:15:54Z</time>
      </trkpt>
      <trkpt lat="49.26897" lon="1.1567">
        <ele>244</ele>
        <time>2017-09-17T08:15:56Z</time>
      </trkpt>
      <trkpt lat="49.26893" lon="1.15686">
        <ele>243.6</ele>
        <time>2017-09-17T08:15:58Z</time>
      </trkpt>
      <trkpt lat="49.2689" lon="1.15702">
        <ele>243.6</ele>
        <time>2017-09-17T08:16:00Z</time>
      </trkpt>
      <trkpt lat="49.26888" lon="1.15719">
        <ele>243.6</ele>
        <time>2017-09-17T08:16:02Z</time>
      </trkpt>
      <trkpt lat="49.26885" lon="1.15735">
        <ele>243.5</ele>
        <time>2017-09-17T08:16:04Z</time>
      </trkpt>
      <trkpt lat="49.26883" lon="1.1575">
        <ele>243.5</ele>
        <time>2017-09-17T08:16:06Z</time>
      </trkpt>
      <trkpt lat="49.26882" lon="1.15766">
        <ele>243.3</ele>
        <time>2017-09-17T08:16:09Z</time>
      </trkpt>
      <trkpt lat="49.2687" lon="1.15767">
        <ele>243</ele>
        <time>2017-09-17T08:16:13Z</time>
      </trkpt>
      <trkpt lat="49.26857" lon="1.1576">
        <ele>243</ele>
        <time>2017-09-17T08:16:16Z</time>
      </trkpt>
      <trkpt lat="49.26847" lon="1.15756">
        <ele>242.9</ele>
        <time>2017-09-17T08:16:18Z</time>
      </trkpt>
      <trkpt lat="49.26836" lon="1.15751">
        <ele>242.9</ele>
        <time>2017-09-17T08:16:20Z</time>
      </trkpt>
      <trkpt lat="49.26825" lon="1.15746">
        <ele>242.7</ele>
        <time>2017-09-17T08:16:22Z</time>
      </trkpt>
      <trkpt lat="49.26814" lon="1.1574">
        <ele>242.6</ele>
        <time>2017-09-17T08:16:24Z</time>
      </trkpt>
      <trkpt lat="49.26803" lon="1.15735">
        <ele>242.8</ele>
        <time>2017-09-17T08:16:26Z</time>
      </trkpt>
      <trkpt lat="49.26791" lon="1.1573">
        <ele>242.6</ele>
        <time>2017-09-17T08:16:28Z</time>
      </trkpt>
      <trkpt lat="49.26779" lon="1.15725">
        <ele>242.5</ele>
        <time>2017-09-17T08:16:30Z</time>
      </trkpt>
      <trkpt lat="49.26767" lon="1.1572">
        <ele>242.5</ele>
        <time>2017-09-17T08:16:32Z</time>
      </trkpt>
      <trkpt lat="49.26755" lon="1.15715">
        <ele>242.2</ele>
        <time>2017-09-17T08:16:34Z</time>
      </trkpt>
      <trkpt lat="49.26743" lon="1.15709">
        <ele>242</ele>
        <time>2017-09-17T08:16:36Z</time>
      </trkpt>
      <trkpt lat="49.26731" lon="1.15703">
        <ele>241.7</ele>
        <time>2017-09-17T08:16:38Z</time>
      </trkpt>
      <trkpt lat="49.26718" lon="1.15698">
        <ele>241.6</ele>
        <time>2017-09-17T08:16:40Z</time>
      </trkpt>
      <trkpt lat="49.26706" lon="1.15693">
        <ele>241.5</ele>
        <time>2017-09-17T08:16:42Z</time>
      </trkpt>
      <trkpt lat="49.26694" lon="1.15687">
        <ele>241.3</ele>
        <time>2017-09-17T08:16:44Z</time>
      </trkpt>
      <trkpt lat="49.26681" lon="1.15681">
        <ele>241</ele>
        <time>2017-09-17T08:16:46Z</time>
      </trkpt>
      <trkpt lat="49.26668" lon="1.15676">
        <ele>240.6</ele>
        <time>2017-09-17T08:16:48Z</time>
      </trkpt>
      <trkpt lat="49.26656" lon="1.1567">
        <ele>240.4</ele>
        <time>2017-09-17T08:16:50Z</time>
      </trkpt>
      <trkpt lat="49.26643" lon="1.15664">
        <ele>240.3</ele>
        <time>2017-09-17T08:16:52Z</time>
      </trkpt>
      <trkpt lat="49.26629" lon="1.15658">
        <ele>240</ele>
        <time>2017-09-17T08:16:54Z</time>
      </trkpt>
      <trkpt lat="49.26616" lon="1.15653">
        <ele>239.6</ele>
        <time>2017-09-17T08:16:56Z</time>
      </trkpt>
      <trkpt lat="49.26603" lon="1.15646">
        <ele>239.4</ele>
        <time>2017-09-17T08:16:58Z</time>
      </trkpt>
      <trkpt lat="49.2659" lon="1.1564">
        <ele>238.7</ele>
        <time>2017-09-17T08:17:00Z</time>
      </trkpt>
      <trkpt lat="49.26577" lon="1.15635">
        <ele>238.7</ele>
        <time>2017-09-17T08:17:02Z</time>
      </trkpt>
      <trkpt lat="49.26564" lon="1.15629">
        <ele>238.5</ele>
        <time>2017-09-17T08:17:04Z</time>
      </trkpt>
      <trkpt lat="49.26551" lon="1.15625">
        <ele>238.3</ele>
        <time>2017-09-17T08:17:06Z</time>
      </trkpt>
      <trkpt lat="49.26539" lon="1.1562">
        <ele>238.3</ele>
        <time>2017-09-17T08:17:08Z</time>
      </trkpt>
      <trkpt lat="49.26526" lon="1.15614">
        <ele>238.3</ele>
        <time>2017-09-17T08:17:10Z</time>
      </trkpt>
      <trkpt lat="49.26513" lon="1.15608">
        <ele>238.2</ele>
        <time>2017-09-17T08:17:12Z</time>
      </trkpt>
      <trkpt lat="49.265" lon="1.15603">
        <ele>238.1</ele>
        <time>2017-09-17T08:17:14Z</time>
      </trkpt>
      <trkpt lat="49.26487" lon="1.15598">
        <ele>237.8</ele>
        <time>2017-09-17T08:17:16Z</time>
      </trkpt>
      <trkpt lat="49.26473" lon="1.15592">
        <ele>237.6</ele>
        <time>2017-09-17T08:17:18Z</time>
      </trkpt>
      <trkpt lat="49.26459" lon="1.15586">
        <ele>237.4</ele>
        <time>2017-09-17T08:17:20Z</time>
      </trkpt>
      <trkpt lat="49.26447" lon="1.15581">
        <ele>237.1</ele>
        <time>2017-09-17T08:17:22Z</time>
      </trkpt>
      <trkpt lat="49.26433" lon="1.15576">
        <ele>236.9</ele>
        <time>2017-09-17T08:17:24Z</time>
      </trkpt>
      <trkpt lat="49.2642" lon="1.1557">
        <ele>236.6</ele>
        <time>2017-09-17T08:17:26Z</time>
      </trkpt>
      <trkpt lat="49.26407" lon="1.15563">
        <ele>236.1</ele>
        <time>2017-09-17T08:17:28Z</time>
      </trkpt>
      <trkpt lat="49.26394" lon="1.15558">
        <ele>235.8</ele>
        <time>2017-09-17T08:17:30Z</time>
      </trkpt>
      <trkpt lat="49.26381" lon="1.15551">
        <ele>235.6</ele>
        <time>2017-09-17T08:17:32Z</time>
      </trkpt>
      <trkpt lat="49.26373" lon="1.15539">
        <ele>234.8</ele>
        <time>2017-09-17T08:17:34Z</time>
      </trkpt>
      <trkpt lat="49.26369" lon="1.15525">
        <ele>234</ele>
        <time>2017-09-17T08:17:36Z</time>
      </trkpt>
      <trkpt lat="49.26363" lon="1.1551">
        <ele>234.1</ele>
        <time>2017-09-17T08:17:39Z</time>
      </trkpt>
      <trkpt lat="49.26349" lon="1.15509">
        <ele>233.6</ele>
        <time>2017-09-17T08:17:42Z</time>
      </trkpt>
      <trkpt lat="49.26335" lon="1.15505">
        <ele>233</ele>
        <time>2017-09-17T08:17:45Z</time>
      </trkpt>
      <trkpt lat="49.26324" lon="1.155">
        <ele>232.6</ele>
        <time>2017-09-17T08:17:47Z</time>
      </trkpt>
      <trkpt lat="49.26313" lon="1.15495">
        <ele>231.8</ele>
        <time>2017-09-17T08:17:49Z</time>
      </trkpt>
      <trkpt lat="49.263" lon="1.15492">
        <ele>230.9</ele>
        <time>2017-09-17T08:17:51Z</time>
      </trkpt>
      <trkpt lat="49.26284" lon="1.15485">
        <ele>230.1</ele>
        <time>2017-09-17T08:17:53Z</time>
      </trkpt>
      <trkpt lat="49.26272" lon="1.15478">
        <ele>229.2</ele>
        <time>2017-09-17T08:17:55Z</time>
      </trkpt>
      <trkpt lat="49.26261" lon="1.1547">
        <ele>228.6</ele>
        <time>2017-09-17T08:17:57Z</time>
      </trkpt>
      <trkpt lat="49.26248" lon="1.15464">
        <ele>228.4</ele>
        <time>2017-09-17T08:17:59Z</time>
      </trkpt>
      <trkpt lat="49.26236" lon="1.15458">
        <ele>228.1</ele>
        <time>2017-09-17T08:18:01Z</time>
      </trkpt>
      <trkpt lat="49.26227" lon="1.15452">
        <ele>227.6</ele>
        <time>2017-09-17T08:18:03Z</time>
      </trkpt>
      <trkpt lat="49.26223" lon="1.1544">
        <ele>226.7</ele>
        <time>2017-09-17T08:18:06Z</time>
      </trkpt>
      <trkpt lat="49.26214" lon="1.1543">
        <ele>225.8</ele>
        <time>2017-09-17T08:18:09Z</time>
      </trkpt>
      <trkpt lat="49.26204" lon="1.15422">
        <ele>225.3</ele>
        <time>2017-09-17T08:18:11Z</time>
      </trkpt>
      <trkpt lat="49.26193" lon="1.15418">
        <ele>224.5</ele>
        <time>2017-09-17T08:18:13Z</time>
      </trkpt>
      <trkpt lat="49.26182" lon="1.15413">
        <ele>223.1</ele>
        <time>2017-09-17T08:18:15Z</time>
      </trkpt>
      <trkpt lat="49.26173" lon="1.15407">
        <ele>221.5</ele>
        <time>2017-09-17T08:18:17Z</time>
      </trkpt>
      <trkpt lat="49.26162" lon="1.15404">
        <ele>219.5</ele>
        <time>2017-09-17T08:18:19Z</time>
      </trkpt>
      <trkpt lat="49.26152" lon="1.15401">
        <ele>217.2</ele>
        <time>2017-09-17T08:18:21Z</time>
      </trkpt>
      <trkpt lat="49.2614" lon="1.15395">
        <ele>214.4</ele>
        <time>2017-09-17T08:18:23Z</time>
      </trkpt>
      <trkpt lat="49.26131" lon="1.15388">
        <ele>213.5</ele>
        <time>2017-09-17T08:18:24Z</time>
      </trkpt>
      <trkpt lat="49.26118" lon="1.1538">
        <ele>212.1</ele>
        <time>2017-09-17T08:18:26Z</time>
      </trkpt>
      <trkpt lat="49.26109" lon="1.15375">
        <ele>211.7</ele>
        <time>2017-09-17T08:18:28Z</time>
      </trkpt>
      <trkpt lat="49.26098" lon="1.15368">
        <ele>212.3</ele>
        <time>2017-09-17T08:18:33Z</time>
      </trkpt>
      <trkpt lat="49.26087" lon="1.15362">
        <ele>214.3</ele>
        <time>2017-09-17T08:18:39Z</time>
      </trkpt>
      <trkpt lat="49.26079" lon="1.15358">
        <ele>216.6</ele>
        <time>2017-09-17T08:18:46Z</time>
      </trkpt>
      <trkpt lat="49.26069" lon="1.15355">
        <ele>219.1</ele>
        <time>2017-09-17T08:18:53Z</time>
      </trkpt>
      <trkpt lat="49.26061" lon="1.1535">
        <ele>221.4</ele>
        <time>2017-09-17T08:19:00Z</time>
      </trkpt>
      <trkpt lat="49.26051" lon="1.15345">
        <ele>222.6</ele>
        <time>2017-09-17T08:19:06Z</time>
      </trkpt>
      <trkpt lat="49.2604" lon="1.15342">
        <ele>223.4</ele>
        <time>2017-09-17T08:19:11Z</time>
      </trkpt>
      <trkpt lat="49.26031" lon="1.15338">
        <ele>224.3</ele>
        <time>2017-09-17T08:19:17Z</time>
      </trkpt>
      <trkpt lat="49.26025" lon="1.15352">
        <ele>224.4</ele>
        <time>2017-09-17T08:19:22Z</time>
      </trkpt>
      <trkpt lat="49.2602" lon="1.15366">
        <ele>224.2</ele>
        <time>2017-09-17T08:19:25Z</time>
      </trkpt>
      <trkpt lat="49.26013" lon="1.15377">
        <ele>223.8</ele>
        <time>2017-09-17T08:19:28Z</time>
      </trkpt>
      <trkpt lat="49.26003" lon="1.1538">
        <ele>223</ele>
        <time>2017-09-17T08:19:33Z</time>
      </trkpt>
      <trkpt lat="49.25994" lon="1.15377">
        <ele>222.8</ele>
        <time>2017-09-17T08:19:36Z</time>
      </trkpt>
      <trkpt lat="49.25983" lon="1.1537">
        <ele>222.7</ele>
        <time>2017-09-17T08:19:39Z</time>
      </trkpt>
      <trkpt lat="49.25971" lon="1.15369">
        <ele>222.8</ele>
        <time>2017-09-17T08:19:42Z</time>
      </trkpt>
      <trkpt lat="49.25959" lon="1.15368">
        <ele>222.6</ele>
        <time>2017-09-17T08:19:45Z</time>
      </trkpt>
      <trkpt lat="49.2595" lon="1.1536">
        <ele>222.6</ele>
        <time>2017-09-17T08:19:48Z</time>
      </trkpt>
      <trkpt lat="49.2594" lon="1.15353">
        <ele>223.2</ele>
        <time>2017-09-17T08:19:52Z</time>
      </trkpt>
      <trkpt lat="49.25929" lon="1.15346">
        <ele>224.8</ele>
        <time>2017-09-17T08:19:57Z</time>
      </trkpt>
      <trkpt lat="49.25921" lon="1.1534">
        <ele>225.8</ele>
        <time>2017-09-17T08:20:01Z</time>
      </trkpt>
      <trkpt lat="49.25912" lon="1.15337">
        <ele>226.9</ele>
        <time>2017-09-17T08:20:05Z</time>
      </trkpt>
      <trkpt lat="49.25902" lon="1.15334">
        <ele>227.5</ele>
        <time>2017-09-17T08:20:08Z</time>
      </trkpt>
      <trkpt lat="49.25892" lon="1.15333">
        <ele>227.9</ele>
        <time>2017-09-17T08:20:11Z</time>
      </trkpt>
      <trkpt lat="49.2588" lon="1.15329">
        <ele>228.2</ele>
        <time>2017-09-17T08:20:14Z</time>
      </trkpt>
      <trkpt lat="49.25871" lon="1.15325">
        <ele>228.5</ele>
        <time>2017-09-17T08:20:17Z</time>
      </trkpt>
      <trkpt lat="49.25858" lon="1.15317">
        <ele>228.8</ele>
        <time>2017-09-17T08:20:20Z</time>
      </trkpt>
      <trkpt lat="49.25849" lon="1.15314">
        <ele>229</ele>
        <time>2017-09-17T08:20:22Z</time>
      </trkpt>
      <trkpt lat="49.25838" lon="1.15309">
        <ele>229.3</ele>
        <time>2017-09-17T08:20:25Z</time>
      </trkpt>
      <trkpt lat="49.25828" lon="1.15304">
        <ele>229.6</ele>
        <time>2017-09-17T08:20:28Z</time>
      </trkpt>
      <trkpt lat="49.25822" lon="1.15294">
        <ele>229.5</ele>
        <time>2017-09-17T08:20:31Z</time>
      </trkpt>
      <trkpt lat="49.25827" lon="1.15281">
        <ele>229.6</ele>
        <time>2017-09-17T08:20:34Z</time>
      </trkpt>
      <trkpt lat="49.25828" lon="1.15267">
        <ele>229.6</ele>
        <time>2017-09-17T08:20:37Z</time>
      </trkpt>
      <trkpt lat="49.2582" lon="1.15258">
        <ele>230.2</ele>
        <time>2017-09-17T08:20:41Z</time>
      </trkpt>
      <trkpt lat="49.25812" lon="1.15248">
        <ele>230.5</ele>
        <time>2017-09-17T08:20:45Z</time>
      </trkpt>
      <trkpt lat="49.25804" lon="1.15239">
        <ele>230.6</ele>
        <time>2017-09-17T08:20:50Z</time>
      </trkpt>
      <trkpt lat="49.25796" lon="1.15231">
        <ele>230.8</ele>
        <time>2017-09-17T08:20:55Z</time>
      </trkpt>
      <trkpt lat="49.25789" lon="1.15222">
        <ele>230.7</ele>
        <time>2017-09-17T08:21:01Z</time>
      </trkpt>
      <trkpt lat="49.25782" lon="1.15212">
        <ele>230.6</ele>
        <time>2017-09-17T08:21:12Z</time>
      </trkpt>
      <trkpt lat="49.25775" lon="1.15201">
        <ele>230.8</ele>
        <time>2017-09-17T08:21:24Z</time>
      </trkpt>
      <trkpt lat="49.25766" lon="1.15204">
        <ele>230.5</ele>
        <time>2017-09-17T08:21:29Z</time>
      </trkpt>
      <trkpt lat="49.25758" lon="1.15215">
        <ele>230.4</ele>
        <time>2017-09-17T08:21:32Z</time>
      </trkpt>
      <trkpt lat="49.25751" lon="1.15228">
        <ele>230.2</ele>
        <time>2017-09-17T08:21:35Z</time>
      </trkpt>
      <trkpt lat="49.25742" lon="1.15242">
        <ele>230</ele>
        <time>2017-09-17T08:21:38Z</time>
      </trkpt>
      <trkpt lat="49.25733" lon="1.1525">
        <ele>229.8</ele>
        <time>2017-09-17T08:21:41Z</time>
      </trkpt>
      <trkpt lat="49.25723" lon="1.15252">
        <ele>229.5</ele>
        <time>2017-09-17T08:21:44Z</time>
      </trkpt>
      <trkpt lat="49.25713" lon="1.15247">
        <ele>229.4</ele>
        <time>2017-09-17T08:21:47Z</time>
      </trkpt>
      <trkpt lat="49.25699" lon="1.15241">
        <ele>229.2</ele>
        <time>2017-09-17T08:21:50Z</time>
      </trkpt>
      <trkpt lat="49.25688" lon="1.15237">
        <ele>229.1</ele>
        <time>2017-09-17T08:21:52Z</time>
      </trkpt>
      <trkpt lat="49.25677" lon="1.15233">
        <ele>228.8</ele>
        <time>2017-09-17T08:21:54Z</time>
      </trkpt>
      <trkpt lat="49.25666" lon="1.15228">
        <ele>228.4</ele>
        <time>2017-09-17T08:21:56Z</time>
      </trkpt>
      <trkpt lat="49.25654" lon="1.15223">
        <ele>227.9</ele>
        <time>2017-09-17T08:21:58Z</time>
      </trkpt>
      <trkpt lat="49.25642" lon="1.15218">
        <ele>227.5</ele>
        <time>2017-09-17T08:22:00Z</time>
      </trkpt>
      <trkpt lat="49.2563" lon="1.15213">
        <ele>227.2</ele>
        <time>2017-09-17T08:22:02Z</time>
      </trkpt>
      <trkpt lat="49.25617" lon="1.15208">
        <ele>227</ele>
        <time>2017-09-17T08:22:04Z</time>
      </trkpt>
      <trkpt lat="49.25605" lon="1.15203">
        <ele>226.9</ele>
        <time>2017-09-17T08:22:06Z</time>
      </trkpt>
      <trkpt lat="49.25594" lon="1.15198">
        <ele>226.7</ele>
        <time>2017-09-17T08:22:08Z</time>
      </trkpt>
      <trkpt lat="49.25583" lon="1.15192">
        <ele>226.9</ele>
        <time>2017-09-17T08:22:10Z</time>
      </trkpt>
      <trkpt lat="49.25571" lon="1.15186">
        <ele>226.9</ele>
        <time>2017-09-17T08:22:12Z</time>
      </trkpt>
      <trkpt lat="49.25559" lon="1.15181">
        <ele>226.9</ele>
        <time>2017-09-17T08:22:14Z</time>
      </trkpt>
      <trkpt lat="49.25548" lon="1.15175">
        <ele>226.9</ele>
        <time>2017-09-17T08:22:16Z</time>
      </trkpt>
      <trkpt lat="49.25537" lon="1.15169">
        <ele>226.9</ele>
        <time>2017-09-17T08:22:18Z</time>
      </trkpt>
      <trkpt lat="49.25526" lon="1.15164">
        <ele>227.1</ele>
        <time>2017-09-17T08:22:20Z</time>
      </trkpt>
      <trkpt lat="49.25515" lon="1.15159">
        <ele>227.2</ele>
        <time>2017-09-17T08:22:22Z</time>
      </trkpt>
      <trkpt lat="49.25507" lon="1.15151">
        <ele>227.2</ele>
        <time>2017-09-17T08:22:24Z</time>
      </trkpt>
      <trkpt lat="49.25505" lon="1.15136">
        <ele>227</ele>
        <time>2017-09-17T08:22:27Z</time>
      </trkpt>
      <trkpt lat="49.25508" lon="1.15118">
        <ele>227</ele>
        <time>2017-09-17T08:22:30Z</time>
      </trkpt>
      <trkpt lat="49.25509" lon="1.151">
        <ele>227.2</ele>
        <time>2017-09-17T08:22:33Z</time>
      </trkpt>
      <trkpt lat="49.25512" lon="1.15082">
        <ele>227.5</ele>
        <time>2017-09-17T08:22:36Z</time>
      </trkpt>
      <trkpt lat="49.25516" lon="1.15064">
        <ele>227.8</ele>
        <time>2017-09-17T08:22:39Z</time>
      </trkpt>
      <trkpt lat="49.25518" lon="1.15047">
        <ele>228.1</ele>
        <time>2017-09-17T08:22:42Z</time>
      </trkpt>
      <trkpt lat="49.25524" lon="1.15033">
        <ele>228.4</ele>
        <time>2017-09-17T08:22:45Z</time>
      </trkpt>
      <trkpt lat="49.25528" lon="1.15014">
        <ele>228.9</ele>
        <time>2017-09-17T08:22:48Z</time>
      </trkpt>
      <trkpt lat="49.25535" lon="1.14998">
        <ele>229.1</ele>
        <time>2017-09-17T08:22:51Z</time>
      </trkpt>
      <trkpt lat="49.25538" lon="1.14979">
        <ele>229</ele>
        <time>2017-09-17T08:22:54Z</time>
      </trkpt>
      <trkpt lat="49.2554" lon="1.14964">
        <ele>229.2</ele>
        <time>2017-09-17T08:22:56Z</time>
      </trkpt>
      <trkpt lat="49.25541" lon="1.14945">
        <ele>229.5</ele>
        <time>2017-09-17T08:22:59Z</time>
      </trkpt>
      <trkpt lat="49.25545" lon="1.14929">
        <ele>229.7</ele>
        <time>2017-09-17T08:23:02Z</time>
      </trkpt>
      <trkpt lat="49.2555" lon="1.14915">
        <ele>229.7</ele>
        <time>2017-09-17T08:23:04Z</time>
      </trkpt>
      <trkpt lat="49.25553" lon="1.14901">
        <ele>229.8</ele>
        <time>2017-09-17T08:23:06Z</time>
      </trkpt>
      <trkpt lat="49.25557" lon="1.14882">
        <ele>229.9</ele>
        <time>2017-09-17T08:23:09Z</time>
      </trkpt>
      <trkpt lat="49.25561" lon="1.14864">
        <ele>230.1</ele>
        <time>2017-09-17T08:23:12Z</time>
      </trkpt>
      <trkpt lat="49.25564" lon="1.14851">
        <ele>229.9</ele>
        <time>2017-09-17T08:23:14Z</time>
      </trkpt>
      <trkpt lat="49.25569" lon="1.14833">
        <ele>229.5</ele>
        <time>2017-09-17T08:23:17Z</time>
      </trkpt>
      <trkpt lat="49.25572" lon="1.14818">
        <ele>229.6</ele>
        <time>2017-09-17T08:23:19Z</time>
      </trkpt>
      <trkpt lat="49.25576" lon="1.14805">
        <ele>229.9</ele>
        <time>2017-09-17T08:23:21Z</time>
      </trkpt>
      <trkpt lat="49.25581" lon="1.14788">
        <ele>230.1</ele>
        <time>2017-09-17T08:23:24Z</time>
      </trkpt>
      <trkpt lat="49.25582" lon="1.14774">
        <ele>230.3</ele>
        <time>2017-09-17T08:23:26Z</time>
      </trkpt>
      <trkpt lat="49.25586" lon="1.1476">
        <ele>230.5</ele>
        <time>2017-09-17T08:23:28Z</time>
      </trkpt>
      <trkpt lat="49.25589" lon="1.14745">
        <ele>230.6</ele>
        <time>2017-09-17T08:23:30Z</time>
      </trkpt>
      <trkpt lat="49.2559" lon="1.14726">
        <ele>230.6</ele>
        <time>2017-09-17T08:23:33Z</time>
      </trkpt>
      <trkpt lat="49.25586" lon="1.14713">
        <ele>230.5</ele>
        <time>2017-09-17T08:23:36Z</time>
      </trkpt>
      <trkpt lat="49.25576" lon="1.14703">
        <ele>230.5</ele>
        <time>2017-09-17T08:23:39Z</time>
      </trkpt>
      <trkpt lat="49.25567" lon="1.14697">
        <ele>230.3</ele>
        <time>2017-09-17T08:23:41Z</time>
      </trkpt>
      <trkpt lat="49.25557" lon="1.14691">
        <ele>230.1</ele>
        <time>2017-09-17T08:23:43Z</time>
      </trkpt>
      <trkpt lat="49.25548" lon="1.14686">
        <ele>229.8</ele>
        <time>2017-09-17T08:23:45Z</time>
      </trkpt>
      <trkpt lat="49.25537" lon="1.14678">
        <ele>229.6</ele>
        <time>2017-09-17T08:23:47Z</time>
      </trkpt>
      <trkpt lat="49.25532" lon="1.1466">
        <ele>229</ele>
        <time>2017-09-17T08:23:50Z</time>
      </trkpt>
      <trkpt lat="49.25533" lon="1.14642">
        <ele>228.7</ele>
        <time>2017-09-17T08:23:53Z</time>
      </trkpt>
      <trkpt lat="49.25538" lon="1.14625">
        <ele>228.3</ele>
        <time>2017-09-17T08:23:56Z</time>
      </trkpt>
      <trkpt lat="49.25542" lon="1.14611">
        <ele>228.3</ele>
        <time>2017-09-17T08:23:59Z</time>
      </trkpt>
      <trkpt lat="49.25544" lon="1.14595">
        <ele>228.1</ele>
        <time>2017-09-17T08:24:03Z</time>
      </trkpt>
      <trkpt lat="49.25546" lon="1.14577">
        <ele>228.2</ele>
        <time>2017-09-17T08:24:07Z</time>
      </trkpt>
      <trkpt lat="49.25548" lon="1.14559">
        <ele>228.4</ele>
        <time>2017-09-17T08:24:11Z</time>
      </trkpt>
      <trkpt lat="49.25551" lon="1.14544">
        <ele>228.3</ele>
        <time>2017-09-17T08:24:14Z</time>
      </trkpt>
      <trkpt lat="49.25553" lon="1.14529">
        <ele>228.5</ele>
        <time>2017-09-17T08:24:17Z</time>
      </trkpt>
      <trkpt lat="49.25555" lon="1.14515">
        <ele>228.6</ele>
        <time>2017-09-17T08:24:20Z</time>
      </trkpt>
      <trkpt lat="49.25557" lon="1.14498">
        <ele>228.4</ele>
        <time>2017-09-17T08:24:24Z</time>
      </trkpt>
      <trkpt lat="49.25559" lon="1.14483">
        <ele>228.7</ele>
        <time>2017-09-17T08:24:30Z</time>
      </trkpt>
      <trkpt lat="49.25561" lon="1.14466">
        <ele>228.5</ele>
        <time>2017-09-17T08:24:35Z</time>
      </trkpt>
      <trkpt lat="49.25564" lon="1.14449">
        <ele>228.5</ele>
        <time>2017-09-17T08:24:39Z</time>
      </trkpt>
      <trkpt lat="49.25566" lon="1.14432">
        <ele>228.8</ele>
        <time>2017-09-17T08:24:43Z</time>
      </trkpt>
      <trkpt lat="49.25569" lon="1.14415">
        <ele>229</ele>
        <time>2017-09-17T08:24:47Z</time>
      </trkpt>
      <trkpt lat="49.25572" lon="1.14401">
        <ele>229</ele>
        <time>2017-09-17T08:24:51Z</time>
      </trkpt>
      <trkpt lat="49.25575" lon="1.14384">
        <ele>229</ele>
        <time>2017-09-17T08:24:56Z</time>
      </trkpt>
      <trkpt lat="49.2558" lon="1.14369">
        <ele>229.2</ele>
        <time>2017-09-17T08:25:00Z</time>
      </trkpt>
      <trkpt lat="49.25582" lon="1.14354">
        <ele>229.3</ele>
        <time>2017-09-17T08:25:04Z</time>
      </trkpt>
      <trkpt lat="49.25584" lon="1.14338">
        <ele>229.6</ele>
        <time>2017-09-17T08:25:09Z</time>
      </trkpt>
      <trkpt lat="49.25589" lon="1.14323">
        <ele>229</ele>
        <time>2017-09-17T08:25:15Z</time>
      </trkpt>
      <trkpt lat="49.25592" lon="1.14308">
        <ele>229.9</ele>
        <time>2017-09-17T08:25:19Z</time>
      </trkpt>
      <trkpt lat="49.25595" lon="1.14294">
        <ele>230.2</ele>
        <time>2017-09-17T08:25:22Z</time>
      </trkpt>
      <trkpt lat="49.25598" lon="1.14278">
        <ele>230.5</ele>
        <time>2017-09-17T08:25:25Z</time>
      </trkpt>
      <trkpt lat="49.25601" lon="1.14262">
        <ele>230.6</ele>
        <time>2017-09-17T08:25:28Z</time>
      </trkpt>
      <trkpt lat="49.25605" lon="1.14245">
        <ele>230.8</ele>
        <time>2017-09-17T08:25:31Z</time>
      </trkpt>
      <trkpt lat="49.25607" lon="1.14228">
        <ele>230.9</ele>
        <time>2017-09-17T08:25:34Z</time>
      </trkpt>
      <trkpt lat="49.25603" lon="1.14213">
        <ele>231.1</ele>
        <time>2017-09-17T08:25:37Z</time>
      </trkpt>
      <trkpt lat="49.25596" lon="1.14204">
        <ele>231.1</ele>
        <time>2017-09-17T08:25:39Z</time>
      </trkpt>
      <trkpt lat="49.25584" lon="1.14196">
        <ele>231.3</ele>
        <time>2017-09-17T08:25:42Z</time>
      </trkpt>
      <trkpt lat="49.25572" lon="1.1419">
        <ele>231.6</ele>
        <time>2017-09-17T08:25:45Z</time>
      </trkpt>
      <trkpt lat="49.2556" lon="1.14184">
        <ele>231.8</ele>
        <time>2017-09-17T08:25:48Z</time>
      </trkpt>
      <trkpt lat="49.25547" lon="1.14178">
        <ele>232.1</ele>
        <time>2017-09-17T08:25:51Z</time>
      </trkpt>
      <trkpt lat="49.25535" lon="1.14171">
        <ele>232.4</ele>
        <time>2017-09-17T08:25:54Z</time>
      </trkpt>
      <trkpt lat="49.25526" lon="1.14166">
        <ele>232.6</ele>
        <time>2017-09-17T08:25:56Z</time>
      </trkpt>
      <trkpt lat="49.25514" lon="1.1416">
        <ele>232.7</ele>
        <time>2017-09-17T08:25:59Z</time>
      </trkpt>
      <trkpt lat="49.25501" lon="1.14157">
        <ele>233.2</ele>
        <time>2017-09-17T08:26:02Z</time>
      </trkpt>
      <trkpt lat="49.25488" lon="1.14151">
        <ele>233.6</ele>
        <time>2017-09-17T08:26:05Z</time>
      </trkpt>
      <trkpt lat="49.25479" lon="1.14147">
        <ele>233.9</ele>
        <time>2017-09-17T08:26:07Z</time>
      </trkpt>
      <trkpt lat="49.25469" lon="1.14142">
        <ele>234.2</ele>
        <time>2017-09-17T08:26:09Z</time>
      </trkpt>
      <trkpt lat="49.25461" lon="1.14137">
        <ele>234.5</ele>
        <time>2017-09-17T08:26:11Z</time>
      </trkpt>
      <trkpt lat="49.25451" lon="1.14133">
        <ele>234.7</ele>
        <time>2017-09-17T08:26:13Z</time>
      </trkpt>
      <trkpt lat="49.25442" lon="1.14128">
        <ele>234.8</ele>
        <time>2017-09-17T08:26:15Z</time>
      </trkpt>
      <trkpt lat="49.25433" lon="1.14124">
        <ele>235.1</ele>
        <time>2017-09-17T08:26:17Z</time>
      </trkpt>
      <trkpt lat="49.25423" lon="1.14121">
        <ele>235.5</ele>
        <time>2017-09-17T08:26:19Z</time>
      </trkpt>
      <trkpt lat="49.25413" lon="1.14117">
        <ele>235.9</ele>
        <time>2017-09-17T08:26:21Z</time>
      </trkpt>
      <trkpt lat="49.25404" lon="1.14112">
        <ele>236.2</ele>
        <time>2017-09-17T08:26:23Z</time>
      </trkpt>
      <trkpt lat="49.25394" lon="1.14108">
        <ele>236.5</ele>
        <time>2017-09-17T08:26:25Z</time>
      </trkpt>
      <trkpt lat="49.25384" lon="1.14102">
        <ele>236.6</ele>
        <time>2017-09-17T08:26:27Z</time>
      </trkpt>
      <trkpt lat="49.25374" lon="1.14097">
        <ele>236.7</ele>
        <time>2017-09-17T08:26:29Z</time>
      </trkpt>
      <trkpt lat="49.25363" lon="1.14091">
        <ele>236.7</ele>
        <time>2017-09-17T08:26:31Z</time>
      </trkpt>
      <trkpt lat="49.25351" lon="1.14086">
        <ele>236.7</ele>
        <time>2017-09-17T08:26:33Z</time>
      </trkpt>
      <trkpt lat="49.2534" lon="1.1408">
        <ele>236.6</ele>
        <time>2017-09-17T08:26:35Z</time>
      </trkpt>
      <trkpt lat="49.25329" lon="1.14074">
        <ele>236.6</ele>
        <time>2017-09-17T08:26:37Z</time>
      </trkpt>
      <trkpt lat="49.25317" lon="1.14069">
        <ele>236.5</ele>
        <time>2017-09-17T08:26:39Z</time>
      </trkpt>
      <trkpt lat="49.25306" lon="1.14064">
        <ele>236.4</ele>
        <time>2017-09-17T08:26:41Z</time>
      </trkpt>
      <trkpt lat="49.25294" lon="1.14059">
        <ele>236.5</ele>
        <time>2017-09-17T08:26:43Z</time>
      </trkpt>
      <trkpt lat="49.25283" lon="1.14054">
        <ele>236.5</ele>
        <time>2017-09-17T08:26:45Z</time>
      </trkpt>
      <trkpt lat="49.25271" lon="1.14049">
        <ele>236.3</ele>
        <time>2017-09-17T08:26:47Z</time>
      </trkpt>
      <trkpt lat="49.25259" lon="1.14044">
        <ele>236.2</ele>
        <time>2017-09-17T08:26:49Z</time>
      </trkpt>
      <trkpt lat="49.25247" lon="1.14038">
        <ele>236</ele>
        <time>2017-09-17T08:26:51Z</time>
      </trkpt>
      <trkpt lat="49.25235" lon="1.14033">
        <ele>235.7</ele>
        <time>2017-09-17T08:26:53Z</time>
      </trkpt>
      <trkpt lat="49.25222" lon="1.14027">
        <ele>235.4</ele>
        <time>2017-09-17T08:26:55Z</time>
      </trkpt>
      <trkpt lat="49.25209" lon="1.14021">
        <ele>234.8</ele>
        <time>2017-09-17T08:26:57Z</time>
      </trkpt>
      <trkpt lat="49.25195" lon="1.14015">
        <ele>234.2</ele>
        <time>2017-09-17T08:26:59Z</time>
      </trkpt>
      <trkpt lat="49.25181" lon="1.14013">
        <ele>233.3</ele>
        <time>2017-09-17T08:27:01Z</time>
      </trkpt>
      <trkpt lat="49.25167" lon="1.14017">
        <ele>232.1</ele>
        <time>2017-09-17T08:27:03Z</time>
      </trkpt>
      <trkpt lat="49.25159" lon="1.14023">
        <ele>231.4</ele>
        <time>2017-09-17T08:27:04Z</time>
      </trkpt>
      <trkpt lat="49.25151" lon="1.1403">
        <ele>230.7</ele>
        <time>2017-09-17T08:27:05Z</time>
      </trkpt>
      <trkpt lat="49.25143" lon="1.14036">
        <ele>229.9</ele>
        <time>2017-09-17T08:27:06Z</time>
      </trkpt>
      <trkpt lat="49.25135" lon="1.14044">
        <ele>229.2</ele>
        <time>2017-09-17T08:27:07Z</time>
      </trkpt>
      <trkpt lat="49.25127" lon="1.14052">
        <ele>228.6</ele>
        <time>2017-09-17T08:27:08Z</time>
      </trkpt>
      <trkpt lat="49.25118" lon="1.14061">
        <ele>227.8</ele>
        <time>2017-09-17T08:27:09Z</time>
      </trkpt>
      <trkpt lat="49.2511" lon="1.14071">
        <ele>227</ele>
        <time>2017-09-17T08:27:10Z</time>
      </trkpt>
      <trkpt lat="49.25102" lon="1.14081">
        <ele>226.1</ele>
        <time>2017-09-17T08:27:11Z</time>
      </trkpt>
      <trkpt lat="49.25093" lon="1.14091">
        <ele>225.1</ele>
        <time>2017-09-17T08:27:12Z</time>
      </trkpt>
      <trkpt lat="49.25085" lon="1.14102">
        <ele>224.2</ele>
        <time>2017-09-17T08:27:13Z</time>
      </trkpt>
      <trkpt lat="49.25076" lon="1.14113">
        <ele>223.3</ele>
        <time>2017-09-17T08:27:14Z</time>
      </trkpt>
      <trkpt lat="49.25067" lon="1.14125">
        <ele>222.2</ele>
        <time>2017-09-17T08:27:15Z</time>
      </trkpt>
      <trkpt lat="49.25059" lon="1.14135">
        <ele>221.2</ele>
        <time>2017-09-17T08:27:16Z</time>
      </trkpt>
      <trkpt lat="49.2505" lon="1.14146">
        <ele>220.2</ele>
        <time>2017-09-17T08:27:17Z</time>
      </trkpt>
      <trkpt lat="49.25042" lon="1.14157">
        <ele>219.1</ele>
        <time>2017-09-17T08:27:18Z</time>
      </trkpt>
      <trkpt lat="49.25035" lon="1.1417">
        <ele>217.9</ele>
        <time>2017-09-17T08:27:19Z</time>
      </trkpt>
      <trkpt lat="49.25028" lon="1.14184">
        <ele>216.9</ele>
        <time>2017-09-17T08:27:20Z</time>
      </trkpt>
      <trkpt lat="49.25023" lon="1.14198">
        <ele>215.9</ele>
        <time>2017-09-17T08:27:21Z</time>
      </trkpt>
      <trkpt lat="49.25018" lon="1.1421">
        <ele>214.7</ele>
        <time>2017-09-17T08:27:22Z</time>
      </trkpt>
      <trkpt lat="49.2501" lon="1.14225">
        <ele>212.4</ele>
        <time>2017-09-17T08:27:24Z</time>
      </trkpt>
      <trkpt lat="49.25" lon="1.14216">
        <ele>209.1</ele>
        <time>2017-09-17T08:27:27Z</time>
      </trkpt>
      <trkpt lat="49.25" lon="1.14198">
        <ele>207</ele>
        <time>2017-09-17T08:27:29Z</time>
      </trkpt>
      <trkpt lat="49.25001" lon="1.14176">
        <ele>205.5</ele>
        <time>2017-09-17T08:27:31Z</time>
      </trkpt>
      <trkpt lat="49.25004" lon="1.1415">
        <ele>203.9</ele>
        <time>2017-09-17T08:27:33Z</time>
      </trkpt>
      <trkpt lat="49.25006" lon="1.14136">
        <ele>203.3</ele>
        <time>2017-09-17T08:27:34Z</time>
      </trkpt>
      <trkpt lat="49.25008" lon="1.14122">
        <ele>202.5</ele>
        <time>2017-09-17T08:27:35Z</time>
      </trkpt>
      <trkpt lat="49.25009" lon="1.14107">
        <ele>201.6</ele>
        <time>2017-09-17T08:27:36Z</time>
      </trkpt>
      <trkpt lat="49.2501" lon="1.14091">
        <ele>200.8</ele>
        <time>2017-09-17T08:27:37Z</time>
      </trkpt>
      <trkpt lat="49.25011" lon="1.14076">
        <ele>199.9</ele>
        <time>2017-09-17T08:27:38Z</time>
      </trkpt>
      <trkpt lat="49.25013" lon="1.1406">
        <ele>199.1</ele>
        <time>2017-09-17T08:27:39Z</time>
      </trkpt>
      <trkpt lat="49.25015" lon="1.14043">
        <ele>198.2</ele>
        <time>2017-09-17T08:27:40Z</time>
      </trkpt>
      <trkpt lat="49.25018" lon="1.14026">
        <ele>197.2</ele>
        <time>2017-09-17T08:27:41Z</time>
      </trkpt>
      <trkpt lat="49.2502" lon="1.14012">
        <ele>196.4</ele>
        <time>2017-09-17T08:27:42Z</time>
      </trkpt>
      <trkpt lat="49.25024" lon="1.13998">
        <ele>195.2</ele>
        <time>2017-09-17T08:27:43Z</time>
      </trkpt>
      <trkpt lat="49.25028" lon="1.13985">
        <ele>194.2</ele>
        <time>2017-09-17T08:27:44Z</time>
      </trkpt>
      <trkpt lat="49.25032" lon="1.13964">
        <ele>191</ele>
        <time>2017-09-17T08:27:46Z</time>
      </trkpt>
      <trkpt lat="49.25029" lon="1.13942">
        <ele>188.2</ele>
        <time>2017-09-17T08:27:49Z</time>
      </trkpt>
      <trkpt lat="49.25021" lon="1.13933">
        <ele>186.4</ele>
        <time>2017-09-17T08:27:51Z</time>
      </trkpt>
      <trkpt lat="49.25021" lon="1.13914">
        <ele>183.7</ele>
        <time>2017-09-17T08:27:55Z</time>
      </trkpt>
      <trkpt lat="49.25029" lon="1.139">
        <ele>182.4</ele>
        <time>2017-09-17T08:27:58Z</time>
      </trkpt>
      <trkpt lat="49.2503" lon="1.13886">
        <ele>181.7</ele>
        <time>2017-09-17T08:28:00Z</time>
      </trkpt>
      <trkpt lat="49.25036" lon="1.13868">
        <ele>181.1</ele>
        <time>2017-09-17T08:28:03Z</time>
      </trkpt>
      <trkpt lat="49.25042" lon="1.13851">
        <ele>180.8</ele>
        <time>2017-09-17T08:28:06Z</time>
      </trkpt>
      <trkpt lat="49.25042" lon="1.13836">
        <ele>180.8</ele>
        <time>2017-09-17T08:28:08Z</time>
      </trkpt>
      <trkpt lat="49.25047" lon="1.13818">
        <ele>180.6</ele>
        <time>2017-09-17T08:28:11Z</time>
      </trkpt>
      <trkpt lat="49.25049" lon="1.13799">
        <ele>180.7</ele>
        <time>2017-09-17T08:28:14Z</time>
      </trkpt>
      <trkpt lat="49.25045" lon="1.13779">
        <ele>180.8</ele>
        <time>2017-09-17T08:28:16Z</time>
      </trkpt>
      <trkpt lat="49.25043" lon="1.13765">
        <ele>180.9</ele>
        <time>2017-09-17T08:28:18Z</time>
      </trkpt>
      <trkpt lat="49.25043" lon="1.13748">
        <ele>181.1</ele>
        <time>2017-09-17T08:28:21Z</time>
      </trkpt>
      <trkpt lat="49.2504" lon="1.13733">
        <ele>181</ele>
        <time>2017-09-17T08:28:23Z</time>
      </trkpt>
      <trkpt lat="49.25037" lon="1.1372">
        <ele>181.1</ele>
        <time>2017-09-17T08:28:25Z</time>
      </trkpt>
      <trkpt lat="49.25031" lon="1.137">
        <ele>181.3</ele>
        <time>2017-09-17T08:28:28Z</time>
      </trkpt>
      <trkpt lat="49.25025" lon="1.13688">
        <ele>181.6</ele>
        <time>2017-09-17T08:28:30Z</time>
      </trkpt>
      <trkpt lat="49.25019" lon="1.13674">
        <ele>181.7</ele>
        <time>2017-09-17T08:28:33Z</time>
      </trkpt>
      <trkpt lat="49.25014" lon="1.13657">
        <ele>181.8</ele>
        <time>2017-09-17T08:28:36Z</time>
      </trkpt>
      <trkpt lat="49.25011" lon="1.13643">
        <ele>182.2</ele>
        <time>2017-09-17T08:28:39Z</time>
      </trkpt>
      <trkpt lat="49.25004" lon="1.13631">
        <ele>182.4</ele>
        <time>2017-09-17T08:28:41Z</time>
      </trkpt>
      <trkpt lat="49.24999" lon="1.13619">
        <ele>182.6</ele>
        <time>2017-09-17T08:28:43Z</time>
      </trkpt>
      <trkpt lat="49.24992" lon="1.13609">
        <ele>182.8</ele>
        <time>2017-09-17T08:28:45Z</time>
      </trkpt>
      <trkpt lat="49.24985" lon="1.13595">
        <ele>182.9</ele>
        <time>2017-09-17T08:28:47Z</time>
      </trkpt>
      <trkpt lat="49.24977" lon="1.13577">
        <ele>183.1</ele>
        <time>2017-09-17T08:28:50Z</time>
      </trkpt>
      <trkpt lat="49.2497" lon="1.13561">
        <ele>183.1</ele>
        <time>2017-09-17T08:28:52Z</time>
      </trkpt>
      <trkpt lat="49.24964" lon="1.13549">
        <ele>183.1</ele>
        <time>2017-09-17T08:28:54Z</time>
      </trkpt>
      <trkpt lat="49.24957" lon="1.13535">
        <ele>183</ele>
        <time>2017-09-17T08:28:56Z</time>
      </trkpt>
      <trkpt lat="49.2495" lon="1.13522">
        <ele>183</ele>
        <time>2017-09-17T08:28:58Z</time>
      </trkpt>
      <trkpt lat="49.24943" lon="1.13511">
        <ele>183.2</ele>
        <time>2017-09-17T08:29:00Z</time>
      </trkpt>
      <trkpt lat="49.24935" lon="1.13496">
        <ele>183.6</ele>
        <time>2017-09-17T08:29:03Z</time>
      </trkpt>
      <trkpt lat="49.24929" lon="1.13479">
        <ele>183.8</ele>
        <time>2017-09-17T08:29:06Z</time>
      </trkpt>
      <trkpt lat="49.24925" lon="1.13466">
        <ele>183.8</ele>
        <time>2017-09-17T08:29:08Z</time>
      </trkpt>
      <trkpt lat="49.24916" lon="1.13444">
        <ele>183.9</ele>
        <time>2017-09-17T08:29:11Z</time>
      </trkpt>
      <trkpt lat="49.24911" lon="1.13432">
        <ele>184</ele>
        <time>2017-09-17T08:29:13Z</time>
      </trkpt>
      <trkpt lat="49.24909" lon="1.13417">
        <ele>184.2</ele>
        <time>2017-09-17T08:29:15Z</time>
      </trkpt>
      <trkpt lat="49.24906" lon="1.134">
        <ele>184.4</ele>
        <time>2017-09-17T08:29:17Z</time>
      </trkpt>
      <trkpt lat="49.24902" lon="1.13381">
        <ele>184.4</ele>
        <time>2017-09-17T08:29:19Z</time>
      </trkpt>
      <trkpt lat="49.249" lon="1.13363">
        <ele>184.4</ele>
        <time>2017-09-17T08:29:21Z</time>
      </trkpt>
      <trkpt lat="49.249" lon="1.13347">
        <ele>184.5</ele>
        <time>2017-09-17T08:29:23Z</time>
      </trkpt>
      <trkpt lat="49.24901" lon="1.1333">
        <ele>184</ele>
        <time>2017-09-17T08:29:25Z</time>
      </trkpt>
      <trkpt lat="49.24903" lon="1.13306">
        <ele>185.2</ele>
        <time>2017-09-17T08:29:28Z</time>
      </trkpt>
      <trkpt lat="49.24903" lon="1.13289">
        <ele>185.3</ele>
        <time>2017-09-17T08:29:30Z</time>
      </trkpt>
      <trkpt lat="49.24904" lon="1.13274">
        <ele>185.5</ele>
        <time>2017-09-17T08:29:32Z</time>
      </trkpt>
      <trkpt lat="49.24906" lon="1.13252">
        <ele>185.7</ele>
        <time>2017-09-17T08:29:35Z</time>
      </trkpt>
      <trkpt lat="49.2491" lon="1.13232">
        <ele>185</ele>
        <time>2017-09-17T08:29:38Z</time>
      </trkpt>
      <trkpt lat="49.24914" lon="1.13212">
        <ele>186.5</ele>
        <time>2017-09-17T08:29:41Z</time>
      </trkpt>
      <trkpt lat="49.24922" lon="1.13183">
        <ele>186.9</ele>
        <time>2017-09-17T08:29:46Z</time>
      </trkpt>
      <trkpt lat="49.24929" lon="1.13171">
        <ele>187.3</ele>
        <time>2017-09-17T08:29:49Z</time>
      </trkpt>
      <trkpt lat="49.24937" lon="1.1316">
        <ele>187.7</ele>
        <time>2017-09-17T08:29:52Z</time>
      </trkpt>
      <trkpt lat="49.24946" lon="1.1315">
        <ele>188.2</ele>
        <time>2017-09-17T08:29:55Z</time>
      </trkpt>
      <trkpt lat="49.24956" lon="1.1314">
        <ele>188.6</ele>
        <time>2017-09-17T08:29:58Z</time>
      </trkpt>
      <trkpt lat="49.24965" lon="1.13128">
        <ele>188.9</ele>
        <time>2017-09-17T08:30:01Z</time>
      </trkpt>
      <trkpt lat="49.24972" lon="1.13115">
        <ele>189.3</ele>
        <time>2017-09-17T08:30:04Z</time>
      </trkpt>
      <trkpt lat="49.24979" lon="1.13104">
        <ele>189.4</ele>
        <time>2017-09-17T08:30:06Z</time>
      </trkpt>
      <trkpt lat="49.24987" lon="1.13089">
        <ele>189.6</ele>
        <time>2017-09-17T08:30:09Z</time>
      </trkpt>
      <trkpt lat="49.24993" lon="1.13075">
        <ele>189.7</ele>
        <time>2017-09-17T08:30:11Z</time>
      </trkpt>
      <trkpt lat="49.24999" lon="1.13063">
        <ele>189.8</ele>
        <time>2017-09-17T08:30:13Z</time>
      </trkpt>
      <trkpt lat="49.25005" lon="1.13045">
        <ele>190.1</ele>
        <time>2017-09-17T08:30:16Z</time>
      </trkpt>
      <trkpt lat="49.25012" lon="1.13033">
        <ele>190.4</ele>
        <time>2017-09-17T08:30:19Z</time>
      </trkpt>
      <trkpt lat="49.25018" lon="1.13023">
        <ele>190.8</ele>
        <time>2017-09-17T08:30:22Z</time>
      </trkpt>
      <trkpt lat="49.25027" lon="1.1301">
        <ele>191</ele>
        <time>2017-09-17T08:30:25Z</time>
      </trkpt>
      <trkpt lat="49.25035" lon="1.13">
        <ele>191.1</ele>
        <time>2017-09-17T08:30:27Z</time>
      </trkpt>
      <trkpt lat="49.25042" lon="1.1299">
        <ele>191.1</ele>
        <time>2017-09-17T08:30:29Z</time>
      </trkpt>
      <trkpt lat="49.2505" lon="1.12974">
        <ele>191.4</ele>
        <time>2017-09-17T08:30:32Z</time>
      </trkpt>
      <trkpt lat="49.25053" lon="1.12961">
        <ele>191.6</ele>
        <time>2017-09-17T08:30:34Z</time>
      </trkpt>
      <trkpt lat="49.25055" lon="1.12946">
        <ele>191.7</ele>
        <time>2017-09-17T08:30:36Z</time>
      </trkpt>
      <trkpt lat="49.25058" lon="1.12928">
        <ele>191.8</ele>
        <time>2017-09-17T08:30:39Z</time>
      </trkpt>
      <trkpt lat="49.25062" lon="1.12914">
        <ele>192</ele>
        <time>2017-09-17T08:30:41Z</time>
      </trkpt>
      <trkpt lat="49.25065" lon="1.12898">
        <ele>192.3</ele>
        <time>2017-09-17T08:30:44Z</time>
      </trkpt>
      <trkpt lat="49.25063" lon="1.12877">
        <ele>192.7</ele>
        <time>2017-09-17T08:30:47Z</time>
      </trkpt>
      <trkpt lat="49.25063" lon="1.12863">
        <ele>192.9</ele>
        <time>2017-09-17T08:30:49Z</time>
      </trkpt>
      <trkpt lat="49.25061" lon="1.12848">
        <ele>193.1</ele>
        <time>2017-09-17T08:30:51Z</time>
      </trkpt>
      <trkpt lat="49.25061" lon="1.12831">
        <ele>193.3</ele>
        <time>2017-09-17T08:30:54Z</time>
      </trkpt>
      <trkpt lat="49.25061" lon="1.12816">
        <ele>193.6</ele>
        <time>2017-09-17T08:30:57Z</time>
      </trkpt>
      <trkpt lat="49.25063" lon="1.12798">
        <ele>193.8</ele>
        <time>2017-09-17T08:31:00Z</time>
      </trkpt>
      <trkpt lat="49.25064" lon="1.12783">
        <ele>193.9</ele>
        <time>2017-09-17T08:31:02Z</time>
      </trkpt>
      <trkpt lat="49.25063" lon="1.12764">
        <ele>194.2</ele>
        <time>2017-09-17T08:31:05Z</time>
      </trkpt>
      <trkpt lat="49.25063" lon="1.12749">
        <ele>194.2</ele>
        <time>2017-09-17T08:31:07Z</time>
      </trkpt>
      <trkpt lat="49.25062" lon="1.12733">
        <ele>194.5</ele>
        <time>2017-09-17T08:31:10Z</time>
      </trkpt>
      <trkpt lat="49.25055" lon="1.12725">
        <ele>194.8</ele>
        <time>2017-09-17T08:31:13Z</time>
      </trkpt>
      <trkpt lat="49.25044" lon="1.1272">
        <ele>194.9</ele>
        <time>2017-09-17T08:31:17Z</time>
      </trkpt>
      <trkpt lat="49.25034" lon="1.12728">
        <ele>194.3</ele>
        <time>2017-09-17T08:31:21Z</time>
      </trkpt>
      <trkpt lat="49.25024" lon="1.12737">
        <ele>194.7</ele>
        <time>2017-09-17T08:31:25Z</time>
      </trkpt>
      <trkpt lat="49.25016" lon="1.12749">
        <ele>194.9</ele>
        <time>2017-09-17T08:31:29Z</time>
      </trkpt>
      <trkpt lat="49.25016" lon="1.12764">
        <ele>195</ele>
        <time>2017-09-17T08:31:33Z</time>
      </trkpt>
      <trkpt lat="49.25018" lon="1.12781">
        <ele>194.5</ele>
        <time>2017-09-17T08:31:39Z</time>
      </trkpt>
      <trkpt lat="49.25015" lon="1.12798">
        <ele>194.3</ele>
        <time>2017-09-17T08:31:43Z</time>
      </trkpt>
      <trkpt lat="49.25012" lon="1.12815">
        <ele>194.3</ele>
        <time>2017-09-17T08:31:46Z</time>
      </trkpt>
      <trkpt lat="49.25008" lon="1.12828">
        <ele>194.1</ele>
        <time>2017-09-17T08:31:49Z</time>
      </trkpt>
      <trkpt lat="49.25003" lon="1.12843">
        <ele>193.7</ele>
        <time>2017-09-17T08:31:53Z</time>
      </trkpt>
      <trkpt lat="49.24997" lon="1.12855">
        <ele>193.5</ele>
        <time>2017-09-17T08:31:56Z</time>
      </trkpt>
      <trkpt lat="49.24993" lon="1.12871">
        <ele>193</ele>
        <time>2017-09-17T08:32:00Z</time>
      </trkpt>
      <trkpt lat="49.24986" lon="1.12886">
        <ele>192.6</ele>
        <time>2017-09-17T08:32:03Z</time>
      </trkpt>
      <trkpt lat="49.24979" lon="1.129">
        <ele>192.4</ele>
        <time>2017-09-17T08:32:06Z</time>
      </trkpt>
      <trkpt lat="49.24973" lon="1.12916">
        <ele>192</ele>
        <time>2017-09-17T08:32:09Z</time>
      </trkpt>
      <trkpt lat="49.24968" lon="1.12929">
        <ele>191.8</ele>
        <time>2017-09-17T08:32:11Z</time>
      </trkpt>
      <trkpt lat="49.24962" lon="1.12943">
        <ele>191.6</ele>
        <time>2017-09-17T08:32:14Z</time>
      </trkpt>
      <trkpt lat="49.24956" lon="1.12954">
        <ele>191.2</ele>
        <time>2017-09-17T08:32:16Z</time>
      </trkpt>
      <trkpt lat="49.24947" lon="1.12967">
        <ele>191</ele>
        <time>2017-09-17T08:32:19Z</time>
      </trkpt>
      <trkpt lat="49.24938" lon="1.12978">
        <ele>190.8</ele>
        <time>2017-09-17T08:32:22Z</time>
      </trkpt>
      <trkpt lat="49.24931" lon="1.12987">
        <ele>190.6</ele>
        <time>2017-09-17T08:32:25Z</time>
      </trkpt>
      <trkpt lat="49.2492" lon="1.13">
        <ele>190</ele>
        <time>2017-09-17T08:32:28Z</time>
      </trkpt>
      <trkpt lat="49.24913" lon="1.1301">
        <ele>189.8</ele>
        <time>2017-09-17T08:32:30Z</time>
      </trkpt>
      <trkpt lat="49.24907" lon="1.1302">
        <ele>189.8</ele>
        <time>2017-09-17T08:32:32Z</time>
      </trkpt>
      <trkpt lat="49.24899" lon="1.13031">
        <ele>189.7</ele>
        <time>2017-09-17T08:32:34Z</time>
      </trkpt>
      <trkpt lat="49.24892" lon="1.13043">
        <ele>189.7</ele>
        <time>2017-09-17T08:32:36Z</time>
      </trkpt>
      <trkpt lat="49.24887" lon="1.13057">
        <ele>189.3</ele>
        <time>2017-09-17T08:32:39Z</time>
      </trkpt>
      <trkpt lat="49.24882" lon="1.13071">
        <ele>188.5</ele>
        <time>2017-09-17T08:32:51Z</time>
      </trkpt>
      <trkpt lat="49.24877" lon="1.13087">
        <ele>188.5</ele>
        <time>2017-09-17T08:32:54Z</time>
      </trkpt>
      <trkpt lat="49.24875" lon="1.13102">
        <ele>188.5</ele>
        <time>2017-09-17T08:32:57Z</time>
      </trkpt>
      <trkpt lat="49.24872" lon="1.13119">
        <ele>188.5</ele>
        <time>2017-09-17T08:33:00Z</time>
      </trkpt>
      <trkpt lat="49.2487" lon="1.13137">
        <ele>188.4</ele>
        <time>2017-09-17T08:33:03Z</time>
      </trkpt>
      <trkpt lat="49.24866" lon="1.13153">
        <ele>188.3</ele>
        <time>2017-09-17T08:33:06Z</time>
      </trkpt>
      <trkpt lat="49.24861" lon="1.13171">
        <ele>188.2</ele>
        <time>2017-09-17T08:33:09Z</time>
      </trkpt>
      <trkpt lat="49.24857" lon="1.13184">
        <ele>188.1</ele>
        <time>2017-09-17T08:33:12Z</time>
      </trkpt>
      <trkpt lat="49.24849" lon="1.13192">
        <ele>187.9</ele>
        <time>2017-09-17T08:33:16Z</time>
      </trkpt>
      <trkpt lat="49.24839" lon="1.13192">
        <ele>188.3</ele>
        <time>2017-09-17T08:33:22Z</time>
      </trkpt>
      <trkpt lat="49.24829" lon="1.1319">
        <ele>189.9</ele>
        <time>2017-09-17T08:33:29Z</time>
      </trkpt>
      <trkpt lat="49.2482" lon="1.13185">
        <ele>191.5</ele>
        <time>2017-09-17T08:33:36Z</time>
      </trkpt>
      <trkpt lat="49.2481" lon="1.13181">
        <ele>193.1</ele>
        <time>2017-09-17T08:33:43Z</time>
      </trkpt>
      <trkpt lat="49.24801" lon="1.13178">
        <ele>194.8</ele>
        <time>2017-09-17T08:33:50Z</time>
      </trkpt>
      <trkpt lat="49.24792" lon="1.1317">
        <ele>196.4</ele>
        <time>2017-09-17T08:33:57Z</time>
      </trkpt>
      <trkpt lat="49.24783" lon="1.13165">
        <ele>198.4</ele>
        <time>2017-09-17T08:34:08Z</time>
      </trkpt>
      <trkpt lat="49.24774" lon="1.13163">
        <ele>200.8</ele>
        <time>2017-09-17T08:34:19Z</time>
      </trkpt>
      <trkpt lat="49.24768" lon="1.13176">
        <ele>203.5</ele>
        <time>2017-09-17T08:34:38Z</time>
      </trkpt>
      <trkpt lat="49.24767" lon="1.13191">
        <ele>203.4</ele>
        <time>2017-09-17T08:34:43Z</time>
      </trkpt>
      <trkpt lat="49.24766" lon="1.13206">
        <ele>203.4</ele>
        <time>2017-09-17T08:34:46Z</time>
      </trkpt>
      <trkpt lat="49.24766" lon="1.1322">
        <ele>203.1</ele>
        <time>2017-09-17T08:34:49Z</time>
      </trkpt>
      <trkpt lat="49.24766" lon="1.13234">
        <ele>202.9</ele>
        <time>2017-09-17T08:34:52Z</time>
      </trkpt>
      <trkpt lat="49.24768" lon="1.13251">
        <ele>202.8</ele>
        <time>2017-09-17T08:34:55Z</time>
      </trkpt>
      <trkpt lat="49.24769" lon="1.13267">
        <ele>202.7</ele>
        <time>2017-09-17T08:34:58Z</time>
      </trkpt>
      <trkpt lat="49.24767" lon="1.13284">
        <ele>202.5</ele>
        <time>2017-09-17T08:35:01Z</time>
      </trkpt>
      <trkpt lat="49.24769" lon="1.13299">
        <ele>202.4</ele>
        <time>2017-09-17T08:35:04Z</time>
      </trkpt>
      <trkpt lat="49.2477" lon="1.13314">
        <ele>202.3</ele>
        <time>2017-09-17T08:35:07Z</time>
      </trkpt>
      <trkpt lat="49.24773" lon="1.13328">
        <ele>202.2</ele>
        <time>2017-09-17T08:35:10Z</time>
      </trkpt>
      <trkpt lat="49.24775" lon="1.13345">
        <ele>202</ele>
        <time>2017-09-17T08:35:13Z</time>
      </trkpt>
      <trkpt lat="49.24775" lon="1.13362">
        <ele>201.8</ele>
        <time>2017-09-17T08:35:16Z</time>
      </trkpt>
      <trkpt lat="49.24775" lon="1.13378">
        <ele>201.7</ele>
        <time>2017-09-17T08:35:19Z</time>
      </trkpt>
      <trkpt lat="49.24774" lon="1.13392">
        <ele>201.5</ele>
        <time>2017-09-17T08:35:21Z</time>
      </trkpt>
      <trkpt lat="49.24772" lon="1.13413">
        <ele>201.4</ele>
        <time>2017-09-17T08:35:23Z</time>
      </trkpt>
      <trkpt lat="49.24772" lon="1.13431">
        <ele>201.3</ele>
        <time>2017-09-17T08:35:26Z</time>
      </trkpt>
      <trkpt lat="49.24771" lon="1.13447">
        <ele>201.2</ele>
        <time>2017-09-17T08:35:28Z</time>
      </trkpt>
      <trkpt lat="49.2477" lon="1.13467">
        <ele>200.9</ele>
        <time>2017-09-17T08:35:31Z</time>
      </trkpt>
      <trkpt lat="49.24765" lon="1.1348">
        <ele>200.7</ele>
        <time>2017-09-17T08:35:33Z</time>
      </trkpt>
      <trkpt lat="49.24765" lon="1.13495">
        <ele>200.7</ele>
        <time>2017-09-17T08:35:35Z</time>
      </trkpt>
      <trkpt lat="49.24766" lon="1.13514">
        <ele>200.5</ele>
        <time>2017-09-17T08:35:37Z</time>
      </trkpt>
      <trkpt lat="49.24765" lon="1.1353">
        <ele>200.4</ele>
        <time>2017-09-17T08:35:39Z</time>
      </trkpt>
      <trkpt lat="49.24764" lon="1.13551">
        <ele>200.4</ele>
        <time>2017-09-17T08:35:42Z</time>
      </trkpt>
      <trkpt lat="49.24766" lon="1.13572">
        <ele>200.2</ele>
        <time>2017-09-17T08:35:45Z</time>
      </trkpt>
      <trkpt lat="49.24765" lon="1.13586">
        <ele>200.1</ele>
        <time>2017-09-17T08:35:47Z</time>
      </trkpt>
      <trkpt lat="49.24765" lon="1.13603">
        <ele>199.7</ele>
        <time>2017-09-17T08:35:49Z</time>
      </trkpt>
      <trkpt lat="49.24762" lon="1.13623">
        <ele>199.5</ele>
        <time>2017-09-17T08:35:51Z</time>
      </trkpt>
      <trkpt lat="49.2476" lon="1.13641">
        <ele>199.4</ele>
        <time>2017-09-17T08:35:53Z</time>
      </trkpt>
      <trkpt lat="49.24758" lon="1.13658">
        <ele>199.1</ele>
        <time>2017-09-17T08:35:55Z</time>
      </trkpt>
      <trkpt lat="49.24756" lon="1.13675">
        <ele>199</ele>
        <time>2017-09-17T08:35:57Z</time>
      </trkpt>
      <trkpt lat="49.24753" lon="1.13693">
        <ele>198.9</ele>
        <time>2017-09-17T08:35:59Z</time>
      </trkpt>
      <trkpt lat="49.2475" lon="1.13711">
        <ele>198.6</ele>
        <time>2017-09-17T08:36:02Z</time>
      </trkpt>
      <trkpt lat="49.24748" lon="1.13727">
        <ele>198.5</ele>
        <time>2017-09-17T08:36:04Z</time>
      </trkpt>
      <trkpt lat="49.24744" lon="1.13744">
        <ele>198.4</ele>
        <time>2017-09-17T08:36:06Z</time>
      </trkpt>
      <trkpt lat="49.24743" lon="1.13761">
        <ele>197.9</ele>
        <time>2017-09-17T08:36:08Z</time>
      </trkpt>
      <trkpt lat="49.24741" lon="1.13782">
        <ele>197.7</ele>
        <time>2017-09-17T08:36:10Z</time>
      </trkpt>
      <trkpt lat="49.24737" lon="1.13799">
        <ele>197.1</ele>
        <time>2017-09-17T08:36:12Z</time>
      </trkpt>
      <trkpt lat="49.24734" lon="1.13815">
        <ele>196.8</ele>
        <time>2017-09-17T08:36:14Z</time>
      </trkpt>
      <trkpt lat="49.24732" lon="1.13832">
        <ele>196.6</ele>
        <time>2017-09-17T08:36:17Z</time>
      </trkpt>
      <trkpt lat="49.2473" lon="1.13847">
        <ele>196.6</ele>
        <time>2017-09-17T08:36:19Z</time>
      </trkpt>
      <trkpt lat="49.24729" lon="1.13866">
        <ele>196.6</ele>
        <time>2017-09-17T08:36:22Z</time>
      </trkpt>
      <trkpt lat="49.24721" lon="1.13876">
        <ele>196.5</ele>
        <time>2017-09-17T08:36:25Z</time>
      </trkpt>
      <trkpt lat="49.24715" lon="1.13862">
        <ele>196.3</ele>
        <time>2017-09-17T08:36:28Z</time>
      </trkpt>
      <trkpt lat="49.24716" lon="1.13841">
        <ele>196.3</ele>
        <time>2017-09-17T08:36:31Z</time>
      </trkpt>
      <trkpt lat="49.24718" lon="1.13822">
        <ele>196.3</ele>
        <time>2017-09-17T08:36:34Z</time>
      </trkpt>
      <trkpt lat="49.24709" lon="1.13815">
        <ele>196.4</ele>
        <time>2017-09-17T08:36:38Z</time>
      </trkpt>
      <trkpt lat="49.247" lon="1.13816">
        <ele>197.3</ele>
        <time>2017-09-17T08:36:43Z</time>
      </trkpt>
      <trkpt lat="49.2469" lon="1.13811">
        <ele>198.8</ele>
        <time>2017-09-17T08:36:48Z</time>
      </trkpt>
      <trkpt lat="49.24681" lon="1.13806">
        <ele>200.3</ele>
        <time>2017-09-17T08:36:54Z</time>
      </trkpt>
      <trkpt lat="49.24673" lon="1.138">
        <ele>201.4</ele>
        <time>2017-09-17T08:36:59Z</time>
      </trkpt>
      <trkpt lat="49.24664" lon="1.13795">
        <ele>202.2</ele>
        <time>2017-09-17T08:37:03Z</time>
      </trkpt>
      <trkpt lat="49.24656" lon="1.13791">
        <ele>203.1</ele>
        <time>2017-09-17T08:37:07Z</time>
      </trkpt>
      <trkpt lat="49.24646" lon="1.13792">
        <ele>204.1</ele>
        <time>2017-09-17T08:37:12Z</time>
      </trkpt>
      <trkpt lat="49.24636" lon="1.13795">
        <ele>205.1</ele>
        <time>2017-09-17T08:37:18Z</time>
      </trkpt>
      <trkpt lat="49.24626" lon="1.13792">
        <ele>206</ele>
        <time>2017-09-17T08:37:23Z</time>
      </trkpt>
      <trkpt lat="49.24615" lon="1.13787">
        <ele>207.2</ele>
        <time>2017-09-17T08:37:29Z</time>
      </trkpt>
      <trkpt lat="49.24605" lon="1.13786">
        <ele>208.2</ele>
        <time>2017-09-17T08:37:34Z</time>
      </trkpt>
      <trkpt lat="49.24595" lon="1.13784">
        <ele>209.3</ele>
        <time>2017-09-17T08:37:39Z</time>
      </trkpt>
      <trkpt lat="49.24587" lon="1.13779">
        <ele>209.9</ele>
        <time>2017-09-17T08:37:43Z</time>
      </trkpt>
      <trkpt lat="49.24577" lon="1.13777">
        <ele>210.3</ele>
        <time>2017-09-17T08:37:47Z</time>
      </trkpt>
      <trkpt lat="49.24566" lon="1.1378">
        <ele>211.3</ele>
        <time>2017-09-17T08:37:52Z</time>
      </trkpt>
      <trkpt lat="49.24558" lon="1.1377">
        <ele>212.2</ele>
        <time>2017-09-17T08:37:58Z</time>
      </trkpt>
      <trkpt lat="49.24546" lon="1.13761">
        <ele>212.6</ele>
        <time>2017-09-17T08:38:02Z</time>
      </trkpt>
      <trkpt lat="49.24537" lon="1.13756">
        <ele>212.9</ele>
        <time>2017-09-17T08:38:05Z</time>
      </trkpt>
      <trkpt lat="49.24526" lon="1.13747">
        <ele>213.1</ele>
        <time>2017-09-17T08:38:09Z</time>
      </trkpt>
      <trkpt lat="49.24517" lon="1.1374">
        <ele>213.3</ele>
        <time>2017-09-17T08:38:12Z</time>
      </trkpt>
      <trkpt lat="49.24506" lon="1.13736">
        <ele>213.9</ele>
        <time>2017-09-17T08:38:16Z</time>
      </trkpt>
      <trkpt lat="49.24495" lon="1.13732">
        <ele>214.9</ele>
        <time>2017-09-17T08:38:21Z</time>
      </trkpt>
      <trkpt lat="49.24485" lon="1.13729">
        <ele>215.3</ele>
        <time>2017-09-17T08:38:24Z</time>
      </trkpt>
      <trkpt lat="49.24475" lon="1.13727">
        <ele>215.9</ele>
        <time>2017-09-17T08:38:28Z</time>
      </trkpt>
      <trkpt lat="49.24465" lon="1.13721">
        <ele>216.5</ele>
        <time>2017-09-17T08:38:32Z</time>
      </trkpt>
      <trkpt lat="49.24456" lon="1.13716">
        <ele>217.3</ele>
        <time>2017-09-17T08:38:36Z</time>
      </trkpt>
      <trkpt lat="49.24447" lon="1.13703">
        <ele>218</ele>
        <time>2017-09-17T08:38:40Z</time>
      </trkpt>
      <trkpt lat="49.24437" lon="1.13695">
        <ele>218.6</ele>
        <time>2017-09-17T08:38:44Z</time>
      </trkpt>
      <trkpt lat="49.24426" lon="1.13689">
        <ele>219.2</ele>
        <time>2017-09-17T08:38:48Z</time>
      </trkpt>
      <trkpt lat="49.24419" lon="1.13679">
        <ele>220</ele>
        <time>2017-09-17T08:38:53Z</time>
      </trkpt>
      <trkpt lat="49.24415" lon="1.13662">
        <ele>220.4</ele>
        <time>2017-09-17T08:38:57Z</time>
      </trkpt>
      <trkpt lat="49.24406" lon="1.13655">
        <ele>220.8</ele>
        <time>2017-09-17T08:39:00Z</time>
      </trkpt>
      <trkpt lat="49.24397" lon="1.13648">
        <ele>221.2</ele>
        <time>2017-09-17T08:39:07Z</time>
      </trkpt>
      <trkpt lat="49.24388" lon="1.13649">
        <ele>221.5</ele>
        <time>2017-09-17T08:41:35Z</time>
      </trkpt>
      <trkpt lat="49.24379" lon="1.13653">
        <ele>221.5</ele>
        <time>2017-09-17T08:41:41Z</time>
      </trkpt>
      <trkpt lat="49.24378" lon="1.13671">
        <ele>221.6</ele>
        <time>2017-09-17T08:41:45Z</time>
      </trkpt>
      <trkpt lat="49.24376" lon="1.13685">
        <ele>221.6</ele>
        <time>2017-09-17T08:41:48Z</time>
      </trkpt>
      <trkpt lat="49.24374" lon="1.137">
        <ele>221.7</ele>
        <time>2017-09-17T08:41:52Z</time>
      </trkpt>
      <trkpt lat="49.24372" lon="1.13714">
        <ele>221.8</ele>
        <time>2017-09-17T08:41:57Z</time>
      </trkpt>
      <trkpt lat="49.24372" lon="1.1373">
        <ele>222</ele>
        <time>2017-09-17T08:42:01Z</time>
      </trkpt>
      <trkpt lat="49.24372" lon="1.13754">
        <ele>221.9</ele>
        <time>2017-09-17T08:42:04Z</time>
      </trkpt>
      <trkpt lat="49.24371" lon="1.1377">
        <ele>222.1</ele>
        <time>2017-09-17T08:42:06Z</time>
      </trkpt>
      <trkpt lat="49.2437" lon="1.13789">
        <ele>222.7</ele>
        <time>2017-09-17T08:42:09Z</time>
      </trkpt>
      <trkpt lat="49.2437" lon="1.13804">
        <ele>222.7</ele>
        <time>2017-09-17T08:42:12Z</time>
      </trkpt>
      <trkpt lat="49.24366" lon="1.13822">
        <ele>223</ele>
        <time>2017-09-17T08:42:15Z</time>
      </trkpt>
      <trkpt lat="49.24365" lon="1.13841">
        <ele>223.3</ele>
        <time>2017-09-17T08:42:18Z</time>
      </trkpt>
      <trkpt lat="49.24364" lon="1.1386">
        <ele>223.5</ele>
        <time>2017-09-17T08:42:21Z</time>
      </trkpt>
      <trkpt lat="49.24364" lon="1.13875">
        <ele>223.6</ele>
        <time>2017-09-17T08:42:23Z</time>
      </trkpt>
      <trkpt lat="49.24364" lon="1.13892">
        <ele>223.9</ele>
        <time>2017-09-17T08:42:26Z</time>
      </trkpt>
      <trkpt lat="49.24361" lon="1.13909">
        <ele>224.2</ele>
        <time>2017-09-17T08:42:29Z</time>
      </trkpt>
      <trkpt lat="49.24358" lon="1.13927">
        <ele>224.7</ele>
        <time>2017-09-17T08:42:32Z</time>
      </trkpt>
      <trkpt lat="49.24358" lon="1.13945">
        <ele>224.7</ele>
        <time>2017-09-17T08:42:35Z</time>
      </trkpt>
      <trkpt lat="49.24356" lon="1.13962">
        <ele>225.1</ele>
        <time>2017-09-17T08:42:38Z</time>
      </trkpt>
      <trkpt lat="49.24357" lon="1.13978">
        <ele>225.4</ele>
        <time>2017-09-17T08:42:41Z</time>
      </trkpt>
      <trkpt lat="49.24364" lon="1.13989">
        <ele>225.5</ele>
        <time>2017-09-17T08:42:45Z</time>
      </trkpt>
      <trkpt lat="49.24376" lon="1.13996">
        <ele>225.4</ele>
        <time>2017-09-17T08:42:48Z</time>
      </trkpt>
      <trkpt lat="49.24385" lon="1.14002">
        <ele>225.2</ele>
        <time>2017-09-17T08:42:50Z</time>
      </trkpt>
      <trkpt lat="49.24397" lon="1.14007">
        <ele>225.1</ele>
        <time>2017-09-17T08:42:52Z</time>
      </trkpt>
      <trkpt lat="49.24406" lon="1.14012">
        <ele>224.9</ele>
        <time>2017-09-17T08:42:54Z</time>
      </trkpt>
      <trkpt lat="49.24415" lon="1.14017">
        <ele>224.7</ele>
        <time>2017-09-17T08:42:56Z</time>
      </trkpt>
      <trkpt lat="49.24425" lon="1.14023">
        <ele>224.4</ele>
        <time>2017-09-17T08:42:58Z</time>
      </trkpt>
      <trkpt lat="49.24435" lon="1.14029">
        <ele>224.1</ele>
        <time>2017-09-17T08:43:00Z</time>
      </trkpt>
      <trkpt lat="49.24449" lon="1.14035">
        <ele>223.9</ele>
        <time>2017-09-17T08:43:02Z</time>
      </trkpt>
      <trkpt lat="49.24462" lon="1.14041">
        <ele>223.5</ele>
        <time>2017-09-17T08:43:04Z</time>
      </trkpt>
      <trkpt lat="49.24475" lon="1.14048">
        <ele>222.5</ele>
        <time>2017-09-17T08:43:06Z</time>
      </trkpt>
      <trkpt lat="49.24487" lon="1.14053">
        <ele>222.1</ele>
        <time>2017-09-17T08:43:08Z</time>
      </trkpt>
      <trkpt lat="49.24497" lon="1.1406">
        <ele>221.2</ele>
        <time>2017-09-17T08:43:11Z</time>
      </trkpt>
      <trkpt lat="49.24508" lon="1.14066">
        <ele>220.6</ele>
        <time>2017-09-17T08:43:13Z</time>
      </trkpt>
      <trkpt lat="49.24517" lon="1.14071">
        <ele>219.8</ele>
        <time>2017-09-17T08:43:15Z</time>
      </trkpt>
      <trkpt lat="49.24529" lon="1.14079">
        <ele>219</ele>
        <time>2017-09-17T08:43:17Z</time>
      </trkpt>
      <trkpt lat="49.24544" lon="1.14086">
        <ele>217.5</ele>
        <time>2017-09-17T08:43:19Z</time>
      </trkpt>
      <trkpt lat="49.24552" lon="1.14091">
        <ele>217.1</ele>
        <time>2017-09-17T08:43:20Z</time>
      </trkpt>
      <trkpt lat="49.24562" lon="1.14093">
        <ele>216.6</ele>
        <time>2017-09-17T08:43:21Z</time>
      </trkpt>
      <trkpt lat="49.24573" lon="1.14097">
        <ele>215.6</ele>
        <time>2017-09-17T08:43:23Z</time>
      </trkpt>
      <trkpt lat="49.24584" lon="1.141">
        <ele>214.2</ele>
        <time>2017-09-17T08:43:25Z</time>
      </trkpt>
      <trkpt lat="49.24596" lon="1.14106">
        <ele>213</ele>
        <time>2017-09-17T08:43:27Z</time>
      </trkpt>
      <trkpt lat="49.24605" lon="1.14111">
        <ele>211.5</ele>
        <time>2017-09-17T08:43:29Z</time>
      </trkpt>
      <trkpt lat="49.24618" lon="1.14117">
        <ele>209</ele>
        <time>2017-09-17T08:43:32Z</time>
      </trkpt>
      <trkpt lat="49.24631" lon="1.14123">
        <ele>207.3</ele>
        <time>2017-09-17T08:43:34Z</time>
      </trkpt>
      <trkpt lat="49.24639" lon="1.14128">
        <ele>205.6</ele>
        <time>2017-09-17T08:43:36Z</time>
      </trkpt>
      <trkpt lat="49.24652" lon="1.14134">
        <ele>203</ele>
        <time>2017-09-17T08:43:39Z</time>
      </trkpt>
      <trkpt lat="49.24661" lon="1.14142">
        <ele>200.1</ele>
        <time>2017-09-17T08:43:42Z</time>
      </trkpt>
      <trkpt lat="49.24671" lon="1.14147">
        <ele>197.7</ele>
        <time>2017-09-17T08:43:44Z</time>
      </trkpt>
      <trkpt lat="49.24686" lon="1.14151">
        <ele>195.8</ele>
        <time>2017-09-17T08:43:46Z</time>
      </trkpt>
      <trkpt lat="49.24697" lon="1.14154">
        <ele>195</ele>
        <time>2017-09-17T08:43:47Z</time>
      </trkpt>
      <trkpt lat="49.24706" lon="1.14166">
        <ele>193.8</ele>
        <time>2017-09-17T08:43:49Z</time>
      </trkpt>
      <trkpt lat="49.24708" lon="1.14186">
        <ele>192.8</ele>
        <time>2017-09-17T08:43:52Z</time>
      </trkpt>
      <trkpt lat="49.2471" lon="1.14201">
        <ele>192.7</ele>
        <time>2017-09-17T08:43:54Z</time>
      </trkpt>
      <trkpt lat="49.24712" lon="1.14217">
        <ele>192.3</ele>
        <time>2017-09-17T08:43:56Z</time>
      </trkpt>
      <trkpt lat="49.24714" lon="1.14234">
        <ele>192</ele>
        <time>2017-09-17T08:43:58Z</time>
      </trkpt>
      <trkpt lat="49.24716" lon="1.14252">
        <ele>191.9</ele>
        <time>2017-09-17T08:44:00Z</time>
      </trkpt>
      <trkpt lat="49.24718" lon="1.1427">
        <ele>191.8</ele>
        <time>2017-09-17T08:44:02Z</time>
      </trkpt>
      <trkpt lat="49.2472" lon="1.14288">
        <ele>191.7</ele>
        <time>2017-09-17T08:44:04Z</time>
      </trkpt>
      <trkpt lat="49.24721" lon="1.14305">
        <ele>191.7</ele>
        <time>2017-09-17T08:44:06Z</time>
      </trkpt>
      <trkpt lat="49.24723" lon="1.14322">
        <ele>191.5</ele>
        <time>2017-09-17T08:44:08Z</time>
      </trkpt>
      <trkpt lat="49.24724" lon="1.1434">
        <ele>191.4</ele>
        <time>2017-09-17T08:44:10Z</time>
      </trkpt>
      <trkpt lat="49.24726" lon="1.14358">
        <ele>191.2</ele>
        <time>2017-09-17T08:44:12Z</time>
      </trkpt>
      <trkpt lat="49.24728" lon="1.14376">
        <ele>190.9</ele>
        <time>2017-09-17T08:44:14Z</time>
      </trkpt>
      <trkpt lat="49.24729" lon="1.14394">
        <ele>190.6</ele>
        <time>2017-09-17T08:44:16Z</time>
      </trkpt>
      <trkpt lat="49.2473" lon="1.14412">
        <ele>190.4</ele>
        <time>2017-09-17T08:44:18Z</time>
      </trkpt>
      <trkpt lat="49.24732" lon="1.14429">
        <ele>189.9</ele>
        <time>2017-09-17T08:44:20Z</time>
      </trkpt>
      <trkpt lat="49.24734" lon="1.14442">
        <ele>189.7</ele>
        <time>2017-09-17T08:44:23Z</time>
      </trkpt>
      <trkpt lat="49.24742" lon="1.14452">
        <ele>188.6</ele>
        <time>2017-09-17T08:44:29Z</time>
      </trkpt>
      <trkpt lat="49.24745" lon="1.14466">
        <ele>187.5</ele>
        <time>2017-09-17T08:44:32Z</time>
      </trkpt>
      <trkpt lat="49.24747" lon="1.14481">
        <ele>186.3</ele>
        <time>2017-09-17T08:44:35Z</time>
      </trkpt>
      <trkpt lat="49.24748" lon="1.14497">
        <ele>185.3</ele>
        <time>2017-09-17T08:44:38Z</time>
      </trkpt>
      <trkpt lat="49.24757" lon="1.14505">
        <ele>183.5</ele>
        <time>2017-09-17T08:44:41Z</time>
      </trkpt>
      <trkpt lat="49.24766" lon="1.1451">
        <ele>181.8</ele>
        <time>2017-09-17T08:44:43Z</time>
      </trkpt>
      <trkpt lat="49.24775" lon="1.14514">
        <ele>180.5</ele>
        <time>2017-09-17T08:44:44Z</time>
      </trkpt>
      <trkpt lat="49.24784" lon="1.14518">
        <ele>179.9</ele>
        <time>2017-09-17T08:44:45Z</time>
      </trkpt>
      <trkpt lat="49.24797" lon="1.14527">
        <ele>178.5</ele>
        <time>2017-09-17T08:44:47Z</time>
      </trkpt>
      <trkpt lat="49.24808" lon="1.14531">
        <ele>176.9</ele>
        <time>2017-09-17T08:44:49Z</time>
      </trkpt>
      <trkpt lat="49.24819" lon="1.14539">
        <ele>175.2</ele>
        <time>2017-09-17T08:44:51Z</time>
      </trkpt>
      <trkpt lat="49.24829" lon="1.14544">
        <ele>174.1</ele>
        <time>2017-09-17T08:44:53Z</time>
      </trkpt>
      <trkpt lat="49.24838" lon="1.14548">
        <ele>173.2</ele>
        <time>2017-09-17T08:44:55Z</time>
      </trkpt>
      <trkpt lat="49.24849" lon="1.1455">
        <ele>172</ele>
        <time>2017-09-17T08:44:57Z</time>
      </trkpt>
      <trkpt lat="49.2486" lon="1.14554">
        <ele>171.3</ele>
        <time>2017-09-17T08:44:59Z</time>
      </trkpt>
      <trkpt lat="49.2487" lon="1.14558">
        <ele>170.7</ele>
        <time>2017-09-17T08:45:02Z</time>
      </trkpt>
      <trkpt lat="49.2488" lon="1.14562">
        <ele>170.5</ele>
        <time>2017-09-17T08:45:06Z</time>
      </trkpt>
      <trkpt lat="49.24889" lon="1.14567">
        <ele>170.6</ele>
        <time>2017-09-17T08:45:11Z</time>
      </trkpt>
      <trkpt lat="49.24898" lon="1.14571">
        <ele>170.4</ele>
        <time>2017-09-17T08:45:15Z</time>
      </trkpt>
      <trkpt lat="49.24907" lon="1.14576">
        <ele>171.2</ele>
        <time>2017-09-17T08:45:21Z</time>
      </trkpt>
      <trkpt lat="49.24915" lon="1.14586">
        <ele>172.3</ele>
        <time>2017-09-17T08:45:30Z</time>
      </trkpt>
      <trkpt lat="49.24925" lon="1.14589">
        <ele>173.8</ele>
        <time>2017-09-17T08:45:37Z</time>
      </trkpt>
      <trkpt lat="49.24934" lon="1.14592">
        <ele>176</ele>
        <time>2017-09-17T08:45:44Z</time>
      </trkpt>
      <trkpt lat="49.24943" lon="1.14596">
        <ele>178.7</ele>
        <time>2017-09-17T08:45:53Z</time>
      </trkpt>
      <trkpt lat="49.24952" lon="1.14599">
        <ele>180.5</ele>
        <time>2017-09-17T08:46:01Z</time>
      </trkpt>
      <trkpt lat="49.24962" lon="1.14602">
        <ele>182.8</ele>
        <time>2017-09-17T08:46:08Z</time>
      </trkpt>
      <trkpt lat="49.24971" lon="1.14606">
        <ele>185.1</ele>
        <time>2017-09-17T08:46:16Z</time>
      </trkpt>
      <trkpt lat="49.24979" lon="1.1461">
        <ele>187.3</ele>
        <time>2017-09-17T08:46:25Z</time>
      </trkpt>
      <trkpt lat="49.24989" lon="1.14613">
        <ele>190.7</ele>
        <time>2017-09-17T08:46:41Z</time>
      </trkpt>
      <trkpt lat="49.24998" lon="1.14619">
        <ele>193.1</ele>
        <time>2017-09-17T08:46:56Z</time>
      </trkpt>
      <trkpt lat="49.25008" lon="1.14621">
        <ele>196.7</ele>
        <time>2017-09-17T08:47:16Z</time>
      </trkpt>
      <trkpt lat="49.25016" lon="1.14626">
        <ele>199.4</ele>
        <time>2017-09-17T08:47:31Z</time>
      </trkpt>
      <trkpt lat="49.25025" lon="1.14632">
        <ele>201</ele>
        <time>2017-09-17T08:47:40Z</time>
      </trkpt>
      <trkpt lat="49.25033" lon="1.14637">
        <ele>203.7</ele>
        <time>2017-09-17T08:47:54Z</time>
      </trkpt>
      <trkpt lat="49.25042" lon="1.14639">
        <ele>206.5</ele>
        <time>2017-09-17T08:48:10Z</time>
      </trkpt>
      <trkpt lat="49.25052" lon="1.14642">
        <ele>210.3</ele>
        <time>2017-09-17T08:48:31Z</time>
      </trkpt>
      <trkpt lat="49.25062" lon="1.14645">
        <ele>212.3</ele>
        <time>2017-09-17T08:48:44Z</time>
      </trkpt>
      <trkpt lat="49.2507" lon="1.14652">
        <ele>214.8</ele>
        <time>2017-09-17T08:48:59Z</time>
      </trkpt>
      <trkpt lat="49.25079" lon="1.1466">
        <ele>217.6</ele>
        <time>2017-09-17T08:49:15Z</time>
      </trkpt>
      <trkpt lat="49.25087" lon="1.14665">
        <ele>219.2</ele>
        <time>2017-09-17T08:49:25Z</time>
      </trkpt>
      <trkpt lat="49.25089" lon="1.14679">
        <ele>220.5</ele>
        <time>2017-09-17T08:49:34Z</time>
      </trkpt>
      <trkpt lat="49.25087" lon="1.14695">
        <ele>220.5</ele>
        <time>2017-09-17T08:49:40Z</time>
      </trkpt>
      <trkpt lat="49.25086" lon="1.14711">
        <ele>220.4</ele>
        <time>2017-09-17T08:49:44Z</time>
      </trkpt>
      <trkpt lat="49.25086" lon="1.14726">
        <ele>220.9</ele>
        <time>2017-09-17T08:49:48Z</time>
      </trkpt>
      <trkpt lat="49.25083" lon="1.14742">
        <ele>220.8</ele>
        <time>2017-09-17T08:49:51Z</time>
      </trkpt>
      <trkpt lat="49.25079" lon="1.14756">
        <ele>220.6</ele>
        <time>2017-09-17T08:49:54Z</time>
      </trkpt>
      <trkpt lat="49.25077" lon="1.14774">
        <ele>220.2</ele>
        <time>2017-09-17T08:49:58Z</time>
      </trkpt>
      <trkpt lat="49.25075" lon="1.14789">
        <ele>220.1</ele>
        <time>2017-09-17T08:50:01Z</time>
      </trkpt>
      <trkpt lat="49.25074" lon="1.14804">
        <ele>220.1</ele>
        <time>2017-09-17T08:50:04Z</time>
      </trkpt>
      <trkpt lat="49.25078" lon="1.14819">
        <ele>220.1</ele>
        <time>2017-09-17T08:50:07Z</time>
      </trkpt>
      <trkpt lat="49.25081" lon="1.14836">
        <ele>220.4</ele>
        <time>2017-09-17T08:50:10Z</time>
      </trkpt>
      <trkpt lat="49.25085" lon="1.14852">
        <ele>220.6</ele>
        <time>2017-09-17T08:50:13Z</time>
      </trkpt>
      <trkpt lat="49.2509" lon="1.14867">
        <ele>221.3</ele>
        <time>2017-09-17T08:50:16Z</time>
      </trkpt>
      <trkpt lat="49.25093" lon="1.14882">
        <ele>221.6</ele>
        <time>2017-09-17T08:50:19Z</time>
      </trkpt>
      <trkpt lat="49.25096" lon="1.14899">
        <ele>222</ele>
        <time>2017-09-17T08:50:22Z</time>
      </trkpt>
      <trkpt lat="49.25097" lon="1.14915">
        <ele>222.3</ele>
        <time>2017-09-17T08:50:25Z</time>
      </trkpt>
      <trkpt lat="49.25101" lon="1.14929">
        <ele>222.6</ele>
        <time>2017-09-17T08:50:28Z</time>
      </trkpt>
      <trkpt lat="49.25107" lon="1.14944">
        <ele>222.7</ele>
        <time>2017-09-17T08:50:31Z</time>
      </trkpt>
      <trkpt lat="49.2511" lon="1.1496">
        <ele>223</ele>
        <time>2017-09-17T08:50:34Z</time>
      </trkpt>
      <trkpt lat="49.25113" lon="1.14979">
        <ele>223.3</ele>
        <time>2017-09-17T08:50:37Z</time>
      </trkpt>
      <trkpt lat="49.25114" lon="1.14994">
        <ele>223.3</ele>
        <time>2017-09-17T08:50:39Z</time>
      </trkpt>
      <trkpt lat="49.25117" lon="1.1501">
        <ele>223.3</ele>
        <time>2017-09-17T08:50:41Z</time>
      </trkpt>
      <trkpt lat="49.25115" lon="1.15028">
        <ele>223.5</ele>
        <time>2017-09-17T08:50:44Z</time>
      </trkpt>
      <trkpt lat="49.25114" lon="1.15046">
        <ele>223.6</ele>
        <time>2017-09-17T08:50:47Z</time>
      </trkpt>
      <trkpt lat="49.25113" lon="1.15063">
        <ele>223.7</ele>
        <time>2017-09-17T08:50:50Z</time>
      </trkpt>
      <trkpt lat="49.25112" lon="1.15082">
        <ele>223.8</ele>
        <time>2017-09-17T08:50:53Z</time>
      </trkpt>
      <trkpt lat="49.2511" lon="1.15097">
        <ele>223.7</ele>
        <time>2017-09-17T08:50:56Z</time>
      </trkpt>
      <trkpt lat="49.25112" lon="1.15113">
        <ele>223.9</ele>
        <time>2017-09-17T08:50:59Z</time>
      </trkpt>
      <trkpt lat="49.25112" lon="1.15128">
        <ele>224</ele>
        <time>2017-09-17T08:51:02Z</time>
      </trkpt>
      <trkpt lat="49.25112" lon="1.15144">
        <ele>224.3</ele>
        <time>2017-09-17T08:51:05Z</time>
      </trkpt>
      <trkpt lat="49.25114" lon="1.15159">
        <ele>224.6</ele>
        <time>2017-09-17T08:51:08Z</time>
      </trkpt>
      <trkpt lat="49.25113" lon="1.15177">
        <ele>224.6</ele>
        <time>2017-09-17T08:51:11Z</time>
      </trkpt>
      <trkpt lat="49.25114" lon="1.15196">
        <ele>224.9</ele>
        <time>2017-09-17T08:51:14Z</time>
      </trkpt>
      <trkpt lat="49.25115" lon="1.15216">
        <ele>225.2</ele>
        <time>2017-09-17T08:51:17Z</time>
      </trkpt>
      <trkpt lat="49.25118" lon="1.15234">
        <ele>225.5</ele>
        <time>2017-09-17T08:51:20Z</time>
      </trkpt>
      <trkpt lat="49.25118" lon="1.15248">
        <ele>225.5</ele>
        <time>2017-09-17T08:51:23Z</time>
      </trkpt>
      <trkpt lat="49.25114" lon="1.15263">
        <ele>225.5</ele>
        <time>2017-09-17T08:51:26Z</time>
      </trkpt>
      <trkpt lat="49.25108" lon="1.15277">
        <ele>225.3</ele>
        <time>2017-09-17T08:51:29Z</time>
      </trkpt>
      <trkpt lat="49.25104" lon="1.15289">
        <ele>225.2</ele>
        <time>2017-09-17T08:51:31Z</time>
      </trkpt>
      <trkpt lat="49.25098" lon="1.15305">
        <ele>224.8</ele>
        <time>2017-09-17T08:51:33Z</time>
      </trkpt>
      <trkpt lat="49.25092" lon="1.15317">
        <ele>225</ele>
        <time>2017-09-17T08:51:35Z</time>
      </trkpt>
      <trkpt lat="49.25087" lon="1.15329">
        <ele>225.1</ele>
        <time>2017-09-17T08:51:37Z</time>
      </trkpt>
      <trkpt lat="49.2508" lon="1.15343">
        <ele>224.9</ele>
        <time>2017-09-17T08:51:40Z</time>
      </trkpt>
      <trkpt lat="49.25072" lon="1.15361">
        <ele>224.3</ele>
        <time>2017-09-17T08:51:43Z</time>
      </trkpt>
      <trkpt lat="49.25066" lon="1.15374">
        <ele>224.4</ele>
        <time>2017-09-17T08:51:45Z</time>
      </trkpt>
      <trkpt lat="49.25059" lon="1.15388">
        <ele>224.4</ele>
        <time>2017-09-17T08:51:47Z</time>
      </trkpt>
      <trkpt lat="49.25051" lon="1.15404">
        <ele>224.4</ele>
        <time>2017-09-17T08:51:50Z</time>
      </trkpt>
      <trkpt lat="49.25047" lon="1.15417">
        <ele>224.4</ele>
        <time>2017-09-17T08:51:52Z</time>
      </trkpt>
      <trkpt lat="49.25043" lon="1.15435">
        <ele>224.2</ele>
        <time>2017-09-17T08:51:55Z</time>
      </trkpt>
      <trkpt lat="49.25038" lon="1.15448">
        <ele>224</ele>
        <time>2017-09-17T08:51:57Z</time>
      </trkpt>
      <trkpt lat="49.25032" lon="1.15467">
        <ele>224</ele>
        <time>2017-09-17T08:52:00Z</time>
      </trkpt>
      <trkpt lat="49.25028" lon="1.1548">
        <ele>224</ele>
        <time>2017-09-17T08:52:02Z</time>
      </trkpt>
      <trkpt lat="49.25021" lon="1.1549">
        <ele>224</ele>
        <time>2017-09-17T08:52:04Z</time>
      </trkpt>
      <trkpt lat="49.25015" lon="1.15501">
        <ele>224</ele>
        <time>2017-09-17T08:52:06Z</time>
      </trkpt>
      <trkpt lat="49.25008" lon="1.15513">
        <ele>223.9</ele>
        <time>2017-09-17T08:52:08Z</time>
      </trkpt>
      <trkpt lat="49.25001" lon="1.15522">
        <ele>223.9</ele>
        <time>2017-09-17T08:52:10Z</time>
      </trkpt>
      <trkpt lat="49.24992" lon="1.15535">
        <ele>223.9</ele>
        <time>2017-09-17T08:52:13Z</time>
      </trkpt>
      <trkpt lat="49.24985" lon="1.15545">
        <ele>223.9</ele>
        <time>2017-09-17T08:52:15Z</time>
      </trkpt>
      <trkpt lat="49.24978" lon="1.15555">
        <ele>224.1</ele>
        <time>2017-09-17T08:52:17Z</time>
      </trkpt>
      <trkpt lat="49.2497" lon="1.15568">
        <ele>224.3</ele>
        <time>2017-09-17T08:52:20Z</time>
      </trkpt>
      <trkpt lat="49.24958" lon="1.1558">
        <ele>224.5</ele>
        <time>2017-09-17T08:52:23Z</time>
      </trkpt>
      <trkpt lat="49.24949" lon="1.15589">
        <ele>224.4</ele>
        <time>2017-09-17T08:52:25Z</time>
      </trkpt>
      <trkpt lat="49.24941" lon="1.15598">
        <ele>224.3</ele>
        <time>2017-09-17T08:52:27Z</time>
      </trkpt>
      <trkpt lat="49.24928" lon="1.15606">
        <ele>224.3</ele>
        <time>2017-09-17T08:52:30Z</time>
      </trkpt>
      <trkpt lat="49.2492" lon="1.15613">
        <ele>224.3</ele>
        <time>2017-09-17T08:52:32Z</time>
      </trkpt>
      <trkpt lat="49.24912" lon="1.15623">
        <ele>224.4</ele>
        <time>2017-09-17T08:52:34Z</time>
      </trkpt>
      <trkpt lat="49.24902" lon="1.15635">
        <ele>224.4</ele>
        <time>2017-09-17T08:52:37Z</time>
      </trkpt>
      <trkpt lat="49.24893" lon="1.15641">
        <ele>224.5</ele>
        <time>2017-09-17T08:52:39Z</time>
      </trkpt>
      <trkpt lat="49.24881" lon="1.1565">
        <ele>224.6</ele>
        <time>2017-09-17T08:52:42Z</time>
      </trkpt>
      <trkpt lat="49.24872" lon="1.15662">
        <ele>224.6</ele>
        <time>2017-09-17T08:52:45Z</time>
      </trkpt>
      <trkpt lat="49.24863" lon="1.15675">
        <ele>224.5</ele>
        <time>2017-09-17T08:52:47Z</time>
      </trkpt>
      <trkpt lat="49.24853" lon="1.1569">
        <ele>224.5</ele>
        <time>2017-09-17T08:52:50Z</time>
      </trkpt>
      <trkpt lat="49.24847" lon="1.15701">
        <ele>224.6</ele>
        <time>2017-09-17T08:52:52Z</time>
      </trkpt>
      <trkpt lat="49.24839" lon="1.15713">
        <ele>224.6</ele>
        <time>2017-09-17T08:52:54Z</time>
      </trkpt>
      <trkpt lat="49.24834" lon="1.1573">
        <ele>224.4</ele>
        <time>2017-09-17T08:52:57Z</time>
      </trkpt>
      <trkpt lat="49.24826" lon="1.15746">
        <ele>224</ele>
        <time>2017-09-17T08:53:00Z</time>
      </trkpt>
      <trkpt lat="49.24819" lon="1.15758">
        <ele>224.1</ele>
        <time>2017-09-17T08:53:03Z</time>
      </trkpt>
      <trkpt lat="49.24813" lon="1.1577">
        <ele>224</ele>
        <time>2017-09-17T08:53:06Z</time>
      </trkpt>
      <trkpt lat="49.24807" lon="1.15782">
        <ele>224</ele>
        <time>2017-09-17T08:53:09Z</time>
      </trkpt>
      <trkpt lat="49.248" lon="1.15797">
        <ele>224.1</ele>
        <time>2017-09-17T08:53:12Z</time>
      </trkpt>
      <trkpt lat="49.24792" lon="1.15809">
        <ele>224.4</ele>
        <time>2017-09-17T08:53:15Z</time>
      </trkpt>
      <trkpt lat="49.24784" lon="1.15822">
        <ele>224.3</ele>
        <time>2017-09-17T08:53:18Z</time>
      </trkpt>
      <trkpt lat="49.24774" lon="1.15838">
        <ele>224.1</ele>
        <time>2017-09-17T08:53:21Z</time>
      </trkpt>
      <trkpt lat="49.24767" lon="1.1585">
        <ele>223.8</ele>
        <time>2017-09-17T08:53:23Z</time>
      </trkpt>
      <trkpt lat="49.2476" lon="1.15868">
        <ele>223.3</ele>
        <time>2017-09-17T08:53:26Z</time>
      </trkpt>
      <trkpt lat="49.24754" lon="1.15883">
        <ele>222.9</ele>
        <time>2017-09-17T08:53:28Z</time>
      </trkpt>
      <trkpt lat="49.24747" lon="1.15899">
        <ele>222.5</ele>
        <time>2017-09-17T08:53:30Z</time>
      </trkpt>
      <trkpt lat="49.24743" lon="1.15913">
        <ele>221.9</ele>
        <time>2017-09-17T08:53:32Z</time>
      </trkpt>
      <trkpt lat="49.24741" lon="1.15928">
        <ele>221.5</ele>
        <time>2017-09-17T08:53:34Z</time>
      </trkpt>
      <trkpt lat="49.24739" lon="1.15944">
        <ele>220.5</ele>
        <time>2017-09-17T08:53:39Z</time>
      </trkpt>
      <trkpt lat="49.24736" lon="1.1596">
        <ele>219.9</ele>
        <time>2017-09-17T08:53:44Z</time>
      </trkpt>
      <trkpt lat="49.24735" lon="1.15981">
        <ele>219.6</ele>
        <time>2017-09-17T08:53:47Z</time>
      </trkpt>
      <trkpt lat="49.24733" lon="1.15999">
        <ele>219.3</ele>
        <time>2017-09-17T08:53:49Z</time>
      </trkpt>
      <trkpt lat="49.2473" lon="1.16019">
        <ele>219</ele>
        <time>2017-09-17T08:53:51Z</time>
      </trkpt>
      <trkpt lat="49.24729" lon="1.16036">
        <ele>218.5</ele>
        <time>2017-09-17T08:53:53Z</time>
      </trkpt>
      <trkpt lat="49.24735" lon="1.16048">
        <ele>217.3</ele>
        <time>2017-09-17T08:53:57Z</time>
      </trkpt>
      <trkpt lat="49.24746" lon="1.16056">
        <ele>217.8</ele>
        <time>2017-09-17T08:54:01Z</time>
      </trkpt>
      <trkpt lat="49.24757" lon="1.1606">
        <ele>218.8</ele>
        <time>2017-09-17T08:54:05Z</time>
      </trkpt>
      <trkpt lat="49.24769" lon="1.16066">
        <ele>219.7</ele>
        <time>2017-09-17T08:54:09Z</time>
      </trkpt>
      <trkpt lat="49.24778" lon="1.16071">
        <ele>220.3</ele>
        <time>2017-09-17T08:54:12Z</time>
      </trkpt>
      <trkpt lat="49.2479" lon="1.16081">
        <ele>221</ele>
        <time>2017-09-17T08:54:17Z</time>
      </trkpt>
      <trkpt lat="49.24803" lon="1.16087">
        <ele>221.5</ele>
        <time>2017-09-17T08:54:20Z</time>
      </trkpt>
      <trkpt lat="49.24813" lon="1.16094">
        <ele>221.7</ele>
        <time>2017-09-17T08:54:23Z</time>
      </trkpt>
      <trkpt lat="49.24826" lon="1.16106">
        <ele>221.9</ele>
        <time>2017-09-17T08:54:26Z</time>
      </trkpt>
      <trkpt lat="49.24836" lon="1.16112">
        <ele>222</ele>
        <time>2017-09-17T08:54:28Z</time>
      </trkpt>
      <trkpt lat="49.24845" lon="1.16117">
        <ele>222</ele>
        <time>2017-09-17T08:54:30Z</time>
      </trkpt>
      <trkpt lat="49.24858" lon="1.1612">
        <ele>222.2</ele>
        <time>2017-09-17T08:54:32Z</time>
      </trkpt>
      <trkpt lat="49.24869" lon="1.16126">
        <ele>222.2</ele>
        <time>2017-09-17T08:54:34Z</time>
      </trkpt>
      <trkpt lat="49.24878" lon="1.16134">
        <ele>222</ele>
        <time>2017-09-17T08:54:36Z</time>
      </trkpt>
      <trkpt lat="49.24889" lon="1.16141">
        <ele>222.1</ele>
        <time>2017-09-17T08:54:38Z</time>
      </trkpt>
      <trkpt lat="49.24898" lon="1.16149">
        <ele>222</ele>
        <time>2017-09-17T08:54:40Z</time>
      </trkpt>
      <trkpt lat="49.24908" lon="1.16154">
        <ele>221.9</ele>
        <time>2017-09-17T08:54:42Z</time>
      </trkpt>
      <trkpt lat="49.2492" lon="1.1616">
        <ele>221.6</ele>
        <time>2017-09-17T08:54:44Z</time>
      </trkpt>
      <trkpt lat="49.24929" lon="1.16164">
        <ele>221.4</ele>
        <time>2017-09-17T08:54:46Z</time>
      </trkpt>
      <trkpt lat="49.24939" lon="1.16167">
        <ele>221</ele>
        <time>2017-09-17T08:54:50Z</time>
      </trkpt>
      <trkpt lat="49.24948" lon="1.16169">
        <ele>220.5</ele>
        <time>2017-09-17T08:54:57Z</time>
      </trkpt>
      <trkpt lat="49.24957" lon="1.16175">
        <ele>220.5</ele>
        <time>2017-09-17T08:55:00Z</time>
      </trkpt>
      <trkpt lat="49.24966" lon="1.16181">
        <ele>220.5</ele>
        <time>2017-09-17T08:55:02Z</time>
      </trkpt>
      <trkpt lat="49.24978" lon="1.16189">
        <ele>220.2</ele>
        <time>2017-09-17T08:55:05Z</time>
      </trkpt>
      <trkpt lat="49.24989" lon="1.16195">
        <ele>220.2</ele>
        <time>2017-09-17T08:55:07Z</time>
      </trkpt>
      <trkpt lat="49.24999" lon="1.16201">
        <ele>219.9</ele>
        <time>2017-09-17T08:55:09Z</time>
      </trkpt>
      <trkpt lat="49.25008" lon="1.16208">
        <ele>219</ele>
        <time>2017-09-17T08:55:11Z</time>
      </trkpt>
      <trkpt lat="49.25022" lon="1.16215">
        <ele>218.9</ele>
        <time>2017-09-17T08:55:13Z</time>
      </trkpt>
      <trkpt lat="49.25032" lon="1.16223">
        <ele>218.6</ele>
        <time>2017-09-17T08:55:15Z</time>
      </trkpt>
      <trkpt lat="49.25045" lon="1.16229">
        <ele>218.2</ele>
        <time>2017-09-17T08:55:17Z</time>
      </trkpt>
      <trkpt lat="49.25056" lon="1.1624">
        <ele>217.8</ele>
        <time>2017-09-17T08:55:19Z</time>
      </trkpt>
      <trkpt lat="49.25064" lon="1.16255">
        <ele>217.3</ele>
        <time>2017-09-17T08:55:21Z</time>
      </trkpt>
      <trkpt lat="49.25065" lon="1.16274">
        <ele>216.7</ele>
        <time>2017-09-17T08:55:23Z</time>
      </trkpt>
      <trkpt lat="49.25066" lon="1.16292">
        <ele>216.2</ele>
        <time>2017-09-17T08:55:25Z</time>
      </trkpt>
      <trkpt lat="49.25066" lon="1.1631">
        <ele>215.9</ele>
        <time>2017-09-17T08:55:27Z</time>
      </trkpt>
      <trkpt lat="49.25067" lon="1.16329">
        <ele>215.3</ele>
        <time>2017-09-17T08:55:29Z</time>
      </trkpt>
      <trkpt lat="49.25066" lon="1.16348">
        <ele>214.6</ele>
        <time>2017-09-17T08:55:31Z</time>
      </trkpt>
      <trkpt lat="49.25066" lon="1.16367">
        <ele>214</ele>
        <time>2017-09-17T08:55:33Z</time>
      </trkpt>
      <trkpt lat="49.25065" lon="1.16387">
        <ele>213.4</ele>
        <time>2017-09-17T08:55:35Z</time>
      </trkpt>
      <trkpt lat="49.25064" lon="1.16407">
        <ele>212.7</ele>
        <time>2017-09-17T08:55:37Z</time>
      </trkpt>
      <trkpt lat="49.25066" lon="1.16424">
        <ele>212.2</ele>
        <time>2017-09-17T08:55:39Z</time>
      </trkpt>
      <trkpt lat="49.2507" lon="1.1644">
        <ele>211.8</ele>
        <time>2017-09-17T08:55:41Z</time>
      </trkpt>
      <trkpt lat="49.25072" lon="1.16456">
        <ele>211.3</ele>
        <time>2017-09-17T08:55:43Z</time>
      </trkpt>
      <trkpt lat="49.25072" lon="1.16475">
        <ele>210.4</ele>
        <time>2017-09-17T08:55:45Z</time>
      </trkpt>
      <trkpt lat="49.25069" lon="1.16494">
        <ele>209.9</ele>
        <time>2017-09-17T08:55:47Z</time>
      </trkpt>
      <trkpt lat="49.25066" lon="1.16512">
        <ele>209.2</ele>
        <time>2017-09-17T08:55:49Z</time>
      </trkpt>
      <trkpt lat="49.25061" lon="1.16532">
        <ele>208.7</ele>
        <time>2017-09-17T08:55:51Z</time>
      </trkpt>
      <trkpt lat="49.25057" lon="1.16554">
        <ele>208.1</ele>
        <time>2017-09-17T08:55:53Z</time>
      </trkpt>
      <trkpt lat="49.25051" lon="1.16577">
        <ele>207.2</ele>
        <time>2017-09-17T08:55:55Z</time>
      </trkpt>
      <trkpt lat="49.25045" lon="1.16598">
        <ele>206.3</ele>
        <time>2017-09-17T08:55:57Z</time>
      </trkpt>
      <trkpt lat="49.2504" lon="1.16618">
        <ele>205.2</ele>
        <time>2017-09-17T08:55:59Z</time>
      </trkpt>
      <trkpt lat="49.25034" lon="1.1664">
        <ele>204.3</ele>
        <time>2017-09-17T08:56:01Z</time>
      </trkpt>
      <trkpt lat="49.25028" lon="1.16664">
        <ele>203.2</ele>
        <time>2017-09-17T08:56:03Z</time>
      </trkpt>
      <trkpt lat="49.25022" lon="1.16688">
        <ele>201.3</ele>
        <time>2017-09-17T08:56:05Z</time>
      </trkpt>
      <trkpt lat="49.25017" lon="1.16706">
        <ele>200.3</ele>
        <time>2017-09-17T08:56:07Z</time>
      </trkpt>
      <trkpt lat="49.25013" lon="1.16728">
        <ele>198</ele>
        <time>2017-09-17T08:56:09Z</time>
      </trkpt>
      <trkpt lat="49.25006" lon="1.16755">
        <ele>196.3</ele>
        <time>2017-09-17T08:56:11Z</time>
      </trkpt>
      <trkpt lat="49.25002" lon="1.1677">
        <ele>195.7</ele>
        <time>2017-09-17T08:56:12Z</time>
      </trkpt>
      <trkpt lat="49.24999" lon="1.16784">
        <ele>194.8</ele>
        <time>2017-09-17T08:56:13Z</time>
      </trkpt>
      <trkpt lat="49.24995" lon="1.16799">
        <ele>194.1</ele>
        <time>2017-09-17T08:56:14Z</time>
      </trkpt>
      <trkpt lat="49.24991" lon="1.16814">
        <ele>192.9</ele>
        <time>2017-09-17T08:56:15Z</time>
      </trkpt>
      <trkpt lat="49.24987" lon="1.1683">
        <ele>192</ele>
        <time>2017-09-17T08:56:16Z</time>
      </trkpt>
      <trkpt lat="49.24983" lon="1.16846">
        <ele>191.2</ele>
        <time>2017-09-17T08:56:17Z</time>
      </trkpt>
      <trkpt lat="49.24979" lon="1.1686">
        <ele>190.1</ele>
        <time>2017-09-17T08:56:18Z</time>
      </trkpt>
      <trkpt lat="49.24976" lon="1.16875">
        <ele>189.3</ele>
        <time>2017-09-17T08:56:19Z</time>
      </trkpt>
      <trkpt lat="49.24972" lon="1.16891">
        <ele>188.4</ele>
        <time>2017-09-17T08:56:20Z</time>
      </trkpt>
      <trkpt lat="49.24968" lon="1.16909">
        <ele>187.7</ele>
        <time>2017-09-17T08:56:21Z</time>
      </trkpt>
      <trkpt lat="49.24964" lon="1.16926">
        <ele>186.6</ele>
        <time>2017-09-17T08:56:22Z</time>
      </trkpt>
      <trkpt lat="49.2496" lon="1.1694">
        <ele>186</ele>
        <time>2017-09-17T08:56:23Z</time>
      </trkpt>
      <trkpt lat="49.24956" lon="1.16953">
        <ele>185.2</ele>
        <time>2017-09-17T08:56:24Z</time>
      </trkpt>
      <trkpt lat="49.24952" lon="1.16967">
        <ele>184.4</ele>
        <time>2017-09-17T08:56:25Z</time>
      </trkpt>
      <trkpt lat="49.24949" lon="1.16983">
        <ele>183.1</ele>
        <time>2017-09-17T08:56:26Z</time>
      </trkpt>
      <trkpt lat="49.24945" lon="1.16996">
        <ele>182.2</ele>
        <time>2017-09-17T08:56:27Z</time>
      </trkpt>
      <trkpt lat="49.24938" lon="1.17022">
        <ele>180.5</ele>
        <time>2017-09-17T08:56:29Z</time>
      </trkpt>
      <trkpt lat="49.24933" lon="1.17047">
        <ele>179.2</ele>
        <time>2017-09-17T08:56:31Z</time>
      </trkpt>
      <trkpt lat="49.24929" lon="1.17067">
        <ele>177.7</ele>
        <time>2017-09-17T08:56:33Z</time>
      </trkpt>
      <trkpt lat="49.2492" lon="1.1708">
        <ele>175.6</ele>
        <time>2017-09-17T08:56:36Z</time>
      </trkpt>
      <trkpt lat="49.24906" lon="1.17079">
        <ele>174</ele>
        <time>2017-09-17T08:56:39Z</time>
      </trkpt>
      <trkpt lat="49.24893" lon="1.17076">
        <ele>172.3</ele>
        <time>2017-09-17T08:56:42Z</time>
      </trkpt>
      <trkpt lat="49.24883" lon="1.17077">
        <ele>170.1</ele>
        <time>2017-09-17T08:56:46Z</time>
      </trkpt>
      <trkpt lat="49.24883" lon="1.1706">
        <ele>168.9</ele>
        <time>2017-09-17T08:56:53Z</time>
      </trkpt>
      <trkpt lat="49.24884" lon="1.17046">
        <ele>170</ele>
        <time>2017-09-17T08:56:58Z</time>
      </trkpt>
      <trkpt lat="49.24881" lon="1.17027">
        <ele>170.9</ele>
        <time>2017-09-17T08:57:02Z</time>
      </trkpt>
      <trkpt lat="49.24883" lon="1.1701">
        <ele>172</ele>
        <time>2017-09-17T08:57:06Z</time>
      </trkpt>
      <trkpt lat="49.24882" lon="1.16994">
        <ele>173.1</ele>
        <time>2017-09-17T08:57:10Z</time>
      </trkpt>
      <trkpt lat="49.24881" lon="1.16978">
        <ele>174.1</ele>
        <time>2017-09-17T08:57:14Z</time>
      </trkpt>
      <trkpt lat="49.24877" lon="1.16962">
        <ele>175</ele>
        <time>2017-09-17T08:57:18Z</time>
      </trkpt>
      <trkpt lat="49.24874" lon="1.16949">
        <ele>175.5</ele>
        <time>2017-09-17T08:57:21Z</time>
      </trkpt>
      <trkpt lat="49.24867" lon="1.16936">
        <ele>176.5</ele>
        <time>2017-09-17T08:57:25Z</time>
      </trkpt>
      <trkpt lat="49.2486" lon="1.16926">
        <ele>177.1</ele>
        <time>2017-09-17T08:57:29Z</time>
      </trkpt>
      <trkpt lat="49.24853" lon="1.16915">
        <ele>177.5</ele>
        <time>2017-09-17T08:57:31Z</time>
      </trkpt>
      <trkpt lat="49.24846" lon="1.16904">
        <ele>178.1</ele>
        <time>2017-09-17T08:57:35Z</time>
      </trkpt>
      <trkpt lat="49.24839" lon="1.16893">
        <ele>178.7</ele>
        <time>2017-09-17T08:57:38Z</time>
      </trkpt>
      <trkpt lat="49.24831" lon="1.1688">
        <ele>179.1</ele>
        <time>2017-09-17T08:57:41Z</time>
      </trkpt>
      <trkpt lat="49.24825" lon="1.16867">
        <ele>179.5</ele>
        <time>2017-09-17T08:57:45Z</time>
      </trkpt>
      <trkpt lat="49.24818" lon="1.16856">
        <ele>179.8</ele>
        <time>2017-09-17T08:57:48Z</time>
      </trkpt>
      <trkpt lat="49.24811" lon="1.16843">
        <ele>180.2</ele>
        <time>2017-09-17T08:57:51Z</time>
      </trkpt>
      <trkpt lat="49.24806" lon="1.1683">
        <ele>180.7</ele>
        <time>2017-09-17T08:57:55Z</time>
      </trkpt>
      <trkpt lat="49.24801" lon="1.16818">
        <ele>181.1</ele>
        <time>2017-09-17T08:57:58Z</time>
      </trkpt>
      <trkpt lat="49.24796" lon="1.16803">
        <ele>181.4</ele>
        <time>2017-09-17T08:58:01Z</time>
      </trkpt>
      <trkpt lat="49.24789" lon="1.16786">
        <ele>181.8</ele>
        <time>2017-09-17T08:58:04Z</time>
      </trkpt>
      <trkpt lat="49.24783" lon="1.16771">
        <ele>182.2</ele>
        <time>2017-09-17T08:58:06Z</time>
      </trkpt>
      <trkpt lat="49.24778" lon="1.16757">
        <ele>182.6</ele>
        <time>2017-09-17T08:58:09Z</time>
      </trkpt>
      <trkpt lat="49.24771" lon="1.16742">
        <ele>183</ele>
        <time>2017-09-17T08:58:12Z</time>
      </trkpt>
      <trkpt lat="49.24767" lon="1.16729">
        <ele>183.2</ele>
        <time>2017-09-17T08:58:15Z</time>
      </trkpt>
      <trkpt lat="49.24763" lon="1.16715">
        <ele>183.5</ele>
        <time>2017-09-17T08:58:17Z</time>
      </trkpt>
      <trkpt lat="49.24758" lon="1.16701">
        <ele>184.1</ele>
        <time>2017-09-17T08:58:20Z</time>
      </trkpt>
      <trkpt lat="49.24752" lon="1.16687">
        <ele>184.7</ele>
        <time>2017-09-17T08:58:23Z</time>
      </trkpt>
      <trkpt lat="49.24746" lon="1.16675">
        <ele>185.3</ele>
        <time>2017-09-17T08:58:26Z</time>
      </trkpt>
      <trkpt lat="49.24739" lon="1.16662">
        <ele>185.9</ele>
        <time>2017-09-17T08:58:29Z</time>
      </trkpt>
      <trkpt lat="49.24732" lon="1.16653">
        <ele>186.6</ele>
        <time>2017-09-17T08:58:33Z</time>
      </trkpt>
      <trkpt lat="49.24724" lon="1.16642">
        <ele>187.4</ele>
        <time>2017-09-17T08:58:37Z</time>
      </trkpt>
      <trkpt lat="49.24717" lon="1.16631">
        <ele>187.6</ele>
        <time>2017-09-17T08:58:39Z</time>
      </trkpt>
      <trkpt lat="49.24713" lon="1.16617">
        <ele>187.8</ele>
        <time>2017-09-17T08:58:42Z</time>
      </trkpt>
      <trkpt lat="49.24708" lon="1.16606">
        <ele>188</ele>
        <time>2017-09-17T08:58:45Z</time>
      </trkpt>
      <trkpt lat="49.24702" lon="1.16588">
        <ele>188.6</ele>
        <time>2017-09-17T08:58:49Z</time>
      </trkpt>
      <trkpt lat="49.24699" lon="1.16572">
        <ele>189</ele>
        <time>2017-09-17T08:58:52Z</time>
      </trkpt>
      <trkpt lat="49.24696" lon="1.16555">
        <ele>189.4</ele>
        <time>2017-09-17T08:58:55Z</time>
      </trkpt>
      <trkpt lat="49.24695" lon="1.16538">
        <ele>190.1</ele>
        <time>2017-09-17T08:58:58Z</time>
      </trkpt>
      <trkpt lat="49.24694" lon="1.16522">
        <ele>191</ele>
        <time>2017-09-17T08:59:02Z</time>
      </trkpt>
      <trkpt lat="49.24692" lon="1.16503">
        <ele>192.1</ele>
        <time>2017-09-17T08:59:08Z</time>
      </trkpt>
      <trkpt lat="49.24689" lon="1.16488">
        <ele>192.7</ele>
        <time>2017-09-17T08:59:11Z</time>
      </trkpt>
      <trkpt lat="49.24688" lon="1.16472">
        <ele>193.6</ele>
        <time>2017-09-17T08:59:16Z</time>
      </trkpt>
      <trkpt lat="49.24686" lon="1.16456">
        <ele>194.5</ele>
        <time>2017-09-17T08:59:21Z</time>
      </trkpt>
      <trkpt lat="49.24685" lon="1.16441">
        <ele>195.1</ele>
        <time>2017-09-17T08:59:26Z</time>
      </trkpt>
      <trkpt lat="49.24682" lon="1.16425">
        <ele>195.9</ele>
        <time>2017-09-17T08:59:30Z</time>
      </trkpt>
      <trkpt lat="49.24679" lon="1.16411">
        <ele>196.2</ele>
        <time>2017-09-17T08:59:34Z</time>
      </trkpt>
      <trkpt lat="49.24676" lon="1.16394">
        <ele>196.6</ele>
        <time>2017-09-17T08:59:38Z</time>
      </trkpt>
      <trkpt lat="49.24675" lon="1.16378">
        <ele>197.1</ele>
        <time>2017-09-17T08:59:42Z</time>
      </trkpt>
      <trkpt lat="49.24679" lon="1.16364">
        <ele>198</ele>
        <time>2017-09-17T08:59:48Z</time>
      </trkpt>
      <trkpt lat="49.24682" lon="1.1635">
        <ele>198.7</ele>
        <time>2017-09-17T08:59:52Z</time>
      </trkpt>
      <trkpt lat="49.24685" lon="1.16335">
        <ele>199.4</ele>
        <time>2017-09-17T08:59:56Z</time>
      </trkpt>
      <trkpt lat="49.24685" lon="1.16319">
        <ele>200.2</ele>
        <time>2017-09-17T08:59:59Z</time>
      </trkpt>
      <trkpt lat="49.24687" lon="1.16303">
        <ele>201</ele>
        <time>2017-09-17T09:00:03Z</time>
      </trkpt>
      <trkpt lat="49.24684" lon="1.16285">
        <ele>201.7</ele>
        <time>2017-09-17T09:00:07Z</time>
      </trkpt>
      <trkpt lat="49.24683" lon="1.1627">
        <ele>202.1</ele>
        <time>2017-09-17T09:00:10Z</time>
      </trkpt>
      <trkpt lat="49.24682" lon="1.16255">
        <ele>202.7</ele>
        <time>2017-09-17T09:00:14Z</time>
      </trkpt>
      <trkpt lat="49.24676" lon="1.16243">
        <ele>203.1</ele>
        <time>2017-09-17T09:00:16Z</time>
      </trkpt>
      <trkpt lat="49.24667" lon="1.16237">
        <ele>203.2</ele>
        <time>2017-09-17T09:00:19Z</time>
      </trkpt>
      <trkpt lat="49.24658" lon="1.16232">
        <ele>202.7</ele>
        <time>2017-09-17T09:00:21Z</time>
      </trkpt>
      <trkpt lat="49.24646" lon="1.16225">
        <ele>201.4</ele>
        <time>2017-09-17T09:00:24Z</time>
      </trkpt>
      <trkpt lat="49.24633" lon="1.16219">
        <ele>199.5</ele>
        <time>2017-09-17T09:00:27Z</time>
      </trkpt>
      <trkpt lat="49.24623" lon="1.16217">
        <ele>197.7</ele>
        <time>2017-09-17T09:00:29Z</time>
      </trkpt>
      <trkpt lat="49.24614" lon="1.16211">
        <ele>196</ele>
        <time>2017-09-17T09:00:31Z</time>
      </trkpt>
      <trkpt lat="49.24605" lon="1.16209">
        <ele>193.6</ele>
        <time>2017-09-17T09:00:34Z</time>
      </trkpt>
      <trkpt lat="49.24592" lon="1.16205">
        <ele>190.6</ele>
        <time>2017-09-17T09:00:37Z</time>
      </trkpt>
      <trkpt lat="49.2458" lon="1.16199">
        <ele>187.6</ele>
        <time>2017-09-17T09:00:40Z</time>
      </trkpt>
      <trkpt lat="49.24567" lon="1.16192">
        <ele>184.3</ele>
        <time>2017-09-17T09:00:43Z</time>
      </trkpt>
      <trkpt lat="49.24555" lon="1.16185">
        <ele>181.6</ele>
        <time>2017-09-17T09:00:46Z</time>
      </trkpt>
      <trkpt lat="49.24545" lon="1.16181">
        <ele>179.6</ele>
        <time>2017-09-17T09:00:48Z</time>
      </trkpt>
      <trkpt lat="49.24536" lon="1.16177">
        <ele>176.8</ele>
        <time>2017-09-17T09:00:51Z</time>
      </trkpt>
      <trkpt lat="49.24527" lon="1.16173">
        <ele>174.1</ele>
        <time>2017-09-17T09:00:54Z</time>
      </trkpt>
      <trkpt lat="49.24515" lon="1.16168">
        <ele>171.6</ele>
        <time>2017-09-17T09:00:57Z</time>
      </trkpt>
      <trkpt lat="49.24505" lon="1.16165">
        <ele>169.6</ele>
        <time>2017-09-17T09:00:59Z</time>
      </trkpt>
      <trkpt lat="49.24492" lon="1.16159">
        <ele>167.4</ele>
        <time>2017-09-17T09:01:01Z</time>
      </trkpt>
      <trkpt lat="49.24484" lon="1.16152">
        <ele>164.3</ele>
        <time>2017-09-17T09:01:04Z</time>
      </trkpt>
      <trkpt lat="49.24474" lon="1.16147">
        <ele>161.8</ele>
        <time>2017-09-17T09:01:07Z</time>
      </trkpt>
      <trkpt lat="49.24463" lon="1.16142">
        <ele>159.9</ele>
        <time>2017-09-17T09:01:10Z</time>
      </trkpt>
      <trkpt lat="49.2445" lon="1.16136">
        <ele>157.7</ele>
        <time>2017-09-17T09:01:13Z</time>
      </trkpt>
      <trkpt lat="49.24444" lon="1.16123">
        <ele>156.5</ele>
        <time>2017-09-17T09:01:15Z</time>
      </trkpt>
      <trkpt lat="49.2444" lon="1.16107">
        <ele>155.3</ele>
        <time>2017-09-17T09:01:17Z</time>
      </trkpt>
      <trkpt lat="49.24438" lon="1.16092">
        <ele>154.6</ele>
        <time>2017-09-17T09:01:19Z</time>
      </trkpt>
      <trkpt lat="49.24438" lon="1.16072">
        <ele>153.7</ele>
        <time>2017-09-17T09:01:22Z</time>
      </trkpt>
      <trkpt lat="49.24438" lon="1.16056">
        <ele>153.5</ele>
        <time>2017-09-17T09:01:24Z</time>
      </trkpt>
      <trkpt lat="49.2444" lon="1.16034">
        <ele>153</ele>
        <time>2017-09-17T09:01:27Z</time>
      </trkpt>
      <trkpt lat="49.24443" lon="1.16014">
        <ele>153.7</ele>
        <time>2017-09-17T09:01:30Z</time>
      </trkpt>
      <trkpt lat="49.24445" lon="1.15998">
        <ele>153.9</ele>
        <time>2017-09-17T09:01:32Z</time>
      </trkpt>
      <trkpt lat="49.24448" lon="1.15982">
        <ele>154.1</ele>
        <time>2017-09-17T09:01:34Z</time>
      </trkpt>
      <trkpt lat="49.24451" lon="1.15967">
        <ele>154.3</ele>
        <time>2017-09-17T09:01:36Z</time>
      </trkpt>
      <trkpt lat="49.2446" lon="1.15954">
        <ele>154.5</ele>
        <time>2017-09-17T09:01:39Z</time>
      </trkpt>
      <trkpt lat="49.24463" lon="1.15938">
        <ele>154.7</ele>
        <time>2017-09-17T09:01:41Z</time>
      </trkpt>
      <trkpt lat="49.24469" lon="1.15927">
        <ele>154.9</ele>
        <time>2017-09-17T09:01:43Z</time>
      </trkpt>
      <trkpt lat="49.24474" lon="1.1591">
        <ele>155.1</ele>
        <time>2017-09-17T09:01:46Z</time>
      </trkpt>
      <trkpt lat="49.24476" lon="1.15887">
        <ele>155.1</ele>
        <time>2017-09-17T09:01:50Z</time>
      </trkpt>
      <trkpt lat="49.24474" lon="1.1587">
        <ele>155.1</ele>
        <time>2017-09-17T09:01:53Z</time>
      </trkpt>
      <trkpt lat="49.24466" lon="1.15861">
        <ele>155.1</ele>
        <time>2017-09-17T09:01:57Z</time>
      </trkpt>
      <trkpt lat="49.24456" lon="1.15857">
        <ele>155.3</ele>
        <time>2017-09-17T09:02:02Z</time>
      </trkpt>
      <trkpt lat="49.24447" lon="1.15852">
        <ele>156.7</ele>
        <time>2017-09-17T09:02:08Z</time>
      </trkpt>
      <trkpt lat="49.24438" lon="1.15848">
        <ele>158.5</ele>
        <time>2017-09-17T09:02:16Z</time>
      </trkpt>
      <trkpt lat="49.24429" lon="1.15843">
        <ele>159.7</ele>
        <time>2017-09-17T09:02:22Z</time>
      </trkpt>
      <trkpt lat="49.2442" lon="1.15837">
        <ele>161.9</ele>
        <time>2017-09-17T09:02:29Z</time>
      </trkpt>
      <trkpt lat="49.24409" lon="1.15836">
        <ele>164.4</ele>
        <time>2017-09-17T09:02:44Z</time>
      </trkpt>
      <trkpt lat="49.244" lon="1.1583">
        <ele>167.3</ele>
        <time>2017-09-17T09:03:00Z</time>
      </trkpt>
      <trkpt lat="49.24391" lon="1.15826">
        <ele>171.7</ele>
        <time>2017-09-17T09:03:22Z</time>
      </trkpt>
      <trkpt lat="49.24389" lon="1.15811">
        <ele>173.5</ele>
        <time>2017-09-17T09:03:38Z</time>
      </trkpt>
      <trkpt lat="49.2439" lon="1.15797">
        <ele>173.6</ele>
        <time>2017-09-17T09:03:45Z</time>
      </trkpt>
      <trkpt lat="49.24392" lon="1.15781">
        <ele>173.8</ele>
        <time>2017-09-17T09:03:50Z</time>
      </trkpt>
      <trkpt lat="49.24393" lon="1.15767">
        <ele>173.7</ele>
        <time>2017-09-17T09:03:54Z</time>
      </trkpt>
      <trkpt lat="49.24399" lon="1.15754">
        <ele>174</ele>
        <time>2017-09-17T09:03:58Z</time>
      </trkpt>
      <trkpt lat="49.24403" lon="1.15739">
        <ele>174.2</ele>
        <time>2017-09-17T09:04:02Z</time>
      </trkpt>
      <trkpt lat="49.24409" lon="1.15729">
        <ele>174.3</ele>
        <time>2017-09-17T09:04:05Z</time>
      </trkpt>
      <trkpt lat="49.2441" lon="1.15714">
        <ele>174.4</ele>
        <time>2017-09-17T09:04:08Z</time>
      </trkpt>
      <trkpt lat="49.24411" lon="1.15698">
        <ele>174.5</ele>
        <time>2017-09-17T09:04:11Z</time>
      </trkpt>
      <trkpt lat="49.24412" lon="1.15684">
        <ele>175</ele>
        <time>2017-09-17T09:04:14Z</time>
      </trkpt>
      <trkpt lat="49.24419" lon="1.15671">
        <ele>175.2</ele>
        <time>2017-09-17T09:04:18Z</time>
      </trkpt>
      <trkpt lat="49.24419" lon="1.15657">
        <ele>175.2</ele>
        <time>2017-09-17T09:04:21Z</time>
      </trkpt>
      <trkpt lat="49.24425" lon="1.15642">
        <ele>175.5</ele>
        <time>2017-09-17T09:04:25Z</time>
      </trkpt>
      <trkpt lat="49.24425" lon="1.15625">
        <ele>175.6</ele>
        <time>2017-09-17T09:04:28Z</time>
      </trkpt>
      <trkpt lat="49.24428" lon="1.15612">
        <ele>175.6</ele>
        <time>2017-09-17T09:04:31Z</time>
      </trkpt>
      <trkpt lat="49.2443" lon="1.15597">
        <ele>175.8</ele>
        <time>2017-09-17T09:04:34Z</time>
      </trkpt>
      <trkpt lat="49.24436" lon="1.15581">
        <ele>175.8</ele>
        <time>2017-09-17T09:04:38Z</time>
      </trkpt>
      <trkpt lat="49.24437" lon="1.15567">
        <ele>176.2</ele>
        <time>2017-09-17T09:04:42Z</time>
      </trkpt>
      <trkpt lat="49.2444" lon="1.15553">
        <ele>176.1</ele>
        <time>2017-09-17T09:04:45Z</time>
      </trkpt>
      <trkpt lat="49.24444" lon="1.15536">
        <ele>176.1</ele>
        <time>2017-09-17T09:04:48Z</time>
      </trkpt>
      <trkpt lat="49.24447" lon="1.1552">
        <ele>176.4</ele>
        <time>2017-09-17T09:04:51Z</time>
      </trkpt>
      <trkpt lat="49.24454" lon="1.15507">
        <ele>176.6</ele>
        <time>2017-09-17T09:04:54Z</time>
      </trkpt>
      <trkpt lat="49.24463" lon="1.15498">
        <ele>176.8</ele>
        <time>2017-09-17T09:04:57Z</time>
      </trkpt>
      <trkpt lat="49.2447" lon="1.15485">
        <ele>176.9</ele>
        <time>2017-09-17T09:05:00Z</time>
      </trkpt>
      <trkpt lat="49.24474" lon="1.1547">
        <ele>177.2</ele>
        <time>2017-09-17T09:05:03Z</time>
      </trkpt>
      <trkpt lat="49.24479" lon="1.15458">
        <ele>177.4</ele>
        <time>2017-09-17T09:05:06Z</time>
      </trkpt>
      <trkpt lat="49.24483" lon="1.15441">
        <ele>177.5</ele>
        <time>2017-09-17T09:05:10Z</time>
      </trkpt>
      <trkpt lat="49.2449" lon="1.15429">
        <ele>177.8</ele>
        <time>2017-09-17T09:05:13Z</time>
      </trkpt>
      <trkpt lat="49.245" lon="1.15417">
        <ele>178.1</ele>
        <time>2017-09-17T09:05:16Z</time>
      </trkpt>
      <trkpt lat="49.24508" lon="1.15405">
        <ele>178</ele>
        <time>2017-09-17T09:05:19Z</time>
      </trkpt>
      <trkpt lat="49.24517" lon="1.15394">
        <ele>178.6</ele>
        <time>2017-09-17T09:05:23Z</time>
      </trkpt>
      <trkpt lat="49.24522" lon="1.15381">
        <ele>178.8</ele>
        <time>2017-09-17T09:05:28Z</time>
      </trkpt>
      <trkpt lat="49.2453" lon="1.1537">
        <ele>178.7</ele>
        <time>2017-09-17T09:05:31Z</time>
      </trkpt>
      <trkpt lat="49.24538" lon="1.15357">
        <ele>178.7</ele>
        <time>2017-09-17T09:05:35Z</time>
      </trkpt>
      <trkpt lat="49.24545" lon="1.15343">
        <ele>179.1</ele>
        <time>2017-09-17T09:05:39Z</time>
      </trkpt>
      <trkpt lat="49.24552" lon="1.15331">
        <ele>179.4</ele>
        <time>2017-09-17T09:05:42Z</time>
      </trkpt>
      <trkpt lat="49.24559" lon="1.1532">
        <ele>179.5</ele>
        <time>2017-09-17T09:05:45Z</time>
      </trkpt>
      <trkpt lat="49.24567" lon="1.1531">
        <ele>179.6</ele>
        <time>2017-09-17T09:05:48Z</time>
      </trkpt>
      <trkpt lat="49.24574" lon="1.15299">
        <ele>179.5</ele>
        <time>2017-09-17T09:05:51Z</time>
      </trkpt>
      <trkpt lat="49.24585" lon="1.1529">
        <ele>179.4</ele>
        <time>2017-09-17T09:05:54Z</time>
      </trkpt>
      <trkpt lat="49.24592" lon="1.15281">
        <ele>179.7</ele>
        <time>2017-09-17T09:05:57Z</time>
      </trkpt>
      <trkpt lat="49.24601" lon="1.15271">
        <ele>180</ele>
        <time>2017-09-17T09:06:01Z</time>
      </trkpt>
      <trkpt lat="49.2461" lon="1.15261">
        <ele>180.1</ele>
        <time>2017-09-17T09:06:04Z</time>
      </trkpt>
      <trkpt lat="49.24618" lon="1.15253">
        <ele>180.4</ele>
        <time>2017-09-17T09:06:07Z</time>
      </trkpt>
      <trkpt lat="49.24626" lon="1.15242">
        <ele>180.6</ele>
        <time>2017-09-17T09:06:11Z</time>
      </trkpt>
      <trkpt lat="49.24634" lon="1.15232">
        <ele>180.8</ele>
        <time>2017-09-17T09:06:17Z</time>
      </trkpt>
      <trkpt lat="49.24627" lon="1.15218">
        <ele>180.4</ele>
        <time>2017-09-17T09:06:22Z</time>
      </trkpt>
      <trkpt lat="49.24618" lon="1.15211">
        <ele>180.1</ele>
        <time>2017-09-17T09:06:26Z</time>
      </trkpt>
      <trkpt lat="49.24609" lon="1.15202">
        <ele>181.5</ele>
        <time>2017-09-17T09:06:32Z</time>
      </trkpt>
      <trkpt lat="49.246" lon="1.15196">
        <ele>182.8</ele>
        <time>2017-09-17T09:06:37Z</time>
      </trkpt>
      <trkpt lat="49.24591" lon="1.1519">
        <ele>184</ele>
        <time>2017-09-17T09:06:42Z</time>
      </trkpt>
      <trkpt lat="49.24581" lon="1.15183">
        <ele>185.2</ele>
        <time>2017-09-17T09:06:48Z</time>
      </trkpt>
      <trkpt lat="49.24572" lon="1.15178">
        <ele>185.9</ele>
        <time>2017-09-17T09:06:52Z</time>
      </trkpt>
      <trkpt lat="49.24563" lon="1.15173">
        <ele>186.3</ele>
        <time>2017-09-17T09:06:57Z</time>
      </trkpt>
      <trkpt lat="49.24553" lon="1.15168">
        <ele>186.9</ele>
        <time>2017-09-17T09:07:02Z</time>
      </trkpt>
      <trkpt lat="49.24544" lon="1.15164">
        <ele>187.8</ele>
        <time>2017-09-17T09:07:07Z</time>
      </trkpt>
      <trkpt lat="49.24535" lon="1.15159">
        <ele>189</ele>
        <time>2017-09-17T09:07:13Z</time>
      </trkpt>
      <trkpt lat="49.24526" lon="1.15153">
        <ele>190.6</ele>
        <time>2017-09-17T09:07:20Z</time>
      </trkpt>
      <trkpt lat="49.24518" lon="1.15147">
        <ele>192.1</ele>
        <time>2017-09-17T09:07:27Z</time>
      </trkpt>
      <trkpt lat="49.2451" lon="1.15142">
        <ele>194.4</ele>
        <time>2017-09-17T09:07:36Z</time>
      </trkpt>
      <trkpt lat="49.24501" lon="1.15137">
        <ele>196.4</ele>
        <time>2017-09-17T09:07:44Z</time>
      </trkpt>
      <trkpt lat="49.24491" lon="1.15131">
        <ele>197.9</ele>
        <time>2017-09-17T09:07:51Z</time>
      </trkpt>
      <trkpt lat="49.24483" lon="1.15125">
        <ele>199.7</ele>
        <time>2017-09-17T09:07:59Z</time>
      </trkpt>
      <trkpt lat="49.24473" lon="1.15121">
        <ele>201.2</ele>
        <time>2017-09-17T09:08:07Z</time>
      </trkpt>
      <trkpt lat="49.24464" lon="1.15117">
        <ele>202.9</ele>
        <time>2017-09-17T09:08:15Z</time>
      </trkpt>
      <trkpt lat="49.24455" lon="1.15112">
        <ele>204.9</ele>
        <time>2017-09-17T09:08:24Z</time>
      </trkpt>
      <trkpt lat="49.24446" lon="1.15106">
        <ele>206.4</ele>
        <time>2017-09-17T09:08:32Z</time>
      </trkpt>
      <trkpt lat="49.24437" lon="1.151">
        <ele>207.9</ele>
        <time>2017-09-17T09:08:40Z</time>
      </trkpt>
      <trkpt lat="49.24428" lon="1.15097">
        <ele>209.5</ele>
        <time>2017-09-17T09:08:47Z</time>
      </trkpt>
      <trkpt lat="49.24418" lon="1.15092">
        <ele>210.9</ele>
        <time>2017-09-17T09:08:54Z</time>
      </trkpt>
      <trkpt lat="49.24409" lon="1.15087">
        <ele>211.9</ele>
        <time>2017-09-17T09:09:00Z</time>
      </trkpt>
      <trkpt lat="49.244" lon="1.15082">
        <ele>212.9</ele>
        <time>2017-09-17T09:09:06Z</time>
      </trkpt>
      <trkpt lat="49.2439" lon="1.15077">
        <ele>214.2</ele>
        <time>2017-09-17T09:09:12Z</time>
      </trkpt>
      <trkpt lat="49.24381" lon="1.15071">
        <ele>215.4</ele>
        <time>2017-09-17T09:09:18Z</time>
      </trkpt>
      <trkpt lat="49.2437" lon="1.15067">
        <ele>216.4</ele>
        <time>2017-09-17T09:09:23Z</time>
      </trkpt>
      <trkpt lat="49.24362" lon="1.15062">
        <ele>217</ele>
        <time>2017-09-17T09:09:27Z</time>
      </trkpt>
      <trkpt lat="49.24351" lon="1.15056">
        <ele>217.8</ele>
        <time>2017-09-17T09:09:32Z</time>
      </trkpt>
      <trkpt lat="49.24341" lon="1.1505">
        <ele>218.5</ele>
        <time>2017-09-17T09:09:36Z</time>
      </trkpt>
      <trkpt lat="49.24331" lon="1.15044">
        <ele>218.9</ele>
        <time>2017-09-17T09:09:40Z</time>
      </trkpt>
      <trkpt lat="49.2432" lon="1.15038">
        <ele>219.2</ele>
        <time>2017-09-17T09:09:44Z</time>
      </trkpt>
      <trkpt lat="49.2431" lon="1.15032">
        <ele>219.8</ele>
        <time>2017-09-17T09:09:48Z</time>
      </trkpt>
      <trkpt lat="49.243" lon="1.15027">
        <ele>220.3</ele>
        <time>2017-09-17T09:09:52Z</time>
      </trkpt>
      <trkpt lat="49.24288" lon="1.15021">
        <ele>220.8</ele>
        <time>2017-09-17T09:09:56Z</time>
      </trkpt>
      <trkpt lat="49.2428" lon="1.15015">
        <ele>221.2</ele>
        <time>2017-09-17T09:09:59Z</time>
      </trkpt>
      <trkpt lat="49.2427" lon="1.1501">
        <ele>221.4</ele>
        <time>2017-09-17T09:10:02Z</time>
      </trkpt>
      <trkpt lat="49.24259" lon="1.15005">
        <ele>221.8</ele>
        <time>2017-09-17T09:10:05Z</time>
      </trkpt>
      <trkpt lat="49.24249" lon="1.15">
        <ele>221.9</ele>
        <time>2017-09-17T09:10:08Z</time>
      </trkpt>
      <trkpt lat="49.24239" lon="1.14993">
        <ele>222</ele>
        <time>2017-09-17T09:10:11Z</time>
      </trkpt>
      <trkpt lat="49.24229" lon="1.14987">
        <ele>222</ele>
        <time>2017-09-17T09:10:14Z</time>
      </trkpt>
      <trkpt lat="49.24217" lon="1.14981">
        <ele>222.1</ele>
        <time>2017-09-17T09:10:17Z</time>
      </trkpt>
      <trkpt lat="49.24206" lon="1.14975">
        <ele>222.2</ele>
        <time>2017-09-17T09:10:20Z</time>
      </trkpt>
      <trkpt lat="49.24195" lon="1.14968">
        <ele>222.3</ele>
        <time>2017-09-17T09:10:23Z</time>
      </trkpt>
      <trkpt lat="49.24185" lon="1.14961">
        <ele>222.5</ele>
        <time>2017-09-17T09:10:26Z</time>
      </trkpt>
      <trkpt lat="49.24175" lon="1.14956">
        <ele>222.6</ele>
        <time>2017-09-17T09:10:29Z</time>
      </trkpt>
      <trkpt lat="49.24166" lon="1.14951">
        <ele>222.7</ele>
        <time>2017-09-17T09:10:32Z</time>
      </trkpt>
      <trkpt lat="49.24157" lon="1.14947">
        <ele>223</ele>
        <time>2017-09-17T09:10:35Z</time>
      </trkpt>
      <trkpt lat="49.24148" lon="1.14942">
        <ele>223</ele>
        <time>2017-09-17T09:10:38Z</time>
      </trkpt>
      <trkpt lat="49.24138" lon="1.14943">
        <ele>223.4</ele>
        <time>2017-09-17T09:10:42Z</time>
      </trkpt>
      <trkpt lat="49.24133" lon="1.14956">
        <ele>223.7</ele>
        <time>2017-09-17T09:10:50Z</time>
      </trkpt>
      <trkpt lat="49.24129" lon="1.14971">
        <ele>223.6</ele>
        <time>2017-09-17T09:10:54Z</time>
      </trkpt>
      <trkpt lat="49.24127" lon="1.14985">
        <ele>223.4</ele>
        <time>2017-09-17T09:10:57Z</time>
      </trkpt>
      <trkpt lat="49.24123" lon="1.15002">
        <ele>223</ele>
        <time>2017-09-17T09:11:00Z</time>
      </trkpt>
      <trkpt lat="49.2412" lon="1.15016">
        <ele>222.9</ele>
        <time>2017-09-17T09:11:02Z</time>
      </trkpt>
      <trkpt lat="49.24117" lon="1.15031">
        <ele>222.7</ele>
        <time>2017-09-17T09:11:04Z</time>
      </trkpt>
      <trkpt lat="49.24113" lon="1.15046">
        <ele>222.7</ele>
        <time>2017-09-17T09:11:06Z</time>
      </trkpt>
      <trkpt lat="49.24111" lon="1.15061">
        <ele>222.2</ele>
        <time>2017-09-17T09:11:08Z</time>
      </trkpt>
      <trkpt lat="49.24108" lon="1.15077">
        <ele>222</ele>
        <time>2017-09-17T09:11:10Z</time>
      </trkpt>
      <trkpt lat="49.24105" lon="1.15093">
        <ele>221.5</ele>
        <time>2017-09-17T09:11:12Z</time>
      </trkpt>
      <trkpt lat="49.24104" lon="1.15108">
        <ele>221.3</ele>
        <time>2017-09-17T09:11:14Z</time>
      </trkpt>
      <trkpt lat="49.24101" lon="1.15123">
        <ele>221.1</ele>
        <time>2017-09-17T09:11:16Z</time>
      </trkpt>
      <trkpt lat="49.24096" lon="1.15142">
        <ele>221</ele>
        <time>2017-09-17T09:11:18Z</time>
      </trkpt>
      <trkpt lat="49.24092" lon="1.15159">
        <ele>221</ele>
        <time>2017-09-17T09:11:20Z</time>
      </trkpt>
      <trkpt lat="49.24088" lon="1.15177">
        <ele>220.9</ele>
        <time>2017-09-17T09:11:22Z</time>
      </trkpt>
      <trkpt lat="49.24084" lon="1.15194">
        <ele>221</ele>
        <time>2017-09-17T09:11:24Z</time>
      </trkpt>
      <trkpt lat="49.24082" lon="1.1521">
        <ele>221</ele>
        <time>2017-09-17T09:11:26Z</time>
      </trkpt>
      <trkpt lat="49.24079" lon="1.15226">
        <ele>221.1</ele>
        <time>2017-09-17T09:11:28Z</time>
      </trkpt>
      <trkpt lat="49.24075" lon="1.15242">
        <ele>221.3</ele>
        <time>2017-09-17T09:11:30Z</time>
      </trkpt>
      <trkpt lat="49.24072" lon="1.15258">
        <ele>221.5</ele>
        <time>2017-09-17T09:11:32Z</time>
      </trkpt>
      <trkpt lat="49.24069" lon="1.15274">
        <ele>221.7</ele>
        <time>2017-09-17T09:11:34Z</time>
      </trkpt>
      <trkpt lat="49.24067" lon="1.15291">
        <ele>221.7</ele>
        <time>2017-09-17T09:11:36Z</time>
      </trkpt>
      <trkpt lat="49.24064" lon="1.15307">
        <ele>222.2</ele>
        <time>2017-09-17T09:11:38Z</time>
      </trkpt>
      <trkpt lat="49.24061" lon="1.15323">
        <ele>222.6</ele>
        <time>2017-09-17T09:11:40Z</time>
      </trkpt>
      <trkpt lat="49.24059" lon="1.15338">
        <ele>222.8</ele>
        <time>2017-09-17T09:11:42Z</time>
      </trkpt>
      <trkpt lat="49.24056" lon="1.15353">
        <ele>222.8</ele>
        <time>2017-09-17T09:11:44Z</time>
      </trkpt>
      <trkpt lat="49.24052" lon="1.15366">
        <ele>222.9</ele>
        <time>2017-09-17T09:11:46Z</time>
      </trkpt>
      <trkpt lat="49.24041" lon="1.15372">
        <ele>223.1</ele>
        <time>2017-09-17T09:11:49Z</time>
      </trkpt>
      <trkpt lat="49.2403" lon="1.15364">
        <ele>223</ele>
        <time>2017-09-17T09:11:52Z</time>
      </trkpt>
      <trkpt lat="49.24019" lon="1.15361">
        <ele>223.3</ele>
        <time>2017-09-17T09:11:55Z</time>
      </trkpt>
      <trkpt lat="49.24009" lon="1.15356">
        <ele>223.6</ele>
        <time>2017-09-17T09:11:58Z</time>
      </trkpt>
      <trkpt lat="49.23999" lon="1.15353">
        <ele>223.8</ele>
        <time>2017-09-17T09:12:01Z</time>
      </trkpt>
      <trkpt lat="49.23987" lon="1.1535">
        <ele>223.8</ele>
        <time>2017-09-17T09:12:04Z</time>
      </trkpt>
      <trkpt lat="49.23977" lon="1.15347">
        <ele>224.1</ele>
        <time>2017-09-17T09:12:07Z</time>
      </trkpt>
      <trkpt lat="49.23967" lon="1.15343">
        <ele>224.5</ele>
        <time>2017-09-17T09:12:10Z</time>
      </trkpt>
      <trkpt lat="49.23956" lon="1.1534">
        <ele>224.5</ele>
        <time>2017-09-17T09:12:13Z</time>
      </trkpt>
      <trkpt lat="49.23947" lon="1.15337">
        <ele>224.6</ele>
        <time>2017-09-17T09:12:15Z</time>
      </trkpt>
      <trkpt lat="49.23935" lon="1.15334">
        <ele>224.8</ele>
        <time>2017-09-17T09:12:18Z</time>
      </trkpt>
      <trkpt lat="49.23926" lon="1.15331">
        <ele>225</ele>
        <time>2017-09-17T09:12:20Z</time>
      </trkpt>
      <trkpt lat="49.23916" lon="1.15327">
        <ele>225</ele>
        <time>2017-09-17T09:12:22Z</time>
      </trkpt>
      <trkpt lat="49.23905" lon="1.15324">
        <ele>225.3</ele>
        <time>2017-09-17T09:12:24Z</time>
      </trkpt>
      <trkpt lat="49.23896" lon="1.15329">
        <ele>225.3</ele>
        <time>2017-09-17T09:12:26Z</time>
      </trkpt>
      <trkpt lat="49.23886" lon="1.15332">
        <ele>225.5</ele>
        <time>2017-09-17T09:12:28Z</time>
      </trkpt>
      <trkpt lat="49.23876" lon="1.15334">
        <ele>225.6</ele>
        <time>2017-09-17T09:12:30Z</time>
      </trkpt>
      <trkpt lat="49.23867" lon="1.15342">
        <ele>225.7</ele>
        <time>2017-09-17T09:12:32Z</time>
      </trkpt>
      <trkpt lat="49.23859" lon="1.15348">
        <ele>225.4</ele>
        <time>2017-09-17T09:12:34Z</time>
      </trkpt>
      <trkpt lat="49.2385" lon="1.15354">
        <ele>225.4</ele>
        <time>2017-09-17T09:12:36Z</time>
      </trkpt>
      <trkpt lat="49.23842" lon="1.1536">
        <ele>225.3</ele>
        <time>2017-09-17T09:12:38Z</time>
      </trkpt>
      <trkpt lat="49.23833" lon="1.15366">
        <ele>225.2</ele>
        <time>2017-09-17T09:12:40Z</time>
      </trkpt>
      <trkpt lat="49.23824" lon="1.15372">
        <ele>225.2</ele>
        <time>2017-09-17T09:12:42Z</time>
      </trkpt>
      <trkpt lat="49.23816" lon="1.15379">
        <ele>225.3</ele>
        <time>2017-09-17T09:12:44Z</time>
      </trkpt>
      <trkpt lat="49.23804" lon="1.15387">
        <ele>225</ele>
        <time>2017-09-17T09:12:47Z</time>
      </trkpt>
      <trkpt lat="49.23791" lon="1.15395">
        <ele>224.8</ele>
        <time>2017-09-17T09:12:50Z</time>
      </trkpt>
      <trkpt lat="49.23783" lon="1.15404">
        <ele>224.7</ele>
        <time>2017-09-17T09:12:52Z</time>
      </trkpt>
      <trkpt lat="49.23773" lon="1.15412">
        <ele>224.6</ele>
        <time>2017-09-17T09:12:54Z</time>
      </trkpt>
      <trkpt lat="49.23764" lon="1.1542">
        <ele>224.2</ele>
        <time>2017-09-17T09:12:56Z</time>
      </trkpt>
      <trkpt lat="49.23753" lon="1.15428">
        <ele>224</ele>
        <time>2017-09-17T09:12:58Z</time>
      </trkpt>
      <trkpt lat="49.23743" lon="1.15436">
        <ele>223.7</ele>
        <time>2017-09-17T09:13:00Z</time>
      </trkpt>
      <trkpt lat="49.23734" lon="1.15446">
        <ele>223.5</ele>
        <time>2017-09-17T09:13:02Z</time>
      </trkpt>
      <trkpt lat="49.23725" lon="1.15455">
        <ele>223.3</ele>
        <time>2017-09-17T09:13:04Z</time>
      </trkpt>
      <trkpt lat="49.23716" lon="1.15461">
        <ele>223.2</ele>
        <time>2017-09-17T09:13:06Z</time>
      </trkpt>
      <trkpt lat="49.23707" lon="1.15469">
        <ele>222.9</ele>
        <time>2017-09-17T09:13:08Z</time>
      </trkpt>
      <trkpt lat="49.23696" lon="1.15482">
        <ele>222.7</ele>
        <time>2017-09-17T09:13:11Z</time>
      </trkpt>
      <trkpt lat="49.23692" lon="1.15499">
        <ele>222.3</ele>
        <time>2017-09-17T09:13:13Z</time>
      </trkpt>
      <trkpt lat="49.23689" lon="1.15513">
        <ele>221.5</ele>
        <time>2017-09-17T09:13:15Z</time>
      </trkpt>
      <trkpt lat="49.23687" lon="1.15535">
        <ele>221</ele>
        <time>2017-09-17T09:13:17Z</time>
      </trkpt>
      <trkpt lat="49.23685" lon="1.15556">
        <ele>220.5</ele>
        <time>2017-09-17T09:13:19Z</time>
      </trkpt>
      <trkpt lat="49.23684" lon="1.15575">
        <ele>220.1</ele>
        <time>2017-09-17T09:13:21Z</time>
      </trkpt>
      <trkpt lat="49.23683" lon="1.15595">
        <ele>219.6</ele>
        <time>2017-09-17T09:13:23Z</time>
      </trkpt>
      <trkpt lat="49.23682" lon="1.15614">
        <ele>219.3</ele>
        <time>2017-09-17T09:13:25Z</time>
      </trkpt>
      <trkpt lat="49.2368" lon="1.15633">
        <ele>218.5</ele>
        <time>2017-09-17T09:13:27Z</time>
      </trkpt>
      <trkpt lat="49.23679" lon="1.15654">
        <ele>217.7</ele>
        <time>2017-09-17T09:13:29Z</time>
      </trkpt>
      <trkpt lat="49.23679" lon="1.15673">
        <ele>216.7</ele>
        <time>2017-09-17T09:13:31Z</time>
      </trkpt>
      <trkpt lat="49.23677" lon="1.15693">
        <ele>215.5</ele>
        <time>2017-09-17T09:13:33Z</time>
      </trkpt>
      <trkpt lat="49.23675" lon="1.15714">
        <ele>214.7</ele>
        <time>2017-09-17T09:13:35Z</time>
      </trkpt>
      <trkpt lat="49.23674" lon="1.15732">
        <ele>213.7</ele>
        <time>2017-09-17T09:13:37Z</time>
      </trkpt>
      <trkpt lat="49.23678" lon="1.15747">
        <ele>212.3</ele>
        <time>2017-09-17T09:13:39Z</time>
      </trkpt>
      <trkpt lat="49.23688" lon="1.15756">
        <ele>210.5</ele>
        <time>2017-09-17T09:13:42Z</time>
      </trkpt>
      <trkpt lat="49.23697" lon="1.15764">
        <ele>209.6</ele>
        <time>2017-09-17T09:13:46Z</time>
      </trkpt>
      <trkpt lat="49.23708" lon="1.15773">
        <ele>209.5</ele>
        <time>2017-09-17T09:13:49Z</time>
      </trkpt>
      <trkpt lat="49.23717" lon="1.1578">
        <ele>209.7</ele>
        <time>2017-09-17T09:13:52Z</time>
      </trkpt>
      <trkpt lat="49.23727" lon="1.15786">
        <ele>210.1</ele>
        <time>2017-09-17T09:13:55Z</time>
      </trkpt>
      <trkpt lat="49.23736" lon="1.1579">
        <ele>210.6</ele>
        <time>2017-09-17T09:13:58Z</time>
      </trkpt>
      <trkpt lat="49.23746" lon="1.15797">
        <ele>211</ele>
        <time>2017-09-17T09:14:01Z</time>
      </trkpt>
      <trkpt lat="49.23757" lon="1.15803">
        <ele>211.3</ele>
        <time>2017-09-17T09:14:04Z</time>
      </trkpt>
      <trkpt lat="49.23768" lon="1.15809">
        <ele>211.7</ele>
        <time>2017-09-17T09:14:07Z</time>
      </trkpt>
      <trkpt lat="49.23779" lon="1.15816">
        <ele>211.8</ele>
        <time>2017-09-17T09:14:10Z</time>
      </trkpt>
      <trkpt lat="49.23791" lon="1.15823">
        <ele>211.9</ele>
        <time>2017-09-17T09:14:13Z</time>
      </trkpt>
      <trkpt lat="49.23803" lon="1.1583">
        <ele>212</ele>
        <time>2017-09-17T09:14:16Z</time>
      </trkpt>
      <trkpt lat="49.23813" lon="1.15833">
        <ele>212.2</ele>
        <time>2017-09-17T09:14:18Z</time>
      </trkpt>
      <trkpt lat="49.23823" lon="1.15839">
        <ele>212.1</ele>
        <time>2017-09-17T09:14:20Z</time>
      </trkpt>
      <trkpt lat="49.23833" lon="1.15844">
        <ele>212</ele>
        <time>2017-09-17T09:14:22Z</time>
      </trkpt>
      <trkpt lat="49.23842" lon="1.15847">
        <ele>212</ele>
        <time>2017-09-17T09:14:24Z</time>
      </trkpt>
      <trkpt lat="49.23855" lon="1.15852">
        <ele>212.2</ele>
        <time>2017-09-17T09:14:27Z</time>
      </trkpt>
      <trkpt lat="49.23866" lon="1.1586">
        <ele>212.1</ele>
        <time>2017-09-17T09:14:30Z</time>
      </trkpt>
      <trkpt lat="49.23879" lon="1.15867">
        <ele>212.2</ele>
        <time>2017-09-17T09:14:33Z</time>
      </trkpt>
      <trkpt lat="49.23893" lon="1.15874">
        <ele>212.1</ele>
        <time>2017-09-17T09:14:36Z</time>
      </trkpt>
      <trkpt lat="49.23903" lon="1.1588">
        <ele>212.2</ele>
        <time>2017-09-17T09:14:38Z</time>
      </trkpt>
      <trkpt lat="49.23912" lon="1.15885">
        <ele>212.2</ele>
        <time>2017-09-17T09:14:40Z</time>
      </trkpt>
      <trkpt lat="49.23922" lon="1.1589">
        <ele>212.2</ele>
        <time>2017-09-17T09:14:42Z</time>
      </trkpt>
      <trkpt lat="49.23933" lon="1.15896">
        <ele>212.3</ele>
        <time>2017-09-17T09:14:44Z</time>
      </trkpt>
      <trkpt lat="49.23944" lon="1.15901">
        <ele>212.4</ele>
        <time>2017-09-17T09:14:46Z</time>
      </trkpt>
      <trkpt lat="49.23957" lon="1.15908">
        <ele>212.4</ele>
        <time>2017-09-17T09:14:49Z</time>
      </trkpt>
      <trkpt lat="49.23966" lon="1.15912">
        <ele>212.5</ele>
        <time>2017-09-17T09:14:51Z</time>
      </trkpt>
      <trkpt lat="49.23976" lon="1.15916">
        <ele>212.3</ele>
        <time>2017-09-17T09:14:53Z</time>
      </trkpt>
      <trkpt lat="49.23984" lon="1.15922">
        <ele>212.2</ele>
        <time>2017-09-17T09:14:55Z</time>
      </trkpt>
      <trkpt lat="49.23994" lon="1.15926">
        <ele>212.1</ele>
        <time>2017-09-17T09:14:57Z</time>
      </trkpt>
      <trkpt lat="49.24004" lon="1.1593">
        <ele>211.9</ele>
        <time>2017-09-17T09:14:59Z</time>
      </trkpt>
      <trkpt lat="49.24014" lon="1.15934">
        <ele>211.8</ele>
        <time>2017-09-17T09:15:01Z</time>
      </trkpt>
      <trkpt lat="49.24025" lon="1.15939">
        <ele>211.5</ele>
        <time>2017-09-17T09:15:03Z</time>
      </trkpt>
      <trkpt lat="49.24035" lon="1.15941">
        <ele>211.2</ele>
        <time>2017-09-17T09:15:05Z</time>
      </trkpt>
      <trkpt lat="49.24047" lon="1.15946">
        <ele>211</ele>
        <time>2017-09-17T09:15:07Z</time>
      </trkpt>
      <trkpt lat="49.24058" lon="1.15951">
        <ele>210.5</ele>
        <time>2017-09-17T09:15:09Z</time>
      </trkpt>
      <trkpt lat="49.24069" lon="1.15956">
        <ele>210.2</ele>
        <time>2017-09-17T09:15:11Z</time>
      </trkpt>
      <trkpt lat="49.24078" lon="1.15963">
        <ele>209.7</ele>
        <time>2017-09-17T09:15:13Z</time>
      </trkpt>
      <trkpt lat="49.2409" lon="1.1597">
        <ele>209.2</ele>
        <time>2017-09-17T09:15:15Z</time>
      </trkpt>
      <trkpt lat="49.241" lon="1.15975">
        <ele>208.8</ele>
        <time>2017-09-17T09:15:17Z</time>
      </trkpt>
      <trkpt lat="49.24109" lon="1.15981">
        <ele>208.2</ele>
        <time>2017-09-17T09:15:19Z</time>
      </trkpt>
      <trkpt lat="49.24119" lon="1.15989">
        <ele>207.8</ele>
        <time>2017-09-17T09:15:21Z</time>
      </trkpt>
      <trkpt lat="49.24134" lon="1.15995">
        <ele>207.1</ele>
        <time>2017-09-17T09:15:23Z</time>
      </trkpt>
      <trkpt lat="49.24149" lon="1.16001">
        <ele>206.2</ele>
        <time>2017-09-17T09:15:25Z</time>
      </trkpt>
      <trkpt lat="49.24164" lon="1.16009">
        <ele>205.3</ele>
        <time>2017-09-17T09:15:27Z</time>
      </trkpt>
      <trkpt lat="49.24178" lon="1.16014">
        <ele>204</ele>
        <time>2017-09-17T09:15:29Z</time>
      </trkpt>
      <trkpt lat="49.24191" lon="1.16021">
        <ele>202.6</ele>
        <time>2017-09-17T09:15:31Z</time>
      </trkpt>
      <trkpt lat="49.24204" lon="1.16025">
        <ele>201.2</ele>
        <time>2017-09-17T09:15:33Z</time>
      </trkpt>
      <trkpt lat="49.24219" lon="1.16032">
        <ele>199.9</ele>
        <time>2017-09-17T09:15:35Z</time>
      </trkpt>
      <trkpt lat="49.2423" lon="1.1604">
        <ele>198.3</ele>
        <time>2017-09-17T09:15:37Z</time>
      </trkpt>
      <trkpt lat="49.2424" lon="1.16044">
        <ele>196.8</ele>
        <time>2017-09-17T09:15:39Z</time>
      </trkpt>
      <trkpt lat="49.24249" lon="1.16048">
        <ele>195</ele>
        <time>2017-09-17T09:15:41Z</time>
      </trkpt>
      <trkpt lat="49.24261" lon="1.16057">
        <ele>191.8</ele>
        <time>2017-09-17T09:15:44Z</time>
      </trkpt>
      <trkpt lat="49.24275" lon="1.16063">
        <ele>189.3</ele>
        <time>2017-09-17T09:15:46Z</time>
      </trkpt>
      <trkpt lat="49.24286" lon="1.1607">
        <ele>186.3</ele>
        <time>2017-09-17T09:15:48Z</time>
      </trkpt>
      <trkpt lat="49.24297" lon="1.16076">
        <ele>183</ele>
        <time>2017-09-17T09:15:50Z</time>
      </trkpt>
      <trkpt lat="49.24307" lon="1.16076">
        <ele>178.6</ele>
        <time>2017-09-17T09:15:53Z</time>
      </trkpt>
      <trkpt lat="49.24315" lon="1.16071">
        <ele>176.4</ele>
        <time>2017-09-17T09:15:55Z</time>
      </trkpt>
      <trkpt lat="49.24325" lon="1.16059">
        <ele>173.4</ele>
        <time>2017-09-17T09:15:58Z</time>
      </trkpt>
      <trkpt lat="49.24331" lon="1.16048">
        <ele>172.1</ele>
        <time>2017-09-17T09:16:00Z</time>
      </trkpt>
      <trkpt lat="49.24338" lon="1.16038">
        <ele>171.1</ele>
        <time>2017-09-17T09:16:02Z</time>
      </trkpt>
      <trkpt lat="49.24343" lon="1.16027">
        <ele>170.5</ele>
        <time>2017-09-17T09:16:04Z</time>
      </trkpt>
      <trkpt lat="49.2435" lon="1.16016">
        <ele>170.1</ele>
        <time>2017-09-17T09:16:06Z</time>
      </trkpt>
      <trkpt lat="49.24352" lon="1.16001">
        <ele>170.1</ele>
        <time>2017-09-17T09:16:09Z</time>
      </trkpt>
      <trkpt lat="49.24359" lon="1.1599">
        <ele>170.8</ele>
        <time>2017-09-17T09:16:14Z</time>
      </trkpt>
      <trkpt lat="49.24364" lon="1.16004">
        <ele>171.4</ele>
        <time>2017-09-17T09:16:22Z</time>
      </trkpt>
      <trkpt lat="49.24367" lon="1.16017">
        <ele>171.3</ele>
        <time>2017-09-17T09:16:26Z</time>
      </trkpt>
      <trkpt lat="49.2437" lon="1.16034">
        <ele>171.4</ele>
        <time>2017-09-17T09:16:29Z</time>
      </trkpt>
      <trkpt lat="49.24371" lon="1.16051">
        <ele>171.1</ele>
        <time>2017-09-17T09:16:32Z</time>
      </trkpt>
      <trkpt lat="49.24373" lon="1.16068">
        <ele>171.1</ele>
        <time>2017-09-17T09:16:35Z</time>
      </trkpt>
      <trkpt lat="49.24377" lon="1.16084">
        <ele>170.8</ele>
        <time>2017-09-17T09:16:38Z</time>
      </trkpt>
      <trkpt lat="49.24378" lon="1.161">
        <ele>170.3</ele>
        <time>2017-09-17T09:16:41Z</time>
      </trkpt>
      <trkpt lat="49.24378" lon="1.16117">
        <ele>170.2</ele>
        <time>2017-09-17T09:16:44Z</time>
      </trkpt>
      <trkpt lat="49.24383" lon="1.16135">
        <ele>169.7</ele>
        <time>2017-09-17T09:16:47Z</time>
      </trkpt>
      <trkpt lat="49.24385" lon="1.16152">
        <ele>169.5</ele>
        <time>2017-09-17T09:16:50Z</time>
      </trkpt>
      <trkpt lat="49.24387" lon="1.16172">
        <ele>169.5</ele>
        <time>2017-09-17T09:16:53Z</time>
      </trkpt>
      <trkpt lat="49.24387" lon="1.16187">
        <ele>169.5</ele>
        <time>2017-09-17T09:16:55Z</time>
      </trkpt>
      <trkpt lat="49.24389" lon="1.16203">
        <ele>169.2</ele>
        <time>2017-09-17T09:16:58Z</time>
      </trkpt>
      <trkpt lat="49.24391" lon="1.16216">
        <ele>169</ele>
        <time>2017-09-17T09:17:02Z</time>
      </trkpt>
      <trkpt lat="49.24393" lon="1.16231">
        <ele>168.8</ele>
        <time>2017-09-17T09:17:07Z</time>
      </trkpt>
      <trkpt lat="49.24395" lon="1.16247">
        <ele>169</ele>
        <time>2017-09-17T09:17:13Z</time>
      </trkpt>
      <trkpt lat="49.24397" lon="1.16265">
        <ele>168.9</ele>
        <time>2017-09-17T09:17:18Z</time>
      </trkpt>
      <trkpt lat="49.24398" lon="1.1628">
        <ele>168.6</ele>
        <time>2017-09-17T09:17:21Z</time>
      </trkpt>
      <trkpt lat="49.24399" lon="1.16295">
        <ele>168.7</ele>
        <time>2017-09-17T09:17:24Z</time>
      </trkpt>
      <trkpt lat="49.244" lon="1.16312">
        <ele>168.7</ele>
        <time>2017-09-17T09:17:27Z</time>
      </trkpt>
      <trkpt lat="49.244" lon="1.16328">
        <ele>168.7</ele>
        <time>2017-09-17T09:17:30Z</time>
      </trkpt>
      <trkpt lat="49.24398" lon="1.16344">
        <ele>168.6</ele>
        <time>2017-09-17T09:17:33Z</time>
      </trkpt>
      <trkpt lat="49.24398" lon="1.16361">
        <ele>168.3</ele>
        <time>2017-09-17T09:17:37Z</time>
      </trkpt>
      <trkpt lat="49.24395" lon="1.16377">
        <ele>167.6</ele>
        <time>2017-09-17T09:17:40Z</time>
      </trkpt>
      <trkpt lat="49.24393" lon="1.16391">
        <ele>167.7</ele>
        <time>2017-09-17T09:17:43Z</time>
      </trkpt>
      <trkpt lat="49.2439" lon="1.16409">
        <ele>167.7</ele>
        <time>2017-09-17T09:17:47Z</time>
      </trkpt>
      <trkpt lat="49.24388" lon="1.16424">
        <ele>167.6</ele>
        <time>2017-09-17T09:17:50Z</time>
      </trkpt>
      <trkpt lat="49.24385" lon="1.1644">
        <ele>167.5</ele>
        <time>2017-09-17T09:17:54Z</time>
      </trkpt>
      <trkpt lat="49.24384" lon="1.16455">
        <ele>167.3</ele>
        <time>2017-09-17T09:18:04Z</time>
      </trkpt>
      <trkpt lat="49.24384" lon="1.1647">
        <ele>167.4</ele>
        <time>2017-09-17T09:18:13Z</time>
      </trkpt>
      <trkpt lat="49.2438" lon="1.16483">
        <ele>169.2</ele>
        <time>2017-09-17T09:18:24Z</time>
      </trkpt>
      <trkpt lat="49.24378" lon="1.16498">
        <ele>170.7</ele>
        <time>2017-09-17T09:18:31Z</time>
      </trkpt>
      <trkpt lat="49.24374" lon="1.16512">
        <ele>172.4</ele>
        <time>2017-09-17T09:18:39Z</time>
      </trkpt>
      <trkpt lat="49.24373" lon="1.16526">
        <ele>173.3</ele>
        <time>2017-09-17T09:18:46Z</time>
      </trkpt>
      <trkpt lat="49.24375" lon="1.16539">
        <ele>173.7</ele>
        <time>2017-09-17T09:18:53Z</time>
      </trkpt>
      <trkpt lat="49.24377" lon="1.16554">
        <ele>173.1</ele>
        <time>2017-09-17T09:19:00Z</time>
      </trkpt>
      <trkpt lat="49.24371" lon="1.16566">
        <ele>172.3</ele>
        <time>2017-09-17T09:19:03Z</time>
      </trkpt>
      <trkpt lat="49.24366" lon="1.16579">
        <ele>171</ele>
        <time>2017-09-17T09:19:21Z</time>
      </trkpt>
      <trkpt lat="49.24359" lon="1.16589">
        <ele>171.5</ele>
        <time>2017-09-17T09:19:35Z</time>
      </trkpt>
      <trkpt lat="49.2435" lon="1.16594">
        <ele>173.1</ele>
        <time>2017-09-17T09:19:44Z</time>
      </trkpt>
      <trkpt lat="49.24345" lon="1.16605">
        <ele>175.4</ele>
        <time>2017-09-17T09:19:57Z</time>
      </trkpt>
      <trkpt lat="49.24339" lon="1.16618">
        <ele>176.4</ele>
        <time>2017-09-17T09:20:06Z</time>
      </trkpt>
      <trkpt lat="49.24336" lon="1.16631">
        <ele>176.7</ele>
        <time>2017-09-17T09:20:15Z</time>
      </trkpt>
      <trkpt lat="49.24335" lon="1.16648">
        <ele>176.2</ele>
        <time>2017-09-17T09:20:21Z</time>
      </trkpt>
      <trkpt lat="49.24337" lon="1.16662">
        <ele>175.6</ele>
        <time>2017-09-17T09:20:25Z</time>
      </trkpt>
      <trkpt lat="49.24332" lon="1.16677">
        <ele>174.5</ele>
        <time>2017-09-17T09:20:31Z</time>
      </trkpt>
      <trkpt lat="49.24324" lon="1.16684">
        <ele>174.1</ele>
        <time>2017-09-17T09:20:34Z</time>
      </trkpt>
      <trkpt lat="49.24316" lon="1.16696">
        <ele>173.9</ele>
        <time>2017-09-17T09:20:37Z</time>
      </trkpt>
      <trkpt lat="49.24308" lon="1.16711">
        <ele>173.6</ele>
        <time>2017-09-17T09:20:40Z</time>
      </trkpt>
      <trkpt lat="49.24296" lon="1.16723">
        <ele>173.2</ele>
        <time>2017-09-17T09:20:43Z</time>
      </trkpt>
      <trkpt lat="49.24285" lon="1.1673">
        <ele>172.7</ele>
        <time>2017-09-17T09:20:45Z</time>
      </trkpt>
      <trkpt lat="49.24274" lon="1.16736">
        <ele>172.3</ele>
        <time>2017-09-17T09:20:47Z</time>
      </trkpt>
      <trkpt lat="49.24264" lon="1.16743">
        <ele>172</ele>
        <time>2017-09-17T09:20:49Z</time>
      </trkpt>
      <trkpt lat="49.24251" lon="1.1675">
        <ele>171.4</ele>
        <time>2017-09-17T09:20:51Z</time>
      </trkpt>
      <trkpt lat="49.24238" lon="1.16755">
        <ele>170.9</ele>
        <time>2017-09-17T09:20:53Z</time>
      </trkpt>
      <trkpt lat="49.24227" lon="1.16768">
        <ele>170.3</ele>
        <time>2017-09-17T09:20:55Z</time>
      </trkpt>
      <trkpt lat="49.24217" lon="1.16779">
        <ele>169.5</ele>
        <time>2017-09-17T09:20:57Z</time>
      </trkpt>
      <trkpt lat="49.24206" lon="1.16782">
        <ele>168.2</ele>
        <time>2017-09-17T09:21:00Z</time>
      </trkpt>
      <trkpt lat="49.24195" lon="1.16779">
        <ele>167</ele>
        <time>2017-09-17T09:21:03Z</time>
      </trkpt>
      <trkpt lat="49.2419" lon="1.16766">
        <ele>165.8</ele>
        <time>2017-09-17T09:21:07Z</time>
      </trkpt>
      <trkpt lat="49.2418" lon="1.16753">
        <ele>166.3</ele>
        <time>2017-09-17T09:21:12Z</time>
      </trkpt>
      <trkpt lat="49.24174" lon="1.16742">
        <ele>166.8</ele>
        <time>2017-09-17T09:21:15Z</time>
      </trkpt>
      <trkpt lat="49.24167" lon="1.16729">
        <ele>167.2</ele>
        <time>2017-09-17T09:21:18Z</time>
      </trkpt>
      <trkpt lat="49.24159" lon="1.16718">
        <ele>168.1</ele>
        <time>2017-09-17T09:21:21Z</time>
      </trkpt>
      <trkpt lat="49.24149" lon="1.1671">
        <ele>168.7</ele>
        <time>2017-09-17T09:21:24Z</time>
      </trkpt>
      <trkpt lat="49.24138" lon="1.167">
        <ele>169</ele>
        <time>2017-09-17T09:21:27Z</time>
      </trkpt>
      <trkpt lat="49.24129" lon="1.16696">
        <ele>169.2</ele>
        <time>2017-09-17T09:21:30Z</time>
      </trkpt>
      <trkpt lat="49.2412" lon="1.16688">
        <ele>169.3</ele>
        <time>2017-09-17T09:21:32Z</time>
      </trkpt>
      <trkpt lat="49.24109" lon="1.16678">
        <ele>169.6</ele>
        <time>2017-09-17T09:21:35Z</time>
      </trkpt>
      <trkpt lat="49.24099" lon="1.16668">
        <ele>169.8</ele>
        <time>2017-09-17T09:21:38Z</time>
      </trkpt>
      <trkpt lat="49.24088" lon="1.16661">
        <ele>169.8</ele>
        <time>2017-09-17T09:21:40Z</time>
      </trkpt>
      <trkpt lat="49.24077" lon="1.16656">
        <ele>169.7</ele>
        <time>2017-09-17T09:21:42Z</time>
      </trkpt>
      <trkpt lat="49.24063" lon="1.16652">
        <ele>169.1</ele>
        <time>2017-09-17T09:21:44Z</time>
      </trkpt>
      <trkpt lat="49.24048" lon="1.16645">
        <ele>168.6</ele>
        <time>2017-09-17T09:21:46Z</time>
      </trkpt>
      <trkpt lat="49.24034" lon="1.16638">
        <ele>167.6</ele>
        <time>2017-09-17T09:21:48Z</time>
      </trkpt>
      <trkpt lat="49.24019" lon="1.16632">
        <ele>167</ele>
        <time>2017-09-17T09:21:50Z</time>
      </trkpt>
      <trkpt lat="49.24005" lon="1.16626">
        <ele>166.4</ele>
        <time>2017-09-17T09:21:52Z</time>
      </trkpt>
      <trkpt lat="49.23991" lon="1.16624">
        <ele>165.9</ele>
        <time>2017-09-17T09:21:54Z</time>
      </trkpt>
      <trkpt lat="49.23979" lon="1.16623">
        <ele>165.5</ele>
        <time>2017-09-17T09:21:56Z</time>
      </trkpt>
      <trkpt lat="49.23967" lon="1.16622">
        <ele>165.2</ele>
        <time>2017-09-17T09:21:58Z</time>
      </trkpt>
      <trkpt lat="49.23958" lon="1.16612">
        <ele>164.9</ele>
        <time>2017-09-17T09:22:00Z</time>
      </trkpt>
      <trkpt lat="49.23949" lon="1.16605">
        <ele>165</ele>
        <time>2017-09-17T09:22:02Z</time>
      </trkpt>
      <trkpt lat="49.23939" lon="1.16599">
        <ele>165</ele>
        <time>2017-09-17T09:22:04Z</time>
      </trkpt>
      <trkpt lat="49.2393" lon="1.16591">
        <ele>165.1</ele>
        <time>2017-09-17T09:22:06Z</time>
      </trkpt>
      <trkpt lat="49.23919" lon="1.16581">
        <ele>165.4</ele>
        <time>2017-09-17T09:22:09Z</time>
      </trkpt>
      <trkpt lat="49.23908" lon="1.16576">
        <ele>165.8</ele>
        <time>2017-09-17T09:22:12Z</time>
      </trkpt>
      <trkpt lat="49.23896" lon="1.16569">
        <ele>165.9</ele>
        <time>2017-09-17T09:22:15Z</time>
      </trkpt>
      <trkpt lat="49.23883" lon="1.16564">
        <ele>166</ele>
        <time>2017-09-17T09:22:18Z</time>
      </trkpt>
      <trkpt lat="49.23871" lon="1.16558">
        <ele>165.8</ele>
        <time>2017-09-17T09:22:21Z</time>
      </trkpt>
      <trkpt lat="49.23859" lon="1.1655">
        <ele>165.8</ele>
        <time>2017-09-17T09:22:24Z</time>
      </trkpt>
      <trkpt lat="49.23846" lon="1.16545">
        <ele>165.7</ele>
        <time>2017-09-17T09:22:27Z</time>
      </trkpt>
      <trkpt lat="49.23836" lon="1.1655">
        <ele>165.3</ele>
        <time>2017-09-17T09:22:30Z</time>
      </trkpt>
      <trkpt lat="49.23826" lon="1.16551">
        <ele>164.9</ele>
        <time>2017-09-17T09:22:33Z</time>
      </trkpt>
      <trkpt lat="49.23816" lon="1.16551">
        <ele>164.6</ele>
        <time>2017-09-17T09:22:35Z</time>
      </trkpt>
      <trkpt lat="49.23804" lon="1.16551">
        <ele>164.2</ele>
        <time>2017-09-17T09:22:37Z</time>
      </trkpt>
      <trkpt lat="49.23794" lon="1.16551">
        <ele>163.8</ele>
        <time>2017-09-17T09:22:39Z</time>
      </trkpt>
      <trkpt lat="49.23781" lon="1.16549">
        <ele>163.4</ele>
        <time>2017-09-17T09:22:41Z</time>
      </trkpt>
      <trkpt lat="49.23768" lon="1.16545">
        <ele>162.8</ele>
        <time>2017-09-17T09:22:43Z</time>
      </trkpt>
      <trkpt lat="49.23755" lon="1.16539">
        <ele>162.4</ele>
        <time>2017-09-17T09:22:45Z</time>
      </trkpt>
      <trkpt lat="49.23741" lon="1.16537">
        <ele>161.5</ele>
        <time>2017-09-17T09:22:47Z</time>
      </trkpt>
      <trkpt lat="49.23726" lon="1.16536">
        <ele>160.4</ele>
        <time>2017-09-17T09:22:49Z</time>
      </trkpt>
      <trkpt lat="49.23712" lon="1.16532">
        <ele>158.7</ele>
        <time>2017-09-17T09:22:51Z</time>
      </trkpt>
      <trkpt lat="49.23698" lon="1.16528">
        <ele>157.2</ele>
        <time>2017-09-17T09:22:53Z</time>
      </trkpt>
      <trkpt lat="49.23685" lon="1.16524">
        <ele>155.8</ele>
        <time>2017-09-17T09:22:55Z</time>
      </trkpt>
      <trkpt lat="49.23674" lon="1.1652">
        <ele>154.6</ele>
        <time>2017-09-17T09:22:57Z</time>
      </trkpt>
      <trkpt lat="49.23663" lon="1.16519">
        <ele>153.9</ele>
        <time>2017-09-17T09:22:59Z</time>
      </trkpt>
      <trkpt lat="49.23652" lon="1.16527">
        <ele>153.9</ele>
        <time>2017-09-17T09:23:01Z</time>
      </trkpt>
      <trkpt lat="49.23643" lon="1.16531">
        <ele>153.8</ele>
        <time>2017-09-17T09:23:03Z</time>
      </trkpt>
      <trkpt lat="49.23631" lon="1.16527">
        <ele>154.1</ele>
        <time>2017-09-17T09:23:06Z</time>
      </trkpt>
      <trkpt lat="49.2362" lon="1.16522">
        <ele>154.7</ele>
        <time>2017-09-17T09:23:09Z</time>
      </trkpt>
      <trkpt lat="49.23611" lon="1.16519">
        <ele>154.9</ele>
        <time>2017-09-17T09:23:11Z</time>
      </trkpt>
      <trkpt lat="49.23599" lon="1.16514">
        <ele>155.3</ele>
        <time>2017-09-17T09:23:14Z</time>
      </trkpt>
      <trkpt lat="49.23589" lon="1.1651">
        <ele>155.9</ele>
        <time>2017-09-17T09:23:17Z</time>
      </trkpt>
      <trkpt lat="49.2358" lon="1.16504">
        <ele>156.7</ele>
        <time>2017-09-17T09:23:20Z</time>
      </trkpt>
      <trkpt lat="49.23571" lon="1.16497">
        <ele>157.7</ele>
        <time>2017-09-17T09:23:24Z</time>
      </trkpt>
      <trkpt lat="49.23564" lon="1.16483">
        <ele>158.7</ele>
        <time>2017-09-17T09:23:30Z</time>
      </trkpt>
      <trkpt lat="49.23559" lon="1.1647">
        <ele>159.9</ele>
        <time>2017-09-17T09:23:35Z</time>
      </trkpt>
      <trkpt lat="49.23554" lon="1.16457">
        <ele>161.4</ele>
        <time>2017-09-17T09:23:41Z</time>
      </trkpt>
      <trkpt lat="49.23547" lon="1.16446">
        <ele>162.4</ele>
        <time>2017-09-17T09:23:45Z</time>
      </trkpt>
      <trkpt lat="49.2354" lon="1.16435">
        <ele>163.3</ele>
        <time>2017-09-17T09:23:49Z</time>
      </trkpt>
      <trkpt lat="49.23533" lon="1.16423">
        <ele>164.2</ele>
        <time>2017-09-17T09:23:54Z</time>
      </trkpt>
      <trkpt lat="49.23525" lon="1.16409">
        <ele>165</ele>
        <time>2017-09-17T09:23:59Z</time>
      </trkpt>
      <trkpt lat="49.2352" lon="1.16397">
        <ele>165.7</ele>
        <time>2017-09-17T09:24:04Z</time>
      </trkpt>
      <trkpt lat="49.23516" lon="1.16384">
        <ele>167</ele>
        <time>2017-09-17T09:24:10Z</time>
      </trkpt>
      <trkpt lat="49.23511" lon="1.16371">
        <ele>168.2</ele>
        <time>2017-09-17T09:24:15Z</time>
      </trkpt>
      <trkpt lat="49.23506" lon="1.16358">
        <ele>169.8</ele>
        <time>2017-09-17T09:24:21Z</time>
      </trkpt>
      <trkpt lat="49.23501" lon="1.16345">
        <ele>171.1</ele>
        <time>2017-09-17T09:24:27Z</time>
      </trkpt>
      <trkpt lat="49.23494" lon="1.16331">
        <ele>172.2</ele>
        <time>2017-09-17T09:24:33Z</time>
      </trkpt>
      <trkpt lat="49.23487" lon="1.1632">
        <ele>173.6</ele>
        <time>2017-09-17T09:24:40Z</time>
      </trkpt>
      <trkpt lat="49.23482" lon="1.16309">
        <ele>174.7</ele>
        <time>2017-09-17T09:24:45Z</time>
      </trkpt>
      <trkpt lat="49.23476" lon="1.16296">
        <ele>175.9</ele>
        <time>2017-09-17T09:24:50Z</time>
      </trkpt>
      <trkpt lat="49.23471" lon="1.16284">
        <ele>177.1</ele>
        <time>2017-09-17T09:24:56Z</time>
      </trkpt>
      <trkpt lat="49.23467" lon="1.16272">
        <ele>178.1</ele>
        <time>2017-09-17T09:25:01Z</time>
      </trkpt>
      <trkpt lat="49.23466" lon="1.16257">
        <ele>179.6</ele>
        <time>2017-09-17T09:25:08Z</time>
      </trkpt>
      <trkpt lat="49.23464" lon="1.16241">
        <ele>180.7</ele>
        <time>2017-09-17T09:25:14Z</time>
      </trkpt>
      <trkpt lat="49.23461" lon="1.16228">
        <ele>181.8</ele>
        <time>2017-09-17T09:25:19Z</time>
      </trkpt>
      <trkpt lat="49.23456" lon="1.16214">
        <ele>182.9</ele>
        <time>2017-09-17T09:25:25Z</time>
      </trkpt>
      <trkpt lat="49.23451" lon="1.16202">
        <ele>184.2</ele>
        <time>2017-09-17T09:25:30Z</time>
      </trkpt>
      <trkpt lat="49.23443" lon="1.16195">
        <ele>185.4</ele>
        <time>2017-09-17T09:25:35Z</time>
      </trkpt>
      <trkpt lat="49.23435" lon="1.16189">
        <ele>186</ele>
        <time>2017-09-17T09:25:39Z</time>
      </trkpt>
      <trkpt lat="49.23428" lon="1.16178">
        <ele>186.3</ele>
        <time>2017-09-17T09:25:43Z</time>
      </trkpt>
      <trkpt lat="49.23427" lon="1.16162">
        <ele>187</ele>
        <time>2017-09-17T09:25:48Z</time>
      </trkpt>
      <trkpt lat="49.23425" lon="1.16148">
        <ele>188.4</ele>
        <time>2017-09-17T09:25:54Z</time>
      </trkpt>
      <trkpt lat="49.2342" lon="1.16136">
        <ele>189.5</ele>
        <time>2017-09-17T09:25:59Z</time>
      </trkpt>
      <trkpt lat="49.23414" lon="1.16126">
        <ele>190</ele>
        <time>2017-09-17T09:26:03Z</time>
      </trkpt>
      <trkpt lat="49.23407" lon="1.16116">
        <ele>190.6</ele>
        <time>2017-09-17T09:26:07Z</time>
      </trkpt>
      <trkpt lat="49.23399" lon="1.16106">
        <ele>191.3</ele>
        <time>2017-09-17T09:26:13Z</time>
      </trkpt>
      <trkpt lat="49.23389" lon="1.16097">
        <ele>192</ele>
        <time>2017-09-17T09:26:18Z</time>
      </trkpt>
      <trkpt lat="49.23378" lon="1.16089">
        <ele>192.5</ele>
        <time>2017-09-17T09:26:23Z</time>
      </trkpt>
      <trkpt lat="49.23369" lon="1.1608">
        <ele>192.8</ele>
        <time>2017-09-17T09:26:27Z</time>
      </trkpt>
      <trkpt lat="49.23359" lon="1.16072">
        <ele>193.3</ele>
        <time>2017-09-17T09:26:31Z</time>
      </trkpt>
      <trkpt lat="49.23351" lon="1.16063">
        <ele>193.5</ele>
        <time>2017-09-17T09:26:34Z</time>
      </trkpt>
      <trkpt lat="49.23344" lon="1.16054">
        <ele>193.9</ele>
        <time>2017-09-17T09:26:37Z</time>
      </trkpt>
      <trkpt lat="49.23333" lon="1.16058">
        <ele>194.1</ele>
        <time>2017-09-17T09:26:41Z</time>
      </trkpt>
      <trkpt lat="49.23323" lon="1.1607">
        <ele>194.1</ele>
        <time>2017-09-17T09:26:44Z</time>
      </trkpt>
      <trkpt lat="49.23314" lon="1.16077">
        <ele>193.9</ele>
        <time>2017-09-17T09:26:46Z</time>
      </trkpt>
      <trkpt lat="49.23304" lon="1.16084">
        <ele>193.3</ele>
        <time>2017-09-17T09:26:48Z</time>
      </trkpt>
      <trkpt lat="49.23293" lon="1.16089">
        <ele>192.7</ele>
        <time>2017-09-17T09:26:50Z</time>
      </trkpt>
      <trkpt lat="49.23279" lon="1.16096">
        <ele>192.2</ele>
        <time>2017-09-17T09:26:52Z</time>
      </trkpt>
      <trkpt lat="49.23265" lon="1.16103">
        <ele>191.6</ele>
        <time>2017-09-17T09:26:54Z</time>
      </trkpt>
      <trkpt lat="49.23249" lon="1.16111">
        <ele>190.8</ele>
        <time>2017-09-17T09:26:56Z</time>
      </trkpt>
      <trkpt lat="49.2324" lon="1.16116">
        <ele>190.4</ele>
        <time>2017-09-17T09:26:57Z</time>
      </trkpt>
      <trkpt lat="49.23232" lon="1.1612">
        <ele>190</ele>
        <time>2017-09-17T09:26:58Z</time>
      </trkpt>
      <trkpt lat="49.23215" lon="1.16128">
        <ele>189.1</ele>
        <time>2017-09-17T09:27:00Z</time>
      </trkpt>
      <trkpt lat="49.23205" lon="1.16132">
        <ele>188.3</ele>
        <time>2017-09-17T09:27:01Z</time>
      </trkpt>
      <trkpt lat="49.23197" lon="1.16136">
        <ele>187.6</ele>
        <time>2017-09-17T09:27:02Z</time>
      </trkpt>
      <trkpt lat="49.23187" lon="1.1614">
        <ele>186.9</ele>
        <time>2017-09-17T09:27:03Z</time>
      </trkpt>
      <trkpt lat="49.23178" lon="1.16145">
        <ele>186.2</ele>
        <time>2017-09-17T09:27:04Z</time>
      </trkpt>
      <trkpt lat="49.23168" lon="1.1615">
        <ele>185.5</ele>
        <time>2017-09-17T09:27:05Z</time>
      </trkpt>
      <trkpt lat="49.23159" lon="1.16154">
        <ele>184.8</ele>
        <time>2017-09-17T09:27:06Z</time>
      </trkpt>
      <trkpt lat="49.23149" lon="1.16158">
        <ele>184.2</ele>
        <time>2017-09-17T09:27:07Z</time>
      </trkpt>
      <trkpt lat="49.2314" lon="1.16162">
        <ele>183.7</ele>
        <time>2017-09-17T09:27:08Z</time>
      </trkpt>
      <trkpt lat="49.23123" lon="1.16168">
        <ele>182.1</ele>
        <time>2017-09-17T09:27:10Z</time>
      </trkpt>
      <trkpt lat="49.23114" lon="1.16169">
        <ele>181.4</ele>
        <time>2017-09-17T09:27:11Z</time>
      </trkpt>
      <trkpt lat="49.23096" lon="1.16169">
        <ele>179.5</ele>
        <time>2017-09-17T09:27:13Z</time>
      </trkpt>
      <trkpt lat="49.23079" lon="1.16164">
        <ele>177.8</ele>
        <time>2017-09-17T09:27:15Z</time>
      </trkpt>
      <trkpt lat="49.23062" lon="1.16154">
        <ele>176.3</ele>
        <time>2017-09-17T09:27:17Z</time>
      </trkpt>
      <trkpt lat="49.23054" lon="1.16148">
        <ele>175.6</ele>
        <time>2017-09-17T09:27:18Z</time>
      </trkpt>
      <trkpt lat="49.23046" lon="1.16141">
        <ele>175</ele>
        <time>2017-09-17T09:27:19Z</time>
      </trkpt>
      <trkpt lat="49.23038" lon="1.16134">
        <ele>174.5</ele>
        <time>2017-09-17T09:27:20Z</time>
      </trkpt>
      <trkpt lat="49.2303" lon="1.16128">
        <ele>173.7</ele>
        <time>2017-09-17T09:27:21Z</time>
      </trkpt>
      <trkpt lat="49.23021" lon="1.16121">
        <ele>172.6</ele>
        <time>2017-09-17T09:27:22Z</time>
      </trkpt>
      <trkpt lat="49.23012" lon="1.16114">
        <ele>172.2</ele>
        <time>2017-09-17T09:27:23Z</time>
      </trkpt>
      <trkpt lat="49.23003" lon="1.16108">
        <ele>171.6</ele>
        <time>2017-09-17T09:27:24Z</time>
      </trkpt>
      <trkpt lat="49.22993" lon="1.16101">
        <ele>170.9</ele>
        <time>2017-09-17T09:27:25Z</time>
      </trkpt>
      <trkpt lat="49.22985" lon="1.16096">
        <ele>170.2</ele>
        <time>2017-09-17T09:27:26Z</time>
      </trkpt>
      <trkpt lat="49.22973" lon="1.16086">
        <ele>168.4</ele>
        <time>2017-09-17T09:27:28Z</time>
      </trkpt>
      <trkpt lat="49.22963" lon="1.16079">
        <ele>166.6</ele>
        <time>2017-09-17T09:27:30Z</time>
      </trkpt>
      <trkpt lat="49.22953" lon="1.16074">
        <ele>164.4</ele>
        <time>2017-09-17T09:27:33Z</time>
      </trkpt>
      <trkpt lat="49.22943" lon="1.16074">
        <ele>161.3</ele>
        <time>2017-09-17T09:27:37Z</time>
      </trkpt>
      <trkpt lat="49.22934" lon="1.16063">
        <ele>159.6</ele>
        <time>2017-09-17T09:27:40Z</time>
      </trkpt>
      <trkpt lat="49.22927" lon="1.16053">
        <ele>158.9</ele>
        <time>2017-09-17T09:27:43Z</time>
      </trkpt>
      <trkpt lat="49.22918" lon="1.16046">
        <ele>158.6</ele>
        <time>2017-09-17T09:27:45Z</time>
      </trkpt>
      <trkpt lat="49.22907" lon="1.16037">
        <ele>158.3</ele>
        <time>2017-09-17T09:27:47Z</time>
      </trkpt>
      <trkpt lat="49.22894" lon="1.16028">
        <ele>157.8</ele>
        <time>2017-09-17T09:27:49Z</time>
      </trkpt>
      <trkpt lat="49.2288" lon="1.16015">
        <ele>157.3</ele>
        <time>2017-09-17T09:27:51Z</time>
      </trkpt>
      <trkpt lat="49.22867" lon="1.15999">
        <ele>156.5</ele>
        <time>2017-09-17T09:27:53Z</time>
      </trkpt>
      <trkpt lat="49.22855" lon="1.15982">
        <ele>155.7</ele>
        <time>2017-09-17T09:27:55Z</time>
      </trkpt>
      <trkpt lat="49.22843" lon="1.15966">
        <ele>154.9</ele>
        <time>2017-09-17T09:27:57Z</time>
      </trkpt>
      <trkpt lat="49.22831" lon="1.1595">
        <ele>154.3</ele>
        <time>2017-09-17T09:27:59Z</time>
      </trkpt>
      <trkpt lat="49.22821" lon="1.15933">
        <ele>153.5</ele>
        <time>2017-09-17T09:28:01Z</time>
      </trkpt>
      <trkpt lat="49.22813" lon="1.15913">
        <ele>152.9</ele>
        <time>2017-09-17T09:28:03Z</time>
      </trkpt>
      <trkpt lat="49.22807" lon="1.15895">
        <ele>152.5</ele>
        <time>2017-09-17T09:28:05Z</time>
      </trkpt>
      <trkpt lat="49.22801" lon="1.15878">
        <ele>152.3</ele>
        <time>2017-09-17T09:28:07Z</time>
      </trkpt>
      <trkpt lat="49.22796" lon="1.15863">
        <ele>152.1</ele>
        <time>2017-09-17T09:28:09Z</time>
      </trkpt>
      <trkpt lat="49.22792" lon="1.1585">
        <ele>152.1</ele>
        <time>2017-09-17T09:28:11Z</time>
      </trkpt>
      <trkpt lat="49.22785" lon="1.15833">
        <ele>152.2</ele>
        <time>2017-09-17T09:28:14Z</time>
      </trkpt>
      <trkpt lat="49.22776" lon="1.15825">
        <ele>152.2</ele>
        <time>2017-09-17T09:28:16Z</time>
      </trkpt>
      <trkpt lat="49.22765" lon="1.1582">
        <ele>152.1</ele>
        <time>2017-09-17T09:28:18Z</time>
      </trkpt>
      <trkpt lat="49.22754" lon="1.1582">
        <ele>151.7</ele>
        <time>2017-09-17T09:28:20Z</time>
      </trkpt>
      <trkpt lat="49.22746" lon="1.15829">
        <ele>151.3</ele>
        <time>2017-09-17T09:28:22Z</time>
      </trkpt>
      <trkpt lat="49.2274" lon="1.15845">
        <ele>150.8</ele>
        <time>2017-09-17T09:28:24Z</time>
      </trkpt>
      <trkpt lat="49.22735" lon="1.15863">
        <ele>150.3</ele>
        <time>2017-09-17T09:28:26Z</time>
      </trkpt>
      <trkpt lat="49.22726" lon="1.15879">
        <ele>149.8</ele>
        <time>2017-09-17T09:28:28Z</time>
      </trkpt>
      <trkpt lat="49.22713" lon="1.15892">
        <ele>149.3</ele>
        <time>2017-09-17T09:28:30Z</time>
      </trkpt>
      <trkpt lat="49.22699" lon="1.15906">
        <ele>148.4</ele>
        <time>2017-09-17T09:28:32Z</time>
      </trkpt>
      <trkpt lat="49.22692" lon="1.15914">
        <ele>147.9</ele>
        <time>2017-09-17T09:28:33Z</time>
      </trkpt>
      <trkpt lat="49.22684" lon="1.15923">
        <ele>147.5</ele>
        <time>2017-09-17T09:28:34Z</time>
      </trkpt>
      <trkpt lat="49.22677" lon="1.15932">
        <ele>147</ele>
        <time>2017-09-17T09:28:35Z</time>
      </trkpt>
      <trkpt lat="49.22669" lon="1.1594">
        <ele>146.5</ele>
        <time>2017-09-17T09:28:36Z</time>
      </trkpt>
      <trkpt lat="49.22662" lon="1.15949">
        <ele>146.1</ele>
        <time>2017-09-17T09:28:37Z</time>
      </trkpt>
      <trkpt lat="49.22655" lon="1.15958">
        <ele>145.7</ele>
        <time>2017-09-17T09:28:38Z</time>
      </trkpt>
      <trkpt lat="49.22647" lon="1.15966">
        <ele>145.4</ele>
        <time>2017-09-17T09:28:39Z</time>
      </trkpt>
      <trkpt lat="49.22634" lon="1.15981">
        <ele>144.3</ele>
        <time>2017-09-17T09:28:41Z</time>
      </trkpt>
      <trkpt lat="49.22624" lon="1.1599">
        <ele>142.9</ele>
        <time>2017-09-17T09:28:43Z</time>
      </trkpt>
      <trkpt lat="49.22615" lon="1.15985">
        <ele>140.5</ele>
        <time>2017-09-17T09:28:47Z</time>
      </trkpt>
      <trkpt lat="49.22616" lon="1.1597">
        <ele>139.5</ele>
        <time>2017-09-17T09:28:50Z</time>
      </trkpt>
      <trkpt lat="49.22616" lon="1.15951">
        <ele>139</ele>
        <time>2017-09-17T09:28:53Z</time>
      </trkpt>
      <trkpt lat="49.22618" lon="1.1593">
        <ele>139</ele>
        <time>2017-09-17T09:28:56Z</time>
      </trkpt>
      <trkpt lat="49.22621" lon="1.15916">
        <ele>139.3</ele>
        <time>2017-09-17T09:28:58Z</time>
      </trkpt>
      <trkpt lat="49.22623" lon="1.15902">
        <ele>139.3</ele>
        <time>2017-09-17T09:29:00Z</time>
      </trkpt>
      <trkpt lat="49.22624" lon="1.15886">
        <ele>139.2</ele>
        <time>2017-09-17T09:29:02Z</time>
      </trkpt>
      <trkpt lat="49.22625" lon="1.15869">
        <ele>139.3</ele>
        <time>2017-09-17T09:29:04Z</time>
      </trkpt>
      <trkpt lat="49.22627" lon="1.15854">
        <ele>139.5</ele>
        <time>2017-09-17T09:29:06Z</time>
      </trkpt>
      <trkpt lat="49.22628" lon="1.15838">
        <ele>139.7</ele>
        <time>2017-09-17T09:29:08Z</time>
      </trkpt>
      <trkpt lat="49.2263" lon="1.15821">
        <ele>139.9</ele>
        <time>2017-09-17T09:29:10Z</time>
      </trkpt>
      <trkpt lat="49.22632" lon="1.15805">
        <ele>140.1</ele>
        <time>2017-09-17T09:29:12Z</time>
      </trkpt>
      <trkpt lat="49.22635" lon="1.15789">
        <ele>140.3</ele>
        <time>2017-09-17T09:29:14Z</time>
      </trkpt>
      <trkpt lat="49.22637" lon="1.15773">
        <ele>140.5</ele>
        <time>2017-09-17T09:29:16Z</time>
      </trkpt>
      <trkpt lat="49.22639" lon="1.15758">
        <ele>140.7</ele>
        <time>2017-09-17T09:29:18Z</time>
      </trkpt>
      <trkpt lat="49.22641" lon="1.15744">
        <ele>141.2</ele>
        <time>2017-09-17T09:29:20Z</time>
      </trkpt>
      <trkpt lat="49.22642" lon="1.1573">
        <ele>141.5</ele>
        <time>2017-09-17T09:29:22Z</time>
      </trkpt>
      <trkpt lat="49.22644" lon="1.1571">
        <ele>141.8</ele>
        <time>2017-09-17T09:29:25Z</time>
      </trkpt>
      <trkpt lat="49.22646" lon="1.15691">
        <ele>142.3</ele>
        <time>2017-09-17T09:29:28Z</time>
      </trkpt>
      <trkpt lat="49.22649" lon="1.15672">
        <ele>142.8</ele>
        <time>2017-09-17T09:29:31Z</time>
      </trkpt>
      <trkpt lat="49.22652" lon="1.15652">
        <ele>143.4</ele>
        <time>2017-09-17T09:29:34Z</time>
      </trkpt>
      <trkpt lat="49.22655" lon="1.15633">
        <ele>143.7</ele>
        <time>2017-09-17T09:29:37Z</time>
      </trkpt>
      <trkpt lat="49.22656" lon="1.15614">
        <ele>144.1</ele>
        <time>2017-09-17T09:29:40Z</time>
      </trkpt>
      <trkpt lat="49.22658" lon="1.15595">
        <ele>144.6</ele>
        <time>2017-09-17T09:29:43Z</time>
      </trkpt>
      <trkpt lat="49.22659" lon="1.15576">
        <ele>145</ele>
        <time>2017-09-17T09:29:46Z</time>
      </trkpt>
      <trkpt lat="49.22659" lon="1.15557">
        <ele>145.5</ele>
        <time>2017-09-17T09:29:49Z</time>
      </trkpt>
      <trkpt lat="49.22659" lon="1.15538">
        <ele>145.9</ele>
        <time>2017-09-17T09:29:52Z</time>
      </trkpt>
      <trkpt lat="49.22658" lon="1.15519">
        <ele>146.2</ele>
        <time>2017-09-17T09:29:55Z</time>
      </trkpt>
      <trkpt lat="49.22657" lon="1.155">
        <ele>146.6</ele>
        <time>2017-09-17T09:29:58Z</time>
      </trkpt>
      <trkpt lat="49.22656" lon="1.15481">
        <ele>146.9</ele>
        <time>2017-09-17T09:30:01Z</time>
      </trkpt>
      <trkpt lat="49.22654" lon="1.15462">
        <ele>147.2</ele>
        <time>2017-09-17T09:30:04Z</time>
      </trkpt>
      <trkpt lat="49.22653" lon="1.15443">
        <ele>147.5</ele>
        <time>2017-09-17T09:30:07Z</time>
      </trkpt>
      <trkpt lat="49.22653" lon="1.15425">
        <ele>147.9</ele>
        <time>2017-09-17T09:30:10Z</time>
      </trkpt>
      <trkpt lat="49.22651" lon="1.15407">
        <ele>148.5</ele>
        <time>2017-09-17T09:30:13Z</time>
      </trkpt>
      <trkpt lat="49.2265" lon="1.15389">
        <ele>148.8</ele>
        <time>2017-09-17T09:30:16Z</time>
      </trkpt>
      <trkpt lat="49.22647" lon="1.15372">
        <ele>149.2</ele>
        <time>2017-09-17T09:30:19Z</time>
      </trkpt>
      <trkpt lat="49.22645" lon="1.15358">
        <ele>149.5</ele>
        <time>2017-09-17T09:30:22Z</time>
      </trkpt>
      <trkpt lat="49.22641" lon="1.15345">
        <ele>150</ele>
        <time>2017-09-17T09:30:25Z</time>
      </trkpt>
      <trkpt lat="49.22633" lon="1.15333">
        <ele>150.7</ele>
        <time>2017-09-17T09:30:29Z</time>
      </trkpt>
      <trkpt lat="49.22626" lon="1.15323">
        <ele>151.5</ele>
        <time>2017-09-17T09:30:33Z</time>
      </trkpt>
      <trkpt lat="49.2262" lon="1.15312">
        <ele>152.3</ele>
        <time>2017-09-17T09:30:37Z</time>
      </trkpt>
      <trkpt lat="49.22613" lon="1.15301">
        <ele>153.4</ele>
        <time>2017-09-17T09:30:42Z</time>
      </trkpt>
      <trkpt lat="49.22606" lon="1.15291">
        <ele>154.2</ele>
        <time>2017-09-17T09:30:47Z</time>
      </trkpt>
      <trkpt lat="49.22599" lon="1.15278">
        <ele>155.1</ele>
        <time>2017-09-17T09:30:52Z</time>
      </trkpt>
      <trkpt lat="49.22594" lon="1.15268">
        <ele>156</ele>
        <time>2017-09-17T09:30:57Z</time>
      </trkpt>
      <trkpt lat="49.22587" lon="1.15258">
        <ele>157.1</ele>
        <time>2017-09-17T09:31:03Z</time>
      </trkpt>
      <trkpt lat="49.22579" lon="1.15248">
        <ele>158.4</ele>
        <time>2017-09-17T09:31:10Z</time>
      </trkpt>
      <trkpt lat="49.22573" lon="1.15237">
        <ele>159.6</ele>
        <time>2017-09-17T09:31:15Z</time>
      </trkpt>
      <trkpt lat="49.22567" lon="1.15227">
        <ele>160.7</ele>
        <time>2017-09-17T09:31:21Z</time>
      </trkpt>
      <trkpt lat="49.22561" lon="1.15216">
        <ele>161.9</ele>
        <time>2017-09-17T09:31:27Z</time>
      </trkpt>
      <trkpt lat="49.22556" lon="1.15204">
        <ele>162.9</ele>
        <time>2017-09-17T09:31:32Z</time>
      </trkpt>
      <trkpt lat="49.22549" lon="1.15191">
        <ele>164.1</ele>
        <time>2017-09-17T09:31:38Z</time>
      </trkpt>
      <trkpt lat="49.22544" lon="1.1518">
        <ele>165.1</ele>
        <time>2017-09-17T09:31:43Z</time>
      </trkpt>
      <trkpt lat="49.22539" lon="1.15167">
        <ele>165.8</ele>
        <time>2017-09-17T09:31:48Z</time>
      </trkpt>
      <trkpt lat="49.22536" lon="1.15154">
        <ele>166.6</ele>
        <time>2017-09-17T09:31:54Z</time>
      </trkpt>
      <trkpt lat="49.2253" lon="1.15138">
        <ele>167.8</ele>
        <time>2017-09-17T09:32:00Z</time>
      </trkpt>
      <trkpt lat="49.22526" lon="1.15125">
        <ele>168.9</ele>
        <time>2017-09-17T09:32:06Z</time>
      </trkpt>
      <trkpt lat="49.22523" lon="1.15109">
        <ele>170.4</ele>
        <time>2017-09-17T09:32:13Z</time>
      </trkpt>
      <trkpt lat="49.2252" lon="1.15095">
        <ele>171.8</ele>
        <time>2017-09-17T09:32:20Z</time>
      </trkpt>
      <trkpt lat="49.22516" lon="1.15083">
        <ele>172.8</ele>
        <time>2017-09-17T09:32:25Z</time>
      </trkpt>
      <trkpt lat="49.22513" lon="1.15069">
        <ele>173.8</ele>
        <time>2017-09-17T09:32:31Z</time>
      </trkpt>
      <trkpt lat="49.22511" lon="1.15055">
        <ele>174.9</ele>
        <time>2017-09-17T09:32:37Z</time>
      </trkpt>
      <trkpt lat="49.22508" lon="1.15041">
        <ele>176.1</ele>
        <time>2017-09-17T09:32:43Z</time>
      </trkpt>
      <trkpt lat="49.22506" lon="1.15027">
        <ele>177.3</ele>
        <time>2017-09-17T09:32:49Z</time>
      </trkpt>
      <trkpt lat="49.22504" lon="1.15013">
        <ele>178.7</ele>
        <time>2017-09-17T09:32:56Z</time>
      </trkpt>
      <trkpt lat="49.22502" lon="1.14998">
        <ele>180.3</ele>
        <time>2017-09-17T09:33:04Z</time>
      </trkpt>
      <trkpt lat="49.22499" lon="1.14984">
        <ele>181.7</ele>
        <time>2017-09-17T09:33:10Z</time>
      </trkpt>
      <trkpt lat="49.22497" lon="1.1497">
        <ele>183</ele>
        <time>2017-09-17T09:33:17Z</time>
      </trkpt>
      <trkpt lat="49.22497" lon="1.14956">
        <ele>184.6</ele>
        <time>2017-09-17T09:33:25Z</time>
      </trkpt>
      <trkpt lat="49.22495" lon="1.14941">
        <ele>186.2</ele>
        <time>2017-09-17T09:33:32Z</time>
      </trkpt>
      <trkpt lat="49.22494" lon="1.14926">
        <ele>187.6</ele>
        <time>2017-09-17T09:33:40Z</time>
      </trkpt>
      <trkpt lat="49.22491" lon="1.14912">
        <ele>188.6</ele>
        <time>2017-09-17T09:33:46Z</time>
      </trkpt>
      <trkpt lat="49.22488" lon="1.14899">
        <ele>189.6</ele>
        <time>2017-09-17T09:33:52Z</time>
      </trkpt>
      <trkpt lat="49.22483" lon="1.14887">
        <ele>190.6</ele>
        <time>2017-09-17T09:33:57Z</time>
      </trkpt>
      <trkpt lat="49.22476" lon="1.14875">
        <ele>191.5</ele>
        <time>2017-09-17T09:34:03Z</time>
      </trkpt>
      <trkpt lat="49.22469" lon="1.14863">
        <ele>192.7</ele>
        <time>2017-09-17T09:34:09Z</time>
      </trkpt>
      <trkpt lat="49.22462" lon="1.14852">
        <ele>193.7</ele>
        <time>2017-09-17T09:34:15Z</time>
      </trkpt>
      <trkpt lat="49.22455" lon="1.1484">
        <ele>194.8</ele>
        <time>2017-09-17T09:34:21Z</time>
      </trkpt>
      <trkpt lat="49.22448" lon="1.1483">
        <ele>196</ele>
        <time>2017-09-17T09:34:27Z</time>
      </trkpt>
      <trkpt lat="49.22441" lon="1.14819">
        <ele>197.1</ele>
        <time>2017-09-17T09:34:33Z</time>
      </trkpt>
      <trkpt lat="49.22433" lon="1.14808">
        <ele>198</ele>
        <time>2017-09-17T09:34:39Z</time>
      </trkpt>
      <trkpt lat="49.22426" lon="1.14797">
        <ele>198.5</ele>
        <time>2017-09-17T09:34:43Z</time>
      </trkpt>
      <trkpt lat="49.2242" lon="1.14786">
        <ele>199.3</ele>
        <time>2017-09-17T09:34:48Z</time>
      </trkpt>
      <trkpt lat="49.22414" lon="1.14775">
        <ele>200.1</ele>
        <time>2017-09-17T09:34:53Z</time>
      </trkpt>
      <trkpt lat="49.22407" lon="1.14764">
        <ele>200.7</ele>
        <time>2017-09-17T09:34:58Z</time>
      </trkpt>
      <trkpt lat="49.22399" lon="1.14754">
        <ele>201.3</ele>
        <time>2017-09-17T09:35:03Z</time>
      </trkpt>
      <trkpt lat="49.22391" lon="1.14744">
        <ele>202.1</ele>
        <time>2017-09-17T09:35:08Z</time>
      </trkpt>
      <trkpt lat="49.22384" lon="1.14732">
        <ele>203.1</ele>
        <time>2017-09-17T09:35:13Z</time>
      </trkpt>
      <trkpt lat="49.22376" lon="1.14721">
        <ele>203.9</ele>
        <time>2017-09-17T09:35:18Z</time>
      </trkpt>
      <trkpt lat="49.22369" lon="1.1471">
        <ele>204.9</ele>
        <time>2017-09-17T09:35:23Z</time>
      </trkpt>
      <trkpt lat="49.22361" lon="1.14699">
        <ele>205.9</ele>
        <time>2017-09-17T09:35:28Z</time>
      </trkpt>
      <trkpt lat="49.22353" lon="1.14688">
        <ele>206.6</ele>
        <time>2017-09-17T09:35:33Z</time>
      </trkpt>
      <trkpt lat="49.22346" lon="1.14677">
        <ele>207.3</ele>
        <time>2017-09-17T09:35:38Z</time>
      </trkpt>
      <trkpt lat="49.22338" lon="1.14666">
        <ele>208.4</ele>
        <time>2017-09-17T09:35:43Z</time>
      </trkpt>
      <trkpt lat="49.2233" lon="1.14654">
        <ele>209</ele>
        <time>2017-09-17T09:35:48Z</time>
      </trkpt>
      <trkpt lat="49.22322" lon="1.14643">
        <ele>209.8</ele>
        <time>2017-09-17T09:35:53Z</time>
      </trkpt>
      <trkpt lat="49.22315" lon="1.14631">
        <ele>211.1</ele>
        <time>2017-09-17T09:35:58Z</time>
      </trkpt>
      <trkpt lat="49.22308" lon="1.14621">
        <ele>211.8</ele>
        <time>2017-09-17T09:36:02Z</time>
      </trkpt>
      <trkpt lat="49.22301" lon="1.14612">
        <ele>212.7</ele>
        <time>2017-09-17T09:36:06Z</time>
      </trkpt>
      <trkpt lat="49.22294" lon="1.14601">
        <ele>213.5</ele>
        <time>2017-09-17T09:36:11Z</time>
      </trkpt>
      <trkpt lat="49.22286" lon="1.14589">
        <ele>214.3</ele>
        <time>2017-09-17T09:36:16Z</time>
      </trkpt>
      <trkpt lat="49.22278" lon="1.14579">
        <ele>214.9</ele>
        <time>2017-09-17T09:36:20Z</time>
      </trkpt>
      <trkpt lat="49.22271" lon="1.14568">
        <ele>215.5</ele>
        <time>2017-09-17T09:36:24Z</time>
      </trkpt>
      <trkpt lat="49.22264" lon="1.14557">
        <ele>216</ele>
        <time>2017-09-17T09:36:28Z</time>
      </trkpt>
      <trkpt lat="49.22255" lon="1.14543">
        <ele>216.3</ele>
        <time>2017-09-17T09:36:32Z</time>
      </trkpt>
      <trkpt lat="49.22248" lon="1.14533">
        <ele>216.5</ele>
        <time>2017-09-17T09:36:35Z</time>
      </trkpt>
      <trkpt lat="49.22242" lon="1.14523">
        <ele>216.7</ele>
        <time>2017-09-17T09:36:38Z</time>
      </trkpt>
      <trkpt lat="49.22235" lon="1.14513">
        <ele>216.9</ele>
        <time>2017-09-17T09:36:41Z</time>
      </trkpt>
      <trkpt lat="49.22228" lon="1.14502">
        <ele>217.2</ele>
        <time>2017-09-17T09:36:44Z</time>
      </trkpt>
      <trkpt lat="49.22221" lon="1.14491">
        <ele>217.6</ele>
        <time>2017-09-17T09:36:47Z</time>
      </trkpt>
      <trkpt lat="49.22214" lon="1.14481">
        <ele>217.9</ele>
        <time>2017-09-17T09:36:50Z</time>
      </trkpt>
      <trkpt lat="49.22207" lon="1.14471">
        <ele>218.2</ele>
        <time>2017-09-17T09:36:53Z</time>
      </trkpt>
      <trkpt lat="49.22199" lon="1.14461">
        <ele>218.6</ele>
        <time>2017-09-17T09:36:56Z</time>
      </trkpt>
      <trkpt lat="49.22192" lon="1.1445">
        <ele>219</ele>
        <time>2017-09-17T09:36:59Z</time>
      </trkpt>
      <trkpt lat="49.22185" lon="1.14439">
        <ele>219.5</ele>
        <time>2017-09-17T09:37:02Z</time>
      </trkpt>
      <trkpt lat="49.22179" lon="1.14426">
        <ele>219.9</ele>
        <time>2017-09-17T09:37:05Z</time>
      </trkpt>
      <trkpt lat="49.22173" lon="1.14414">
        <ele>220.2</ele>
        <time>2017-09-17T09:37:08Z</time>
      </trkpt>
      <trkpt lat="49.22168" lon="1.14402">
        <ele>220.5</ele>
        <time>2017-09-17T09:37:11Z</time>
      </trkpt>
      <trkpt lat="49.2216" lon="1.14389">
        <ele>221</ele>
        <time>2017-09-17T09:37:15Z</time>
      </trkpt>
      <trkpt lat="49.22154" lon="1.14375">
        <ele>221.5</ele>
        <time>2017-09-17T09:37:19Z</time>
      </trkpt>
      <trkpt lat="49.22149" lon="1.14364">
        <ele>221.8</ele>
        <time>2017-09-17T09:37:22Z</time>
      </trkpt>
      <trkpt lat="49.22143" lon="1.1435">
        <ele>222.3</ele>
        <time>2017-09-17T09:37:25Z</time>
      </trkpt>
      <trkpt lat="49.22137" lon="1.14337">
        <ele>222.7</ele>
        <time>2017-09-17T09:37:28Z</time>
      </trkpt>
      <trkpt lat="49.22131" lon="1.14321">
        <ele>223.4</ele>
        <time>2017-09-17T09:37:31Z</time>
      </trkpt>
      <trkpt lat="49.22125" lon="1.14309">
        <ele>223.7</ele>
        <time>2017-09-17T09:37:34Z</time>
      </trkpt>
      <trkpt lat="49.22119" lon="1.14294">
        <ele>224.3</ele>
        <time>2017-09-17T09:37:38Z</time>
      </trkpt>
      <trkpt lat="49.22112" lon="1.14279">
        <ele>224.5</ele>
        <time>2017-09-17T09:37:41Z</time>
      </trkpt>
      <trkpt lat="49.22106" lon="1.14264">
        <ele>224.9</ele>
        <time>2017-09-17T09:37:44Z</time>
      </trkpt>
      <trkpt lat="49.221" lon="1.14252">
        <ele>225.2</ele>
        <time>2017-09-17T09:37:47Z</time>
      </trkpt>
      <trkpt lat="49.22092" lon="1.1424">
        <ele>225.6</ele>
        <time>2017-09-17T09:37:51Z</time>
      </trkpt>
      <trkpt lat="49.22085" lon="1.14227">
        <ele>226.1</ele>
        <time>2017-09-17T09:37:55Z</time>
      </trkpt>
      <trkpt lat="49.22079" lon="1.14213">
        <ele>226.4</ele>
        <time>2017-09-17T09:37:59Z</time>
      </trkpt>
      <trkpt lat="49.22073" lon="1.14199">
        <ele>226.6</ele>
        <time>2017-09-17T09:38:01Z</time>
      </trkpt>
      <trkpt lat="49.22067" lon="1.14184">
        <ele>226.9</ele>
        <time>2017-09-17T09:38:04Z</time>
      </trkpt>
      <trkpt lat="49.2206" lon="1.14168">
        <ele>227</ele>
        <time>2017-09-17T09:38:06Z</time>
      </trkpt>
      <trkpt lat="49.22053" lon="1.14152">
        <ele>227.3</ele>
        <time>2017-09-17T09:38:09Z</time>
      </trkpt>
      <trkpt lat="49.22045" lon="1.14138">
        <ele>227.7</ele>
        <time>2017-09-17T09:38:12Z</time>
      </trkpt>
      <trkpt lat="49.2204" lon="1.14124">
        <ele>227.8</ele>
        <time>2017-09-17T09:38:14Z</time>
      </trkpt>
      <trkpt lat="49.22033" lon="1.14108">
        <ele>228.1</ele>
        <time>2017-09-17T09:38:17Z</time>
      </trkpt>
      <trkpt lat="49.22026" lon="1.1409">
        <ele>228.6</ele>
        <time>2017-09-17T09:38:20Z</time>
      </trkpt>
      <trkpt lat="49.22021" lon="1.14078">
        <ele>229</ele>
        <time>2017-09-17T09:38:22Z</time>
      </trkpt>
      <trkpt lat="49.22015" lon="1.14063">
        <ele>229.3</ele>
        <time>2017-09-17T09:38:25Z</time>
      </trkpt>
      <trkpt lat="49.22008" lon="1.14047">
        <ele>229.5</ele>
        <time>2017-09-17T09:38:28Z</time>
      </trkpt>
      <trkpt lat="49.22002" lon="1.14032">
        <ele>229.9</ele>
        <time>2017-09-17T09:38:31Z</time>
      </trkpt>
      <trkpt lat="49.21995" lon="1.14017">
        <ele>230.1</ele>
        <time>2017-09-17T09:38:34Z</time>
      </trkpt>
      <trkpt lat="49.2199" lon="1.14005">
        <ele>230.2</ele>
        <time>2017-09-17T09:38:36Z</time>
      </trkpt>
      <trkpt lat="49.21982" lon="1.13989">
        <ele>230.5</ele>
        <time>2017-09-17T09:38:39Z</time>
      </trkpt>
      <trkpt lat="49.21975" lon="1.13973">
        <ele>230.8</ele>
        <time>2017-09-17T09:38:42Z</time>
      </trkpt>
      <trkpt lat="49.21968" lon="1.13957">
        <ele>231.1</ele>
        <time>2017-09-17T09:38:45Z</time>
      </trkpt>
      <trkpt lat="49.21962" lon="1.13941">
        <ele>231.3</ele>
        <time>2017-09-17T09:38:48Z</time>
      </trkpt>
      <trkpt lat="49.21956" lon="1.13924">
        <ele>231.4</ele>
        <time>2017-09-17T09:38:51Z</time>
      </trkpt>
      <trkpt lat="49.2195" lon="1.13906">
        <ele>231.6</ele>
        <time>2017-09-17T09:38:54Z</time>
      </trkpt>
      <trkpt lat="49.21946" lon="1.13888">
        <ele>231.9</ele>
        <time>2017-09-17T09:38:57Z</time>
      </trkpt>
      <trkpt lat="49.21942" lon="1.13871">
        <ele>232.2</ele>
        <time>2017-09-17T09:39:00Z</time>
      </trkpt>
      <trkpt lat="49.21938" lon="1.13855">
        <ele>232.4</ele>
        <time>2017-09-17T09:39:03Z</time>
      </trkpt>
      <trkpt lat="49.21933" lon="1.13838">
        <ele>232.8</ele>
        <time>2017-09-17T09:39:06Z</time>
      </trkpt>
      <trkpt lat="49.21928" lon="1.1382">
        <ele>233.2</ele>
        <time>2017-09-17T09:39:09Z</time>
      </trkpt>
      <trkpt lat="49.21926" lon="1.13807">
        <ele>233.3</ele>
        <time>2017-09-17T09:39:11Z</time>
      </trkpt>
      <trkpt lat="49.21921" lon="1.13789">
        <ele>233.6</ele>
        <time>2017-09-17T09:39:14Z</time>
      </trkpt>
      <trkpt lat="49.21916" lon="1.13771">
        <ele>233.9</ele>
        <time>2017-09-17T09:39:17Z</time>
      </trkpt>
      <trkpt lat="49.21911" lon="1.13753">
        <ele>234.2</ele>
        <time>2017-09-17T09:39:20Z</time>
      </trkpt>
      <trkpt lat="49.21905" lon="1.13735">
        <ele>234.4</ele>
        <time>2017-09-17T09:39:23Z</time>
      </trkpt>
      <trkpt lat="49.21901" lon="1.13717">
        <ele>234.4</ele>
        <time>2017-09-17T09:39:26Z</time>
      </trkpt>
      <trkpt lat="49.21895" lon="1.13698">
        <ele>234.5</ele>
        <time>2017-09-17T09:39:29Z</time>
      </trkpt>
      <trkpt lat="49.21892" lon="1.13685">
        <ele>234.7</ele>
        <time>2017-09-17T09:39:31Z</time>
      </trkpt>
      <trkpt lat="49.21889" lon="1.13672">
        <ele>234.8</ele>
        <time>2017-09-17T09:39:33Z</time>
      </trkpt>
      <trkpt lat="49.21885" lon="1.13659">
        <ele>235.1</ele>
        <time>2017-09-17T09:39:35Z</time>
      </trkpt>
      <trkpt lat="49.21881" lon="1.1364">
        <ele>235.4</ele>
        <time>2017-09-17T09:39:38Z</time>
      </trkpt>
      <trkpt lat="49.21876" lon="1.13621">
        <ele>235.7</ele>
        <time>2017-09-17T09:39:41Z</time>
      </trkpt>
      <trkpt lat="49.2187" lon="1.13611">
        <ele>235.9</ele>
        <time>2017-09-17T09:39:43Z</time>
      </trkpt>
      <trkpt lat="49.21861" lon="1.13606">
        <ele>236.1</ele>
        <time>2017-09-17T09:39:45Z</time>
      </trkpt>
      <trkpt lat="49.21852" lon="1.13606">
        <ele>236.2</ele>
        <time>2017-09-17T09:39:47Z</time>
      </trkpt>
      <trkpt lat="49.21841" lon="1.13605">
        <ele>236.5</ele>
        <time>2017-09-17T09:39:49Z</time>
      </trkpt>
      <trkpt lat="49.21831" lon="1.13605">
        <ele>236.5</ele>
        <time>2017-09-17T09:39:51Z</time>
      </trkpt>
      <trkpt lat="49.2182" lon="1.13606">
        <ele>236.6</ele>
        <time>2017-09-17T09:39:53Z</time>
      </trkpt>
      <trkpt lat="49.21809" lon="1.13608">
        <ele>236.5</ele>
        <time>2017-09-17T09:39:55Z</time>
      </trkpt>
      <trkpt lat="49.21798" lon="1.13616">
        <ele>236.4</ele>
        <time>2017-09-17T09:39:57Z</time>
      </trkpt>
      <trkpt lat="49.21788" lon="1.13626">
        <ele>236.1</ele>
        <time>2017-09-17T09:39:59Z</time>
      </trkpt>
      <trkpt lat="49.21778" lon="1.13636">
        <ele>235.8</ele>
        <time>2017-09-17T09:40:01Z</time>
      </trkpt>
      <trkpt lat="49.21768" lon="1.13647">
        <ele>235.5</ele>
        <time>2017-09-17T09:40:03Z</time>
      </trkpt>
      <trkpt lat="49.21757" lon="1.13659">
        <ele>235.2</ele>
        <time>2017-09-17T09:40:05Z</time>
      </trkpt>
      <trkpt lat="49.21746" lon="1.1367">
        <ele>235</ele>
        <time>2017-09-17T09:40:07Z</time>
      </trkpt>
      <trkpt lat="49.21735" lon="1.13681">
        <ele>234.9</ele>
        <time>2017-09-17T09:40:09Z</time>
      </trkpt>
      <trkpt lat="49.21724" lon="1.13692">
        <ele>234.6</ele>
        <time>2017-09-17T09:40:11Z</time>
      </trkpt>
      <trkpt lat="49.21713" lon="1.13703">
        <ele>234.4</ele>
        <time>2017-09-17T09:40:13Z</time>
      </trkpt>
      <trkpt lat="49.21702" lon="1.13714">
        <ele>234.2</ele>
        <time>2017-09-17T09:40:15Z</time>
      </trkpt>
      <trkpt lat="49.21692" lon="1.13726">
        <ele>234.1</ele>
        <time>2017-09-17T09:40:17Z</time>
      </trkpt>
      <trkpt lat="49.21683" lon="1.13738">
        <ele>234.2</ele>
        <time>2017-09-17T09:40:19Z</time>
      </trkpt>
      <trkpt lat="49.21674" lon="1.13751">
        <ele>234.2</ele>
        <time>2017-09-17T09:40:21Z</time>
      </trkpt>
      <trkpt lat="49.21666" lon="1.13763">
        <ele>234.4</ele>
        <time>2017-09-17T09:40:23Z</time>
      </trkpt>
      <trkpt lat="49.21658" lon="1.13775">
        <ele>234.4</ele>
        <time>2017-09-17T09:40:25Z</time>
      </trkpt>
      <trkpt lat="49.2165" lon="1.13788">
        <ele>234.5</ele>
        <time>2017-09-17T09:40:27Z</time>
      </trkpt>
      <trkpt lat="49.21642" lon="1.138">
        <ele>234.7</ele>
        <time>2017-09-17T09:40:29Z</time>
      </trkpt>
      <trkpt lat="49.21635" lon="1.13813">
        <ele>234.9</ele>
        <time>2017-09-17T09:40:31Z</time>
      </trkpt>
      <trkpt lat="49.21628" lon="1.13826">
        <ele>235.2</ele>
        <time>2017-09-17T09:40:33Z</time>
      </trkpt>
      <trkpt lat="49.21621" lon="1.1384">
        <ele>235.4</ele>
        <time>2017-09-17T09:40:35Z</time>
      </trkpt>
      <trkpt lat="49.21615" lon="1.13852">
        <ele>235.5</ele>
        <time>2017-09-17T09:40:37Z</time>
      </trkpt>
      <trkpt lat="49.21609" lon="1.13864">
        <ele>235.6</ele>
        <time>2017-09-17T09:40:39Z</time>
      </trkpt>
      <trkpt lat="49.21604" lon="1.13877">
        <ele>235.9</ele>
        <time>2017-09-17T09:40:41Z</time>
      </trkpt>
      <trkpt lat="49.21595" lon="1.13893">
        <ele>236.2</ele>
        <time>2017-09-17T09:40:44Z</time>
      </trkpt>
      <trkpt lat="49.2159" lon="1.13907">
        <ele>236.5</ele>
        <time>2017-09-17T09:40:46Z</time>
      </trkpt>
      <trkpt lat="49.21585" lon="1.13921">
        <ele>236.7</ele>
        <time>2017-09-17T09:40:48Z</time>
      </trkpt>
      <trkpt lat="49.2158" lon="1.13936">
        <ele>236.9</ele>
        <time>2017-09-17T09:40:50Z</time>
      </trkpt>
      <trkpt lat="49.21574" lon="1.13951">
        <ele>237.1</ele>
        <time>2017-09-17T09:40:52Z</time>
      </trkpt>
      <trkpt lat="49.21569" lon="1.13965">
        <ele>237.3</ele>
        <time>2017-09-17T09:40:54Z</time>
      </trkpt>
      <trkpt lat="49.21563" lon="1.1398">
        <ele>237.5</ele>
        <time>2017-09-17T09:40:56Z</time>
      </trkpt>
      <trkpt lat="49.21557" lon="1.13994">
        <ele>237.7</ele>
        <time>2017-09-17T09:40:58Z</time>
      </trkpt>
      <trkpt lat="49.21551" lon="1.14009">
        <ele>237.9</ele>
        <time>2017-09-17T09:41:00Z</time>
      </trkpt>
      <trkpt lat="49.21545" lon="1.14025">
        <ele>238</ele>
        <time>2017-09-17T09:41:02Z</time>
      </trkpt>
      <trkpt lat="49.2154" lon="1.1404">
        <ele>238.1</ele>
        <time>2017-09-17T09:41:04Z</time>
      </trkpt>
      <trkpt lat="49.21534" lon="1.14055">
        <ele>238.1</ele>
        <time>2017-09-17T09:41:06Z</time>
      </trkpt>
      <trkpt lat="49.21528" lon="1.1407">
        <ele>238.2</ele>
        <time>2017-09-17T09:41:08Z</time>
      </trkpt>
      <trkpt lat="49.21523" lon="1.14084">
        <ele>238.2</ele>
        <time>2017-09-17T09:41:10Z</time>
      </trkpt>
      <trkpt lat="49.21518" lon="1.14098">
        <ele>238.2</ele>
        <time>2017-09-17T09:41:12Z</time>
      </trkpt>
      <trkpt lat="49.21512" lon="1.14112">
        <ele>238.2</ele>
        <time>2017-09-17T09:41:14Z</time>
      </trkpt>
      <trkpt lat="49.21507" lon="1.14127">
        <ele>238.2</ele>
        <time>2017-09-17T09:41:16Z</time>
      </trkpt>
      <trkpt lat="49.21501" lon="1.14142">
        <ele>238.1</ele>
        <time>2017-09-17T09:41:18Z</time>
      </trkpt>
      <trkpt lat="49.21496" lon="1.14158">
        <ele>238</ele>
        <time>2017-09-17T09:41:20Z</time>
      </trkpt>
      <trkpt lat="49.2149" lon="1.14173">
        <ele>237.9</ele>
        <time>2017-09-17T09:41:22Z</time>
      </trkpt>
      <trkpt lat="49.21484" lon="1.14189">
        <ele>237.9</ele>
        <time>2017-09-17T09:41:24Z</time>
      </trkpt>
      <trkpt lat="49.21478" lon="1.14204">
        <ele>238</ele>
        <time>2017-09-17T09:41:26Z</time>
      </trkpt>
      <trkpt lat="49.21472" lon="1.1422">
        <ele>238.3</ele>
        <time>2017-09-17T09:41:28Z</time>
      </trkpt>
      <trkpt lat="49.21466" lon="1.14235">
        <ele>238.2</ele>
        <time>2017-09-17T09:41:30Z</time>
      </trkpt>
      <trkpt lat="49.21459" lon="1.1425">
        <ele>238.1</ele>
        <time>2017-09-17T09:41:32Z</time>
      </trkpt>
      <trkpt lat="49.21449" lon="1.14262">
        <ele>237.9</ele>
        <time>2017-09-17T09:41:34Z</time>
      </trkpt>
      <trkpt lat="49.21439" lon="1.1427">
        <ele>237.8</ele>
        <time>2017-09-17T09:41:36Z</time>
      </trkpt>
      <trkpt lat="49.21428" lon="1.14274">
        <ele>237.8</ele>
        <time>2017-09-17T09:41:38Z</time>
      </trkpt>
      <trkpt lat="49.21416" lon="1.14273">
        <ele>237.9</ele>
        <time>2017-09-17T09:41:40Z</time>
      </trkpt>
      <trkpt lat="49.21404" lon="1.1427">
        <ele>237.9</ele>
        <time>2017-09-17T09:41:42Z</time>
      </trkpt>
      <trkpt lat="49.21393" lon="1.14265">
        <ele>238</ele>
        <time>2017-09-17T09:41:44Z</time>
      </trkpt>
      <trkpt lat="49.21383" lon="1.14261">
        <ele>237.9</ele>
        <time>2017-09-17T09:41:46Z</time>
      </trkpt>
      <trkpt lat="49.21372" lon="1.14258">
        <ele>237.8</ele>
        <time>2017-09-17T09:41:48Z</time>
      </trkpt>
      <trkpt lat="49.2136" lon="1.14253">
        <ele>237.8</ele>
        <time>2017-09-17T09:41:50Z</time>
      </trkpt>
      <trkpt lat="49.21348" lon="1.14249">
        <ele>237.8</ele>
        <time>2017-09-17T09:41:52Z</time>
      </trkpt>
      <trkpt lat="49.21335" lon="1.14245">
        <ele>237.8</ele>
        <time>2017-09-17T09:41:54Z</time>
      </trkpt>
      <trkpt lat="49.21322" lon="1.14241">
        <ele>237.6</ele>
        <time>2017-09-17T09:41:56Z</time>
      </trkpt>
      <trkpt lat="49.21309" lon="1.14238">
        <ele>237.4</ele>
        <time>2017-09-17T09:41:58Z</time>
      </trkpt>
      <trkpt lat="49.21296" lon="1.14234">
        <ele>237.3</ele>
        <time>2017-09-17T09:42:00Z</time>
      </trkpt>
      <trkpt lat="49.21283" lon="1.14229">
        <ele>237</ele>
        <time>2017-09-17T09:42:02Z</time>
      </trkpt>
      <trkpt lat="49.21271" lon="1.14225">
        <ele>236.7</ele>
        <time>2017-09-17T09:42:04Z</time>
      </trkpt>
      <trkpt lat="49.21259" lon="1.14221">
        <ele>236.5</ele>
        <time>2017-09-17T09:42:06Z</time>
      </trkpt>
      <trkpt lat="49.21246" lon="1.14218">
        <ele>236.1</ele>
        <time>2017-09-17T09:42:08Z</time>
      </trkpt>
      <trkpt lat="49.21233" lon="1.14213">
        <ele>235.9</ele>
        <time>2017-09-17T09:42:10Z</time>
      </trkpt>
      <trkpt lat="49.2122" lon="1.14208">
        <ele>235.4</ele>
        <time>2017-09-17T09:42:12Z</time>
      </trkpt>
      <trkpt lat="49.21209" lon="1.14204">
        <ele>234.7</ele>
        <time>2017-09-17T09:42:14Z</time>
      </trkpt>
      <trkpt lat="49.21196" lon="1.142">
        <ele>233.6</ele>
        <time>2017-09-17T09:42:17Z</time>
      </trkpt>
      <trkpt lat="49.21186" lon="1.14198">
        <ele>232.8</ele>
        <time>2017-09-17T09:42:19Z</time>
      </trkpt>
      <trkpt lat="49.21177" lon="1.14195">
        <ele>232</ele>
        <time>2017-09-17T09:42:21Z</time>
      </trkpt>
      <trkpt lat="49.21167" lon="1.14196">
        <ele>231.1</ele>
        <time>2017-09-17T09:42:24Z</time>
      </trkpt>
      <trkpt lat="49.21163" lon="1.14215">
        <ele>230.2</ele>
        <time>2017-09-17T09:42:27Z</time>
      </trkpt>
      <trkpt lat="49.21162" lon="1.14231">
        <ele>229.4</ele>
        <time>2017-09-17T09:42:29Z</time>
      </trkpt>
      <trkpt lat="49.21161" lon="1.14245">
        <ele>228.7</ele>
        <time>2017-09-17T09:42:31Z</time>
      </trkpt>
      <trkpt lat="49.21159" lon="1.14261">
        <ele>227.2</ele>
        <time>2017-09-17T09:42:34Z</time>
      </trkpt>
      <trkpt lat="49.21158" lon="1.14275">
        <ele>226.1</ele>
        <time>2017-09-17T09:42:37Z</time>
      </trkpt>
      <trkpt lat="49.21156" lon="1.1429">
        <ele>225.3</ele>
        <time>2017-09-17T09:42:39Z</time>
      </trkpt>
      <trkpt lat="49.21154" lon="1.14306">
        <ele>224.7</ele>
        <time>2017-09-17T09:42:41Z</time>
      </trkpt>
      <trkpt lat="49.2115" lon="1.14321">
        <ele>223.8</ele>
        <time>2017-09-17T09:42:44Z</time>
      </trkpt>
      <trkpt lat="49.21155" lon="1.1434">
        <ele>222.5</ele>
        <time>2017-09-17T09:42:47Z</time>
      </trkpt>
      <trkpt lat="49.21159" lon="1.14357">
        <ele>221.9</ele>
        <time>2017-09-17T09:42:49Z</time>
      </trkpt>
      <trkpt lat="49.21162" lon="1.14372">
        <ele>220.5</ele>
        <time>2017-09-17T09:42:51Z</time>
      </trkpt>
      <trkpt lat="49.21168" lon="1.14393">
        <ele>219.5</ele>
        <time>2017-09-17T09:42:53Z</time>
      </trkpt>
      <trkpt lat="49.2117" lon="1.1441">
        <ele>218.7</ele>
        <time>2017-09-17T09:42:55Z</time>
      </trkpt>
      <trkpt lat="49.21174" lon="1.14427">
        <ele>218.1</ele>
        <time>2017-09-17T09:42:57Z</time>
      </trkpt>
      <trkpt lat="49.21171" lon="1.14447">
        <ele>217.4</ele>
        <time>2017-09-17T09:42:59Z</time>
      </trkpt>
      <trkpt lat="49.21169" lon="1.14461">
        <ele>216.7</ele>
        <time>2017-09-17T09:43:01Z</time>
      </trkpt>
      <trkpt lat="49.21166" lon="1.14475">
        <ele>215.2</ele>
        <time>2017-09-17T09:43:04Z</time>
      </trkpt>
      <trkpt lat="49.21161" lon="1.14494">
        <ele>214.3</ele>
        <time>2017-09-17T09:43:07Z</time>
      </trkpt>
      <trkpt lat="49.21157" lon="1.1451">
        <ele>213.6</ele>
        <time>2017-09-17T09:43:09Z</time>
      </trkpt>
      <trkpt lat="49.21153" lon="1.14525">
        <ele>213</ele>
        <time>2017-09-17T09:43:11Z</time>
      </trkpt>
      <trkpt lat="49.2115" lon="1.14541">
        <ele>212</ele>
        <time>2017-09-17T09:43:13Z</time>
      </trkpt>
      <trkpt lat="49.21147" lon="1.14561">
        <ele>211.2</ele>
        <time>2017-09-17T09:43:15Z</time>
      </trkpt>
      <trkpt lat="49.21141" lon="1.1458">
        <ele>210.2</ele>
        <time>2017-09-17T09:43:17Z</time>
      </trkpt>
      <trkpt lat="49.21136" lon="1.14598">
        <ele>209</ele>
        <time>2017-09-17T09:43:19Z</time>
      </trkpt>
      <trkpt lat="49.21132" lon="1.14611">
        <ele>207.8</ele>
        <time>2017-09-17T09:43:21Z</time>
      </trkpt>
      <trkpt lat="49.21126" lon="1.14629">
        <ele>206</ele>
        <time>2017-09-17T09:43:24Z</time>
      </trkpt>
      <trkpt lat="49.21121" lon="1.14642">
        <ele>204.9</ele>
        <time>2017-09-17T09:43:26Z</time>
      </trkpt>
      <trkpt lat="49.21116" lon="1.14658">
        <ele>204.1</ele>
        <time>2017-09-17T09:43:28Z</time>
      </trkpt>
      <trkpt lat="49.21109" lon="1.14672">
        <ele>203.2</ele>
        <time>2017-09-17T09:43:30Z</time>
      </trkpt>
      <trkpt lat="49.21103" lon="1.14693">
        <ele>202</ele>
        <time>2017-09-17T09:43:32Z</time>
      </trkpt>
      <trkpt lat="49.21096" lon="1.14715">
        <ele>200.8</ele>
        <time>2017-09-17T09:43:34Z</time>
      </trkpt>
      <trkpt lat="49.21091" lon="1.14727">
        <ele>200.4</ele>
        <time>2017-09-17T09:43:35Z</time>
      </trkpt>
      <trkpt lat="49.21083" lon="1.14747">
        <ele>199.1</ele>
        <time>2017-09-17T09:43:37Z</time>
      </trkpt>
      <trkpt lat="49.21072" lon="1.14768">
        <ele>197.9</ele>
        <time>2017-09-17T09:43:39Z</time>
      </trkpt>
      <trkpt lat="49.21065" lon="1.14779">
        <ele>197.4</ele>
        <time>2017-09-17T09:43:40Z</time>
      </trkpt>
      <trkpt lat="49.21055" lon="1.14803">
        <ele>195.8</ele>
        <time>2017-09-17T09:43:42Z</time>
      </trkpt>
      <trkpt lat="49.21049" lon="1.14817">
        <ele>194.9</ele>
        <time>2017-09-17T09:43:43Z</time>
      </trkpt>
      <trkpt lat="49.21041" lon="1.14842">
        <ele>193.5</ele>
        <time>2017-09-17T09:43:45Z</time>
      </trkpt>
      <trkpt lat="49.21033" lon="1.14865">
        <ele>191.2</ele>
        <time>2017-09-17T09:43:47Z</time>
      </trkpt>
      <trkpt lat="49.21029" lon="1.14884">
        <ele>189.8</ele>
        <time>2017-09-17T09:43:49Z</time>
      </trkpt>
      <trkpt lat="49.21025" lon="1.14901">
        <ele>188.3</ele>
        <time>2017-09-17T09:43:51Z</time>
      </trkpt>
      <trkpt lat="49.21021" lon="1.14914">
        <ele>186.9</ele>
        <time>2017-09-17T09:43:53Z</time>
      </trkpt>
      <trkpt lat="49.21011" lon="1.14923">
        <ele>184.5</ele>
        <time>2017-09-17T09:43:57Z</time>
      </trkpt>
      <trkpt lat="49.20997" lon="1.14923">
        <ele>182.4</ele>
        <time>2017-09-17T09:44:00Z</time>
      </trkpt>
      <trkpt lat="49.20985" lon="1.14924">
        <ele>181.1</ele>
        <time>2017-09-17T09:44:02Z</time>
      </trkpt>
      <trkpt lat="49.20973" lon="1.14927">
        <ele>179.6</ele>
        <time>2017-09-17T09:44:04Z</time>
      </trkpt>
      <trkpt lat="49.2096" lon="1.14935">
        <ele>177.3</ele>
        <time>2017-09-17T09:44:06Z</time>
      </trkpt>
      <trkpt lat="49.20945" lon="1.1494">
        <ele>175.5</ele>
        <time>2017-09-17T09:44:08Z</time>
      </trkpt>
      <trkpt lat="49.20929" lon="1.14939">
        <ele>174</ele>
        <time>2017-09-17T09:44:10Z</time>
      </trkpt>
      <trkpt lat="49.20913" lon="1.14936">
        <ele>172.4</ele>
        <time>2017-09-17T09:44:12Z</time>
      </trkpt>
      <trkpt lat="49.20897" lon="1.14931">
        <ele>170.9</ele>
        <time>2017-09-17T09:44:14Z</time>
      </trkpt>
      <trkpt lat="49.20881" lon="1.14927">
        <ele>169.8</ele>
        <time>2017-09-17T09:44:16Z</time>
      </trkpt>
      <trkpt lat="49.20863" lon="1.14925">
        <ele>168.6</ele>
        <time>2017-09-17T09:44:18Z</time>
      </trkpt>
      <trkpt lat="49.20845" lon="1.14927">
        <ele>167.4</ele>
        <time>2017-09-17T09:44:20Z</time>
      </trkpt>
      <trkpt lat="49.20836" lon="1.14928">
        <ele>166.7</ele>
        <time>2017-09-17T09:44:21Z</time>
      </trkpt>
      <trkpt lat="49.20827" lon="1.1493">
        <ele>166.2</ele>
        <time>2017-09-17T09:44:22Z</time>
      </trkpt>
      <trkpt lat="49.20817" lon="1.14932">
        <ele>165.6</ele>
        <time>2017-09-17T09:44:23Z</time>
      </trkpt>
      <trkpt lat="49.20808" lon="1.14936">
        <ele>164.9</ele>
        <time>2017-09-17T09:44:24Z</time>
      </trkpt>
      <trkpt lat="49.20799" lon="1.1494">
        <ele>164.2</ele>
        <time>2017-09-17T09:44:25Z</time>
      </trkpt>
      <trkpt lat="49.2079" lon="1.14944">
        <ele>163.6</ele>
        <time>2017-09-17T09:44:26Z</time>
      </trkpt>
      <trkpt lat="49.20774" lon="1.14951">
        <ele>162.4</ele>
        <time>2017-09-17T09:44:28Z</time>
      </trkpt>
      <trkpt lat="49.2076" lon="1.14958">
        <ele>160.8</ele>
        <time>2017-09-17T09:44:30Z</time>
      </trkpt>
      <trkpt lat="49.20753" lon="1.14974">
        <ele>158.4</ele>
        <time>2017-09-17T09:44:33Z</time>
      </trkpt>
      <trkpt lat="49.20752" lon="1.14988">
        <ele>157.2</ele>
        <time>2017-09-17T09:44:35Z</time>
      </trkpt>
      <trkpt lat="49.20754" lon="1.15004">
        <ele>156.5</ele>
        <time>2017-09-17T09:44:37Z</time>
      </trkpt>
      <trkpt lat="49.20757" lon="1.15022">
        <ele>156</ele>
        <time>2017-09-17T09:44:39Z</time>
      </trkpt>
      <trkpt lat="49.2076" lon="1.15042">
        <ele>155.6</ele>
        <time>2017-09-17T09:44:41Z</time>
      </trkpt>
      <trkpt lat="49.20763" lon="1.15061">
        <ele>155.4</ele>
        <time>2017-09-17T09:44:43Z</time>
      </trkpt>
      <trkpt lat="49.20766" lon="1.15081">
        <ele>155.1</ele>
        <time>2017-09-17T09:44:45Z</time>
      </trkpt>
      <trkpt lat="49.2077" lon="1.15101">
        <ele>154.7</ele>
        <time>2017-09-17T09:44:47Z</time>
      </trkpt>
      <trkpt lat="49.20774" lon="1.15122">
        <ele>154.4</ele>
        <time>2017-09-17T09:44:49Z</time>
      </trkpt>
      <trkpt lat="49.20777" lon="1.15144">
        <ele>154.1</ele>
        <time>2017-09-17T09:44:51Z</time>
      </trkpt>
      <trkpt lat="49.20781" lon="1.15166">
        <ele>153.8</ele>
        <time>2017-09-17T09:44:53Z</time>
      </trkpt>
      <trkpt lat="49.20784" lon="1.15187">
        <ele>153.5</ele>
        <time>2017-09-17T09:44:55Z</time>
      </trkpt>
      <trkpt lat="49.20788" lon="1.15209">
        <ele>153.3</ele>
        <time>2017-09-17T09:44:57Z</time>
      </trkpt>
      <trkpt lat="49.20792" lon="1.15231">
        <ele>153.2</ele>
        <time>2017-09-17T09:44:59Z</time>
      </trkpt>
      <trkpt lat="49.20796" lon="1.15253">
        <ele>152.9</ele>
        <time>2017-09-17T09:45:01Z</time>
      </trkpt>
      <trkpt lat="49.20801" lon="1.15276">
        <ele>152.5</ele>
        <time>2017-09-17T09:45:03Z</time>
      </trkpt>
      <trkpt lat="49.20805" lon="1.15298">
        <ele>152.1</ele>
        <time>2017-09-17T09:45:05Z</time>
      </trkpt>
      <trkpt lat="49.2081" lon="1.1532">
        <ele>151.9</ele>
        <time>2017-09-17T09:45:07Z</time>
      </trkpt>
      <trkpt lat="49.20814" lon="1.15342">
        <ele>151.6</ele>
        <time>2017-09-17T09:45:09Z</time>
      </trkpt>
      <trkpt lat="49.20818" lon="1.15365">
        <ele>151.2</ele>
        <time>2017-09-17T09:45:11Z</time>
      </trkpt>
      <trkpt lat="49.20822" lon="1.15389">
        <ele>150.9</ele>
        <time>2017-09-17T09:45:13Z</time>
      </trkpt>
      <trkpt lat="49.20826" lon="1.15411">
        <ele>150.4</ele>
        <time>2017-09-17T09:45:15Z</time>
      </trkpt>
      <trkpt lat="49.20831" lon="1.15433">
        <ele>150.1</ele>
        <time>2017-09-17T09:45:17Z</time>
      </trkpt>
      <trkpt lat="49.20835" lon="1.15453">
        <ele>149.8</ele>
        <time>2017-09-17T09:45:19Z</time>
      </trkpt>
      <trkpt lat="49.20839" lon="1.15473">
        <ele>149.4</ele>
        <time>2017-09-17T09:45:21Z</time>
      </trkpt>
      <trkpt lat="49.20842" lon="1.1549">
        <ele>149</ele>
        <time>2017-09-17T09:45:23Z</time>
      </trkpt>
      <trkpt lat="49.2084" lon="1.15505">
        <ele>148.4</ele>
        <time>2017-09-17T09:45:26Z</time>
      </trkpt>
      <trkpt lat="49.20835" lon="1.1552">
        <ele>147.8</ele>
        <time>2017-09-17T09:45:29Z</time>
      </trkpt>
      <trkpt lat="49.20825" lon="1.15533">
        <ele>147.6</ele>
        <time>2017-09-17T09:45:32Z</time>
      </trkpt>
      <trkpt lat="49.20814" lon="1.15536">
        <ele>147.4</ele>
        <time>2017-09-17T09:45:34Z</time>
      </trkpt>
      <trkpt lat="49.20802" lon="1.15541">
        <ele>147.2</ele>
        <time>2017-09-17T09:45:36Z</time>
      </trkpt>
      <trkpt lat="49.20789" lon="1.15545">
        <ele>147</ele>
        <time>2017-09-17T09:45:38Z</time>
      </trkpt>
      <trkpt lat="49.20776" lon="1.1555">
        <ele>146.7</ele>
        <time>2017-09-17T09:45:40Z</time>
      </trkpt>
      <trkpt lat="49.20763" lon="1.15555">
        <ele>146.6</ele>
        <time>2017-09-17T09:45:42Z</time>
      </trkpt>
      <trkpt lat="49.2075" lon="1.15561">
        <ele>146.5</ele>
        <time>2017-09-17T09:45:44Z</time>
      </trkpt>
      <trkpt lat="49.20736" lon="1.15567">
        <ele>146.4</ele>
        <time>2017-09-17T09:45:46Z</time>
      </trkpt>
      <trkpt lat="49.20723" lon="1.15573">
        <ele>146.3</ele>
        <time>2017-09-17T09:45:48Z</time>
      </trkpt>
      <trkpt lat="49.20709" lon="1.15578">
        <ele>146.3</ele>
        <time>2017-09-17T09:45:50Z</time>
      </trkpt>
      <trkpt lat="49.20697" lon="1.15582">
        <ele>146.3</ele>
        <time>2017-09-17T09:45:52Z</time>
      </trkpt>
      <trkpt lat="49.20688" lon="1.15589">
        <ele>146.3</ele>
        <time>2017-09-17T09:45:54Z</time>
      </trkpt>
      <trkpt lat="49.20685" lon="1.15606">
        <ele>146.2</ele>
        <time>2017-09-17T09:45:57Z</time>
      </trkpt>
      <trkpt lat="49.20687" lon="1.15622">
        <ele>146.1</ele>
        <time>2017-09-17T09:45:59Z</time>
      </trkpt>
      <trkpt lat="49.20689" lon="1.15639">
        <ele>146.1</ele>
        <time>2017-09-17T09:46:01Z</time>
      </trkpt>
      <trkpt lat="49.20692" lon="1.15657">
        <ele>146</ele>
        <time>2017-09-17T09:46:03Z</time>
      </trkpt>
      <trkpt lat="49.20697" lon="1.15675">
        <ele>145.9</ele>
        <time>2017-09-17T09:46:05Z</time>
      </trkpt>
      <trkpt lat="49.20702" lon="1.15693">
        <ele>145.6</ele>
        <time>2017-09-17T09:46:07Z</time>
      </trkpt>
      <trkpt lat="49.20706" lon="1.15711">
        <ele>145.4</ele>
        <time>2017-09-17T09:46:09Z</time>
      </trkpt>
      <trkpt lat="49.2071" lon="1.15728">
        <ele>145.2</ele>
        <time>2017-09-17T09:46:11Z</time>
      </trkpt>
      <trkpt lat="49.20712" lon="1.15743">
        <ele>145.1</ele>
        <time>2017-09-17T09:46:13Z</time>
      </trkpt>
      <trkpt lat="49.20711" lon="1.15759">
        <ele>144.7</ele>
        <time>2017-09-17T09:46:16Z</time>
      </trkpt>
      <trkpt lat="49.20718" lon="1.15775">
        <ele>144.5</ele>
        <time>2017-09-17T09:46:20Z</time>
      </trkpt>
      <trkpt lat="49.20723" lon="1.15787">
        <ele>144.3</ele>
        <time>2017-09-17T09:46:22Z</time>
      </trkpt>
      <trkpt lat="49.20728" lon="1.15803">
        <ele>144.3</ele>
        <time>2017-09-17T09:46:24Z</time>
      </trkpt>
      <trkpt lat="49.20734" lon="1.15821">
        <ele>144.1</ele>
        <time>2017-09-17T09:46:26Z</time>
      </trkpt>
      <trkpt lat="49.2074" lon="1.1584">
        <ele>144.1</ele>
        <time>2017-09-17T09:46:28Z</time>
      </trkpt>
      <trkpt lat="49.20746" lon="1.1586">
        <ele>143.9</ele>
        <time>2017-09-17T09:46:30Z</time>
      </trkpt>
      <trkpt lat="49.20752" lon="1.15881">
        <ele>143.8</ele>
        <time>2017-09-17T09:46:32Z</time>
      </trkpt>
      <trkpt lat="49.20758" lon="1.15902">
        <ele>143.5</ele>
        <time>2017-09-17T09:46:34Z</time>
      </trkpt>
      <trkpt lat="49.20765" lon="1.15922">
        <ele>143.3</ele>
        <time>2017-09-17T09:46:36Z</time>
      </trkpt>
      <trkpt lat="49.20773" lon="1.15941">
        <ele>143.2</ele>
        <time>2017-09-17T09:46:38Z</time>
      </trkpt>
      <trkpt lat="49.20783" lon="1.15958">
        <ele>143.1</ele>
        <time>2017-09-17T09:46:40Z</time>
      </trkpt>
      <trkpt lat="49.20793" lon="1.15974">
        <ele>143</ele>
        <time>2017-09-17T09:46:42Z</time>
      </trkpt>
      <trkpt lat="49.20803" lon="1.1599">
        <ele>142.9</ele>
        <time>2017-09-17T09:46:44Z</time>
      </trkpt>
      <trkpt lat="49.20813" lon="1.16006">
        <ele>142.7</ele>
        <time>2017-09-17T09:46:46Z</time>
      </trkpt>
      <trkpt lat="49.20823" lon="1.16022">
        <ele>142.6</ele>
        <time>2017-09-17T09:46:48Z</time>
      </trkpt>
      <trkpt lat="49.20833" lon="1.16037">
        <ele>142.4</ele>
        <time>2017-09-17T09:46:50Z</time>
      </trkpt>
      <trkpt lat="49.20843" lon="1.16052">
        <ele>142.4</ele>
        <time>2017-09-17T09:46:52Z</time>
      </trkpt>
      <trkpt lat="49.20853" lon="1.16067">
        <ele>142.3</ele>
        <time>2017-09-17T09:46:54Z</time>
      </trkpt>
      <trkpt lat="49.20863" lon="1.16083">
        <ele>142.3</ele>
        <time>2017-09-17T09:46:56Z</time>
      </trkpt>
      <trkpt lat="49.20873" lon="1.16099">
        <ele>142.3</ele>
        <time>2017-09-17T09:46:58Z</time>
      </trkpt>
      <trkpt lat="49.20882" lon="1.16115">
        <ele>142.2</ele>
        <time>2017-09-17T09:47:00Z</time>
      </trkpt>
      <trkpt lat="49.20892" lon="1.16132">
        <ele>142</ele>
        <time>2017-09-17T09:47:02Z</time>
      </trkpt>
      <trkpt lat="49.209" lon="1.16149">
        <ele>141.7</ele>
        <time>2017-09-17T09:47:04Z</time>
      </trkpt>
      <trkpt lat="49.20909" lon="1.16166">
        <ele>141.7</ele>
        <time>2017-09-17T09:47:06Z</time>
      </trkpt>
      <trkpt lat="49.20918" lon="1.16184">
        <ele>141.6</ele>
        <time>2017-09-17T09:47:08Z</time>
      </trkpt>
      <trkpt lat="49.20927" lon="1.16201">
        <ele>141.5</ele>
        <time>2017-09-17T09:47:10Z</time>
      </trkpt>
      <trkpt lat="49.20936" lon="1.16218">
        <ele>141.4</ele>
        <time>2017-09-17T09:47:12Z</time>
      </trkpt>
      <trkpt lat="49.20945" lon="1.16235">
        <ele>141.4</ele>
        <time>2017-09-17T09:47:14Z</time>
      </trkpt>
      <trkpt lat="49.20953" lon="1.16252">
        <ele>141.3</ele>
        <time>2017-09-17T09:47:16Z</time>
      </trkpt>
      <trkpt lat="49.20961" lon="1.1627">
        <ele>141.3</ele>
        <time>2017-09-17T09:47:18Z</time>
      </trkpt>
      <trkpt lat="49.20966" lon="1.1629">
        <ele>141.2</ele>
        <time>2017-09-17T09:47:20Z</time>
      </trkpt>
      <trkpt lat="49.20971" lon="1.1631">
        <ele>141.1</ele>
        <time>2017-09-17T09:47:22Z</time>
      </trkpt>
      <trkpt lat="49.20976" lon="1.1633">
        <ele>141.1</ele>
        <time>2017-09-17T09:47:24Z</time>
      </trkpt>
      <trkpt lat="49.20981" lon="1.1635">
        <ele>141</ele>
        <time>2017-09-17T09:47:26Z</time>
      </trkpt>
      <trkpt lat="49.20986" lon="1.1637">
        <ele>140.9</ele>
        <time>2017-09-17T09:47:28Z</time>
      </trkpt>
      <trkpt lat="49.20991" lon="1.1639">
        <ele>140.9</ele>
        <time>2017-09-17T09:47:30Z</time>
      </trkpt>
      <trkpt lat="49.20995" lon="1.16409">
        <ele>141</ele>
        <time>2017-09-17T09:47:32Z</time>
      </trkpt>
      <trkpt lat="49.21001" lon="1.16428">
        <ele>141.1</ele>
        <time>2017-09-17T09:47:34Z</time>
      </trkpt>
      <trkpt lat="49.21007" lon="1.16446">
        <ele>141.2</ele>
        <time>2017-09-17T09:47:36Z</time>
      </trkpt>
      <trkpt lat="49.21012" lon="1.16465">
        <ele>141.3</ele>
        <time>2017-09-17T09:47:38Z</time>
      </trkpt>
      <trkpt lat="49.21017" lon="1.16483">
        <ele>141.3</ele>
        <time>2017-09-17T09:47:40Z</time>
      </trkpt>
      <trkpt lat="49.2102" lon="1.165">
        <ele>141.3</ele>
        <time>2017-09-17T09:47:42Z</time>
      </trkpt>
      <trkpt lat="49.21022" lon="1.16516">
        <ele>141.3</ele>
        <time>2017-09-17T09:47:44Z</time>
      </trkpt>
      <trkpt lat="49.21023" lon="1.16533">
        <ele>141.1</ele>
        <time>2017-09-17T09:47:46Z</time>
      </trkpt>
      <trkpt lat="49.21022" lon="1.16549">
        <ele>140.9</ele>
        <time>2017-09-17T09:47:48Z</time>
      </trkpt>
      <trkpt lat="49.21019" lon="1.16566">
        <ele>140.8</ele>
        <time>2017-09-17T09:47:50Z</time>
      </trkpt>
      <trkpt lat="49.21013" lon="1.16583">
        <ele>140.7</ele>
        <time>2017-09-17T09:47:52Z</time>
      </trkpt>
      <trkpt lat="49.21008" lon="1.16601">
        <ele>140.5</ele>
        <time>2017-09-17T09:47:54Z</time>
      </trkpt>
      <trkpt lat="49.21003" lon="1.1662">
        <ele>140.5</ele>
        <time>2017-09-17T09:47:56Z</time>
      </trkpt>
      <trkpt lat="49.21" lon="1.16639">
        <ele>140.4</ele>
        <time>2017-09-17T09:47:58Z</time>
      </trkpt>
      <trkpt lat="49.20999" lon="1.1666">
        <ele>140.5</ele>
        <time>2017-09-17T09:48:00Z</time>
      </trkpt>
      <trkpt lat="49.20998" lon="1.16681">
        <ele>140.6</ele>
        <time>2017-09-17T09:48:02Z</time>
      </trkpt>
      <trkpt lat="49.20998" lon="1.16701">
        <ele>140.9</ele>
        <time>2017-09-17T09:48:04Z</time>
      </trkpt>
      <trkpt lat="49.20999" lon="1.16722">
        <ele>140.9</ele>
        <time>2017-09-17T09:48:06Z</time>
      </trkpt>
      <trkpt lat="49.21" lon="1.16743">
        <ele>141.1</ele>
        <time>2017-09-17T09:48:08Z</time>
      </trkpt>
      <trkpt lat="49.21001" lon="1.16763">
        <ele>141.3</ele>
        <time>2017-09-17T09:48:10Z</time>
      </trkpt>
      <trkpt lat="49.21002" lon="1.16783">
        <ele>141.4</ele>
        <time>2017-09-17T09:48:12Z</time>
      </trkpt>
      <trkpt lat="49.21003" lon="1.16803">
        <ele>141.6</ele>
        <time>2017-09-17T09:48:14Z</time>
      </trkpt>
      <trkpt lat="49.21004" lon="1.16823">
        <ele>141.7</ele>
        <time>2017-09-17T09:48:16Z</time>
      </trkpt>
      <trkpt lat="49.21004" lon="1.16842">
        <ele>141.7</ele>
        <time>2017-09-17T09:48:18Z</time>
      </trkpt>
      <trkpt lat="49.21006" lon="1.16862">
        <ele>141.7</ele>
        <time>2017-09-17T09:48:20Z</time>
      </trkpt>
      <trkpt lat="49.21008" lon="1.16882">
        <ele>141.7</ele>
        <time>2017-09-17T09:48:22Z</time>
      </trkpt>
      <trkpt lat="49.21008" lon="1.16902">
        <ele>141.6</ele>
        <time>2017-09-17T09:48:24Z</time>
      </trkpt>
      <trkpt lat="49.21009" lon="1.16922">
        <ele>141.2</ele>
        <time>2017-09-17T09:48:26Z</time>
      </trkpt>
      <trkpt lat="49.21009" lon="1.16944">
        <ele>141.2</ele>
        <time>2017-09-17T09:48:28Z</time>
      </trkpt>
      <trkpt lat="49.2101" lon="1.16965">
        <ele>140.9</ele>
        <time>2017-09-17T09:48:30Z</time>
      </trkpt>
      <trkpt lat="49.21011" lon="1.16987">
        <ele>140.6</ele>
        <time>2017-09-17T09:48:32Z</time>
      </trkpt>
      <trkpt lat="49.21012" lon="1.1701">
        <ele>140.2</ele>
        <time>2017-09-17T09:48:34Z</time>
      </trkpt>
      <trkpt lat="49.21012" lon="1.17031">
        <ele>139.5</ele>
        <time>2017-09-17T09:48:36Z</time>
      </trkpt>
      <trkpt lat="49.21012" lon="1.17051">
        <ele>138.9</ele>
        <time>2017-09-17T09:48:38Z</time>
      </trkpt>
      <trkpt lat="49.21012" lon="1.1707">
        <ele>138.5</ele>
        <time>2017-09-17T09:48:40Z</time>
      </trkpt>
      <trkpt lat="49.21014" lon="1.17085">
        <ele>138</ele>
        <time>2017-09-17T09:48:42Z</time>
      </trkpt>
      <trkpt lat="49.21024" lon="1.17094">
        <ele>137.2</ele>
        <time>2017-09-17T09:48:45Z</time>
      </trkpt>
      <trkpt lat="49.21025" lon="1.17115">
        <ele>136.6</ele>
        <time>2017-09-17T09:48:48Z</time>
      </trkpt>
      <trkpt lat="49.21026" lon="1.17134">
        <ele>136.1</ele>
        <time>2017-09-17T09:48:51Z</time>
      </trkpt>
      <trkpt lat="49.21028" lon="1.17148">
        <ele>135.8</ele>
        <time>2017-09-17T09:48:54Z</time>
      </trkpt>
      <trkpt lat="49.2103" lon="1.17164">
        <ele>135.3</ele>
        <time>2017-09-17T09:49:02Z</time>
      </trkpt>
      <trkpt lat="49.21032" lon="1.17181">
        <ele>135.4</ele>
        <time>2017-09-17T09:49:06Z</time>
      </trkpt>
      <trkpt lat="49.21034" lon="1.17195">
        <ele>135.3</ele>
        <time>2017-09-17T09:49:09Z</time>
      </trkpt>
      <trkpt lat="49.21035" lon="1.17211">
        <ele>135</ele>
        <time>2017-09-17T09:49:13Z</time>
      </trkpt>
      <trkpt lat="49.21026" lon="1.17203">
        <ele>134.5</ele>
        <time>2017-09-17T09:49:22Z</time>
      </trkpt>
      <trkpt lat="49.21025" lon="1.17188">
        <ele>134.3</ele>
        <time>2017-09-17T09:49:28Z</time>
      </trkpt>
      <trkpt lat="49.21016" lon="1.17185">
        <ele>134.2</ele>
        <time>2017-09-17T09:49:35Z</time>
      </trkpt>
      <trkpt lat="49.21006" lon="1.17181">
        <ele>134.4</ele>
        <time>2017-09-17T09:49:41Z</time>
      </trkpt>
      <trkpt lat="49.20996" lon="1.17182">
        <ele>134.4</ele>
        <time>2017-09-17T09:49:45Z</time>
      </trkpt>
      <trkpt lat="49.20991" lon="1.17195">
        <ele>134.2</ele>
        <time>2017-09-17T09:49:50Z</time>
      </trkpt>
      <trkpt lat="49.20991" lon="1.17203">
        <ele>134.3</ele>
        <time>2017-09-17T09:50:00Z</time>
      </trkpt>
    </trkseg>
  </trk>
</gpx>